# Wetter Temperatur Luftdruck Luftfeuchtigkeit Sichtweite Windgeschwindigkeit Windrichtung Zeit
1 Smoke 30 1011 48 2500 2.57 20 15:55 01.02.2023
2 Smoke 29 1010 54 3000 2.06 310 13:42 01.02.2023
3 Smoke 29 1010 52 3000 4.12 320 13:19 01.02.2023
4 Smoke 31 1009 45 3000 4.63 290 12:26 01.02.2023
5 Smoke 33 1011 31 3000 3.09 20 09:54 01.02.2023
6 Smoke 29 1014 39 2800 4.63 60 06:19 01.02.2023
7 Haze 27 1011 50 2500 2.57 40 22:21 31.01.2023
8 Haze 26 1012 69 2200 2.06 220 20:29 31.01.2023
9 Haze 26 1012 65 3000 1.54 0 19:24 31.01.2023
10 Haze 28 1012 61 2500 3.09 20 16:42 31.01.2023
11 Smoke 28 1011 61 2500 2.06 360 15:36 31.01.2023
12 Haze 28 1011 61 2500 3.09 340 15:18 31.01.2023
13 Smoke 30 1010 51 3000 5.66 310 12:48 31.01.2023
14 Smoke 30 1010 48 3000 6.17 290 11:26 31.01.2023
15 Smoke 33 1011 33 3000 5.14 300 09:55 31.01.2023
16 Smoke 32 1012 37 3000 4.63 280 09:25 31.01.2023
17 Smoke 31 1013 40 2500 3.6 10 08:35 31.01.2023
18 Smoke 27 1015 54 2200 3.6 40 06:20 31.01.2023
19 Haze 23 1012 68 2200 3.6 340 00:25 31.01.2023
20 Haze 23 1012 68 2200 1.54 10 23:24 30.01.2023
21 Haze 23 1012 73 2200 2.57 340 22:47 30.01.2023
22 Haze 24 1013 69 2100 2.57 350 21:30 30.01.2023
23 Haze 24 1013 73 1700 0 0 20:42 30.01.2023
24 Haze 25 1014 73 1900 2.57 290 18:26 30.01.2023
25 Haze 26 1014 65 1800 3.09 340 16:58 30.01.2023
26 Smoke 27 1012 61 2200 3.6 340 14:35 30.01.2023
27 Smoke 27 1012 61 2200 5.14 330 13:39 30.01.2023
28 Smoke 26 1011 69 3000 5.66 310 11:30 30.01.2023
29 Smoke 30 1011 48 3000 4.63 290 10:19 30.01.2023
30 Smoke 29 1012 54 3000 5.14 300 09:52 30.01.2023
31 Haze 29 1014 48 2500 4.12 270 08:18 30.01.2023
32 Haze 23 1012 83 2200 0 0 02:33 30.01.2023
33 Haze 23 1011 88 2500 0 0 23:35 29.01.2023
34 Mist 23 1011 88 2500 2.06 360 22:56 29.01.2023
35 Mist 24 1011 83 2200 1.54 270 22:21 29.01.2023
36 Haze 24 1012 83 2200 1.54 330 20:52 29.01.2023
37 Haze 24 1012 83 2200 1.54 330 20:18 29.01.2023
38 Mist 24 1012 78 2200 2.57 320 19:32 29.01.2023
39 Mist 25 1012 83 2200 3.09 350 17:52 29.01.2023
40 Mist 25 1011 83 2200 2.57 320 16:22 29.01.2023
41 Haze 25 1010 83 2200 2.57 220 15:50 29.01.2023
42 Haze 26 1008 80 2200 5.14 320 13:39 29.01.2023
43 Haze 27 1008 74 2200 5.14 290 12:58 29.01.2023
44 Haze 27 1018 74 2200 5.14 320 12:36 29.01.2023
45 Haze 27 1018 74 2200 5.14 320 12:18 29.01.2023
46 Haze 27 1008 78 1800 5.14 290 11:36 29.01.2023
47 Haze 27 1008 69 1800 4.12 290 10:38 29.01.2023
48 Haze 28 1011 61 2200 3.09 240 07:57 29.01.2023
49 Haze 24 1011 88 1500 2.06 120 03:43 29.01.2023
50 Haze 24 1009 94 2500 1.03 0 23:50 28.01.2023
51 Haze 25 1010 94 2500 2.06 170 20:52 28.01.2023
52 Haze 26 1011 89 3000 0 0 19:54 28.01.2023
53 Haze 26 1011 89 3000 0 0 18:52 28.01.2023
54 Haze 26 1011 89 3000 3.09 240 17:42 28.01.2023
55 Haze 26 1010 89 3000 2.57 210 16:41 28.01.2023
56 Haze 26 1010 89 3000 2.57 210 16:19 28.01.2023
57 Haze 26 1009 78 3000 2.57 240 15:22 28.01.2023
58 Smoke 28 1008 57 4000 3.09 260 13:49 28.01.2023
59 Smoke 30 1008 45 4500 5.14 250 12:21 28.01.2023
60 Smoke 32 1009 29 4000 5.14 220 10:35 28.01.2023
61 Smoke 31 1009 40 3500 5.14 240 09:35 28.01.2023
62 Haze 24 1010 73 1800 0 0 02:28 28.01.2023
63 Mist 24 1009 78 1600 2.06 140 00:28 28.01.2023
64 Mist 24 1009 78 1600 0 0 23:34 27.01.2023
65 Haze 26 1011 69 1800 2.06 240 19:48 27.01.2023
66 Smoke 27 1012 57 2100 2.57 90 17:58 27.01.2023
67 Haze 27 1012 61 2100 1.54 30 17:21 27.01.2023
68 Smoke 27 1012 57 2500 2.06 280 16:57 27.01.2023
69 Smoke 28 1010 54 2500 1.54 340 15:37 27.01.2023
70 Smoke 28 1010 57 2100 4.12 310 14:27 27.01.2023
71 Smoke 28 1009 56 2100 4.12 310 13:36 27.01.2023
72 Smoke 32 1009 43 2200 5.14 250 10:20 27.01.2023
73 Smoke 32 1011 40 2500 3.6 270 08:34 27.01.2023
74 Mist 21 1010 83 1600 1.54 0 00:40 27.01.2023
75 Haze 22 1011 78 1800 1.54 240 22:43 26.01.2023
76 Haze 23 1012 68 1800 0 0 20:57 26.01.2023
77 Haze 23 1012 68 1800 0 0 20:26 26.01.2023
78 Haze 24 1013 64 1800 1.54 330 18:20 26.01.2023
79 Haze 25 1012 61 1900 2.06 50 16:57 26.01.2023
80 Haze 25 1012 61 1800 1.54 340 16:24 26.01.2023
81 Haze 25 1012 61 1800 2.57 330 15:43 26.01.2023
82 Smoke 25 1011 61 2100 2.06 310 15:24 26.01.2023
83 Smoke 25 1010 55 2100 2.57 310 13:54 26.01.2023
84 Smoke 27 1010 56 2100 5.14 310 12:33 26.01.2023
85 Smoke 29 1010 42 2200 5.14 300 10:56 26.01.2023
86 Smoke 29 1010 39 2200 4.63 280 10:26 26.01.2023
87 Smoke 29 1011 39 2200 4.63 300 09:42 26.01.2023
88 Smoke 27 1012 41 2200 4.12 280 08:25 26.01.2023
89 Haze 20 1012 60 2200 1.54 350 23:58 25.01.2023
90 Haze 20 1012 60 2200 1.54 350 23:37 25.01.2023
91 Smoke 20 1012 64 2200 2.06 350 21:54 25.01.2023
92 Smoke 21 1013 64 2200 0 0 21:20 25.01.2023
93 Smoke 22 1013 56 2200 2.06 70 18:31 25.01.2023
94 Smoke 22 1013 56 2100 3.6 350 17:29 25.01.2023
95 Smoke 23 1012 56 1800 3.6 340 15:40 25.01.2023
96 Smoke 25 1011 41 2500 5.14 310 12:51 25.01.2023
97 Smoke 25 1011 41 2500 6.69 320 10:46 25.01.2023
98 Smoke 26 1012 38 2500 5.66 300 09:41 25.01.2023
99 Smoke 25 1014 36 2100 4.12 300 07:18 25.01.2023
100 Smoke 19 1013 59 2500 2.57 350 01:29 25.01.2023
101 Smoke 20 1012 52 2500 2.57 10 00:21 25.01.2023
102 Smoke 20 1013 56 2500 0 0 21:32 24.01.2023
103 Smoke 21 1013 49 2500 2.06 330 20:19 24.01.2023
104 Smoke 22 1014 53 2500 2.06 30 18:42 24.01.2023
105 Smoke 22 1014 56 2500 3.6 330 17:30 24.01.2023
106 Smoke 22 1014 56 2500 3.09 320 16:53 24.01.2023
107 Smoke 23 1013 53 3000 3.09 300 15:21 24.01.2023
108 Smoke 24 1011 43 3000 4.12 320 13:22 24.01.2023
109 Smoke 25 1011 44 3000 5.14 290 11:21 24.01.2023
110 Smoke 25 1014 36 3000 4.63 310 08:24 24.01.2023
111 Smoke 25 1014 36 2500 4.63 300 07:54 24.01.2023
112 Smoke 25 1014 36 2500 4.63 300 07:54 24.01.2023
113 Smoke 24 1015 38 2500 4.12 320 07:26 24.01.2023
114 Clear 20 1013 53 10000 4.05 7 02:38 24.01.2023
115 Smoke 20 1011 49 3000 2.57 340 00:35 24.01.2023
116 Smoke 20 1012 56 3000 0 0 22:28 23.01.2023
117 Smoke 20 1013 45 3000 1.54 300 19:55 23.01.2023
118 Smoke 21 1013 46 3000 2.06 300 18:58 23.01.2023
119 Smoke 22 1013 49 3000 4.63 330 16:40 23.01.2023
120 Smoke 22 1012 53 3500 3.6 350 15:26 23.01.2023
121 Smoke 24 1011 46 3500 5.14 320 13:55 23.01.2023
122 Smoke 24 1010 50 3000 5.66 320 12:55 23.01.2023
123 Smoke 25 1010 50 3000 6.69 310 11:45 23.01.2023
124 Smoke 25 1011 47 3000 6.17 320 10:55 23.01.2023
125 Smoke 27 1013 34 2500 4.63 310 08:24 23.01.2023
126 Smoke 20 1012 56 3000 0 0 23:53 22.01.2023
127 Smoke 21 1013 52 3000 2.06 360 21:51 22.01.2023
128 Smoke 21 1013 52 3000 1.54 350 21:19 22.01.2023
129 Smoke 22 1013 49 3000 2.06 180 19:55 22.01.2023
130 Smoke 22 1013 49 3000 2.06 180 19:37 22.01.2023
131 Smoke 22 1014 46 3000 0 0 18:36 22.01.2023
132 Smoke 22 1014 46 3000 2.57 50 17:55 22.01.2023
133 Smoke 22 1014 46 3000 1.54 20 17:24 22.01.2023
134 Smoke 23 1012 46 3000 3.6 330 15:26 22.01.2023
135 Smoke 23 1012 46 3500 2.57 320 14:34 22.01.2023
136 Smoke 25 1011 41 4000 6.17 330 13:27 22.01.2023
137 Smoke 26 1011 38 5000 5.14 320 12:30 22.01.2023
138 Smoke 26 1011 38 5000 5.14 310 11:33 22.01.2023
139 Smoke 27 1012 36 3500 5.66 260 09:35 22.01.2023
140 Smoke 23 1016 40 3000 3.09 350 05:41 22.01.2023
141 Smoke 22 1012 56 2500 2.06 10 23:49 21.01.2023
142 Smoke 22 1013 53 2500 2.06 10 23:29 21.01.2023
143 Smoke 23 1014 43 2500 0 0 21:35 21.01.2023
144 Smoke 24 1014 43 3000 3.09 270 18:55 21.01.2023
145 Smoke 24 1014 57 3000 3.09 340 16:41 21.01.2023
146 Smoke 26 1012 36 3500 3.09 320 14:24 21.01.2023
147 Smoke 29 1012 23 3000 5.66 290 12:57 21.01.2023
148 Smoke 28 1012 34 3000 4.63 300 11:42 21.01.2023
149 Smoke 28 1012 39 3000 4.12 290 10:49 21.01.2023
150 Smoke 27 1014 47 3000 5.14 250 08:50 21.01.2023
151 Mist 22 1015 78 2100 2.06 150 04:31 21.01.2023
152 Haze 22 1013 78 2500 0 0 22:28 20.01.2023
153 Haze 23 1013 73 2500 0 0 21:38 20.01.2023
154 Haze 23 1014 73 2500 0 0 20:56 20.01.2023
155 Haze 24 1014 64 2500 2.57 30 19:31 20.01.2023
156 Clouds 24 1014 60 10000 3.14 332 16:39 20.01.2023
157 Smoke 26 1012 53 3000 3.09 300 14:46 20.01.2023
158 Smoke 27 1012 47 3000 3.6 300 13:51 20.01.2023
159 Smoke 29 1012 37 3000 5.14 260 10:24 20.01.2023
160 Smoke 28 1014 47 2500 5.14 260 08:51 20.01.2023
161 Haze 25 1016 50 2200 2.06 340 05:54 20.01.2023
162 Mist 21 1013 88 1800 2.06 60 02:30 20.01.2023
163 Haze 22 1012 73 1800 0 0 22:33 19.01.2023
164 Haze 23 1013 68 1800 0 0 20:32 19.01.2023
165 Mist 24 1014 73 1800 2.06 340 19:28 19.01.2023
166 Haze 25 1013 61 2100 1.54 300 16:29 19.01.2023
167 Smoke 29 1011 45 3000 3.6 260 12:50 19.01.2023
168 Smoke 28 1013 44 2500 4.63 270 09:36 19.01.2023
169 Haze 21 1013 78 2100 2.57 120 00:45 19.01.2023
170 Haze 22 1014 68 2100 0 0 21:22 18.01.2023
171 Haze 23 1014 68 2100 1.54 220 20:20 18.01.2023
172 Haze 23 1014 68 2100 0 0 19:37 18.01.2023
173 Smoke 24 1015 64 2100 0 0 17:51 18.01.2023
174 Haze 25 1014 69 2100 2.06 350 15:48 18.01.2023
175 Smoke 28 1012 39 2200 3.6 300 13:30 18.01.2023
176 Smoke 29 1011 42 2200 4.63 250 11:28 18.01.2023
177 Smoke 30 1013 39 1800 5.14 260 09:22 18.01.2023
178 Haze 20 1013 68 2500 0 0 02:29 18.01.2023
179 Haze 21 1012 73 2500 1.54 170 00:19 18.01.2023
180 Haze 22 1013 68 2200 1.54 130 20:56 17.01.2023
181 Haze 22 1014 68 2200 0 0 19:35 17.01.2023
182 Haze 22 1014 73 2200 0 0 18:41 17.01.2023
183 Haze 24 1014 64 2200 2.57 360 17:31 17.01.2023
184 Smoke 24 1012 57 1800 3.09 320 15:20 17.01.2023
185 Smoke 25 1012 57 2200 3.09 290 14:24 17.01.2023
186 Clear 23 1012 56 10000 4.9 328 13:31 17.01.2023
187 Smoke 28 1011 39 2500 4.12 300 11:44 17.01.2023
188 Smoke 28 1012 42 2200 4.63 270 09:35 17.01.2023
189 Smoke 28 1013 44 1500 3.09 260 08:20 17.01.2023
190 Haze 24 1015 57 1200 1.54 330 05:52 17.01.2023
191 Haze 20 1011 77 2500 1.54 170 00:58 17.01.2023
192 Haze 20 1011 73 2200 2.06 110 23:50 16.01.2023
193 Haze 21 1012 73 2200 2.06 170 22:19 16.01.2023
194 Haze 21 1013 73 2200 0 0 20:50 16.01.2023
195 Haze 22 1013 68 2200 0 0 19:42 16.01.2023
196 Haze 22 1013 68 2500 2.06 340 18:55 16.01.2023
197 Haze 22 1013 73 2500 2.57 40 18:26 16.01.2023
198 Haze 22 1013 73 2500 1.54 330 17:55 16.01.2023
199 Haze 23 1013 68 2500 2.06 320 17:19 16.01.2023
200 Smoke 25 1011 57 3500 4.63 270 13:40 16.01.2023
201 Smoke 27 1010 41 3500 3.6 260 11:58 16.01.2023
202 Smoke 27 1011 41 3000 4.63 270 10:21 16.01.2023
203 Haze 22 1015 60 1800 2.57 340 05:22 16.01.2023
204 Haze 21 1011 68 2100 1.54 90 22:28 15.01.2023
205 Haze 21 1011 68 2200 0 0 20:48 15.01.2023
206 Haze 21 1012 73 2200 0 0 20:24 15.01.2023
207 Haze 23 1012 64 2500 2.57 30 18:40 15.01.2023
208 Haze 23 1012 60 3000 0 0 16:42 15.01.2023
209 Smoke 26 1010 47 3000 4.12 280 13:25 15.01.2023
210 Smoke 27 1010 41 3000 4.12 320 11:40 15.01.2023
211 Smoke 26 1010 41 3000 4.12 280 10:52 15.01.2023
212 Smoke 26 1010 41 3000 4.12 290 10:21 15.01.2023
213 Haze 18 1012 63 2500 1.54 60 01:55 15.01.2023
214 Smoke 19 1012 59 2500 0 0 23:27 14.01.2023
215 Smoke 19 1012 59 2500 1.54 110 22:31 14.01.2023
216 Smoke 19 1013 59 3000 0 0 21:36 14.01.2023
217 Smoke 19 1013 59 3000 0 0 21:36 14.01.2023
218 Smoke 19 1013 55 3000 0 0 21:18 14.01.2023
219 Smoke 20 1013 52 3000 2.06 340 20:40 14.01.2023
220 Smoke 20 1014 52 3000 2.06 80 19:53 14.01.2023
221 Smoke 21 1014 49 3000 1.54 340 17:42 14.01.2023
222 Smoke 22 1013 49 3000 4.12 340 15:30 14.01.2023
223 Smoke 23 1013 43 3000 5.14 330 14:26 14.01.2023
224 Smoke 23 1012 43 3000 5.14 330 13:43 14.01.2023
225 Smoke 25 1012 38 3000 5.66 310 12:23 14.01.2023
226 Smoke 26 1012 34 3000 5.66 330 10:47 14.01.2023
227 Smoke 25 1014 41 2500 4.63 240 08:19 14.01.2023
228 Smoke 20 1013 56 3000 2.57 40 23:56 13.01.2023
229 Smoke 20 1013 56 3000 3.6 10 22:58 13.01.2023
230 Smoke 20 1013 56 3000 3.6 10 22:40 13.01.2023
231 Smoke 20 1014 60 3000 3.09 20 21:56 13.01.2023
232 Smoke 21 1014 60 3000 3.6 30 20:24 13.01.2023
233 Haze 22 1015 60 3000 3.09 340 18:54 13.01.2023
234 Haze 23 1015 60 3000 3.6 350 16:57 13.01.2023
235 Haze 23 1013 64 3000 3.09 320 14:45 13.01.2023
236 Smoke 27 1012 50 3500 5.14 290 12:21 13.01.2023
237 Smoke 26 1013 47 3500 3.6 310 10:34 13.01.2023
238 Smoke 27 1013 44 3500 3.6 290 09:55 13.01.2023
239 Smoke 27 1013 44 3500 3.6 290 09:35 13.01.2023
240 Smoke 26 1014 47 3500 4.12 270 08:49 13.01.2023
241 Smoke 25 1016 47 3000 3.09 320 06:56 13.01.2023
242 Smoke 24 1017 53 3000 5.66 360 05:45 13.01.2023
243 Mist 23 1013 88 2500 1.54 20 00:48 13.01.2023
244 Mist 23 1013 88 2500 1.54 10 22:46 12.01.2023
245 Mist 24 1013 83 2500 2.06 350 20:57 12.01.2023
246 Mist 23 1014 88 2500 2.06 330 20:30 12.01.2023
247 Mist 24 1014 78 2500 3.6 310 18:26 12.01.2023
248 Haze 24 1014 69 2500 2.57 300 16:48 12.01.2023
249 Smoke 25 1012 61 3000 3.6 310 14:54 12.01.2023
250 Smoke 26 1012 57 3000 5.14 300 14:26 12.01.2023
251 Smoke 28 1011 44 4000 3.6 300 13:38 12.01.2023
252 Smoke 29 1011 45 4000 4.63 300 11:44 12.01.2023
253 Smoke 29 1011 48 3000 5.14 300 10:24 12.01.2023
254 Smoke 28 1015 36 2200 3.6 310 07:26 12.01.2023
255 Haze 22 1012 60 2200 0 0 00:31 12.01.2023
256 Haze 22 1012 60 2200 0 0 23:48 11.01.2023
257 Haze 22 1012 60 2200 1.54 340 23:30 11.01.2023
258 Smoke 23 1012 49 2000 3.09 10 22:55 11.01.2023
259 Smoke 23 1013 43 2000 0 0 21:21 11.01.2023
260 Smoke 26 1014 44 2500 0 0 18:51 11.01.2023
261 Smoke 26 1014 44 2500 2.06 330 17:31 11.01.2023
262 Smoke 26 1013 47 2500 2.06 310 15:38 11.01.2023
263 Smoke 27 1012 47 2500 4.12 320 13:56 11.01.2023
264 Smoke 29 1012 39 3000 4.63 280 12:33 11.01.2023
265 Smoke 30 1012 32 3000 4.12 280 11:24 11.01.2023
266 Smoke 30 1014 37 2200 4.63 280 08:50 11.01.2023
267 Smoke 30 1015 28 2500 3.09 270 07:29 11.01.2023
268 Smoke 28 1016 34 2100 2.06 90 06:23 11.01.2023
269 Smoke 21 1012 68 2200 0 0 23:45 10.01.2023
270 Smoke 23 1013 60 2500 0 0 22:19 10.01.2023
271 Smoke 24 1013 50 2500 1.54 0 21:20 10.01.2023
272 Smoke 25 1014 47 3000 1.54 230 19:54 10.01.2023
273 Smoke 25 1014 50 3000 2.06 190 19:21 10.01.2023
274 Smoke 26 1015 44 3000 1.54 80 18:31 10.01.2023
275 Smoke 26 1015 47 3000 3.09 10 17:20 10.01.2023
276 Smoke 28 1014 34 3000 4.12 340 15:33 10.01.2023
277 Smoke 28 1013 36 3000 2.57 20 14:47 10.01.2023
278 Smoke 30 1013 32 3500 4.12 290 13:25 10.01.2023
279 Smoke 29 1014 51 5000 4.12 280 10:36 10.01.2023
280 Smoke 32 1016 14 3500 4.12 20 08:37 10.01.2023
281 Smoke 30 1017 21 3000 2.57 50 07:56 10.01.2023
282 Smoke 30 1017 21 3000 4.12 30 07:24 10.01.2023
283 Smoke 23 1015 49 3000 0 0 00:29 10.01.2023
284 Smoke 24 1015 50 3000 0 0 21:58 09.01.2023
285 Smoke 24 1016 50 3000 0 0 20:55 09.01.2023
286 Smoke 25 1016 47 3000 2.06 120 20:18 09.01.2023
287 Smoke 26 1017 44 3000 2.57 30 18:30 09.01.2023
288 Smoke 26 1017 47 3000 3.6 10 17:49 09.01.2023
289 Smoke 26 1016 47 3500 2.57 330 16:34 09.01.2023
290 Smoke 27 1016 41 3500 3.6 350 15:36 09.01.2023
291 Smoke 27 1015 39 3500 3.6 330 14:59 09.01.2023
292 Smoke 27 1015 39 3500 3.6 330 14:59 09.01.2023
293 Smoke 27 1015 39 3500 3.6 330 14:41 09.01.2023
294 Smoke 29 1014 30 5000 4.12 320 12:54 09.01.2023
295 Smoke 30 1014 35 5000 5.66 300 11:52 09.01.2023
296 Smoke 31 1014 27 4000 4.63 300 11:19 09.01.2023
297 Smoke 29 1018 24 2500 3.09 80 06:58 09.01.2023
298 Smoke 24 1016 41 2500 2.06 80 02:55 09.01.2023
299 Smoke 25 1015 38 3000 2.57 60 00:59 09.01.2023
300 Smoke 26 1015 38 3000 2.06 40 22:29 08.01.2023
301 Smoke 26 1015 41 3000 1.54 80 21:22 08.01.2023
302 Smoke 26 1015 41 3000 1.54 80 20:37 08.01.2023
303 Smoke 28 1016 39 3000 3.6 40 18:51 08.01.2023
304 Smoke 27 1015 47 3000 2.57 360 17:22 08.01.2023
305 Smoke 27 1015 54 3000 2.57 340 16:43 08.01.2023
306 Smoke 28 1014 47 3000 3.6 350 15:36 08.01.2023
307 Smoke 29 1013 39 4000 3.6 330 13:58 08.01.2023
308 Smoke 29 1013 39 4000 5.14 330 13:31 08.01.2023
309 Smoke 30 1013 37 4000 5.14 310 12:49 08.01.2023
310 Smoke 32 1013 31 3500 4.63 290 10:37 08.01.2023
311 Smoke 31 1015 30 3000 2.06 60 09:36 08.01.2023
312 Smoke 31 1016 33 2500 4.63 60 07:48 08.01.2023
313 Smoke 26 1014 57 2000 1.54 80 00:24 08.01.2023
314 Smoke 26 1014 57 2000 1.03 0 22:48 07.01.2023
315 Smoke 27 1015 54 2000 0 0 22:24 07.01.2023
316 Haze 26 1015 65 2000 0 0 21:48 07.01.2023
317 Haze 27 1015 61 2000 1.03 0 20:46 07.01.2023
318 Haze 26 1015 69 2000 1.54 0 20:22 07.01.2023
319 Haze 27 1016 65 2200 1.54 10 18:45 07.01.2023
320 Smoke 28 1016 57 2200 3.09 350 17:51 07.01.2023
321 Smoke 28 1016 57 2200 3.09 340 17:28 07.01.2023
322 Smoke 28 1016 57 2200 2.57 330 16:37 07.01.2023
323 Haze 29 1015 58 2100 2.06 330 15:49 07.01.2023
324 Haze 29 1015 58 2100 3.09 330 15:27 07.01.2023
325 Haze 29 1015 58 2100 2.57 310 14:28 07.01.2023
326 Haze 29 1014 61 2100 2.57 280 13:54 07.01.2023
327 Smoke 29 1014 58 2200 3.6 280 13:26 07.01.2023
328 Smoke 30 1014 54 2200 4.12 260 12:23 07.01.2023
329 Smoke 30 1014 54 2200 4.12 270 11:50 07.01.2023
330 Haze 32 1015 40 2500 3.6 270 10:25 07.01.2023
331 Smoke 30 1017 45 2500 2.57 130 08:27 07.01.2023
332 Smoke 29 1018 48 2200 3.09 130 07:44 07.01.2023
333 Smoke 29 1018 48 2200 3.6 70 07:19 07.01.2023
334 Haze 26 1016 61 2100 4.12 80 02:49 07.01.2023
335 Smoke 26 1015 61 2500 1.54 70 22:24 06.01.2023
336 Smoke 26 1016 61 2500 1.54 60 22:00 06.01.2023
337 Smoke 27 1016 57 2500 1.54 90 21:26 06.01.2023
338 Smoke 28 1016 47 2500 2.06 90 19:58 06.01.2023
339 Smoke 28 1017 51 2500 1.54 100 19:40 06.01.2023
340 Smoke 28 1017 51 2500 1.54 100 19:22 06.01.2023
341 Smoke 28 1017 54 2500 2.06 40 18:42 06.01.2023
342 Smoke 28 1017 57 2500 3.09 350 17:21 06.01.2023
343 Smoke 28 1016 57 3000 3.09 350 16:32 06.01.2023
344 Smoke 28 1016 54 3000 3.6 340 15:56 06.01.2023
345 Smoke 28 1016 54 3000 3.6 340 15:38 06.01.2023
346 Smoke 29 1015 51 3000 2.06 330 14:52 06.01.2023
347 Smoke 32 1014 40 3000 3.6 300 12:37 06.01.2023
348 Smoke 33 1014 35 3000 3.09 150 10:58 06.01.2023
349 Smoke 32 1016 37 2500 3.6 130 08:56 06.01.2023
350 Smoke 31 1018 45 2200 4.63 110 07:44 06.01.2023
351 Haze 24 1015 69 1800 2.57 80 01:43 06.01.2023
352 Haze 25 1015 69 1800 2.06 110 22:55 05.01.2023
353 Haze 25 1015 69 1800 0 0 21:54 05.01.2023
354 Haze 26 1016 61 2100 0 0 19:32 05.01.2023
355 Haze 26 1016 61 2100 1.54 350 17:28 05.01.2023
356 Haze 27 1015 57 2100 1.54 320 16:21 05.01.2023
357 Haze 27 1015 57 2100 1.54 340 15:46 05.01.2023
358 Haze 27 1014 65 2100 2.57 330 14:47 05.01.2023
359 Smoke 29 1013 54 2100 4.12 260 12:43 05.01.2023
360 Smoke 29 1013 54 2100 3.6 260 11:51 05.01.2023
361 Haze 31 1014 48 2100 3.6 270 09:55 05.01.2023
362 Smoke 30 1015 45 2500 3.09 120 08:31 05.01.2023
363 Smoke 29 1016 48 2500 3.6 100 07:20 05.01.2023
364 Smoke 25 1016 57 1800 2.57 20 05:20 05.01.2023
365 Haze 23 1012 64 2500 0 0 23:19 04.01.2023
366 Haze 24 1013 60 2500 2.57 120 21:33 04.01.2023
367 Haze 25 1013 65 2200 3.09 120 20:47 04.01.2023
368 Haze 25 1014 69 2500 1.54 110 19:56 04.01.2023
369 Haze 25 1014 61 2500 0 0 19:33 04.01.2023
370 Smoke 26 1014 53 2500 3.09 130 18:37 04.01.2023
371 Haze 25 1013 65 2500 0 0 16:32 04.01.2023
372 Haze 25 1013 65 2500 0 0 16:32 04.01.2023
373 Smoke 26 1013 57 2500 0 0 15:48 04.01.2023
374 Haze 26 1012 57 2500 2.57 320 14:22 04.01.2023
375 Smoke 29 1011 48 3000 5.14 280 11:41 04.01.2023
376 Smoke 29 1011 48 3000 5.14 280 11:20 04.01.2023
377 Haze 29 1012 45 3000 4.12 270 10:43 04.01.2023
378 Haze 29 1012 48 3000 5.14 260 10:22 04.01.2023
379 Smoke 30 1013 39 2500 3.09 280 08:49 04.01.2023
380 Haze 21 1014 78 2100 1.54 190 02:53 04.01.2023
381 Haze 21 1013 73 2200 1.54 130 00:32 04.01.2023
382 Haze 21 1013 73 2200 0 0 23:35 03.01.2023
383 Haze 22 1014 73 2200 2.57 20 22:44 03.01.2023
384 Haze 23 1015 73 2200 0 0 20:53 03.01.2023
385 Haze 24 1015 64 2200 0 0 19:23 03.01.2023
386 Haze 24 1016 69 2500 2.57 340 17:36 03.01.2023
387 Haze 25 1016 65 2500 4.12 340 16:36 03.01.2023
388 Smoke 28 1013 44 2500 3.09 300 13:55 03.01.2023
389 -273 0 0 0 0 0 13:30 03.01.2023
390 Smoke 29 1013 42 3000 3.09 300 13:30 03.01.2023
391 Smoke 29 1013 45 3000 4.12 300 12:57 03.01.2023
392 Smoke 29 1012 45 3000 3.6 300 12:30 03.01.2023
393 Smoke 30 1013 45 2500 5.66 260 10:32 03.01.2023
394 Smoke 29 1016 42 1700 3.09 260 07:29 03.01.2023
395 Haze 23 1016 60 1500 2.57 120 04:22 03.01.2023
396 Haze 22 1016 64 1500 2.57 140 03:43 03.01.2023
397 Haze 22 1015 68 2100 2.57 270 01:39 03.01.2023
398 Haze 22 1014 73 2200 0 0 22:42 02.01.2023
399 Haze 22 1014 73 2200 0 0 22:18 02.01.2023
400 Haze 23 1015 73 2200 0 0 20:40 02.01.2023
401 Haze 24 1016 69 2200 1.54 350 19:52 02.01.2023
402 Haze 25 1016 69 2500 2.06 320 17:29 02.01.2023
403 Smoke 27 1015 57 2500 1.54 330 15:19 02.01.2023
404 Smoke 29 1013 45 3000 3.09 310 13:23 02.01.2023
405 Smoke 31 1013 37 3000 5.14 310 11:41 02.01.2023
406 Smoke 31 1013 37 3000 4.63 270 10:34 02.01.2023
407 Smoke 29 1017 34 2500 3.6 50 07:33 02.01.2023
408 Haze 22 1014 68 2500 1.54 40 00:58 02.01.2023
409 Haze 22 1014 68 2500 2.57 130 22:20 01.01.2023
410 Haze 22 1015 68 2500 0 0 21:28 01.01.2023
411 Haze 22 1015 68 2500 0 0 20:47 01.01.2023
412 Haze 24 1016 60 2500 2.57 50 19:42 01.01.2023
413 Haze 23 1017 64 2500 2.06 330 17:56 01.01.2023
414 Haze 24 1017 60 2500 2.57 10 17:21 01.01.2023
415 Haze 24 1016 64 2500 2.06 50 16:32 01.01.2023
416 Smoke 24 1015 64 2500 2.57 310 14:53 01.01.2023
417 Smoke 25 1015 53 3000 3.6 310 13:38 01.01.2023
418 Smoke 26 1014 50 3000 6.17 310 12:40 01.01.2023
419 Smoke 27 1014 47 3000 5.66 290 11:36 01.01.2023
420 Smoke 28 1014 44 3000 5.14 260 10:35 01.01.2023
421 Smoke 28 1016 39 3000 4.63 300 08:49 01.01.2023
422 Smoke 29 1017 24 3000 4.12 280 08:18 01.01.2023
423 Smoke 25 1019 38 2500 2.57 310 06:58 01.01.2023
424 Smoke 21 1016 64 2500 1.54 170 01:42 01.01.2023
425 Haze 21 1015 64 3000 0 0 23:42 31.12.2022
426 Haze 22 1015 60 3000 2.06 340 22:33 31.12.2022
427 Haze 22 1016 60 3000 2.06 350 21:34 31.12.2022
428 Smoke 23 1016 60 3000 2.57 360 20:52 31.12.2022
429 Smoke 23 1017 60 3000 3.09 340 19:33 31.12.2022
430 Smoke 24 1017 46 3000 2.06 340 18:42 31.12.2022
431 Smoke 24 1017 46 3000 2.06 340 18:18 31.12.2022
432 Smoke 24 1017 46 3000 2.06 330 17:45 31.12.2022
433 Smoke 25 1016 47 3000 3.6 330 16:42 31.12.2022
434 Smoke 25 1016 47 3000 3.6 330 16:20 31.12.2022
435 Smoke 26 1015 47 3500 4.12 320 14:39 31.12.2022
436 Smoke 28 1014 44 4000 4.12 290 13:33 31.12.2022
437 Smoke 29 1014 42 4000 4.12 320 12:39 31.12.2022
438 Smoke 29 1014 42 4000 4.12 320 12:19 31.12.2022
439 Smoke 29 1014 42 4000 4.12 320 12:19 31.12.2022
440 Smoke 29 1014 42 4000 6.17 310 11:50 31.12.2022
441 Smoke 30 1015 42 3500 4.63 290 10:34 31.12.2022
442 Smoke 30 1015 42 3000 5.14 300 09:53 31.12.2022
443 Smoke 30 1015 42 3000 5.14 310 09:18 31.12.2022
444 Smoke 29 1018 39 2500 2.57 290 07:22 31.12.2022
445 Haze 23 1016 73 1800 2.06 350 00:35 31.12.2022
446 Haze 24 1016 69 1800 0 0 23:45 30.12.2022
447 Haze 24 1016 73 1600 1.54 40 22:45 30.12.2022
448 Haze 24 1016 64 1800 0 0 21:42 30.12.2022
449 Haze 25 1017 65 1800 0 0 21:22 30.12.2022
450 Haze 26 1017 61 1800 0 0 18:57 30.12.2022
451 Smoke 26 1018 65 2500 0 0 17:42 30.12.2022
452 Smoke 26 1018 65 2500 2.06 10 17:23 30.12.2022
453 Smoke 27 1017 57 2500 1.54 290 15:50 30.12.2022
454 Smoke 28 1016 51 3000 3.09 310 14:35 30.12.2022
455 Smoke 31 1015 42 2500 4.12 300 10:24 30.12.2022
456 Smoke 31 1018 45 2100 3.09 270 07:59 30.12.2022
457 Haze 23 1017 73 1800 2.57 180 02:41 30.12.2022
458 Haze 24 1016 64 1800 0 0 00:53 30.12.2022
459 Haze 24 1016 69 1800 0 0 22:50 29.12.2022
460 Haze 24 1016 73 1800 2.06 270 21:31 29.12.2022
461 Haze 26 1017 61 1700 0 0 20:54 29.12.2022
462 Haze 26 1017 61 1800 0 0 20:21 29.12.2022
463 Haze 26 1017 65 2100 2.06 310 18:26 29.12.2022
464 Haze 26 1017 65 2200 3.09 350 17:29 29.12.2022
465 Smoke 26 1017 65 2500 1.54 340 16:55 29.12.2022
466 Smoke 28 1016 51 3000 3.09 30 15:59 29.12.2022
467 Smoke 28 1016 54 3000 2.06 330 15:18 29.12.2022
468 Smoke 30 1015 30 3500 4.12 310 13:20 29.12.2022
469 Smoke 33 1014 19 3500 3.6 290 11:28 29.12.2022
470 Haze 31 1017 45 2200 3.6 280 07:43 29.12.2022
471 Haze 22 1015 73 2500 0 0 23:45 28.12.2022
472 Haze 23 1015 68 2500 0 0 23:26 28.12.2022
473 Haze 24 1015 64 2500 0 0 21:21 28.12.2022
474 Haze 25 1015 69 2100 2.06 200 20:24 28.12.2022
475 Haze 25 1016 69 2200 0 0 19:23 28.12.2022
476 Smoke 26 1016 57 3000 1.54 320 16:43 28.12.2022
477 Smoke 29 1013 48 3000 3.09 320 14:29 28.12.2022
478 Smoke 31 1013 37 3000 3.6 300 12:49 28.12.2022
479 Smoke 33 1013 21 3000 3.6 300 11:52 28.12.2022
480 Smoke 32 1013 43 3000 3.6 280 10:37 28.12.2022
481 Smoke 31 1016 40 2500 2.57 270 07:51 28.12.2022
482 Smoke 29 1017 48 2200 2.57 250 06:49 28.12.2022
483 Haze 22 1015 68 1500 1.54 30 03:43 28.12.2022
484 Haze 23 1014 64 1800 0 0 23:23 27.12.2022
485 Haze 24 1014 69 1800 1.54 40 19:58 27.12.2022
486 Haze 25 1015 65 1800 2.06 30 19:24 27.12.2022
487 Haze 26 1015 65 2200 2.06 350 17:20 27.12.2022
488 Haze 26 1015 65 2200 2.06 350 16:39 27.12.2022
489 Smoke 27 1013 50 2200 2.06 350 15:22 27.12.2022
490 Smoke 30 1012 48 2500 4.63 330 12:28 27.12.2022
491 Smoke 30 1012 39 2500 4.63 300 11:24 27.12.2022
492 Smoke 30 1012 48 2500 3.6 260 09:45 27.12.2022
493 Smoke 30 1013 51 2500 3.6 280 09:22 27.12.2022
494 Smoke 29 1015 48 2100 2.06 270 06:48 27.12.2022
495 Mist 21 1013 78 2100 0 0 00:43 27.12.2022
496 Mist 22 1013 78 2100 1.54 20 22:20 26.12.2022
497 Mist 23 1014 78 1800 0 0 20:46 26.12.2022
498 Mist 22 1014 83 1800 0 0 20:18 26.12.2022
499 Haze 24 1015 78 2100 2.06 340 18:43 26.12.2022
500 Haze 24 1015 78 2100 2.06 360 17:26 26.12.2022
501 Haze 25 1014 69 2100 1.54 340 15:44 26.12.2022
502 Smoke 27 1012 50 3000 3.09 300 12:59 26.12.2022
503 Smoke 28 1012 51 3000 3.6 250 11:45 26.12.2022
504 Smoke 26 1015 57 2200 2.57 240 06:42 26.12.2022
505 Haze 20 1011 83 2500 1.54 120 23:46 25.12.2022
506 Haze 21 1011 78 2500 0 0 22:57 25.12.2022
507 Haze 21 1011 78 2500 0 0 22:26 25.12.2022
508 Haze 22 1012 68 2500 0 0 20:40 25.12.2022
509 Haze 24 1013 60 2500 1.54 330 18:27 25.12.2022
510 Haze 24 1013 57 2500 2.06 340 17:51 25.12.2022
511 Smoke 24 1013 57 2500 1.54 310 17:33 25.12.2022
512 Haze 25 1011 57 2500 3.09 310 14:38 25.12.2022
513 Smoke 27 1010 36 3000 4.12 260 11:49 25.12.2022
514 Smoke 26 1013 38 2500 2.06 340 06:20 25.12.2022
515 Smoke 21 1011 60 2500 2.06 120 22:57 24.12.2022
516 Smoke 22 1012 53 3000 0 0 19:58 24.12.2022
517 Smoke 23 1012 49 3000 2.06 340 17:55 24.12.2022
518 Smoke 24 1012 43 3000 3.09 350 16:21 24.12.2022
519 Smoke 25 1010 41 4000 3.09 320 14:35 24.12.2022
520 Smoke 26 1010 38 4000 6.17 310 12:41 24.12.2022
521 Smoke 29 1010 26 4000 5.14 320 10:31 24.12.2022
522 Smoke 31 1010 19 4000 4.63 300 09:55 24.12.2022
523 Smoke 31 1010 19 4000 4.63 300 09:36 24.12.2022
524 Smoke 22 1013 46 2500 1.54 20 03:52 24.12.2022
525 Smoke 23 1011 49 3000 1.54 40 00:43 24.12.2022
526 Smoke 22 1011 56 3000 0 0 23:31 23.12.2022
527 Smoke 23 1011 49 3000 2.57 340 21:53 23.12.2022
528 Smoke 24 1012 50 3000 1.54 10 20:20 23.12.2022
529 Smoke 24 1012 53 3000 2.06 50 19:39 23.12.2022
530 Smoke 24 1012 53 3000 0 0 19:21 23.12.2022
531 Smoke 24 1012 53 3000 1.54 350 18:38 23.12.2022
532 Smoke 24 1012 53 3000 2.57 340 18:18 23.12.2022
533 Smoke 26 1011 53 3000 3.09 320 16:25 23.12.2022
534 Smoke 27 1010 39 3000 2.06 320 14:42 23.12.2022
535 Smoke 30 1009 42 3500 5.14 320 10:56 23.12.2022
536 Smoke 30 1010 45 3000 5.14 300 09:36 23.12.2022
537 Haze 29 1012 51 2500 4.63 310 07:45 23.12.2022
538 Haze 29 1012 48 2200 3.6 300 06:50 23.12.2022
539 Haze 26 1012 57 2200 0 0 05:20 23.12.2022
540 Haze 24 1010 69 3000 0 0 23:21 22.12.2022
541 Haze 25 1010 73 3000 1.54 240 21:57 22.12.2022
542 Haze 26 1010 65 3000 1.54 30 20:25 22.12.2022
543 Smoke 26 1011 61 3000 0 0 19:22 22.12.2022
544 Smoke 27 1011 61 3000 2.06 10 18:25 22.12.2022
545 Smoke 28 1011 54 3000 0 0 16:58 22.12.2022
546 Smoke 28 1010 54 3000 0 0 16:37 22.12.2022
547 Smoke 28 1010 51 3000 2.57 310 15:30 22.12.2022
548 Smoke 28 1010 54 3000 2.57 330 14:45 22.12.2022
549 Smoke 29 1008 54 3000 4.12 320 13:31 22.12.2022
550 Smoke 31 1008 42 3000 4.12 280 12:32 22.12.2022
551 Smoke 32 1009 43 2500 3.09 290 10:32 22.12.2022
552 Smoke 31 1009 48 2500 4.63 260 09:59 22.12.2022
553 Smoke 31 1009 48 2500 5.14 250 09:19 22.12.2022
554 Smoke 31 1009 48 2500 5.14 250 09:19 22.12.2022
555 Smoke 32 1011 35 2500 4.12 270 07:54 22.12.2022
556 Smoke 27 1011 54 2200 1.54 90 04:19 22.12.2022
557 Haze 24 1009 69 2200 0 0 00:51 22.12.2022
558 Haze 26 1010 65 2500 0 0 22:42 21.12.2022
559 Haze 26 1010 61 2500 0 0 21:51 21.12.2022
560 Smoke 26 1011 53 2500 0 0 21:20 21.12.2022
561 Smoke 26 1011 53 2500 0 0 20:45 21.12.2022
562 Smoke 26 1011 57 2500 0 0 19:58 21.12.2022
563 Smoke 27 1011 50 2500 2.57 90 19:39 21.12.2022
564 Smoke 27 1011 50 2500 2.57 90 19:20 21.12.2022
565 Smoke 27 1011 54 3000 2.57 130 18:43 21.12.2022
566 Smoke 28 1011 47 3000 0 0 17:34 21.12.2022
567 Smoke 29 1009 42 3500 3.09 320 14:24 21.12.2022
568 Smoke 31 1008 40 3500 4.12 320 12:33 21.12.2022
569 Smoke 31 1008 42 3500 4.12 270 11:41 21.12.2022
570 Smoke 31 1008 42 3500 4.12 270 11:19 21.12.2022
571 Smoke 32 1010 37 2500 3.6 280 08:51 21.12.2022
572 Smoke 31 1012 33 2500 2.06 130 06:55 21.12.2022
573 Haze 25 1009 57 2500 0 0 00:28 21.12.2022
574 Smoke 26 1009 53 2500 2.06 80 22:38 20.12.2022
575 Haze 27 1009 61 2500 2.06 120 20:58 20.12.2022
576 Haze 27 1010 61 2500 0 0 19:59 20.12.2022
577 Haze 27 1010 61 2500 0 0 18:49 20.12.2022
578 Haze 28 1010 57 2500 2.06 330 18:25 20.12.2022
579 Haze 28 1010 61 2500 1.54 340 17:51 20.12.2022
580 Haze 27 1010 65 3000 2.06 350 17:26 20.12.2022
581 Haze 28 1009 65 3000 3.09 340 16:20 20.12.2022
582 Smoke 29 1008 48 3500 2.57 330 14:56 20.12.2022
583 Smoke 29 1008 45 4000 2.06 310 14:36 20.12.2022
584 Smoke 30 1007 39 4000 2.57 320 13:52 20.12.2022
585 Smoke 31 1007 33 3000 5.14 330 12:40 20.12.2022
586 Smoke 32 1007 31 4000 4.63 310 11:55 20.12.2022
587 Smoke 33 1007 31 4000 4.63 300 10:42 20.12.2022
588 Smoke 33 1011 27 3000 2.06 270 07:31 20.12.2022
589 Smoke 26 1009 53 3000 1.54 70 00:23 20.12.2022
590 Smoke 27 1009 50 3000 2.06 80 22:36 19.12.2022
591 Clouds 26 1009 59 10000 2.54 72 21:30 19.12.2022
592 Smoke 28 1010 54 3000 0 0 19:42 19.12.2022
593 Smoke 29 1010 51 3000 2.06 10 18:59 19.12.2022
594 Smoke 28 1010 57 3000 2.06 50 18:23 19.12.2022
595 Smoke 29 1010 54 3000 3.09 20 16:29 19.12.2022
596 Smoke 30 1008 51 4000 4.63 320 13:22 19.12.2022
597 Smoke 32 1007 45 5000 6.17 290 11:46 19.12.2022
598 Smoke 33 1010 31 3000 3.09 280 08:27 19.12.2022
599 Smoke 32 1012 35 3000 2.57 260 07:22 19.12.2022
600 Smoke 28 1010 51 3000 2.06 50 00:54 19.12.2022
601 Haze 27 1010 61 3000 1.54 100 21:50 18.12.2022
602 Smoke 28 1011 57 3000 0 0 21:31 18.12.2022
603 Smoke 29 1011 54 3000 1.54 60 20:56 18.12.2022
604 Smoke 29 1011 54 3000 2.57 120 19:45 18.12.2022
605 Smoke 29 1011 54 3000 2.06 140 19:23 18.12.2022
606 Haze 29 1011 61 3000 3.09 10 17:52 18.12.2022
607 Smoke 30 1011 62 3000 3.6 20 16:18 18.12.2022
608 Smoke 30 1010 58 3000 3.09 350 15:37 18.12.2022
609 Smoke 30 1010 58 3000 3.09 350 15:18 18.12.2022
610 Smoke 31 1009 51 3000 3.6 300 13:29 18.12.2022
611 Smoke 31 1009 51 3000 4.12 320 12:51 18.12.2022
612 Smoke 32 1009 51 3000 4.63 300 11:51 18.12.2022
613 Smoke 34 1009 43 3000 5.14 300 10:18 18.12.2022
614 Smoke 34 1011 40 2500 2.06 300 08:46 18.12.2022
615 Smoke 34 1011 40 2500 2.06 300 08:46 18.12.2022
616 Smoke 32 1013 43 2500 2.57 60 07:20 18.12.2022
617 Smoke 32 1013 45 2500 2.57 120 06:19 18.12.2022
618 Haze 28 1011 65 2500 2.57 40 01:58 18.12.2022
619 Haze 28 1010 61 2500 2.06 90 23:39 17.12.2022
620 Haze 29 1011 65 2500 2.06 90 21:33 17.12.2022
621 Haze 30 1012 58 2500 3.09 20 18:50 17.12.2022
622 Smoke 31 1011 55 3000 4.12 350 15:51 17.12.2022
623 Smoke 32 1009 58 3000 3.6 320 13:33 17.12.2022
624 Smoke 34 1009 46 3000 4.12 260 11:24 17.12.2022
625 Smoke 33 1009 49 3000 5.14 250 10:44 17.12.2022
626 Smoke 33 1010 55 3000 4.12 280 09:41 17.12.2022
627 Smoke 32 1012 45 3000 3.6 40 07:24 17.12.2022
628 Smoke 32 1013 45 3000 3.09 100 06:45 17.12.2022
629 Smoke 32 1013 45 3000 3.09 100 06:45 17.12.2022
630 Haze 28 1010 65 3000 0 0 23:39 16.12.2022
631 Haze 28 1011 65 3000 1.54 70 20:55 16.12.2022
632 Haze 29 1011 61 3000 1.54 20 18:46 16.12.2022
633 Haze 30 1010 62 3000 2.57 320 15:37 16.12.2022
634 Haze 29 1010 70 3000 2.57 320 14:47 16.12.2022
635 Smoke 31 1009 55 3000 4.12 280 13:44 16.12.2022
636 Smoke 33 1008 46 3000 4.12 260 11:58 16.12.2022
637 Smoke 32 1009 51 3000 4.63 260 09:53 16.12.2022
638 Smoke 33 1009 52 3000 5.14 270 09:24 16.12.2022
639 Smoke 34 1011 40 3000 3.6 140 07:55 16.12.2022
640 Smoke 33 1012 43 3000 4.12 130 07:31 16.12.2022
641 Haze 27 1009 69 2500 1.54 70 23:30 15.12.2022
642 Haze 27 1010 69 2500 0 0 22:20 15.12.2022
643 Haze 28 1011 65 3000 0 0 20:33 15.12.2022
644 Haze 28 1011 65 3000 0 0 19:36 15.12.2022
645 Smoke 29 1011 61 3000 2.57 10 18:20 15.12.2022
646 Smoke 29 1011 58 3000 1.54 310 17:24 15.12.2022
647 Haze 29 1010 58 3000 2.06 290 15:35 15.12.2022
648 Haze 29 1010 58 3000 2.06 290 15:35 15.12.2022
649 Smoke 30 1009 54 3000 3.6 270 13:30 15.12.2022
650 Haze 30 1009 58 3000 4.12 260 12:33 15.12.2022
651 Smoke 31 1009 55 3000 5.66 260 09:36 15.12.2022
652 Smoke 34 1010 38 3000 3.6 250 08:53 15.12.2022
653 Smoke 31 1012 58 2500 2.57 100 06:19 15.12.2022
654 Haze 28 1012 65 2500 2.06 120 04:54 15.12.2022
655 Haze 28 1011 69 3000 1.54 0 21:25 14.12.2022
656 Haze 29 1011 65 3000 1.54 60 20:59 14.12.2022
657 Haze 29 1011 61 3000 1.54 20 20:29 14.12.2022
658 Haze 29 1012 61 3000 0 0 18:26 14.12.2022
659 Haze 30 1012 58 3000 1.54 330 16:57 14.12.2022
660 Haze 30 1012 62 3000 2.57 350 15:40 14.12.2022
661 Haze 29 1010 74 3500 1.54 270 13:53 14.12.2022
662 Smoke 31 1009 55 4000 5.14 270 11:31 14.12.2022
663 Smoke 32 1010 45 4000 5.14 230 10:36 14.12.2022
664 Smoke 32 1011 45 4000 3.09 260 08:54 14.12.2022
665 Haze 29 1009 65 3000 2.06 90 23:22 13.12.2022
666 Haze 29 1010 61 3000 3.6 110 21:49 13.12.2022
667 Haze 29 1010 61 3000 0 0 20:49 13.12.2022
668 Haze 30 1010 62 3000 2.06 50 20:25 13.12.2022
669 Haze 30 1011 58 3000 1.54 330 17:55 13.12.2022
670 Haze 30 1010 62 3000 3.09 360 15:58 13.12.2022
671 Haze 30 1009 62 3000 4.63 360 14:52 13.12.2022
672 Smoke 31 1007 62 5000 1.54 310 12:43 13.12.2022
673 Smoke 33 1009 46 4000 4.12 90 10:38 13.12.2022
674 Smoke 32 1009 48 5000 3.09 80 09:44 13.12.2022
675 Smoke 31 1011 51 4000 3.09 90 07:51 13.12.2022
676 Haze 28 1009 69 3000 1.54 140 22:23 12.12.2022
677 Haze 29 1009 65 3000 0 0 21:39 12.12.2022
678 Haze 29 1010 61 3000 2.57 20 19:32 12.12.2022
679 Smoke 29 1010 61 3000 2.06 310 17:34 12.12.2022
680 Haze 29 1009 70 3000 3.09 290 15:23 12.12.2022
681 Smoke 33 1007 43 4000 4.12 280 12:44 12.12.2022
682 Smoke 32 1009 43 3000 3.6 70 09:20 12.12.2022
683 Smoke 28 1011 54 2500 3.6 90 05:44 12.12.2022
684 Smoke 27 1010 54 2500 0 0 03:53 12.12.2022
685 Smoke 26 1009 47 3000 0 0 23:51 11.12.2022
686 Smoke 26 1009 44 3000 0 0 21:43 11.12.2022
687 Smoke 28 1010 39 3000 2.57 340 20:26 11.12.2022
688 Smoke 28 1010 39 3000 2.57 340 19:37 11.12.2022
689 Smoke 28 1011 39 3000 2.57 330 18:29 11.12.2022
690 Smoke 28 1011 44 3000 2.06 360 17:33 11.12.2022
691 Smoke 28 1011 42 3000 2.57 340 16:52 11.12.2022
692 Smoke 29 1010 39 3000 2.57 320 15:56 11.12.2022
693 Smoke 29 1010 39 3000 2.57 320 15:35 11.12.2022
694 Smoke 30 1008 39 3500 4.63 300 13:33 11.12.2022
695 Smoke 30 1008 42 3500 3.6 300 12:40 11.12.2022
696 Smoke 31 1009 33 2500 3.6 280 09:47 11.12.2022
697 Smoke 24 1009 50 2500 0 0 00:39 11.12.2022
698 Smoke 24 1009 50 2500 0 0 00:21 11.12.2022
699 Haze 24 1009 60 3000 2.06 150 22:33 10.12.2022
700 Smoke 24 1009 60 3000 0 0 21:29 10.12.2022
701 Smoke 24 1009 60 3000 0 0 20:41 10.12.2022
702 Smoke 26 1009 50 3000 2.06 220 19:55 10.12.2022
703 Smoke 26 1009 53 3000 2.57 10 17:33 10.12.2022
704 Smoke 27 1009 47 3000 2.06 20 16:37 10.12.2022
705 Smoke 27 1009 44 3000 3.6 340 15:40 10.12.2022
706 Smoke 27 1009 44 3000 3.6 340 15:40 10.12.2022
707 Smoke 27 1009 44 3000 3.6 340 15:40 10.12.2022
708 Smoke 28 1009 42 3000 3.6 340 15:20 10.12.2022
709 Smoke 30 1007 32 3500 3.09 320 13:33 10.12.2022
710 Smoke 31 1007 37 3500 5.14 270 11:57 10.12.2022
711 Smoke 32 1007 31 3500 5.14 270 10:49 10.12.2022
712 Smoke 33 1008 17 3500 3.6 270 09:41 10.12.2022
713 Smoke 31 1011 25 2500 3.09 40 07:22 10.12.2022
714 Smoke 26 1011 36 2200 3.6 70 04:56 10.12.2022
715 Smoke 22 1009 53 2500 2.57 90 23:38 09.12.2022
716 Smoke 23 1009 53 2500 2.06 90 22:42 09.12.2022
717 Smoke 24 1010 57 3000 2.57 100 21:28 09.12.2022
718 Smoke 24 1010 50 3000 3.09 110 20:58 09.12.2022
719 Smoke 25 1010 38 3000 1.54 170 19:43 09.12.2022
720 Smoke 25 1011 44 3000 0 0 17:56 09.12.2022
721 Smoke 26 1010 41 3000 4.63 340 16:47 09.12.2022
722 Smoke 26 1010 41 3000 4.63 340 16:18 09.12.2022
723 Smoke 26 1009 50 3000 2.57 320 15:24 09.12.2022
724 Smoke 30 1007 32 4000 4.63 290 12:25 09.12.2022
725 Smoke 31 1007 33 4000 4.63 260 10:49 09.12.2022
726 Smoke 30 1008 32 3500 4.12 280 10:19 09.12.2022
727 Smoke 27 1012 34 2500 2.57 120 05:37 09.12.2022
728 Smoke 24 1011 46 2500 1.54 90 03:18 09.12.2022
729 Smoke 26 1010 50 2500 3.6 50 22:41 08.12.2022
730 Smoke 26 1011 53 2500 2.57 50 20:51 08.12.2022
731 Haze 28 1012 61 2200 1.54 40 18:41 08.12.2022
732 Haze 28 1011 61 2200 2.57 350 16:23 08.12.2022
733 Smoke 29 1010 58 2500 2.57 340 14:28 08.12.2022
734 Smoke 32 1009 40 2500 3.6 300 11:47 08.12.2022
735 Smoke 32 1010 37 2500 3.6 280 10:23 08.12.2022
736 Smoke 32 1011 37 2500 3.09 60 09:28 08.12.2022
737 Smoke 30 1014 45 2200 4.12 100 06:47 08.12.2022
738 Haze 26 1011 61 2500 0 0 22:19 07.12.2022
739 Haze 26 1011 65 2200 2.06 100 21:51 07.12.2022
740 Haze 26 1011 65 2200 1.54 80 21:31 07.12.2022
741 Haze 27 1011 65 1800 0 0 19:48 07.12.2022
742 Haze 28 1012 65 2000 1.54 320 17:41 07.12.2022
743 Haze 29 1011 61 1800 2.57 340 14:41 07.12.2022
744 Smoke 30 1010 54 2000 4.12 310 12:39 07.12.2022
745 Smoke 32 1009 51 2000 5.14 280 10:46 07.12.2022
746 Smoke 33 1009 46 2000 5.14 250 09:56 07.12.2022
747 Smoke 32 1011 55 2000 4.63 250 08:51 07.12.2022
748 Smoke 32 1013 45 2000 3.09 270 06:49 07.12.2022
749 Haze 29 1013 70 1700 3.09 110 05:23 07.12.2022
750 Haze 26 1011 78 1700 2.06 20 23:44 06.12.2022
751 Haze 27 1012 74 1500 2.06 260 21:31 06.12.2022
752 Smoke 29 1013 54 2500 1.54 320 18:35 06.12.2022
753 Haze 28 1012 69 2500 2.06 30 17:18 06.12.2022
754 Haze 29 1012 61 2500 2.06 20 16:21 06.12.2022
755 Haze 29 1011 65 2200 2.06 360 15:35 06.12.2022
756 Haze 29 1010 70 1800 2.57 330 14:34 06.12.2022
757 Haze 30 1010 62 2100 3.09 330 13:39 06.12.2022
758 Smoke 31 1010 55 2100 5.14 310 12:40 06.12.2022
759 Smoke 32 1010 58 1800 4.12 310 10:39 06.12.2022
760 Smoke 33 1012 43 2100 2.57 80 07:38 06.12.2022
761 Haze 27 1012 74 1600 1.54 70 02:26 06.12.2022
762 Haze 28 1011 74 1500 0 0 22:47 05.12.2022
763 Haze 28 1011 69 1500 0 0 21:39 05.12.2022
764 Haze 28 1012 69 1500 0 0 20:51 05.12.2022
765 Haze 28 1012 69 1500 0 0 19:51 05.12.2022
766 Haze 28 1012 69 1600 0 0 19:32 05.12.2022
767 Haze 29 1012 65 1700 2.57 340 16:49 05.12.2022
768 Smoke 29 1012 61 2100 1.54 0 15:28 05.12.2022
769 Smoke 29 1011 65 2100 3.6 320 13:47 05.12.2022
770 Smoke 30 1010 62 2100 4.12 310 12:57 05.12.2022
771 Smoke 32 1010 58 2100 3.6 300 12:37 05.12.2022
772 Smoke 32 1010 58 2000 3.09 300 11:31 05.12.2022
773 Smoke 32 1014 55 2200 2.06 130 06:48 05.12.2022
774 Haze 27 1011 78 1800 1.54 150 00:18 05.12.2022
775 Haze 27 1011 74 1800 2.06 130 22:41 04.12.2022
776 Haze 28 1011 69 1800 0 0 22:18 04.12.2022
777 Haze 27 1011 74 2100 0 0 21:32 04.12.2022
778 Haze 28 1012 69 2100 2.06 220 19:59 04.12.2022
779 Haze 28 1012 69 2100 2.06 170 19:23 04.12.2022
780 Haze 28 1012 65 2100 0 0 18:32 04.12.2022
781 Haze 28 1012 65 2200 0 0 17:22 04.12.2022
782 Haze 29 1012 58 2200 1.54 320 16:36 04.12.2022
783 Smoke 29 1012 58 2500 1.54 340 16:18 04.12.2022
784 Smoke 29 1011 58 2500 1.54 330 15:26 04.12.2022
785 Smoke 30 1010 54 2200 3.09 300 14:19 04.12.2022
786 Smoke 31 1009 55 2200 3.09 290 12:51 04.12.2022
787 Smoke 31 1009 55 2200 3.09 280 12:33 04.12.2022
788 Smoke 32 1009 55 2200 4.12 300 11:34 04.12.2022
789 Smoke 33 1013 40 2500 2.57 270 07:36 04.12.2022
790 Haze 26 1011 65 2200 1.54 150 02:51 04.12.2022
791 Haze 26 1010 65 2200 0 0 23:44 03.12.2022
792 Smoke 27 1010 57 2200 0 0 22:35 03.12.2022
793 Smoke 27 1011 61 2200 0 0 21:50 03.12.2022
794 Smoke 28 1011 54 2200 0 0 20:45 03.12.2022
795 Smoke 28 1012 54 2200 2.57 120 18:41 03.12.2022
796 Smoke 29 1012 54 2200 1.54 80 17:56 03.12.2022
797 Smoke 29 1011 51 2500 2.06 330 15:52 03.12.2022
798 Smoke 30 1009 45 2500 4.12 320 13:43 03.12.2022
799 Smoke 31 1009 42 3000 3.09 310 12:51 03.12.2022
800 Smoke 32 1009 37 2500 4.12 320 11:57 03.12.2022
801 Smoke 34 1009 27 2500 4.63 300 09:28 03.12.2022
802 Haze 26 1012 57 1500 2.06 100 04:18 03.12.2022
803 Haze 24 1010 64 2500 1.54 0 00:20 03.12.2022
804 Smoke 25 1010 57 2500 1.54 150 22:19 02.12.2022
805 Smoke 26 1011 57 2500 0 0 20:21 02.12.2022
806 Smoke 27 1012 41 2500 0 0 17:39 02.12.2022
807 Smoke 29 1011 45 2200 2.06 30 15:57 02.12.2022
808 Smoke 29 1010 48 2200 2.06 340 14:38 02.12.2022
809 Smoke 29 1009 39 3000 2.57 320 14:19 02.12.2022
810 Smoke 31 1009 30 3000 3.09 300 12:44 02.12.2022
811 Smoke 32 1009 35 3000 4.12 270 11:30 02.12.2022
812 Smoke 32 1012 31 2500 3.09 270 07:54 02.12.2022
813 Smoke 32 1012 31 2500 3.09 120 07:22 02.12.2022
814 Haze 26 1010 61 2500 2.57 100 22:54 01.12.2022
815 Smoke 26 1010 65 2500 0 0 21:44 01.12.2022
816 Smoke 26 1011 61 2500 2.06 130 20:56 01.12.2022
817 Smoke 27 1011 54 2500 1.54 130 19:19 01.12.2022
818 Smoke 28 1011 47 2500 2.57 50 17:31 01.12.2022
819 Smoke 28 1010 54 1800 2.06 320 14:47 01.12.2022
820 Smoke 31 1009 45 2500 4.63 280 11:22 01.12.2022
821 Smoke 30 1010 45 3000 4.12 290 09:55 01.12.2022
822 Smoke 32 1010 31 3000 3.09 20 09:37 01.12.2022
823 Smoke 31 1013 35 3000 3.6 110 07:18 01.12.2022
824 Haze 25 1011 83 1600 1.54 100 23:59 30.11.2022
825 Haze 26 1010 73 1800 0 0 22:28 30.11.2022
826 Haze 27 1011 69 1800 2.06 110 21:19 30.11.2022
827 Haze 27 1011 65 2200 1.54 140 20:25 30.11.2022
828 Smoke 27 1011 61 2500 3.09 110 19:35 30.11.2022
829 Smoke 28 1012 57 2500 1.54 310 18:33 30.11.2022
830 Haze 28 1012 61 2500 2.57 350 17:33 30.11.2022
831 Haze 29 1011 65 2200 2.57 320 14:47 30.11.2022
832 Haze 29 1010 61 2200 2.57 300 14:27 30.11.2022
833 Smoke 31 1009 51 2200 3.6 280 12:32 30.11.2022
834 Smoke 35 1010 29 3000 2.57 110 10:24 30.11.2022
835 Smoke 32 1011 35 3000 2.57 100 08:38 30.11.2022
836 Smoke 31 1012 40 2500 4.12 110 07:25 30.11.2022
837 Haze 25 1010 73 2200 3.09 80 23:33 29.11.2022
838 Haze 25 1010 69 3000 3.09 110 22:25 29.11.2022
839 Smoke 26 1011 50 3000 2.57 120 21:25 29.11.2022
840 Smoke 26 1011 53 3000 1.54 160 20:36 29.11.2022
841 Smoke 27 1012 44 3000 0 0 18:57 29.11.2022
842 Smoke 27 1012 44 3000 0 0 18:57 29.11.2022
843 Smoke 27 1011 54 3000 2.06 340 16:58 29.11.2022
844 Smoke 27 1011 57 3000 3.09 80 16:22 29.11.2022
845 Smoke 27 1011 57 3000 3.09 80 16:22 29.11.2022
846 Smoke 28 1010 47 3000 3.09 300 14:49 29.11.2022
847 Smoke 29 1009 51 3000 3.09 270 12:46 29.11.2022
848 Smoke 30 1009 39 3000 4.63 250 11:32 29.11.2022
849 Smoke 30 1009 39 3000 4.12 270 10:52 29.11.2022
850 Smoke 31 1010 40 3000 4.63 280 09:37 29.11.2022
851 Smoke 30 1011 39 2500 4.12 250 07:48 29.11.2022
852 Haze 23 1010 73 2500 1.54 60 00:36 29.11.2022
853 Haze 24 1010 73 2500 2.06 20 23:34 28.11.2022
854 Haze 24 1010 83 2200 0 0 22:32 28.11.2022
855 Haze 24 1010 78 2200 0 0 21:43 28.11.2022
856 Haze 25 1011 83 2200 0 0 20:33 28.11.2022
857 Haze 26 1011 73 2500 1.54 270 19:38 28.11.2022
858 Smoke 27 1011 69 3000 2.06 250 18:29 28.11.2022
859 Smoke 27 1011 65 3000 1.54 20 17:50 28.11.2022
860 Smoke 29 1010 51 3000 2.06 360 15:31 28.11.2022
861 Smoke 29 1009 48 3500 3.6 330 14:24 28.11.2022
862 Smoke 30 1009 45 3500 3.6 330 13:46 28.11.2022
863 Smoke 32 1008 40 4000 4.12 310 12:35 28.11.2022
864 Smoke 33 1009 35 2500 4.63 260 09:27 28.11.2022
865 Smoke 29 1011 54 2500 2.57 140 05:49 28.11.2022
866 Haze 27 1010 54 2500 1.54 60 04:41 28.11.2022
867 Haze 31 1010 51 2500 1.54 350 03:23 28.11.2022
868 Haze 26 1008 69 2500 0 0 00:43 28.11.2022
869 Haze 26 1007 69 2500 0 0 22:35 27.11.2022
870 Haze 26 1008 69 2500 2.06 80 21:27 27.11.2022
871 Smoke 28 1009 54 2500 2.06 170 19:28 27.11.2022
872 Smoke 29 1008 51 2500 2.57 340 16:45 27.11.2022
873 Smoke 29 1007 58 2500 2.57 290 14:29 27.11.2022
874 Smoke 31 1007 58 2500 4.12 270 12:31 27.11.2022
875 Smoke 32 1007 48 2500 5.14 270 10:40 27.11.2022
876 Smoke 32 1009 43 2500 3.09 280 07:57 27.11.2022
877 Haze 26 1008 73 2500 0 0 23:43 26.11.2022
878 Haze 27 1008 69 2200 2.06 130 21:52 26.11.2022
879 Haze 28 1009 61 2500 2.06 150 20:36 26.11.2022
880 Smoke 29 1009 54 2500 0 0 19:21 26.11.2022
881 Smoke 30 1010 51 2500 2.57 10 16:50 26.11.2022
882 Smoke 30 1009 54 2500 2.57 340 15:38 26.11.2022
883 Smoke 31 1008 55 2100 4.12 310 12:55 26.11.2022
884 Smoke 32 1008 45 2100 4.12 270 11:24 26.11.2022
885 Smoke 34 1009 38 2500 3.09 280 09:44 26.11.2022
886 Smoke 33 1010 40 2500 3.09 240 08:46 26.11.2022
887 Haze 27 1010 65 2000 2.57 30 00:20 26.11.2022
888 Haze 27 1011 65 1900 2.57 110 21:41 25.11.2022
889 Haze 27 1011 65 1900 2.57 110 21:19 25.11.2022
890 Smoke 28 1012 57 2200 2.06 120 19:44 25.11.2022
891 Smoke 29 1012 51 2500 2.06 340 16:40 25.11.2022
892 Smoke 30 1010 58 2500 3.09 280 13:50 25.11.2022
893 Smoke 33 1010 40 2500 4.12 260 09:20 25.11.2022
894 Smoke 32 1012 37 2500 2.57 260 08:40 25.11.2022
895 Smoke 31 1013 37 2200 3.09 120 06:53 25.11.2022
896 Haze 25 1010 65 2200 2.06 40 02:31 25.11.2022
897 Haze 25 1010 65 2200 2.06 110 23:47 24.11.2022
898 Smoke 25 1010 69 2500 1.54 120 22:42 24.11.2022
899 Smoke 27 1010 57 2500 2.06 180 21:55 24.11.2022
900 Smoke 27 1011 54 2500 2.06 90 19:50 24.11.2022
901 Smoke 28 1012 51 2500 0 0 17:48 24.11.2022
902 Smoke 28 1012 51 2500 0 0 17:24 24.11.2022
903 Smoke 28 1012 51 2500 1.54 280 16:50 24.11.2022
904 Smoke 29 1010 54 2500 2.57 290 14:27 24.11.2022
905 Smoke 30 1009 51 3000 3.09 290 13:29 24.11.2022
906 Smoke 32 1009 37 3000 4.12 280 11:46 24.11.2022
907 Smoke 32 1009 40 2500 5.14 240 10:33 24.11.2022
908 Smoke 30 1012 37 2500 2.06 140 06:25 24.11.2022
909 Smoke 25 1010 53 2200 2.06 160 00:48 24.11.2022
910 Smoke 26 1010 53 2200 0 0 23:32 23.11.2022
911 Smoke 26 1010 61 2200 0 0 21:54 23.11.2022
912 Smoke 26 1011 61 2200 0 0 21:18 23.11.2022
913 Smoke 26 1011 61 2200 0 0 19:57 23.11.2022
914 Smoke 27 1012 54 2500 1.54 0 18:57 23.11.2022
915 Smoke 27 1012 54 2500 1.54 0 18:57 23.11.2022
916 Smoke 27 1012 54 2500 1.54 0 18:20 23.11.2022
917 Smoke 28 1011 54 2500 1.54 330 15:55 23.11.2022
918 Smoke 30 1009 42 3500 3.6 320 13:25 23.11.2022
919 Smoke 30 1009 45 2500 4.12 320 12:48 23.11.2022
920 Smoke 31 1009 42 3500 4.12 290 11:53 23.11.2022
921 Smoke 32 1009 35 3000 4.63 300 10:59 23.11.2022
922 Smoke 30 1009 54 5000 4.12 300 10:40 23.11.2022
923 Smoke 32 1010 33 3000 3.09 270 09:41 23.11.2022
924 Smoke 32 1010 33 3000 3.09 270 09:22 23.11.2022
925 Smoke 32 1011 27 3000 3.09 70 08:36 23.11.2022
926 Smoke 29 1013 32 2500 3.09 60 05:21 23.11.2022
927 Smoke 26 1011 36 3000 2.57 60 01:57 23.11.2022
928 Smoke 25 1010 57 2800 2.06 120 22:38 22.11.2022
929 Smoke 25 1011 53 2800 1.54 0 21:52 22.11.2022
930 Smoke 25 1011 57 2500 2.06 60 21:32 22.11.2022
931 Smoke 25 1011 57 2400 0 0 20:45 22.11.2022
932 Smoke 26 1012 53 2500 2.57 150 19:52 22.11.2022
933 Smoke 27 1012 47 2500 2.06 50 17:54 22.11.2022
934 Smoke 27 1012 50 2500 2.06 360 16:48 22.11.2022
935 Smoke 29 1010 39 2500 2.57 330 14:56 22.11.2022
936 Smoke 29 1009 48 3000 4.12 330 13:21 22.11.2022
937 Smoke 31 1009 37 3000 4.63 280 10:23 22.11.2022
938 Smoke 32 1011 25 3000 4.12 280 08:59 22.11.2022
939 Smoke 30 1013 30 2500 2.06 90 06:46 22.11.2022
940 Clouds 22 1011 43 10000 3.74 61 01:35 22.11.2022
941 Smoke 23 1010 49 3000 0 0 23:33 21.11.2022
942 Smoke 24 1010 46 3000 1.54 100 22:31 21.11.2022
943 Smoke 23 1010 53 3000 1.54 80 21:58 21.11.2022
944 Smoke 24 1011 57 3000 2.06 70 20:35 21.11.2022
945 Smoke 24 1012 53 3000 3.09 130 19:41 21.11.2022
946 Smoke 25 1012 53 3000 2.06 10 18:53 21.11.2022
947 Smoke 25 1012 53 3000 0 0 17:46 21.11.2022
948 Smoke 26 1012 50 3000 2.57 350 16:52 21.11.2022
949 Smoke 26 1012 47 3000 3.09 340 16:34 21.11.2022
950 Smoke 26 1011 53 3000 3.09 230 15:24 21.11.2022
951 Smoke 28 1010 30 4000 3.6 300 13:55 21.11.2022
952 Smoke 28 1010 32 4000 4.12 310 13:34 21.11.2022
953 Smoke 31 1010 22 3500 3.6 280 10:27 21.11.2022
954 Smoke 31 1012 23 3000 3.6 100 08:39 21.11.2022
955 Smoke 27 1014 34 3000 4.12 120 05:45 21.11.2022
956 Smoke 22 1010 40 3000 3.09 120 22:25 20.11.2022
957 Smoke 23 1010 35 3000 2.06 80 21:33 20.11.2022
958 Smoke 24 1010 33 3000 4.12 60 20:24 20.11.2022
959 Smoke 24 1011 46 3000 1.54 30 18:25 20.11.2022
960 Smoke 26 1011 57 3000 2.06 360 15:59 20.11.2022
961 Smoke 27 1010 54 3000 3.6 10 15:28 20.11.2022
962 Smoke 27 1010 50 3500 3.09 320 14:30 20.11.2022
963 Smoke 28 1009 39 5000 4.63 330 13:32 20.11.2022
964 Smoke 28 1009 39 5000 4.63 330 13:32 20.11.2022
965 Smoke 29 1009 42 4000 5.66 320 12:31 20.11.2022
966 Smoke 31 1010 22 4000 4.12 360 10:59 20.11.2022
967 Smoke 31 1010 20 4000 5.14 270 10:23 20.11.2022
968 Smoke 31 1011 20 3000 4.12 90 08:59 20.11.2022
969 Smoke 31 1011 20 3000 4.12 90 08:34 20.11.2022
970 Smoke 30 1013 21 3000 4.12 70 07:29 20.11.2022
971 Smoke 21 1012 46 3000 2.06 120 02:18 20.11.2022
972 Smoke 21 1012 46 3000 2.06 110 01:19 20.11.2022
973 Smoke 22 1011 43 3000 2.06 100 00:41 20.11.2022
974 Smoke 22 1011 43 3000 2.06 100 00:22 20.11.2022
975 Smoke 22 1011 46 3000 2.57 100 23:49 19.11.2022
976 Smoke 23 1011 40 3000 2.57 110 23:22 19.11.2022
977 Smoke 24 1011 38 3000 3.09 70 22:35 19.11.2022
978 Smoke 24 1012 41 3000 3.6 80 21:32 19.11.2022
979 Smoke 25 1012 38 3000 3.09 70 20:56 19.11.2022
980 Smoke 25 1012 41 3000 2.57 80 20:29 19.11.2022
981 Smoke 26 1012 47 3000 2.57 80 18:55 19.11.2022
982 Smoke 27 1012 41 3000 2.57 60 17:40 19.11.2022
983 Smoke 28 1012 44 3000 2.57 20 17:19 19.11.2022
984 Smoke 28 1011 44 3500 3.09 350 15:40 19.11.2022
985 Smoke 29 1011 39 3500 3.09 340 14:27 19.11.2022
986 Smoke 31 1010 25 4000 4.12 50 11:58 19.11.2022
987 Smoke 31 1010 25 3500 4.12 40 10:40 19.11.2022
988 Smoke 30 1012 30 3000 5.14 60 08:39 19.11.2022
989 Smoke 26 1015 31 3000 5.14 90 04:51 19.11.2022
990 Smoke 25 1012 33 3000 4.63 70 01:55 19.11.2022
991 Smoke 24 1012 41 3000 2.57 110 23:44 18.11.2022
992 Smoke 23 1012 40 3000 2.06 130 22:35 18.11.2022
993 Smoke 25 1013 33 3000 4.12 80 21:37 18.11.2022
994 Smoke 27 1013 32 3000 3.6 40 20:59 18.11.2022
995 Smoke 26 1013 36 3000 0 0 20:30 18.11.2022
996 Smoke 26 1013 44 3000 0 0 19:46 18.11.2022
997 Smoke 28 1013 36 3000 2.57 70 18:36 18.11.2022
998 Smoke 28 1013 39 3000 3.09 10 17:42 18.11.2022
999 Smoke 29 1011 37 4000 3.09 320 13:57 18.11.2022
1000 Smoke 32 1010 23 4000 4.63 310 11:31 18.11.2022
1001 Smoke 31 1012 23 4000 3.09 50 08:46 18.11.2022
1002 Smoke 31 1013 23 3000 3.6 60 07:51 18.11.2022
1003 Smoke 28 1014 28 2500 4.63 80 05:19 18.11.2022
1004 Smoke 25 1011 31 3000 3.6 80 00:50 18.11.2022
1005 Smoke 24 1011 41 3000 2.06 130 21:52 17.11.2022
1006 Smoke 26 1012 31 3000 3.09 80 20:46 17.11.2022
1007 Smoke 26 1012 34 3000 0 0 19:51 17.11.2022
1008 Smoke 29 1012 30 3000 4.12 30 18:35 17.11.2022
1009 Smoke 29 1013 32 3000 3.09 340 17:33 17.11.2022
1010 Smoke 29 1012 39 3000 4.12 350 16:53 17.11.2022
1011 Smoke 29 1011 51 3000 4.12 330 14:57 17.11.2022
1012 Smoke 33 1010 25 4000 4.12 340 11:22 17.11.2022
1013 Smoke 33 1010 25 4000 4.12 340 11:22 17.11.2022
1014 Smoke 32 1012 25 3000 5.14 60 08:32 17.11.2022
1015 Smoke 28 1014 42 2500 4.12 90 05:30 17.11.2022
1016 Haze 25 1011 61 2200 2.06 40 00:22 17.11.2022
1017 Smoke 27 1011 50 2500 0 0 22:30 16.11.2022
1018 Smoke 27 1012 54 2500 0 0 20:54 16.11.2022
1019 Smoke 27 1012 54 2500 2.57 90 19:54 16.11.2022
1020 Smoke 29 1013 42 2500 1.54 350 18:45 16.11.2022
1021 Smoke 29 1013 48 2500 3.09 20 17:26 16.11.2022
1022 Smoke 30 1011 51 2500 3.6 340 14:19 16.11.2022
1023 Smoke 32 1011 40 2500 4.12 270 09:56 16.11.2022
1024 Smoke 32 1014 37 2500 2.06 100 06:38 16.11.2022
1025 Haze 25 1012 73 1800 0 0 01:26 16.11.2022
1026 Haze 26 1011 73 1800 0 0 22:33 15.11.2022
1027 Smoke 26 1012 73 2100 0 0 20:45 15.11.2022
1028 Smoke 27 1012 65 2200 1.54 20 19:34 15.11.2022
1029 Smoke 28 1013 65 2200 0 0 18:42 15.11.2022
1030 Smoke 29 1013 58 2200 1.54 0 17:22 15.11.2022
1031 Smoke 30 1013 54 2200 1.54 340 16:19 15.11.2022
1032 Smoke 30 1012 48 2500 3.6 350 14:54 15.11.2022
1033 Smoke 31 1011 45 2500 2.57 300 13:38 15.11.2022
1034 Smoke 32 1011 43 2500 4.63 280 11:43 15.11.2022
1035 Smoke 32 1011 40 2500 4.12 270 11:18 15.11.2022
1036 Smoke 34 1013 36 3000 2.57 270 08:52 15.11.2022
1037 Smoke 26 1012 69 2200 0 0 00:37 15.11.2022
1038 Smoke 25 1012 73 2200 2.06 100 23:56 14.11.2022
1039 Smoke 27 1012 61 2200 1.54 90 21:33 14.11.2022
1040 Smoke 28 1013 57 2200 2.06 120 20:40 14.11.2022
1041 Smoke 28 1013 57 2200 0 0 18:52 14.11.2022
1042 Smoke 29 1012 48 2500 2.06 350 15:54 14.11.2022
1043 Smoke 31 1010 45 2500 4.12 280 12:55 14.11.2022
1044 Smoke 32 1010 45 2500 4.12 290 11:42 14.11.2022
1045 Smoke 34 1011 33 3000 3.09 270 09:32 14.11.2022
1046 Smoke 33 1013 38 3000 3.09 120 07:54 14.11.2022
1047 Smoke 31 1014 42 2500 2.57 100 06:43 14.11.2022
1048 Haze 24 1011 60 2500 0 0 00:19 14.11.2022
1049 Smoke 27 1011 57 3000 1.54 130 21:58 13.11.2022
1050 Smoke 27 1012 57 3000 1.54 30 21:40 13.11.2022
1051 Smoke 27 1012 54 3000 0 0 19:45 13.11.2022
1052 Smoke 28 1013 54 3000 1.54 350 18:24 13.11.2022
1053 Smoke 29 1013 48 3000 3.09 330 17:46 13.11.2022
1054 Smoke 29 1012 54 3000 3.09 340 15:19 13.11.2022
1055 Smoke 30 1010 45 3000 3.09 320 14:25 13.11.2022
1056 Smoke 31 1010 42 3000 4.12 300 12:43 13.11.2022
1057 Smoke 33 1010 27 3000 2.06 330 11:29 13.11.2022
1058 Smoke 33 1011 27 3000 2.57 90 09:41 13.11.2022
1059 Smoke 29 1014 39 2500 5.14 110 05:51 13.11.2022
1060 Smoke 26 1011 47 3000 3.6 60 23:35 12.11.2022
1061 Smoke 28 1012 44 3000 0 0 21:24 12.11.2022
1062 Smoke 27 1012 44 3000 2.57 70 20:23 12.11.2022
1063 Smoke 28 1013 54 3000 2.57 140 18:45 12.11.2022
1064 Smoke 29 1013 48 3000 3.09 360 16:32 12.11.2022
1065 Smoke 30 1012 42 3000 4.12 330 15:24 12.11.2022
1066 Smoke 32 1011 43 3500 4.12 320 13:28 12.11.2022
1067 Smoke 33 1012 29 3000 4.12 50 09:30 12.11.2022
1068 Smoke 32 1014 33 2500 4.12 50 07:47 12.11.2022
1069 Smoke 32 1014 33 2500 4.12 50 07:47 12.11.2022
1070 Smoke 26 1012 44 3000 2.06 90 23:23 11.11.2022
1071 Smoke 28 1013 42 3000 3.09 60 20:52 11.11.2022
1072 Smoke 29 1013 39 3000 3.6 50 20:28 11.11.2022
1073 Smoke 29 1013 39 3000 3.09 30 19:26 11.11.2022
1074 Smoke 30 1014 39 3000 3.6 50 17:59 11.11.2022
1075 Smoke 30 1013 39 3000 2.57 50 16:55 11.11.2022
1076 Smoke 31 1011 42 3000 3.6 290 14:30 11.11.2022
1077 Smoke 31 1011 45 3000 3.6 330 13:31 11.11.2022
1078 Smoke 33 1011 31 4000 4.12 20 12:18 11.11.2022
1079 Smoke 33 1013 29 3000 4.12 30 08:57 11.11.2022
1080 Smoke 32 1014 29 2500 3.6 40 07:41 11.11.2022
1081 Smoke 24 1012 50 3000 1.54 120 00:31 11.11.2022
1082 Smoke 25 1012 47 3000 0 0 22:51 10.11.2022
1083 Smoke 25 1013 50 3000 0 0 21:44 10.11.2022
1084 Smoke 25 1013 50 3000 0 0 21:25 10.11.2022
1085 Smoke 26 1013 50 3000 0 0 20:24 10.11.2022
1086 Smoke 26 1013 50 3000 0 0 19:56 10.11.2022
1087 Smoke 27 1014 47 3000 3.09 60 18:45 10.11.2022
1088 Smoke 28 1014 51 3000 1.54 10 16:55 10.11.2022
1089 Smoke 29 1013 51 3000 1.54 0 16:25 10.11.2022
1090 Smoke 31 1011 40 4000 4.63 330 13:34 10.11.2022
1091 Smoke 33 1012 25 4000 4.12 60 09:38 10.11.2022
1092 Smoke 32 1014 31 3000 3.6 90 07:57 10.11.2022
1093 Haze 24 1012 64 2500 0 0 01:18 10.11.2022
1094 Haze 26 1012 69 2500 2.06 100 23:20 09.11.2022
1095 Haze 27 1012 65 2500 0 0 21:57 09.11.2022
1096 Smoke 28 1013 57 2500 0 0 20:46 09.11.2022
1097 Smoke 28 1013 57 2500 0 0 20:28 09.11.2022
1098 Smoke 29 1014 51 2500 3.09 140 19:26 09.11.2022
1099 Smoke 29 1014 51 2500 3.09 140 19:26 09.11.2022
1100 Smoke 29 1014 48 2500 2.06 120 17:49 09.11.2022
1101 Smoke 30 1012 51 3000 2.06 320 14:58 09.11.2022
1102 Smoke 30 1012 51 3000 2.06 320 14:40 09.11.2022
1103 Smoke 31 1011 42 3000 2.57 310 14:21 09.11.2022
1104 Smoke 32 1011 37 4000 3.6 310 12:55 09.11.2022
1105 Smoke 33 1011 38 3500 5.14 240 09:45 09.11.2022
1106 Smoke 33 1014 33 3000 2.06 270 07:47 09.11.2022
1107 Smoke 31 1015 40 3000 3.09 10 06:55 09.11.2022
1108 Smoke 27 1012 61 2500 1.54 170 22:46 08.11.2022
1109 Smoke 27 1012 61 2500 0 0 21:43 08.11.2022
1110 Smoke 28 1012 57 2500 0 0 21:21 08.11.2022
1111 Smoke 28 1013 57 2500 2.06 60 20:30 08.11.2022
1112 Smoke 28 1013 54 2500 2.57 130 19:28 08.11.2022
1113 Smoke 29 1013 48 3000 2.06 140 17:37 08.11.2022
1114 Smoke 30 1012 45 3000 3.09 350 15:50 08.11.2022
1115 Smoke 31 1012 45 3000 3.09 350 14:51 08.11.2022
1116 Smoke 32 1011 43 4000 2.57 330 13:34 08.11.2022
1117 Smoke 34 1011 33 3500 4.12 300 11:54 08.11.2022
1118 Smoke 32 1014 31 3000 2.06 120 08:25 08.11.2022
1119 Smoke 31 1015 37 2500 3.09 50 06:29 08.11.2022
1120 Smoke 25 1012 69 2500 0 0 23:52 07.11.2022
1121 Smoke 27 1012 57 2500 3.6 120 22:21 07.11.2022
1122 Smoke 27 1012 54 2500 0 0 21:20 07.11.2022
1123 Smoke 27 1013 57 2500 0 0 19:59 07.11.2022
1124 Smoke 29 1013 39 2500 2.06 80 17:44 07.11.2022
1125 Smoke 29 1013 48 2500 2.57 340 16:26 07.11.2022
1126 Smoke 29 1012 48 2500 2.57 280 15:33 07.11.2022
1127 Smoke 30 1012 42 3000 2.57 310 14:18 07.11.2022
1128 Smoke 32 1011 43 3000 3.6 290 12:33 07.11.2022
1129 Smoke 32 1011 48 3000 5.14 260 10:46 07.11.2022
1130 Smoke 31 1012 55 3000 4.12 270 09:22 07.11.2022
1131 Smoke 32 1015 29 3000 2.57 70 07:21 07.11.2022
1132 Haze 25 1013 65 3000 2.06 140 02:28 07.11.2022
1133 Haze 26 1013 61 3000 1.54 0 01:18 07.11.2022
1134 Smoke 27 1013 54 3000 2.57 130 21:53 06.11.2022
1135 Smoke 27 1013 54 3000 0 0 21:19 06.11.2022
1136 Smoke 28 1014 47 3000 1.54 170 19:59 06.11.2022
1137 Smoke 28 1014 47 3000 0 0 19:30 06.11.2022
1138 Smoke 29 1014 42 3000 2.06 130 18:21 06.11.2022
1139 Smoke 29 1014 39 3000 0 0 17:46 06.11.2022
1140 Smoke 29 1014 42 3000 1.54 40 17:19 06.11.2022
1141 Smoke 30 1014 39 3000 2.57 350 16:30 06.11.2022
1142 Smoke 30 1013 42 3000 3.09 290 15:39 06.11.2022
1143 Smoke 33 1012 33 4000 3.09 300 12:48 06.11.2022
1144 Smoke 33 1011 33 4000 4.63 280 11:42 06.11.2022
1145 Smoke 34 1012 29 3500 4.12 260 10:35 06.11.2022
1146 Smoke 32 1014 23 3000 2.57 20 07:44 06.11.2022
1147 Haze 24 1013 69 3000 1.54 140 00:46 06.11.2022
1148 Smoke 25 1013 61 3000 1.54 110 22:49 05.11.2022
1149 Smoke 27 1014 57 3000 0 0 19:20 05.11.2022
1150 Smoke 30 1014 51 3000 1.54 50 16:57 05.11.2022
1151 Haze 29 1013 65 3000 3.09 290 15:20 05.11.2022
1152 Haze 30 1012 66 4000 3.6 260 13:51 05.11.2022
1153 Smoke 33 1011 40 4000 4.12 250 12:30 05.11.2022
1154 Smoke 35 1012 20 4000 3.6 70 09:33 05.11.2022
1155 Smoke 34 1014 29 3000 3.6 120 07:25 05.11.2022
1156 Smoke 33 1015 29 3000 3.6 70 06:57 05.11.2022
1157 Smoke 24 1012 43 3000 1.54 130 00:46 05.11.2022
1158 Smoke 25 1011 41 3000 1.54 100 23:32 04.11.2022
1159 Smoke 25 1012 47 3000 2.57 80 21:40 04.11.2022
1160 Smoke 25 1013 53 3000 0 0 19:40 04.11.2022
1161 Smoke 27 1013 47 3000 0 0 17:45 04.11.2022
1162 Smoke 31 1012 48 3000 3.09 10 15:27 04.11.2022
1163 Smoke 34 1010 26 4000 2.57 30 13:19 04.11.2022
1164 Smoke 35 1010 21 4000 2.06 60 12:19 04.11.2022
1165 Smoke 34 1011 22 3000 3.6 90 09:31 04.11.2022
1166 Smoke 33 1012 22 3000 4.63 70 08:20 04.11.2022
1167 Smoke 32 1014 29 3000 3.6 50 06:51 04.11.2022
1168 Smoke 24 1011 50 3000 2.06 120 00:56 04.11.2022
1169 Smoke 26 1011 47 3000 2.06 90 21:52 03.11.2022
1170 Smoke 26 1011 50 3000 1.54 90 20:47 03.11.2022
1171 Smoke 26 1011 53 3000 1.54 120 19:42 03.11.2022
1172 Smoke 27 1012 50 3000 2.06 110 18:27 03.11.2022
1173 Smoke 27 1012 50 3000 0 0 17:37 03.11.2022
1174 Smoke 31 1010 40 3000 3.09 350 15:27 03.11.2022
1175 Smoke 32 1009 45 4000 3.6 290 13:37 03.11.2022
1176 Smoke 33 1009 43 4000 4.63 300 12:35 03.11.2022
1177 Smoke 35 1009 24 4000 4.63 280 11:41 03.11.2022
1178 Smoke 33 1012 25 3000 1.54 120 07:48 03.11.2022
1179 Smoke 26 1010 44 3000 2.57 100 22:43 02.11.2022
1180 Smoke 26 1011 47 3000 2.57 90 20:56 02.11.2022
1181 Smoke 25 1011 53 3000 1.03 90 20:25 02.11.2022
1182 Smoke 27 1011 47 3000 1.54 70 18:42 02.11.2022
1183 Smoke 29 1011 48 3000 2.57 340 16:29 02.11.2022
1184 Smoke 30 1010 45 3000 2.06 340 15:32 02.11.2022
1185 Smoke 32 1009 48 3000 3.09 310 13:26 02.11.2022
1186 Smoke 34 1009 33 3000 4.12 40 12:28 02.11.2022
1187 Smoke 34 1010 33 3000 4.63 60 10:23 02.11.2022
1188 Smoke 32 1012 35 2500 4.12 70 08:38 02.11.2022
1189 Smoke 25 1013 47 2500 2.06 60 02:56 02.11.2022
1190 Smoke 26 1012 50 3000 2.06 40 22:41 01.11.2022
1191 Smoke 26 1012 50 3000 2.06 40 22:18 01.11.2022
1192 Smoke 27 1012 47 3000 2.57 40 21:20 01.11.2022
1193 Smoke 27 1013 47 3000 0 0 20:23 01.11.2022
1194 Smoke 27 1013 44 3000 1.54 90 19:41 01.11.2022
1195 Smoke 28 1013 44 3000 2.06 100 18:26 01.11.2022
1196 Smoke 29 1013 48 3000 2.06 360 16:48 01.11.2022
1197 Smoke 30 1012 35 3000 2.06 290 14:45 01.11.2022
1198 Smoke 31 1010 30 3500 3.09 10 13:20 01.11.2022
1199 Smoke 32 1010 29 4000 3.09 70 12:26 01.11.2022
1200 Smoke 32 1010 27 4000 1.54 70 11:21 01.11.2022
1201 Smoke 32 1012 25 3000 4.12 80 09:25 01.11.2022
1202 Smoke 31 1013 29 2500 3.6 30 07:54 01.11.2022
1203 Smoke 30 1014 37 2500 4.12 50 07:28 01.11.2022
1204 Smoke 30 1014 35 2500 4.12 110 06:46 01.11.2022
1205 Smoke 29 1015 42 2500 3.09 90 05:24 01.11.2022
1206 Smoke 26 1011 41 3500 3.09 80 22:52 31.10.2022
1207 Smoke 25 1011 50 3500 2.06 90 21:34 31.10.2022
1208 Smoke 25 1012 57 3500 1.03 140 19:58 31.10.2022
1209 Smoke 28 1012 51 3500 1.54 50 18:44 31.10.2022
1210 Smoke 29 1012 39 3500 3.09 350 16:45 31.10.2022
1211 Smoke 29 1011 42 3500 3.09 340 15:45 31.10.2022
1212 Smoke 31 1009 45 4000 4.63 310 12:49 31.10.2022
1213 Smoke 34 1010 22 4000 5.66 10 09:46 31.10.2022
1214 Smoke 33 1012 22 3500 3.6 50 07:41 31.10.2022
1215 Haze 24 1012 60 2200 2.06 110 02:49 31.10.2022
1216 Haze 24 1011 60 3000 2.57 120 01:49 31.10.2022
1217 Smoke 27 1011 44 3500 1.54 130 22:25 30.10.2022
1218 Smoke 27 1011 44 3500 1.54 90 20:44 30.10.2022
1219 Smoke 27 1012 47 3500 0 0 19:53 30.10.2022
1220 Smoke 29 1012 37 4000 4.12 360 16:48 30.10.2022
1221 Smoke 30 1011 42 4000 3.6 340 14:57 30.10.2022
1222 Smoke 31 1010 45 4000 4.63 340 13:51 30.10.2022
1223 Smoke 34 1010 22 5000 4.12 340 12:30 30.10.2022
1224 Smoke 34 1010 21 5000 3.6 120 10:49 30.10.2022
1225 Smoke 34 1010 21 5000 3.6 120 10:49 30.10.2022
1226 Smoke 33 1011 19 5000 4.63 70 09:36 30.10.2022
1227 Smoke 33 1012 21 4000 3.09 120 08:20 30.10.2022
1228 Smoke 25 1011 44 2500 0 0 00:30 30.10.2022
1229 Smoke 26 1011 44 2500 1.03 120 23:48 29.10.2022
1230 Smoke 25 1011 44 2500 2.57 70 22:52 29.10.2022
1231 Smoke 28 1012 42 3000 3.09 90 20:52 29.10.2022
1232 Smoke 28 1012 44 3500 1.54 340 17:34 29.10.2022
1233 Smoke 30 1011 37 3500 2.06 20 15:51 29.10.2022
1234 Smoke 30 1010 35 3500 2.06 10 15:24 29.10.2022
1235 Smoke 32 1010 31 5000 3.09 20 14:43 29.10.2022
1236 Smoke 33 1009 25 5000 6.17 40 12:34 29.10.2022
1237 Smoke 33 1011 22 4000 5.14 80 10:36 29.10.2022
1238 Smoke 31 1014 30 3000 3.09 110 07:33 29.10.2022
1239 Smoke 27 1014 47 2500 2.06 130 05:55 29.10.2022
1240 Haze 25 1012 61 2500 2.06 100 02:45 29.10.2022
1241 Haze 26 1011 57 2500 0 0 22:30 28.10.2022
1242 Haze 27 1012 57 3000 0 0 20:46 28.10.2022
1243 Smoke 27 1012 57 3000 2.57 110 18:58 28.10.2022
1244 Smoke 29 1012 42 3000 2.06 90 18:31 28.10.2022
1245 Smoke 30 1010 58 3500 3.09 320 15:30 28.10.2022
1246 Smoke 30 1010 58 3500 3.09 320 15:30 28.10.2022
1247 Smoke 31 1009 42 5000 4.12 310 14:43 28.10.2022
1248 Smoke 34 1009 22 4000 4.12 280 12:31 28.10.2022
1249 Smoke 33 1010 24 4000 4.12 110 11:34 28.10.2022
1250 Smoke 33 1010 25 4000 3.6 80 10:47 28.10.2022
1251 Smoke 34 1011 22 3000 4.12 100 09:47 28.10.2022
1252 Smoke 32 1013 35 3000 5.66 110 08:21 28.10.2022
1253 Haze 24 1012 64 2500 2.57 100 03:43 28.10.2022
1254 Smoke 26 1011 69 2500 3.09 110 23:49 27.10.2022
1255 Smoke 27 1012 61 2500 0 0 22:40 27.10.2022
1256 Smoke 27 1012 61 2500 2.06 90 21:35 27.10.2022
1257 Smoke 27 1012 57 2500 2.06 90 20:27 27.10.2022
1258 Smoke 29 1013 48 3000 2.57 350 18:22 27.10.2022
1259 Smoke 31 1010 58 3500 4.12 290 13:58 27.10.2022
1260 Smoke 33 1012 31 3500 3.09 110 09:24 27.10.2022
1261 Smoke 29 1014 48 3000 2.06 30 06:24 27.10.2022
1262 Smoke 27 1011 50 2500 1.54 80 23:56 26.10.2022
1263 Smoke 27 1012 50 2500 1.54 70 22:51 26.10.2022
1264 Smoke 27 1012 50 2500 0 0 22:22 26.10.2022
1265 Smoke 28 1013 54 3000 2.06 80 19:53 26.10.2022
1266 Smoke 30 1012 48 3000 3.09 340 16:35 26.10.2022
1267 Smoke 31 1011 42 4000 4.12 340 14:52 26.10.2022
1268 Smoke 32 1011 43 4000 4.12 310 12:39 26.10.2022
1269 Smoke 34 1011 26 4000 4.12 270 11:26 26.10.2022
1270 Smoke 33 1014 31 3000 3.09 360 08:54 26.10.2022
1271 Smoke 32 1014 33 3000 2.57 360 08:36 26.10.2022
1272 Haze 26 1011 73 2500 1.54 350 00:46 26.10.2022
1273 Haze 26 1011 73 2500 1.54 360 00:23 26.10.2022
1274 Mist 26 1012 83 2500 2.06 100 21:54 25.10.2022
1275 Mist 27 1012 78 2500 2.57 80 21:24 25.10.2022
1276 Haze 28 1012 74 3000 0 0 19:57 25.10.2022
1277 Haze 28 1013 74 3000 0 0 18:28 25.10.2022
1278 Smoke 30 1011 58 3500 3.6 300 14:58 25.10.2022
1279 Smoke 32 1010 45 4000 4.63 290 11:40 25.10.2022
1280 Smoke 32 1010 45 3500 4.63 280 10:46 25.10.2022
1281 Smoke 31 1011 51 3500 5.14 260 10:28 25.10.2022
1282 Haze 32 1012 48 2500 3.6 260 08:19 25.10.2022
1283 Haze 31 1013 45 2500 2.06 20 07:59 25.10.2022
1284 Haze 31 1013 45 2500 2.06 20 07:41 25.10.2022
1285 Mist 25 1011 83 1800 2.57 130 04:27 25.10.2022
1286 Mist 25 1011 78 2100 0 0 03:20 25.10.2022
1287 Mist 25 1009 78 1800 2.06 120 00:31 25.10.2022
1288 Haze 26 1010 73 2500 2.57 110 22:25 24.10.2022
1289 Haze 27 1010 69 2500 2.06 100 21:34 24.10.2022
1290 Haze 27 1010 69 2500 2.06 100 21:34 24.10.2022
1291 Haze 27 1011 65 2500 2.06 100 20:44 24.10.2022
1292 Clear 27 1011 58 10000 1.86 52 19:36 24.10.2022
1293 Smoke 28 1011 61 3000 2.57 340 17:53 24.10.2022
1294 Smoke 29 1010 58 3000 2.57 320 16:54 24.10.2022
1295 Smoke 30 1009 45 4000 3.6 310 14:50 24.10.2022
1296 Smoke 32 1009 37 4000 4.12 300 13:53 24.10.2022
1297 Smoke 32 1008 31 5000 4.12 310 12:18 24.10.2022
1298 Smoke 32 1012 35 2500 3.6 250 08:51 24.10.2022
1299 Smoke 23 1011 64 3000 2.06 120 00:58 24.10.2022
1300 Smoke 28 1012 47 3000 0 0 21:44 23.10.2022
1301 Smoke 28 1013 54 3000 2.06 40 20:25 23.10.2022
1302 Smoke 29 1013 51 3500 2.06 20 18:26 23.10.2022
1303 Smoke 29 1013 45 3500 2.57 350 17:27 23.10.2022
1304 Smoke 30 1011 45 4000 3.09 330 15:24 23.10.2022
1305 Smoke 31 1011 33 5000 3.09 330 14:46 23.10.2022
1306 Smoke 33 1011 27 5000 4.12 60 11:25 23.10.2022
1307 Smoke 32 1013 33 4000 5.14 70 09:18 23.10.2022
1308 Smoke 25 1014 61 2500 0 0 03:52 23.10.2022
1309 Haze 27 1013 61 2500 0 0 22:32 22.10.2022
1310 Smoke 27 1014 61 2500 0 0 21:42 22.10.2022
1311 Smoke 26 1014 57 3000 0 0 20:56 22.10.2022
1312 Smoke 29 1014 54 3000 1.54 120 19:52 22.10.2022
1313 Smoke 28 1014 57 3000 1.54 110 19:29 22.10.2022
1314 Smoke 29 1013 42 4000 3.6 70 17:37 22.10.2022
1315 Smoke 30 1012 39 4000 3.6 60 15:58 22.10.2022
1316 Smoke 31 1011 45 5000 3.6 70 14:46 22.10.2022
1317 Smoke 32 1011 37 4000 3.6 60 13:53 22.10.2022
1318 Haze 32 1012 48 3500 3.6 80 10:30 22.10.2022
1319 Haze 32 1013 51 3000 4.63 80 09:39 22.10.2022
1320 Haze 31 1014 55 3000 4.12 80 08:30 22.10.2022
1321 Haze 26 1014 73 2500 4.12 50 03:42 22.10.2022
1322 Mist 28 1012 83 2500 2.06 60 23:53 21.10.2022
1323 Haze 27 1013 89 2500 3.09 110 21:41 21.10.2022
1324 Haze 28 1013 83 2500 2.57 100 21:23 21.10.2022
1325 Haze 28 1014 83 2500 0 0 19:56 21.10.2022
1326 Haze 28 1013 83 2500 2.57 120 17:20 21.10.2022
1327 Haze 31 1010 74 3500 4.63 270 14:23 21.10.2022
1328 Haze 33 1009 66 4000 4.12 290 12:59 21.10.2022
1329 Haze 32 1010 74 3000 5.14 270 11:33 21.10.2022
1330 Haze 33 1010 66 3000 4.63 280 10:20 21.10.2022
1331 Haze 32 1012 70 3000 3.6 250 08:39 21.10.2022
1332 Haze 32 1013 66 2500 3.6 270 07:47 21.10.2022
1333 Haze 28 1011 83 2500 2.06 50 02:29 21.10.2022
1334 Haze 28 1011 94 3000 1.54 100 22:26 20.10.2022
1335 Haze 29 1012 84 3500 1.54 70 20:48 20.10.2022
1336 Haze 29 1012 84 3500 0 0 19:40 20.10.2022
1337 Haze 29 1012 89 3500 0 0 17:54 20.10.2022
1338 Haze 29 1011 89 3500 2.06 290 17:33 20.10.2022
1339 Haze 31 1008 74 4000 4.63 280 13:22 20.10.2022
1340 Haze 31 1008 74 4000 5.14 260 12:28 20.10.2022
1341 Haze 31 1009 74 3500 4.63 260 11:25 20.10.2022
1342 Haze 31 1009 74 3000 4.12 240 10:51 20.10.2022
1343 Haze 31 1012 74 2500 4.12 250 08:27 20.10.2022
1344 Haze 29 1012 84 2100 2.57 110 05:45 20.10.2022
1345 Haze 28 1009 89 2500 1.54 110 01:52 20.10.2022
1346 Haze 28 1009 89 3000 0 0 22:47 19.10.2022
1347 Haze 29 1010 84 3000 1.54 340 21:59 19.10.2022
1348 Haze 29 1010 84 3000 0 0 21:18 19.10.2022
1349 Haze 29 1011 84 3000 2.57 270 18:53 19.10.2022
1350 Haze 29 1011 84 3000 3.09 270 17:39 19.10.2022
1351 Haze 29 1010 84 3000 3.6 280 16:21 19.10.2022
1352 Haze 30 1008 79 4000 4.63 250 13:53 19.10.2022
1353 Haze 31 1009 74 3500 3.6 250 10:23 19.10.2022
1354 Haze 31 1012 70 3500 2.57 220 08:35 19.10.2022
1355 Haze 30 1012 74 3000 2.06 210 06:50 19.10.2022
1356 Mist 27 1009 94 2500 2.57 90 01:27 19.10.2022
1357 Mist 27 1010 94 2500 3.09 120 23:22 18.10.2022
1358 Mist 27 1011 94 3000 1.54 130 21:48 18.10.2022
1359 Mist 28 1012 89 3000 4.63 80 20:59 18.10.2022
1360 Mist 28 1011 89 3000 2.57 140 20:24 18.10.2022
1361 Mist 28 1011 89 3000 3.09 190 18:29 18.10.2022
1362 Haze 28 1011 89 3000 4.12 200 16:55 18.10.2022
1363 Haze 29 1009 84 3500 3.09 170 14:58 18.10.2022
1364 Haze 31 1008 70 4000 4.63 210 13:22 18.10.2022
1365 Haze 31 1009 74 4000 4.12 210 11:27 18.10.2022
1366 Haze 31 1009 74 3000 3.6 200 10:23 18.10.2022
1367 Haze 30 1012 79 2500 4.12 230 08:40 18.10.2022
1368 Mist 28 1012 89 2200 2.57 110 05:42 18.10.2022
1369 Haze 28 1010 89 2500 2.06 120 22:56 17.10.2022
1370 Haze 28 1011 89 2500 2.06 110 21:21 17.10.2022
1371 Haze 28 1011 89 3000 3.6 110 20:43 17.10.2022
1372 Haze 28 1011 89 3000 3.6 110 20:20 17.10.2022
1373 Haze 28 1012 89 3000 2.06 110 19:37 17.10.2022
1374 Haze 28 1012 94 3000 2.57 120 17:38 17.10.2022
1375 Drizzle 29 1010 84 3000 2.06 250 15:54 17.10.2022
1376 Haze 30 1009 74 4000 2.57 240 14:35 17.10.2022
1377 Haze 31 1008 66 4000 4.12 260 12:29 17.10.2022
1378 Smoke 32 1012 58 4000 3.6 110 07:25 17.10.2022
1379 Haze 29 1009 65 2500 2.57 120 00:27 17.10.2022
1380 Haze 29 1009 70 3000 3.09 10 22:26 16.10.2022
1381 Haze 30 1010 62 3000 2.57 30 21:20 16.10.2022
1382 Haze 30 1011 62 3000 2.06 30 19:50 16.10.2022
1383 Haze 30 1011 66 3000 2.06 60 18:37 16.10.2022
1384 Smoke 31 1011 58 3000 0 0 17:43 16.10.2022
1385 Smoke 32 1009 51 4000 2.06 340 15:59 16.10.2022
1386 Smoke 33 1009 46 4000 3.6 340 15:41 16.10.2022
1387 Smoke 34 1008 40 5000 4.12 50 12:25 16.10.2022
1388 Smoke 34 1009 38 5000 4.12 20 10:46 16.10.2022
1389 Smoke 33 1009 40 5000 3.09 50 10:25 16.10.2022
1390 Smoke 28 1009 42 3000 4.12 30 03:57 16.10.2022
1391 Smoke 28 1007 57 3000 2.57 30 23:42 15.10.2022
1392 Haze 29 1008 58 3000 2.57 60 21:29 15.10.2022
1393 Haze 29 1008 58 3000 2.57 60 21:29 15.10.2022
1394 Haze 29 1008 61 3000 1.54 40 20:57 15.10.2022
1395 Smoke 27 1009 61 3500 1.03 90 19:30 15.10.2022
1396 Smoke 31 1007 48 4000 2.57 20 16:18 15.10.2022
1397 Smoke 31 1007 48 4000 2.06 30 15:43 15.10.2022
1398 Smoke 34 1006 38 5000 4.12 50 13:18 15.10.2022
1399 Smoke 33 1007 43 4000 4.63 10 11:40 15.10.2022
1400 Haze 32 1009 37 3000 4.63 50 09:26 15.10.2022
1401 Haze 28 1010 78 2500 3.09 70 06:35 15.10.2022
1402 Haze 25 1007 100 2500 0 0 00:40 15.10.2022
1403 Haze 25 1008 94 2500 2.06 90 22:36 14.10.2022
1404 Haze 25 1009 94 2500 3.09 80 22:18 14.10.2022
1405 Drizzle 25 1010 94 2500 2.06 90 20:33 14.10.2022
1406 Clouds 23 1010 94 2500 2.06 130 18:39 14.10.2022
1407 Rain 24 1009 100 2100 2.06 200 15:32 14.10.2022
1408 Haze 32 1006 62 3500 3.6 310 12:47 14.10.2022
1409 Smoke 33 1008 58 3500 3.09 270 10:54 14.10.2022
1410 Haze 31 1010 70 3500 2.57 140 08:25 14.10.2022
1411 Haze 30 1010 70 3000 1.54 80 06:45 14.10.2022
1412 Haze 29 1010 74 3000 3.09 60 06:18 14.10.2022
1413 Haze 29 1010 74 2500 2.06 60 05:41 14.10.2022
1414 Haze 27 1008 83 2500 2.06 50 02:18 14.10.2022
1415 Haze 26 1008 89 2500 1.54 140 23:22 13.10.2022
1416 Haze 26 1009 94 2500 3.09 90 21:32 13.10.2022
1417 Haze 27 1009 89 2500 2.57 110 20:42 13.10.2022
1418 Haze 27 1009 83 2500 2.06 80 19:42 13.10.2022
1419 Haze 27 1009 83 2500 2.06 80 19:42 13.10.2022
1420 Haze 27 1010 83 2500 3.09 60 18:45 13.10.2022
1421 Haze 27 1010 89 2500 2.57 60 18:20 13.10.2022
1422 Haze 27 1009 89 2500 2.06 80 15:49 13.10.2022
1423 Haze 27 1009 89 2500 2.06 80 15:49 13.10.2022
1424 Haze 28 1008 83 2500 2.57 50 14:59 13.10.2022
1425 Haze 27 1007 94 2500 0 0 13:50 13.10.2022
1426 Thunderstorm 25 1009 100 1500 3.09 290 11:46 13.10.2022
1427 Haze 31 1009 74 3000 3.6 260 10:18 13.10.2022
1428 Haze 31 1010 70 3000 3.09 280 08:33 13.10.2022
1429 Haze 30 1011 74 3000 1.54 30 07:36 13.10.2022
1430 Haze 27 1010 89 2500 2.57 10 03:45 13.10.2022
1431 Haze 27 1008 89 2500 0 0 01:39 13.10.2022
1432 Haze 27 1008 89 2500 0 0 00:21 13.10.2022
1433 Haze 27 1009 89 2500 2.06 130 22:44 12.10.2022
1434 Haze 27 1009 89 2500 3.09 110 21:25 12.10.2022
1435 Haze 27 1010 89 2500 2.57 90 20:56 12.10.2022
1436 Haze 27 1010 89 2500 2.06 110 20:27 12.10.2022
1437 Haze 27 1010 89 2500 2.57 70 19:19 12.10.2022
1438 Haze 27 1010 89 2500 2.57 80 17:54 12.10.2022
1439 Haze 27 1009 94 2500 2.57 110 16:48 12.10.2022
1440 Haze 27 1008 89 3000 2.06 340 14:20 12.10.2022
1441 Rain 27 1007 89 3000 4.12 50 13:50 12.10.2022
1442 Haze 28 1008 94 2500 3.09 230 11:25 12.10.2022
1443 Haze 30 1010 79 3000 4.63 260 09:23 12.10.2022
1444 Haze 31 1011 70 3000 3.09 270 07:41 12.10.2022
1445 Haze 30 1011 74 3000 2.57 100 06:43 12.10.2022
1446 Haze 27 1010 89 1800 2.57 80 05:18 12.10.2022
1447 Haze 26 1008 94 2500 2.06 80 23:40 11.10.2022
1448 Thunderstorm 26 1010 94 2500 3.09 170 20:59 11.10.2022
1449 Thunderstorm 27 1010 89 2500 2.57 120 20:26 11.10.2022
1450 Thunderstorm 27 1010 89 2500 2.57 120 20:26 11.10.2022
1451 Haze 27 1010 89 2500 2.06 140 18:25 11.10.2022
1452 Thunderstorm 28 1009 83 2500 2.57 110 15:55 11.10.2022
1453 Haze 29 1007 84 3000 4.12 260 13:37 11.10.2022
1454 Haze 31 1007 79 4000 6.17 270 10:47 11.10.2022
1455 Haze 31 1007 79 3500 5.66 280 10:26 11.10.2022
1456 Haze 30 1009 84 2500 4.12 280 08:32 11.10.2022
1457 Haze 27 1008 94 3000 1.54 360 02:59 11.10.2022
1458 Haze 28 1008 89 3000 1.54 360 00:47 11.10.2022
1459 Haze 28 1009 89 3000 0 0 23:52 10.10.2022
1460 Haze 28 1010 89 3000 0 0 20:58 10.10.2022
1461 Haze 28 1010 89 3000 0 0 19:43 10.10.2022
1462 Haze 29 1010 84 3000 2.57 320 17:52 10.10.2022
1463 Haze 29 1009 84 3500 2.06 320 16:37 10.10.2022
1464 Haze 29 1008 84 3500 4.12 290 14:22 10.10.2022
1465 Haze 29 1008 89 3500 5.66 270 12:24 10.10.2022
1466 Haze 31 1009 74 4000 5.14 270 10:20 10.10.2022
1467 Haze 31 1012 70 3000 2.06 280 07:41 10.10.2022
1468 Haze 28 1012 89 2200 2.06 80 05:37 10.10.2022
1469 Haze 26 1009 94 4000 1.54 90 02:42 10.10.2022
1470 Haze 26 1009 100 3000 0 0 00:24 10.10.2022
1471 Haze 27 1010 94 3500 2.06 120 22:27 09.10.2022
1472 Haze 27 1010 94 3500 3.09 120 21:50 09.10.2022
1473 Haze 28 1011 83 3500 2.06 220 20:54 09.10.2022
1474 Haze 28 1011 83 3500 0 0 19:53 09.10.2022
1475 Haze 28 1011 83 3500 1.54 200 19:23 09.10.2022
1476 Haze 28 1011 89 4000 2.06 210 18:28 09.10.2022
1477 Haze 28 1010 89 4000 3.09 230 16:56 09.10.2022
1478 Haze 28 1009 89 4000 3.09 230 16:25 09.10.2022
1479 Clouds 28 1008 83 6000 3.6 260 15:36 09.10.2022
1480 Haze 29 1008 70 6000 3.6 260 14:28 09.10.2022
1481 Haze 29 1008 70 6000 3.6 260 14:28 09.10.2022
1482 Clouds 30 1008 66 6000 4.63 230 12:57 09.10.2022
1483 Clouds 30 1008 66 6000 4.63 230 12:57 09.10.2022
1484 Haze 30 1008 70 6000 5.14 230 11:42 09.10.2022
1485 Haze 31 1008 70 5000 3.6 220 10:24 09.10.2022
1486 Haze 30 1011 74 4000 4.12 200 07:57 09.10.2022
1487 Haze 26 1009 94 3000 0 0 03:33 09.10.2022
1488 Haze 26 1008 94 3000 0 0 02:23 09.10.2022
1489 Haze 26 1007 94 3000 2.57 160 23:56 08.10.2022
1490 Haze 26 1008 100 3000 2.06 160 22:53 08.10.2022
1491 Haze 26 1008 94 3000 3.09 180 21:44 08.10.2022
1492 Haze 26 1009 94 3000 4.12 170 20:25 08.10.2022
1493 Haze 27 1009 94 3000 2.57 160 18:32 08.10.2022
1494 Haze 27 1007 94 3000 2.06 170 15:59 08.10.2022
1495 Haze 26 1006 94 2500 2.57 190 14:42 08.10.2022
1496 Haze 27 1006 89 3000 4.12 310 13:20 08.10.2022
1497 Haze 29 1007 79 4000 4.63 170 10:37 08.10.2022
1498 Haze 29 1007 84 4000 4.12 180 09:55 08.10.2022
1499 Haze 27 1008 94 3000 5.14 180 08:47 08.10.2022
1500 Drizzle 25 1007 100 2500 1.54 170 03:52 08.10.2022
1501 Thunderstorm 24 1005 100 2200 2.57 230 00:37 08.10.2022
1502 Thunderstorm 25 1005 100 1500 2.06 210 23:21 07.10.2022
1503 Thunderstorm 25 1006 100 1500 1.54 210 22:49 07.10.2022
1504 Haze 26 1006 94 2200 1.54 270 21:29 07.10.2022
1505 Haze 27 1006 94 2500 1.54 270 19:34 07.10.2022
1506 Clouds 26 1006 100 2100 3.6 280 17:47 07.10.2022
1507 Thunderstorm 26 1005 94 1500 1.54 290 16:41 07.10.2022
1508 Clouds 26 1003 100 800 2.57 210 14:59 07.10.2022
1509 Thunderstorm 26 1003 94 1000 5.14 220 13:22 07.10.2022
1510 Clouds 28 1004 94 2500 4.12 220 10:29 07.10.2022
1511 Clouds 28 1004 94 3000 4.12 230 09:24 07.10.2022
1512 Haze 28 1005 89 2500 4.12 230 08:18 07.10.2022
1513 Drizzle 28 1003 89 3000 0 0 01:54 07.10.2022
1514 Mist 28 1005 89 3000 3.09 270 22:51 06.10.2022
1515 Mist 28 1006 94 3000 2.57 240 21:48 06.10.2022
1516 Mist 28 1006 94 3000 2.06 260 21:25 06.10.2022
1517 Haze 28 1006 89 3500 3.09 270 20:34 06.10.2022
1518 Haze 29 1007 84 3500 2.57 300 18:46 06.10.2022
1519 Haze 28 1007 89 3500 2.57 280 18:19 06.10.2022
1520 Haze 28 1005 83 4000 3.09 270 15:33 06.10.2022
1521 Haze 29 1004 74 4000 5.14 310 12:29 06.10.2022
1522 Clouds 29 1006 89 2500 5.14 310 08:20 06.10.2022
1523 Haze 29 1007 89 3000 2.06 330 04:32 06.10.2022
1524 Haze 28 1005 89 3000 2.06 270 00:44 06.10.2022
1525 Haze 29 1007 89 3000 0 0 21:52 05.10.2022
1526 Haze 29 1008 84 3000 2.06 300 19:31 05.10.2022
1527 Haze 29 1008 84 4000 3.6 290 17:37 05.10.2022
1528 Haze 29 1007 84 4000 3.09 310 16:22 05.10.2022
1529 Haze 29 1006 84 4000 4.12 330 14:52 05.10.2022
1530 Haze 30 1005 79 4000 5.14 310 14:20 05.10.2022
1531 Haze 30 1006 79 3000 4.63 300 12:28 05.10.2022
1532 Haze 30 1007 84 3000 5.14 270 10:36 05.10.2022
1533 Haze 31 1009 74 3000 3.09 40 07:57 05.10.2022
1534 Haze 30 1010 79 3000 2.06 320 06:22 05.10.2022
1535 Mist 29 1009 89 3000 1.54 180 05:27 05.10.2022
1536 Mist 28 1008 94 3000 0 0 02:20 05.10.2022
1537 Mist 28 1008 89 3000 1.54 320 00:28 05.10.2022
1538 Haze 28 1008 89 3000 2.06 330 22:51 04.10.2022
1539 Haze 29 1009 84 3500 2.06 340 20:40 04.10.2022
1540 Haze 29 1009 84 3500 1.54 350 19:47 04.10.2022
1541 Haze 29 1009 84 4000 3.09 310 18:39 04.10.2022
1542 Haze 29 1009 84 4000 3.09 310 17:51 04.10.2022
1543 Haze 29 1009 84 4000 3.6 310 16:50 04.10.2022
1544 Clouds 31 1007 70 6000 5.66 300 13:52 04.10.2022
1545 Haze 32 1009 66 4000 4.63 300 09:52 04.10.2022
1546 Haze 30 1011 74 3000 3.09 340 07:34 04.10.2022
1547 Haze 26 1009 94 3000 0 0 02:41 04.10.2022
1548 Haze 27 1009 89 3000 0 0 23:42 03.10.2022
1549 Haze 27 1009 89 3000 0 0 22:19 03.10.2022
1550 Haze 27 1009 89 3000 0 0 21:23 03.10.2022
1551 Haze 28 1010 78 3000 2.06 310 20:32 03.10.2022
1552 Haze 28 1010 78 4000 2.57 310 18:46 03.10.2022
1553 Haze 28 1010 78 5000 3.6 310 17:30 03.10.2022
1554 Haze 29 1009 74 5000 3.6 320 15:51 03.10.2022
1555 Haze 30 1008 70 6000 3.6 310 14:22 03.10.2022
1556 Clouds 31 1008 70 6000 4.12 300 12:34 03.10.2022
1557 Haze 31 1009 66 5000 4.63 290 10:40 03.10.2022
1558 Haze 31 1010 66 4000 4.12 310 09:44 03.10.2022
1559 Haze 31 1011 66 4000 3.6 320 08:43 03.10.2022
1560 Haze 27 1009 89 3000 2.06 60 03:52 03.10.2022
1561 Haze 27 1008 89 3000 2.06 290 22:55 02.10.2022
1562 Haze 28 1009 83 3000 2.06 270 21:33 02.10.2022
1563 Haze 28 1009 83 3000 0 0 19:39 02.10.2022
1564 Haze 28 1009 83 3000 2.06 300 17:55 02.10.2022
1565 Haze 29 1009 79 3000 3.09 310 16:51 02.10.2022
1566 Haze 29 1008 79 4000 2.57 320 16:30 02.10.2022
1567 Haze 29 1008 74 5000 5.14 300 14:57 02.10.2022
1568 Haze 30 1007 74 5000 4.12 280 13:46 02.10.2022
1569 Haze 31 1007 66 5000 5.14 330 12:39 02.10.2022
1570 Haze 31 1007 70 5000 5.14 280 11:43 02.10.2022
1571 Haze 31 1008 66 5000 5.66 300 11:23 02.10.2022
1572 Haze 31 1009 66 5000 5.14 290 09:49 02.10.2022
1573 Haze 30 1010 70 5000 3.6 300 08:27 02.10.2022
1574 Haze 30 1010 70 5000 3.6 300 08:27 02.10.2022
1575 Haze 28 1010 89 3000 1.54 280 05:19 02.10.2022
1576 Haze 27 1007 94 3000 1.54 140 00:57 02.10.2022
1577 Haze 27 1007 89 3000 0 0 00:37 02.10.2022
1578 Haze 28 1008 83 3000 0 0 23:24 01.10.2022
1579 Haze 28 1009 89 3000 2.06 260 21:38 01.10.2022
1580 Haze 28 1009 83 3000 2.06 300 18:54 01.10.2022
1581 Haze 29 1009 79 3500 2.57 300 17:26 01.10.2022
1582 Haze 29 1007 79 4000 3.09 300 14:50 01.10.2022
1583 Haze 30 1007 84 4000 5.14 290 13:44 01.10.2022
1584 Haze 31 1007 70 3000 4.12 310 12:34 01.10.2022
1585 Haze 31 1007 79 3000 6.69 290 11:22 01.10.2022
1586 Haze 31 1008 74 3000 5.14 300 10:47 01.10.2022
1587 Haze 31 1008 74 3000 6.17 270 10:26 01.10.2022
1588 Haze 31 1009 74 3000 3.6 260 09:21 01.10.2022
1589 Haze 30 1010 84 2500 5.14 280 08:26 01.10.2022
1590 Haze 27 1009 89 2500 2.57 130 03:39 01.10.2022
1591 Haze 27 1008 89 3000 2.06 100 01:31 01.10.2022
1592 Haze 28 1008 89 3000 2.06 90 23:21 30.09.2022
1593 Haze 28 1008 89 3000 2.57 320 21:57 30.09.2022
1594 Haze 29 1009 89 3000 2.57 310 20:45 30.09.2022
1595 Haze 29 1009 84 3000 2.06 340 20:20 30.09.2022
1596 Thunderstorm 29 1009 84 3000 2.06 320 17:59 30.09.2022
1597 Thunderstorm 29 1008 84 3000 2.57 300 16:31 30.09.2022
1598 Haze 30 1006 79 4000 5.66 300 14:22 30.09.2022
1599 Haze 32 1006 74 4000 5.14 300 12:29 30.09.2022
1600 Haze 32 1006 74 4000 5.14 290 11:54 30.09.2022
1601 Haze 30 1008 84 3000 5.14 250 08:57 30.09.2022
1602 Haze 30 1009 79 3000 2.57 350 06:38 30.09.2022
1603 Haze 27 1007 94 3000 1.54 120 02:51 30.09.2022
1604 Haze 27 1007 94 3000 0 0 00:53 30.09.2022
1605 Haze 28 1008 89 3000 0 0 21:39 29.09.2022
1606 Haze 28 1008 89 3000 1.03 320 21:19 29.09.2022
1607 Haze 28 1008 89 3000 1.54 320 18:54 29.09.2022
1608 Haze 28 1008 89 3000 2.06 290 17:49 29.09.2022
1609 Thunderstorm 29 1007 79 3000 2.06 300 16:29 29.09.2022
1610 Haze 29 1007 79 3000 3.09 340 15:37 29.09.2022
1611 Haze 29 1006 79 3000 3.6 320 14:59 29.09.2022
1612 Haze 28 1006 83 2500 3.6 310 11:54 29.09.2022
1613 Clouds 30 1008 79 3000 5.14 260 08:44 29.09.2022
1614 Haze 28 1008 89 3000 0 0 04:22 29.09.2022
1615 Haze 28 1006 89 3000 0 0 01:47 29.09.2022
1616 Haze 28 1006 89 3000 1.54 360 23:20 28.09.2022
1617 Haze 28 1007 89 3000 0 0 21:31 28.09.2022
1618 Haze 29 1007 84 3000 1.54 340 20:51 28.09.2022
1619 Haze 28 1008 89 3000 2.06 340 19:56 28.09.2022
1620 Haze 28 1007 89 3000 2.06 310 16:35 28.09.2022
1621 Haze 30 1006 79 3000 5.14 270 13:28 28.09.2022
1622 Haze 29 1006 84 3000 4.63 270 11:45 28.09.2022
1623 Clouds 28 1008 89 2200 2.57 310 09:37 28.09.2022
1624 Haze 29 1009 79 3000 2.06 160 07:43 28.09.2022
1625 Haze 27 1009 94 3000 2.06 110 05:37 28.09.2022
1626 Haze 26 1007 94 3500 2.06 120 01:44 28.09.2022
1627 Haze 27 1007 89 3500 0 0 00:36 28.09.2022
1628 Haze 27 1008 89 3500 0 0 22:40 27.09.2022
1629 Haze 27 1008 89 3500 0 0 21:20 27.09.2022
1630 Haze 27 1008 89 3500 0 0 20:34 27.09.2022
1631 Haze 27 1009 89 3500 2.06 150 19:40 27.09.2022
1632 Haze 28 1009 78 3500 2.06 340 17:47 27.09.2022
1633 Haze 28 1008 78 3500 1.54 320 16:56 27.09.2022
1634 Haze 28 1007 83 4000 3.09 320 15:18 27.09.2022
1635 Haze 29 1007 74 4000 2.57 320 14:21 27.09.2022
1636 Haze 29 1007 79 3000 4.63 270 12:39 27.09.2022
1637 Haze 29 1007 79 3000 4.63 270 12:39 27.09.2022
1638 Haze 29 1008 70 4000 3.6 300 10:45 27.09.2022
1639 Haze 29 1010 70 4000 1.54 320 08:36 27.09.2022
1640 Haze 27 1010 94 2500 1.54 140 05:22 27.09.2022
1641 Haze 27 1008 89 4000 0 0 01:40 27.09.2022
1642 Haze 27 1008 89 4000 0 0 00:28 27.09.2022
1643 Haze 27 1009 89 4000 0 0 23:24 26.09.2022
1644 Haze 26 1010 94 4000 0 0 21:37 26.09.2022
1645 Haze 27 1010 89 4000 0 0 20:18 26.09.2022
1646 Haze 27 1011 89 4000 2.06 340 19:21 26.09.2022
1647 Haze 28 1010 83 4000 1.54 110 17:27 26.09.2022
1648 Haze 28 1009 83 4000 2.06 330 15:44 26.09.2022
1649 Haze 29 1008 74 5000 4.63 300 12:42 26.09.2022
1650 Haze 29 1009 100 5000 4.63 290 11:28 26.09.2022
1651 Haze 29 1010 79 4000 4.63 300 10:36 26.09.2022
1652 Haze 29 1010 79 4000 4.63 300 10:18 26.09.2022
1653 Haze 28 1010 83 4000 2.57 310 09:52 26.09.2022
1654 Haze 28 1011 83 4000 4.12 290 09:22 26.09.2022
1655 Haze 28 1012 89 2500 2.57 140 05:50 26.09.2022
1656 Haze 26 1009 94 3000 2.06 90 02:35 26.09.2022
1657 Haze 27 1008 94 3000 3.09 200 23:26 25.09.2022
1658 Haze 27 1009 89 3000 3.09 120 21:48 25.09.2022
1659 Haze 27 1009 89 3000 2.06 130 21:25 25.09.2022
1660 Haze 28 1010 83 3000 1.54 180 20:37 25.09.2022
1661 Haze 28 1010 83 3000 0 0 19:25 25.09.2022
1662 Haze 28 1009 83 3000 2.06 270 18:29 25.09.2022
1663 Haze 28 1009 83 3000 2.06 270 18:29 25.09.2022
1664 Haze 28 1009 83 3000 3.09 250 17:29 25.09.2022
1665 Haze 28 1008 83 3500 3.09 300 16:21 25.09.2022
1666 Haze 28 1007 78 5000 3.6 260 14:55 25.09.2022
1667 Haze 29 1007 74 5000 3.6 260 14:19 25.09.2022
1668 Haze 29 1007 79 6000 4.12 230 11:35 25.09.2022
1669 Haze 29 1008 79 5000 3.6 240 09:48 25.09.2022
1670 Haze 29 1009 79 4000 3.09 190 07:45 25.09.2022
1671 Haze 27 1009 89 3000 2.57 180 05:27 25.09.2022
1672 Haze 26 1007 94 3000 2.57 120 23:37 24.09.2022
1673 Haze 26 1007 94 3000 2.57 160 21:50 24.09.2022
1674 Haze 26 1008 94 3000 2.57 160 20:34 24.09.2022
1675 Haze 27 1008 89 3000 3.09 150 19:20 24.09.2022
1676 Haze 28 1007 83 3000 1.54 280 16:58 24.09.2022
1677 Haze 28 1007 89 5000 2.57 280 15:54 24.09.2022
1678 Haze 28 1006 83 5000 3.6 250 15:18 24.09.2022
1679 Smoke 30 1005 79 6000 3.09 260 13:23 24.09.2022
1680 Smoke 30 1006 79 6000 5.66 220 12:40 24.09.2022
1681 Smoke 30 1007 79 6000 3.6 190 10:18 24.09.2022
1682 Clouds 30 1009 79 6000 3.6 200 09:22 24.09.2022
1683 Haze 29 1009 79 6000 3.09 200 08:42 24.09.2022
1684 Clouds 25 1009 100 2500 2.57 140 04:58 24.09.2022
1685 Clouds 25 1009 100 1200 2.06 40 04:27 24.09.2022
1686 Drizzle 25 1007 100 3000 1.54 150 23:47 23.09.2022
1687 Haze 25 1008 94 3000 2.57 110 21:44 23.09.2022
1688 Haze 25 1008 94 3000 2.57 110 21:24 23.09.2022
1689 Haze 26 1009 89 3000 2.57 100 20:54 23.09.2022
1690 Haze 26 1009 89 3000 2.57 180 19:20 23.09.2022
1691 Clouds 27 1009 83 3000 4.12 230 17:55 23.09.2022
1692 Haze 29 1007 79 5000 4.63 220 13:41 23.09.2022
1693 Haze 29 1009 79 5000 5.14 230 10:25 23.09.2022
1694 Haze 29 1010 79 3500 4.12 200 08:45 23.09.2022
1695 Haze 24 1009 94 2500 0 0 03:37 23.09.2022
1696 Haze 24 1008 100 2200 2.06 80 23:30 22.09.2022
1697 Haze 24 1009 100 2200 0 0 22:28 22.09.2022
1698 Haze 24 1009 100 2200 1.54 110 21:36 22.09.2022
1699 Haze 23 1010 88 2500 1.54 130 20:31 22.09.2022
1700 Haze 23 1010 88 2500 2.06 120 18:59 22.09.2022
1701 Haze 25 1008 88 2200 4.12 100 15:58 22.09.2022
1702 Drizzle 25 1009 94 2500 1.03 320 10:55 22.09.2022
1703 Drizzle 24 1010 100 2500 2.06 300 10:19 22.09.2022
1704 Clouds 24 1011 100 1700 0 0 08:22 22.09.2022
1705 Clouds 24 1011 100 2500 3.09 330 06:21 22.09.2022
1706 Haze 25 1008 94 3000 1.54 90 02:28 22.09.2022
1707 Haze 25 1008 94 3000 0 0 22:29 21.09.2022
1708 Haze 25 1009 94 3000 0 0 21:26 21.09.2022
1709 Haze 25 1010 94 3000 1.54 160 19:30 21.09.2022
1710 Haze 25 1010 94 3000 1.54 160 19:30 21.09.2022
1711 Haze 25 1009 94 3000 1.54 0 17:45 21.09.2022
1712 Haze 25 1009 94 2500 1.54 220 16:22 21.09.2022
1713 Clouds 25 1008 94 2500 4.12 250 13:57 21.09.2022
1714 Haze 26 1008 83 4000 4.12 280 12:19 21.09.2022
1715 Haze 26 1008 83 4000 4.63 280 11:28 21.09.2022
1716 Haze 25 1009 88 4000 5.14 270 09:44 21.09.2022
1717 Haze 26 1010 89 4000 4.63 290 08:50 21.09.2022
1718 Drizzle 25 1011 100 2500 3.09 240 06:20 21.09.2022
1719 Haze 25 1008 94 2500 0 0 02:44 21.09.2022
1720 Haze 25 1008 94 2500 0 0 02:20 21.09.2022
1721 Haze 25 1008 94 2500 2.06 110 00:26 21.09.2022
1722 Haze 25 1008 94 2500 2.57 110 22:30 20.09.2022
1723 Haze 25 1010 94 2500 2.57 120 20:37 20.09.2022
1724 Haze 25 1010 94 2500 2.57 140 19:24 20.09.2022
1725 Haze 25 1008 94 2500 2.57 100 16:18 20.09.2022
1726 Drizzle 25 1007 100 2500 2.06 120 14:35 20.09.2022
1727 Clouds 27 1007 83 3000 2.06 40 12:45 20.09.2022
1728 Haze 28 1010 83 3000 4.12 270 08:51 20.09.2022
1729 Haze 29 1010 79 3000 4.12 280 08:25 20.09.2022
1730 Haze 25 1009 94 2500 0 0 04:46 20.09.2022
1731 Haze 25 1009 94 2500 0 0 03:38 20.09.2022
1732 Haze 25 1008 94 2500 2.57 100 22:51 19.09.2022
1733 Haze 26 1009 94 2500 0 0 21:39 19.09.2022
1734 Haze 26 1009 89 2500 0 0 20:47 19.09.2022
1735 Haze 26 1010 89 2500 0 0 20:24 19.09.2022
1736 Haze 26 1010 94 2500 1.54 130 17:44 19.09.2022
1737 Haze 27 1008 83 2500 0 0 14:18 19.09.2022
1738 Haze 28 1008 83 2500 0 0 12:56 19.09.2022
1739 Haze 27 1009 78 2500 1.54 330 10:48 19.09.2022
1740 Clouds 24 1011 100 2200 2.06 290 08:51 19.09.2022
1741 Clouds 25 1010 94 2500 3.09 270 05:53 19.09.2022
1742 Haze 25 1007 94 3000 1.54 190 01:54 19.09.2022
1743 Haze 26 1008 94 3000 2.57 150 23:22 18.09.2022
1744 Haze 26 1009 94 3000 2.57 150 21:43 18.09.2022
1745 Haze 26 1010 94 3000 2.06 180 20:24 18.09.2022
1746 Haze 25 1009 94 3000 2.06 130 17:54 18.09.2022
1747 Haze 25 1009 94 3000 2.06 130 17:35 18.09.2022
1748 Haze 27 1008 89 3000 1.54 300 15:44 18.09.2022
1749 Haze 27 1007 83 4000 1.54 280 13:50 18.09.2022
1750 Drizzle 26 1007 94 2500 4.12 330 12:35 18.09.2022
1751 Clouds 25 1008 100 1600 5.14 320 11:24 18.09.2022
1752 Clouds 25 1008 100 1500 5.14 280 04:26 18.09.2022
1753 Rain 25 1007 100 1500 4.63 250 01:25 18.09.2022
1754 Haze 25 1006 100 2500 4.63 220 00:23 18.09.2022
1755 Clouds 25 1007 100 2200 1.54 180 21:40 17.09.2022
1756 Clouds 27 1008 89 2200 2.57 170 19:44 17.09.2022
1757 Haze 26 1008 94 2500 3.6 190 18:57 17.09.2022
1758 Haze 26 1008 94 2500 3.6 190 18:57 17.09.2022
1759 Drizzle 27 1006 89 3000 5.66 210 16:22 17.09.2022
1760 Haze 29 1005 84 3000 5.66 220 13:56 17.09.2022
1761 Haze 29 1006 84 2500 5.66 210 11:31 17.09.2022
1762 Haze 30 1007 79 3000 4.63 210 09:27 17.09.2022
1763 Haze 28 1008 89 2500 5.14 230 06:25 17.09.2022
1764 Clouds 27 1005 94 2500 2.06 220 01:51 17.09.2022
1765 Haze 26 1005 100 2500 0 0 22:54 16.09.2022
1766 Rain 26 1006 94 2200 0 0 21:23 16.09.2022
1767 Thunderstorm 26 1006 94 2500 2.57 300 19:51 16.09.2022
1768 Haze 27 1006 89 2500 0 0 17:50 16.09.2022
1769 Rain 28 1005 89 3000 5.14 250 15:34 16.09.2022
1770 Haze 28 1004 89 2500 5.66 240 13:57 16.09.2022
1771 Rain 27 1005 89 2500 6.69 260 11:43 16.09.2022
1772 Thunderstorm 26 1008 94 2200 1.54 20 08:26 16.09.2022
1773 Thunderstorm 25 1008 100 1700 3.09 310 07:19 16.09.2022
1774 Thunderstorm 26 1007 100 1800 4.12 340 06:47 16.09.2022
1775 Rain 27 1005 94 2500 4.63 250 02:52 16.09.2022
1776 Drizzle 26 1006 100 2500 6.17 250 22:56 15.09.2022
1777 Drizzle 26 1007 100 2500 5.14 230 21:18 15.09.2022
1778 Haze 27 1008 100 2500 4.12 260 19:49 15.09.2022
1779 Drizzle 26 1007 94 2500 3.6 240 18:29 15.09.2022
1780 Drizzle 26 1007 100 2500 3.6 230 17:32 15.09.2022
1781 Rain 27 1007 94 2500 5.66 250 16:43 15.09.2022
1782 Clouds 28 1006 89 2500 4.12 240 14:36 15.09.2022
1783 Haze 29 1006 84 2500 6.17 240 12:21 15.09.2022
1784 Clouds 28 1007 89 3000 5.14 220 09:54 15.09.2022
1785 Haze 28 1008 89 2500 6.17 220 07:50 15.09.2022
1786 Clouds 28 1007 89 3000 4.12 230 03:56 15.09.2022
1787 Haze 27 1005 94 3000 6.17 230 01:20 15.09.2022
1788 Haze 28 1007 89 2500 4.12 220 21:39 14.09.2022
1789 Haze 28 1007 89 2500 5.14 210 19:34 14.09.2022
1790 Haze 28 1007 89 2500 5.14 210 19:34 14.09.2022
1791 Haze 27 1007 94 2500 3.6 220 18:32 14.09.2022
1792 Clouds 27 1006 94 2200 4.12 220 16:57 14.09.2022
1793 Haze 27 1006 94 2500 4.63 230 15:38 14.09.2022
1794 Clouds 28 1005 89 2100 6.17 220 14:33 14.09.2022
1795 Clouds 29 1004 84 2100 7.72 210 11:39 14.09.2022
1796 Haze 28 1006 89 3000 4.12 220 09:48 14.09.2022
1797 Drizzle 29 1007 84 2500 6.17 220 07:38 14.09.2022
1798 Clouds 29 1007 84 2500 3.6 220 06:46 14.09.2022
1799 Haze 27 1005 94 2500 4.12 230 04:33 14.09.2022
1800 Rain 26 1004 94 2500 2.06 190 01:47 14.09.2022
1801 Haze 26 1003 100 2500 4.12 210 01:27 14.09.2022
1802 Drizzle 26 1003 100 2500 3.6 190 00:48 14.09.2022
1803 Clouds 26 1003 100 2100 5.14 250 23:54 13.09.2022
1804 Drizzle 26 1004 100 2500 4.12 230 23:36 13.09.2022
1805 Drizzle 26 1004 100 2500 4.12 230 23:18 13.09.2022
1806 Drizzle 26 1004 100 2500 4.63 230 21:50 13.09.2022
1807 Clouds 27 1005 94 2500 4.63 230 19:45 13.09.2022
1808 Haze 28 1004 89 3000 5.14 220 17:44 13.09.2022
1809 Haze 28 1003 89 3000 4.63 240 15:55 13.09.2022
1810 Haze 28 1002 89 3000 6.17 230 14:36 13.09.2022
1811 Clouds 28 1002 89 3000 4.12 240 12:40 13.09.2022
1812 Haze 28 1004 94 2500 5.66 250 08:50 13.09.2022
1813 Drizzle 26 1003 100 2200 0 0 05:45 13.09.2022
1814 Clouds 26 1000 100 2500 0 0 00:19 13.09.2022
1815 Rain 26 1001 100 2500 0 0 22:50 12.09.2022
1816 Rain 26 1002 100 2200 3.09 270 21:37 12.09.2022
1817 Thunderstorm 26 1002 100 2500 0 0 20:25 12.09.2022
1818 Clouds 27 1002 94 2500 2.57 20 18:44 12.09.2022
1819 Haze 29 1001 84 3000 2.57 200 16:38 12.09.2022
1820 Haze 29 999 84 4000 4.63 240 14:36 12.09.2022
1821 Clouds 28 1000 89 3000 3.09 270 11:30 12.09.2022
1822 Haze 30 1001 79 3000 3.09 190 09:56 12.09.2022
1823 Haze 27 1001 100 2500 2.06 150 04:51 12.09.2022
1824 Haze 27 1000 94 2500 2.06 110 04:24 12.09.2022
1825 Thunderstorm 27 1000 94 2200 0 0 23:39 11.09.2022
1826 Haze 27 1001 94 2200 3.6 160 22:28 11.09.2022
1827 Thunderstorm 28 1001 94 2000 2.57 140 20:50 11.09.2022
1828 Clouds 29 1002 89 2500 0 0 19:57 11.09.2022
1829 Thunderstorm 29 1001 89 2500 0 0 19:25 11.09.2022
1830 Thunderstorm 29 1001 89 2500 0 0 18:21 11.09.2022
1831 Clouds 29 1001 94 2500 3.6 250 16:46 11.09.2022
1832 Haze 30 1000 84 3000 4.12 280 14:53 11.09.2022
1833 Haze 30 999 79 3000 4.12 280 12:50 11.09.2022
1834 Haze 30 1003 79 2500 3.09 240 09:25 11.09.2022
1835 Haze 30 1003 79 2500 3.09 240 09:25 11.09.2022
1836 Haze 30 1004 84 2100 2.06 230 07:19 11.09.2022
1837 Haze 26 1002 100 2100 1.54 130 01:18 11.09.2022
1838 Haze 26 1003 100 2500 2.57 130 23:20 10.09.2022
1839 Haze 27 1004 100 2500 1.54 110 21:33 10.09.2022
1840 Rain 27 1005 100 2500 0 0 19:49 10.09.2022
1841 Rain 27 1005 100 2500 0 0 19:29 10.09.2022
1842 Rain 27 1005 100 2500 0 0 18:55 10.09.2022
1843 Rain 28 1004 89 2500 2.06 180 16:57 10.09.2022
1844 Haze 29 1002 84 3000 2.57 230 14:45 10.09.2022
1845 Haze 30 1001 79 5000 4.12 230 12:53 10.09.2022
1846 Haze 32 1003 62 4000 3.09 250 11:35 10.09.2022
1847 Haze 31 1005 70 3000 2.57 220 09:51 10.09.2022
1848 Haze 32 1005 66 3000 2.06 180 08:37 10.09.2022
1849 Haze 29 1006 84 3000 3.09 210 07:49 10.09.2022
1850 Clouds 26 1003 100 2500 2.06 120 02:47 10.09.2022
1851 Haze 26 1004 100 2500 0 0 23:34 09.09.2022
1852 Haze 26 1005 100 2500 1.54 60 22:20 09.09.2022
1853 Haze 26 1005 94 2500 2.06 120 20:48 09.09.2022
1854 Drizzle 26 1005 94 2500 0 0 19:25 09.09.2022
1855 Clouds 26 1005 100 2500 1.54 80 18:53 09.09.2022
1856 Thunderstorm 28 1004 94 2500 2.06 180 16:33 09.09.2022
1857 Haze 30 1002 79 4000 4.63 230 13:51 09.09.2022
1858 Haze 31 1001 74 4000 4.12 250 12:56 09.09.2022
1859 Haze 31 1004 74 3000 4.12 290 10:22 09.09.2022
1860 Haze 29 1006 89 3000 2.57 240 06:45 09.09.2022
1861 Haze 26 1004 94 3000 0 0 03:24 09.09.2022
1862 Thunderstorm 26 1004 100 2200 2.57 90 22:19 08.09.2022
1863 Thunderstorm 26 1005 100 2200 1.54 50 21:43 08.09.2022
1864 Thunderstorm 26 1007 100 2500 0 0 20:38 08.09.2022
1865 Thunderstorm 26 1007 100 2500 3.09 100 20:19 08.09.2022
1866 Clouds 26 1006 100 2500 2.06 170 18:26 08.09.2022
1867 Thunderstorm 27 1005 94 2500 2.57 20 16:38 08.09.2022
1868 Clouds 29 1003 94 600 4.63 290 14:41 08.09.2022
1869 Drizzle 30 1002 84 3500 5.66 290 13:27 08.09.2022
1870 Haze 32 1002 70 3500 4.12 240 12:33 08.09.2022
1871 Haze 32 1004 74 3500 3.6 270 10:58 08.09.2022
1872 Haze 32 1004 74 3500 3.6 270 10:58 08.09.2022
1873 Haze 31 1006 74 3000 3.09 40 08:59 08.09.2022
1874 Haze 27 1007 94 2500 1.54 20 06:43 08.09.2022
1875 Rain 26 1006 94 2100 3.09 60 02:37 08.09.2022
1876 Rain 26 1006 94 2100 3.09 60 02:19 08.09.2022
1877 Rain 26 1006 94 2100 2.57 40 01:58 08.09.2022
1878 Rain 26 1006 94 2200 2.06 30 22:55 07.09.2022
1879 Thunderstorm 26 1007 94 2100 4.12 50 21:43 07.09.2022
1880 Thunderstorm 26 1008 94 2100 4.12 80 21:18 07.09.2022
1881 Thunderstorm 26 1008 100 2100 3.6 70 19:54 07.09.2022
1882 Rain 25 1007 100 1800 3.09 120 18:39 07.09.2022
1883 Thunderstorm 27 1005 100 1900 2.06 190 15:21 07.09.2022
1884 Haze 31 1004 74 4000 6.69 270 10:50 07.09.2022
1885 Haze 31 1005 79 3000 6.17 260 10:24 07.09.2022
1886 Haze 30 1007 84 3000 3.6 300 07:43 07.09.2022
1887 Haze 28 1006 94 2500 2.06 360 04:46 07.09.2022
1888 Haze 28 1006 89 4000 2.57 30 00:26 07.09.2022
1889 Haze 29 1006 84 4000 3.09 340 21:47 06.09.2022
1890 Haze 29 1007 84 4000 3.09 330 21:27 06.09.2022
1891 Haze 29 1008 79 4000 2.06 310 18:55 06.09.2022
1892 Haze 29 1007 79 4000 2.57 310 18:27 06.09.2022
1893 Haze 29 1007 79 4000 0 0 17:23 06.09.2022
1894 Haze 29 1006 79 4000 2.57 320 16:40 06.09.2022
1895 Haze 30 1005 70 5000 4.12 310 15:23 06.09.2022
1896 Haze 31 1005 66 5000 4.12 300 13:46 06.09.2022
1897 Haze 31 1004 66 5000 4.12 320 13:26 06.09.2022
1898 Haze 31 1005 62 5000 5.66 300 12:37 06.09.2022
1899 Haze 31 1006 66 5000 5.66 290 10:46 06.09.2022
1900 Haze 29 1008 84 4000 5.14 250 08:54 06.09.2022
1901 Haze 30 1009 79 4000 2.06 250 07:52 06.09.2022
1902 Haze 27 1008 89 4000 3.09 20 04:48 06.09.2022
1903 Haze 28 1006 89 2500 0 0 23:52 05.09.2022
1904 Haze 28 1007 89 3000 1.54 0 22:41 05.09.2022
1905 Haze 28 1007 89 3500 1.54 170 20:59 05.09.2022
1906 Haze 28 1008 89 4000 0 0 19:50 05.09.2022
1907 Haze 28 1008 89 4000 1.54 0 18:49 05.09.2022
1908 Haze 28 1008 89 4000 2.06 310 18:23 05.09.2022
1909 Haze 29 1007 84 4000 6.17 290 17:31 05.09.2022
1910 Haze 29 1006 79 4000 4.63 310 15:52 05.09.2022
1911 Haze 30 1005 74 5000 3.6 280 13:54 05.09.2022
1912 Haze 31 1006 74 5000 3.6 280 12:29 05.09.2022
1913 Haze 31 1007 74 5000 3.6 270 10:34 05.09.2022
1914 Haze 30 1009 79 4000 6.17 280 07:44 05.09.2022
1915 Haze 28 1007 89 3000 3.09 290 02:58 05.09.2022
1916 Haze 28 1007 89 3000 2.06 230 23:48 04.09.2022
1917 Haze 27 1007 94 3000 2.57 260 22:28 04.09.2022
1918 Haze 28 1008 89 3000 5.66 260 21:45 04.09.2022
1919 Haze 29 1008 84 3000 2.06 270 19:44 04.09.2022
1920 Haze 29 1008 84 2500 2.06 300 18:21 04.09.2022
1921 Haze 29 1007 84 2500 2.06 280 17:24 04.09.2022
1922 Haze 29 1007 84 2500 2.57 320 15:23 04.09.2022
1923 Haze 29 1006 89 2500 4.12 300 14:22 04.09.2022
1924 Haze 29 1006 89 2500 4.63 290 12:24 04.09.2022
1925 Haze 30 1007 84 4000 5.66 280 10:58 04.09.2022
1926 Haze 31 1008 79 3000 5.66 260 09:24 04.09.2022
1927 Clouds 26 1009 100 2200 3.09 280 06:27 04.09.2022
1928 Haze 28 1006 94 2500 0 0 02:31 04.09.2022
1929 Rain 28 1007 94 2200 0 0 22:33 03.09.2022
1930 Drizzle 27 1008 94 1800 1.54 230 21:25 03.09.2022
1931 Clouds 27 1008 100 1500 1.54 160 20:55 03.09.2022
1932 Haze 30 1007 89 3500 2.06 260 17:37 03.09.2022
1933 Haze 30 1007 89 3500 4.12 230 16:52 03.09.2022
1934 Haze 30 1006 84 4000 4.63 240 14:52 03.09.2022
1935 Haze 30 1005 84 4000 4.63 220 14:30 03.09.2022
1936 Haze 30 1005 84 4000 3.6 230 13:44 03.09.2022
1937 Haze 31 1006 79 4000 6.17 240 11:32 03.09.2022
1938 Haze 32 1008 74 3000 3.6 250 09:22 03.09.2022
1939 Haze 32 1008 74 2500 2.57 220 07:48 03.09.2022
1940 Smoke 28 1008 94 1800 1.54 120 04:50 03.09.2022
1941 Haze 27 1006 94 3000 0 0 02:35 03.09.2022
1942 Haze 27 1006 94 3000 2.06 120 23:42 02.09.2022
1943 Haze 27 1007 94 3000 0 0 21:57 02.09.2022
1944 Haze 27 1008 94 3000 1.54 70 20:42 02.09.2022
1945 Haze 27 1008 94 3000 3.09 70 19:47 02.09.2022
1946 Haze 28 1008 89 3000 0 0 18:50 02.09.2022
1947 Haze 28 1007 89 2500 3.09 100 18:25 02.09.2022
1948 Haze 28 1008 83 2500 3.09 90 17:24 02.09.2022
1949 Haze 29 1007 89 2200 2.57 80 16:31 02.09.2022
1950 Clouds 30 1005 84 3000 3.6 290 13:32 02.09.2022
1951 Haze 33 1006 75 4000 5.66 250 10:43 02.09.2022
1952 Haze 33 1007 70 4000 5.14 270 09:42 02.09.2022
1953 Haze 32 1007 74 4000 4.63 270 08:46 02.09.2022
1954 Haze 31 1008 74 2500 3.09 260 06:46 02.09.2022
1955 Haze 31 1008 74 2500 2.57 260 06:21 02.09.2022
1956 Haze 28 1006 89 3000 2.06 130 00:20 02.09.2022
1957 Haze 28 1007 83 3000 1.54 10 21:56 01.09.2022
1958 Haze 29 1007 84 3000 3.09 10 21:37 01.09.2022
1959 Haze 29 1007 84 3000 3.09 10 21:18 01.09.2022
1960 Haze 29 1007 79 3000 1.54 330 20:23 01.09.2022
1961 Haze 29 1007 84 3000 2.57 350 18:20 01.09.2022
1962 Haze 30 1006 79 3000 3.09 300 16:54 01.09.2022
1963 Haze 30 1005 79 4000 5.66 290 14:52 01.09.2022
1964 Haze 31 1004 79 4000 6.17 260 13:23 01.09.2022
1965 Haze 31 1004 74 4000 6.17 270 12:55 01.09.2022
1966 Haze 32 1005 70 4000 5.14 240 11:51 01.09.2022
1967 Haze 31 1005 79 4000 5.14 240 11:19 01.09.2022
1968 Haze 30 1007 84 4000 4.63 270 09:31 01.09.2022
1969 Haze 28 1008 78 2500 1.54 50 06:34 01.09.2022
1970 Thunderstorm 25 1006 94 2500 2.06 70 02:34 01.09.2022
1971 Drizzle 25 1006 94 2500 2.57 80 01:30 01.09.2022
1972 Drizzle 25 1006 94 2500 2.57 80 01:30 01.09.2022
1973 Drizzle 25 1006 94 2500 2.57 80 01:30 01.09.2022
1974 Drizzle 25 1006 94 2500 2.57 80 01:30 01.09.2022
1975 Rain 25 1007 100 2500 2.06 30 22:22 31.08.2022
1976 Thunderstorm 26 1008 94 2200 2.57 50 20:43 31.08.2022
1977 Thunderstorm 29 1007 89 2500 0 0 18:45 31.08.2022
1978 Thunderstorm 29 1005 89 3000 3.09 300 16:36 31.08.2022
1979 Thunderstorm 30 1005 84 3000 4.12 300 15:21 31.08.2022
1980 Haze 32 1004 74 5000 5.66 290 12:58 31.08.2022
1981 Haze 32 1004 74 4500 6.69 290 11:54 31.08.2022
1982 Haze 31 1007 79 4000 5.66 300 09:35 31.08.2022
1983 Haze 31 1008 74 3500 4.12 290 07:31 31.08.2022
1984 Haze 28 1006 89 3000 0 0 02:25 31.08.2022
1985 Haze 28 1007 89 3000 3.09 290 22:21 30.08.2022
1986 Haze 28 1007 89 3000 2.57 300 21:27 30.08.2022
1987 Haze 29 1008 84 3000 3.09 130 19:51 30.08.2022
1988 Haze 29 1008 79 3500 2.57 350 16:47 30.08.2022
1989 Haze 30 1007 74 4000 5.66 300 13:38 30.08.2022
1990 Haze 31 1007 70 4000 6.17 300 11:44 30.08.2022
1991 Haze 31 1008 70 4000 4.63 310 11:19 30.08.2022
1992 Haze 30 1009 74 4000 4.12 280 09:32 30.08.2022
1993 Clouds 29 1010 84 3000 3.09 30 06:26 30.08.2022
1994 Haze 27 1007 89 3000 1.54 350 00:33 30.08.2022
1995 Haze 28 1008 83 4000 0 0 22:37 29.08.2022
1996 Haze 28 1008 83 4000 1.54 320 21:51 29.08.2022
1997 Haze 28 1009 83 4000 1.54 320 20:35 29.08.2022
1998 Haze 28 1009 83 4000 1.54 350 18:58 29.08.2022
1999 Haze 28 1008 83 4000 3.09 300 17:32 29.08.2022
2000 Haze 29 1008 79 4000 2.57 320 16:58 29.08.2022
2001 Haze 29 1007 74 4000 4.63 290 15:19 29.08.2022
2002 Haze 30 1007 70 4000 5.66 270 13:42 29.08.2022
2003 Haze 30 1007 79 4000 5.14 240 12:24 29.08.2022
2004 Haze 30 1009 74 5000 5.14 270 10:43 29.08.2022
2005 Haze 30 1010 74 4000 4.63 270 09:18 29.08.2022
2006 Drizzle 27 1011 89 2500 2.06 150 06:52 29.08.2022
2007 Haze 26 1008 94 3000 2.57 170 02:31 29.08.2022
2008 Haze 28 1007 78 4000 1.54 340 23:35 28.08.2022
2009 Haze 28 1008 78 4000 0 0 21:48 28.08.2022
2010 Haze 28 1008 83 4000 1.54 270 21:25 28.08.2022
2011 Haze 28 1008 78 4000 2.06 300 20:18 28.08.2022
2012 Haze 28 1008 78 4000 2.06 300 20:18 28.08.2022
2013 Haze 28 1008 78 4000 2.57 300 18:22 28.08.2022
2014 Haze 28 1007 78 4000 3.09 290 17:51 28.08.2022
2015 Haze 29 1007 74 4000 3.09 310 16:44 28.08.2022
2016 Haze 29 1006 74 5000 5.14 280 15:33 28.08.2022
2017 Haze 30 1005 74 5000 6.69 270 13:19 28.08.2022
2018 Clouds 30 1006 74 6000 5.14 280 11:25 28.08.2022
2019 Haze 30 1007 70 5000 6.17 280 10:20 28.08.2022
2020 Haze 30 1008 66 5000 5.66 280 08:52 28.08.2022
2021 Haze 30 1008 74 4000 4.63 240 07:53 28.08.2022
2022 Haze 29 1008 74 4000 2.57 260 07:23 28.08.2022
2023 Haze 27 1007 83 3000 0 0 00:36 28.08.2022
2024 Haze 28 1008 78 4000 2.06 230 22:58 27.08.2022
2025 Haze 28 1008 78 4000 1.54 280 22:24 27.08.2022
2026 Haze 28 1009 78 4000 3.6 250 20:35 27.08.2022
2027 Haze 28 1009 78 4000 2.57 290 18:57 27.08.2022
2028 Haze 29 1007 74 4000 5.14 270 16:26 27.08.2022
2029 Haze 29 1006 74 5000 4.12 300 15:31 27.08.2022
2030 Haze 30 1006 70 5000 5.14 280 13:19 27.08.2022
2031 Haze 30 1006 70 5000 6.17 270 11:59 27.08.2022
2032 Haze 30 1007 74 5000 6.17 270 10:27 27.08.2022
2033 Haze 30 1008 70 5000 4.63 250 09:33 27.08.2022
2034 Haze 30 1009 70 3000 2.57 310 06:52 27.08.2022
2035 Haze 27 1006 89 3000 2.06 280 00:52 27.08.2022
2036 Haze 27 1006 89 3000 2.06 280 00:52 27.08.2022
2037 Haze 28 1007 83 3000 2.06 270 23:46 26.08.2022
2038 Haze 27 1007 89 3000 2.06 210 21:46 26.08.2022
2039 Haze 28 1008 83 3000 2.06 240 19:50 26.08.2022
2040 Haze 28 1007 83 3000 2.57 320 17:53 26.08.2022
2041 Haze 28 1007 83 4000 3.6 260 15:45 26.08.2022
2042 Haze 29 1006 79 4000 5.14 250 15:24 26.08.2022
2043 Haze 30 1006 70 4000 6.17 260 12:59 26.08.2022
2044 Haze 30 1006 70 4000 5.66 250 11:47 26.08.2022
2045 Haze 30 1007 74 4000 6.17 280 11:21 26.08.2022
2046 Haze 29 1008 79 4000 4.63 230 08:55 26.08.2022
2047 Clouds 27 1007 89 3000 3.09 280 03:51 26.08.2022
2048 Haze 27 1006 89 3000 2.57 240 00:39 26.08.2022
2049 Haze 27 1007 89 3000 3.6 230 22:39 25.08.2022
2050 Haze 27 1007 89 3000 3.09 250 20:54 25.08.2022
2051 Clouds 26 1008 94 2500 2.57 220 19:35 25.08.2022
2052 Clouds 28 1007 83 3000 2.57 220 18:29 25.08.2022
2053 Haze 28 1007 83 3000 4.63 250 17:31 25.08.2022
2054 Haze 28 1007 83 3000 5.14 250 16:40 25.08.2022
2055 Haze 28 1006 83 3500 4.63 260 15:29 25.08.2022
2056 Haze 29 1006 79 4000 5.66 270 13:51 25.08.2022
2057 Clouds 28 1007 83 3000 4.63 240 11:21 25.08.2022
2058 Haze 29 1007 84 3500 3.6 260 10:42 25.08.2022
2059 Clouds 29 1008 84 1700 4.12 240 07:35 25.08.2022
2060 Haze 26 1007 94 2500 2.57 240 02:51 25.08.2022
2061 Haze 26 1006 94 2500 2.06 230 23:36 24.08.2022
2062 Haze 26 1007 94 2500 3.09 220 22:56 24.08.2022
2063 Haze 26 1008 89 2500 1.54 210 21:55 24.08.2022
2064 Haze 27 1008 89 2500 3.09 230 21:28 24.08.2022
2065 Haze 27 1008 89 2500 3.09 210 19:56 24.08.2022
2066 Haze 26 1008 94 2500 4.63 260 16:58 24.08.2022
2067 Haze 28 1007 83 2500 5.14 250 15:54 24.08.2022
2068 Haze 28 1006 89 2500 6.17 250 15:28 24.08.2022
2069 Haze 29 1006 89 2500 4.12 240 12:51 24.08.2022
2070 Haze 30 1007 79 4000 5.66 250 11:19 24.08.2022
2071 Haze 29 1008 84 3000 4.63 240 08:45 24.08.2022
2072 Haze 27 1008 89 3000 3.6 220 06:23 24.08.2022
2073 Clouds 26 1005 100 2100 5.14 230 00:55 24.08.2022
2074 Haze 27 1006 94 2500 3.6 230 22:41 23.08.2022
2075 Clouds 26 1007 94 2100 6.69 250 21:55 23.08.2022
2076 Haze 26 1007 94 2500 4.63 230 20:47 23.08.2022
2077 Haze 27 1007 94 2500 4.63 230 19:18 23.08.2022
2078 Clouds 28 1006 89 2500 6.17 230 17:59 23.08.2022
2079 Haze 28 1006 89 3000 6.17 230 17:22 23.08.2022
2080 Haze 28 1005 83 3000 4.12 230 16:24 23.08.2022
2081 Haze 28 1004 89 3500 6.17 240 14:30 23.08.2022
2082 Haze 28 1004 89 3500 5.14 230 12:46 23.08.2022
2083 Rain 29 1004 79 3000 4.12 220 10:58 23.08.2022
2084 Clouds 29 1005 84 3000 5.14 230 10:33 23.08.2022
2085 Haze 29 1005 84 3500 7.2 240 09:32 23.08.2022
2086 Haze 29 1005 79 3500 4.63 240 08:46 23.08.2022
2087 Haze 28 1005 89 3000 4.12 240 08:19 23.08.2022
2088 Clouds 27 1005 89 2500 6.17 250 07:31 23.08.2022
2089 Haze 28 1005 89 3500 6.69 240 06:23 23.08.2022
2090 Clouds 27 1003 89 2500 6.69 250 01:45 23.08.2022
2091 Clouds 27 1002 94 2500 4.63 250 00:27 23.08.2022
2092 Haze 27 1002 94 2100 4.12 240 23:32 22.08.2022
2093 Haze 27 1003 89 2500 3.09 240 22:25 22.08.2022
2094 Clouds 27 1004 89 2500 4.63 250 20:44 22.08.2022
2095 Haze 27 1005 94 2500 4.12 240 19:44 22.08.2022
2096 Haze 27 1005 94 2500 3.6 240 18:37 22.08.2022
2097 Haze 28 1004 89 2500 6.69 260 15:55 22.08.2022
2098 Haze 28 1004 83 2500 6.69 260 15:18 22.08.2022
2099 Haze 29 1004 84 3000 6.17 260 11:45 22.08.2022
2100 Haze 29 1005 79 3000 4.12 250 09:24 22.08.2022
2101 Haze 29 1006 84 2500 6.69 260 06:58 22.08.2022
2102 Haze 27 1004 89 2500 5.66 250 02:28 22.08.2022
2103 Haze 27 1003 89 2500 5.14 240 00:36 22.08.2022
2104 Haze 27 1004 89 2500 4.63 250 23:32 21.08.2022
2105 Haze 27 1005 94 2500 6.69 250 21:55 21.08.2022
2106 Haze 27 1005 94 2500 4.63 250 21:20 21.08.2022
2107 Haze 27 1006 94 2500 6.17 250 20:20 21.08.2022
2108 Haze 27 1006 94 2500 6.17 250 18:49 21.08.2022
2109 Haze 28 1005 89 3000 5.14 240 16:50 21.08.2022
2110 Clouds 28 1005 89 3000 4.63 240 15:52 21.08.2022
2111 Haze 28 1005 83 4000 6.17 250 14:51 21.08.2022
2112 Haze 28 1005 83 4000 4.12 270 13:50 21.08.2022
2113 Haze 28 1005 83 4000 4.12 260 12:56 21.08.2022
2114 Haze 29 1006 84 3500 6.17 240 10:40 21.08.2022
2115 Haze 29 1007 74 3000 5.66 260 08:57 21.08.2022
2116 Haze 29 1007 74 3000 5.66 260 08:39 21.08.2022
2117 Haze 27 1007 94 3000 6.17 260 08:18 21.08.2022
2118 Clouds 27 1008 94 2500 3.09 260 06:37 21.08.2022
2119 Haze 27 1005 94 3000 6.17 260 01:50 21.08.2022
2120 Haze 27 1005 94 2500 4.63 250 23:34 20.08.2022
2121 Haze 27 1006 94 2500 4.63 250 21:55 20.08.2022
2122 Haze 27 1006 94 2500 5.14 240 20:51 20.08.2022
2123 Haze 27 1007 94 2500 5.14 250 19:44 20.08.2022
2124 Haze 27 1007 94 2500 4.63 250 18:50 20.08.2022
2125 Haze 28 1007 89 2500 4.63 250 18:26 20.08.2022
2126 Haze 27 1007 94 2500 4.63 240 17:21 20.08.2022
2127 Haze 27 1006 94 2500 4.63 250 16:20 20.08.2022
2128 Haze 27 1006 89 3000 4.63 230 14:26 20.08.2022
2129 Drizzle 26 1007 100 2200 3.6 260 11:58 20.08.2022
2130 Drizzle 26 1007 100 2200 3.6 260 11:37 20.08.2022
2131 Clouds 27 1008 94 1600 3.6 260 09:20 20.08.2022
2132 Haze 28 1008 83 3000 7.2 250 07:30 20.08.2022
2133 Clouds 27 1008 94 1400 2.57 270 05:22 20.08.2022
2134 Haze 27 1006 94 2500 4.12 230 00:58 20.08.2022
2135 Haze 27 1006 94 2500 4.12 230 23:45 19.08.2022
2136 Haze 27 1006 94 2500 2.57 210 22:45 19.08.2022
2137 Haze 27 1007 94 2500 3.6 240 21:20 19.08.2022
2138 Haze 28 1008 89 2500 4.12 240 19:22 19.08.2022
2139 Haze 27 1007 89 3000 4.12 240 16:23 19.08.2022
2140 Clouds 28 1006 89 2500 6.69 270 13:56 19.08.2022
2141 Haze 29 1006 84 4000 4.12 220 11:51 19.08.2022
2142 Haze 30 1007 79 3500 5.14 240 10:33 19.08.2022
2143 Haze 29 1008 84 3000 6.69 240 08:43 19.08.2022
2144 Haze 27 1007 94 2500 4.12 240 04:43 19.08.2022
2145 Haze 27 1006 94 2500 3.6 230 00:42 19.08.2022
2146 Haze 27 1006 94 2500 3.09 230 00:19 19.08.2022
2147 Haze 27 1006 89 2500 3.6 220 22:57 18.08.2022
2148 Haze 27 1006 94 2500 4.12 220 22:26 18.08.2022
2149 Haze 27 1007 94 2500 4.12 230 21:50 18.08.2022
2150 Haze 27 1007 94 2500 4.12 220 20:55 18.08.2022
2151 Haze 27 1008 94 2500 4.12 230 19:39 18.08.2022
2152 Haze 27 1008 94 2500 4.12 230 19:20 18.08.2022
2153 Haze 27 1007 89 2500 4.63 230 17:32 18.08.2022
2154 Haze 27 1006 94 2500 3.6 240 16:18 18.08.2022
2155 Haze 28 1006 89 3000 6.17 240 14:21 18.08.2022
2156 Haze 28 1006 89 3000 5.66 240 13:44 18.08.2022
2157 Haze 28 1006 89 3000 5.66 240 13:44 18.08.2022
2158 Clouds 28 1006 83 2500 6.17 230 12:30 18.08.2022
2159 Clouds 30 1006 70 3500 5.66 230 11:20 18.08.2022
2160 Haze 29 1007 89 3000 5.66 230 09:43 18.08.2022
2161 Clouds 29 1008 89 2500 5.66 210 07:27 18.08.2022
2162 Clouds 28 1008 89 3000 4.12 220 06:30 18.08.2022
2163 Haze 26 1005 100 2500 4.12 240 01:44 18.08.2022
2164 Clouds 27 1006 94 2200 3.6 210 22:46 17.08.2022
2165 Haze 27 1007 94 2500 3.6 210 20:30 17.08.2022
2166 Haze 27 1007 89 2500 5.66 210 19:58 17.08.2022
2167 Haze 27 1007 89 2500 4.12 220 18:37 17.08.2022
2168 Haze 27 1007 94 2500 4.12 240 17:21 17.08.2022
2169 Haze 27 1006 94 2500 3.6 220 16:20 17.08.2022
2170 Clouds 26 1005 94 2500 4.12 240 14:41 17.08.2022
2171 Clouds 28 1005 89 1000 10.29 250 12:30 17.08.2022
2172 Haze 28 1006 89 2500 5.66 210 11:23 17.08.2022
2173 Haze 28 1006 89 2500 5.66 220 09:22 17.08.2022
2174 Haze 28 1007 89 2500 4.63 220 06:34 17.08.2022
2175 Haze 27 1005 94 2500 5.14 210 01:22 17.08.2022
2176 Clouds 26 1005 100 2500 5.14 230 23:27 16.08.2022
2177 Clouds 26 1006 100 2500 4.12 230 21:32 16.08.2022
2178 Haze 27 1006 94 2500 4.63 210 20:22 16.08.2022
2179 Drizzle 27 1006 94 2500 6.17 230 19:27 16.08.2022
2180 Haze 27 1005 94 2500 4.12 230 17:56 16.08.2022
2181 Clouds 27 1005 89 1600 5.66 210 16:55 16.08.2022
2182 Rain 27 1004 94 2500 6.17 230 15:45 16.08.2022
2183 Haze 28 1004 89 2500 7.2 220 14:54 16.08.2022
2184 Haze 28 1004 89 2500 4.63 210 14:36 16.08.2022
2185 Haze 28 1004 89 2500 4.12 230 12:39 16.08.2022
2186 Rain 26 1005 100 2100 6.17 210 10:23 16.08.2022
2187 Rain 25 1005 100 2100 5.66 210 08:55 16.08.2022
2188 Rain 25 1005 100 1200 2.06 200 08:26 16.08.2022
2189 Clouds 26 1006 94 3000 4.63 220 06:48 16.08.2022
2190 Haze 27 1004 89 3000 6.17 230 01:20 16.08.2022
2191 Haze 26 1005 94 3000 3.6 230 22:26 15.08.2022
2192 Haze 26 1005 94 2500 4.12 220 21:51 15.08.2022
2193 Haze 27 1006 94 3000 5.14 230 20:39 15.08.2022
2194 Haze 27 1006 94 3000 4.12 220 19:59 15.08.2022
2195 Haze 27 1006 89 3000 6.17 230 18:20 15.08.2022
2196 Rain 27 1005 89 3000 5.14 230 16:26 15.08.2022
2197 Haze 27 1005 89 3000 5.14 230 15:55 15.08.2022
2198 Drizzle 28 1005 89 3000 4.63 220 13:54 15.08.2022
2199 Haze 28 1005 89 3000 5.66 240 12:24 15.08.2022
2200 Haze 29 1006 84 2500 4.63 240 09:54 15.08.2022
2201 Haze 28 1006 89 2500 4.12 240 08:21 15.08.2022
2202 Haze 27 1005 94 2500 6.17 230 04:36 15.08.2022
2203 Rain 27 1005 89 2500 3.6 240 01:26 15.08.2022
2204 Haze 27 1006 94 2500 3.6 240 22:39 14.08.2022
2205 Haze 27 1006 94 2500 5.14 230 21:38 14.08.2022
2206 Haze 28 1007 89 2500 5.66 230 19:58 14.08.2022
2207 Haze 28 1007 89 2500 3.6 230 18:59 14.08.2022
2208 Haze 28 1006 89 2500 6.69 240 18:19 14.08.2022
2209 Haze 27 1006 89 2500 6.69 230 16:53 14.08.2022
2210 Haze 28 1005 83 3000 7.2 220 15:49 14.08.2022
2211 Haze 28 1005 89 3000 5.14 220 14:33 14.08.2022
2212 Haze 29 1005 84 3000 5.66 230 13:50 14.08.2022
2213 Haze 29 1005 79 3000 8.75 250 13:20 14.08.2022
2214 Haze 28 1005 89 2500 6.17 230 12:28 14.08.2022
2215 Clouds 28 1006 83 1000 8.23 220 10:50 14.08.2022
2216 Haze 29 1007 84 3000 5.66 210 08:52 14.08.2022
2217 Haze 26 1007 94 2500 2.57 220 06:22 14.08.2022
2218 Haze 27 1005 89 2500 4.12 220 02:57 14.08.2022
2219 Haze 26 1004 94 2500 2.57 220 00:19 14.08.2022
2220 Haze 27 1004 94 2500 3.6 220 22:56 13.08.2022
2221 Haze 26 1005 94 2500 4.12 230 21:19 13.08.2022
2222 Haze 27 1006 89 2500 3.6 230 20:43 13.08.2022
2223 Haze 28 1006 89 2500 5.14 220 19:44 13.08.2022
2224 Haze 27 1005 94 2500 6.17 200 17:59 13.08.2022
2225 Haze 28 1004 89 3000 4.12 210 15:40 13.08.2022
2226 Haze 28 1003 89 3000 6.17 220 14:28 13.08.2022
2227 Haze 29 1003 84 3000 5.14 200 13:41 13.08.2022
2228 Haze 29 1003 84 3000 6.17 230 11:53 13.08.2022
2229 Haze 30 1004 79 3000 6.17 230 10:31 13.08.2022
2230 Haze 29 1005 84 2500 7.2 220 09:18 13.08.2022
2231 Haze 28 1004 89 2500 5.14 250 05:57 13.08.2022
2232 Haze 26 1003 94 2500 3.6 220 00:30 13.08.2022
2233 Haze 27 1004 94 2500 6.17 220 22:23 12.08.2022
2234 Haze 28 1004 89 2500 5.66 220 20:58 12.08.2022
2235 Haze 28 1005 89 2500 4.12 210 19:43 12.08.2022
2236 Haze 27 1004 94 2500 5.14 210 18:58 12.08.2022
2237 Haze 27 1004 94 2500 5.14 210 17:57 12.08.2022
2238 Haze 27 1002 89 2500 4.63 220 16:24 12.08.2022
2239 Drizzle 27 1001 94 1700 7.72 200 14:47 12.08.2022
2240 Haze 29 1001 84 2500 7.2 220 12:59 12.08.2022
2241 Drizzle 29 1002 84 2500 5.14 220 11:19 12.08.2022
2242 Clouds 29 1003 84 2500 6.17 210 08:47 12.08.2022
2243 Drizzle 26 1003 100 2200 4.63 210 07:44 12.08.2022
2244 Clouds 25 1001 94 2100 4.63 210 03:41 12.08.2022
2245 Drizzle 27 1000 94 2500 9.26 230 00:31 12.08.2022
2246 Clouds 26 1000 100 1600 6.17 210 23:40 11.08.2022
2247 Clouds 27 1001 94 2100 3.6 210 22:35 11.08.2022
2248 Clouds 27 1001 89 1700 5.14 210 21:47 11.08.2022
2249 Clouds 27 1001 94 1700 4.63 220 21:22 11.08.2022
2250 Clouds 26 1001 94 2200 7.2 210 20:29 11.08.2022
2251 Drizzle 28 1001 89 2500 5.14 240 19:33 11.08.2022
2252 Haze 28 1000 89 2500 4.63 230 18:39 11.08.2022
2253 Clouds 27 1001 84 10000 12.24 228 16:38 11.08.2022
2254 Rain 27 1000 85 8976 13.38 230 15:37 11.08.2022
2255 Clouds 28 998 89 2200 5.66 200 13:51 11.08.2022
2256 Clouds 26 998 100 2200 4.63 240 11:26 11.08.2022
2257 Haze 29 999 84 1500 7.72 220 07:56 11.08.2022
2258 Haze 28 998 89 2200 6.69 210 04:53 11.08.2022
2259 Clouds 26 996 94 1200 3.6 250 01:56 11.08.2022
2260 Clouds 26 996 100 2100 4.63 220 22:54 10.08.2022
2261 Haze 27 996 94 2500 5.66 230 21:45 10.08.2022
2262 Haze 27 997 94 2500 4.12 220 20:56 10.08.2022
2263 Clouds 26 997 100 2200 6.17 220 19:58 10.08.2022
2264 Clouds 26 997 100 1500 6.69 230 18:45 10.08.2022
2265 Haze 27 997 94 2500 5.14 220 17:20 10.08.2022
2266 Clouds 26 995 100 1500 7.2 220 13:49 10.08.2022
2267 Clouds 27 995 94 1800 6.69 210 12:50 10.08.2022
2268 Clouds 26 997 100 2000 7.72 220 10:31 10.08.2022
2269 Clouds 28 997 94 2500 6.17 210 08:37 10.08.2022
2270 Clouds 27 998 94 1600 4.63 200 07:22 10.08.2022
2271 Drizzle 27 997 94 2500 4.63 220 04:50 10.08.2022
2272 Clouds 26 996 100 2200 4.63 230 00:50 10.08.2022
2273 Clouds 25 996 100 2200 5.14 230 23:29 09.08.2022
2274 Haze 26 998 100 2500 4.12 250 21:41 09.08.2022
2275 Haze 26 998 100 2500 4.12 250 21:22 09.08.2022
2276 Haze 27 998 94 2500 6.17 230 18:56 09.08.2022
2277 Haze 28 998 83 3000 5.66 230 17:31 09.08.2022
2278 Haze 28 997 83 3000 8.23 230 16:46 09.08.2022
2279 Haze 28 997 83 3000 6.17 240 16:22 09.08.2022
2280 Haze 28 996 83 3000 10.29 230 14:50 09.08.2022
2281 Clouds 28 996 89 2500 7.2 210 11:29 09.08.2022
2282 Clouds 27 998 94 2200 6.69 220 08:53 09.08.2022
2283 Drizzle 27 998 100 2100 6.69 220 07:58 09.08.2022
2284 Clouds 26 997 100 1200 5.66 240 05:24 09.08.2022
2285 Rain 26 995 100 300 8.75 270 00:59 09.08.2022
2286 Rain 26 995 100 300 8.75 270 00:59 09.08.2022
2287 Rain 26 995 100 500 4.12 270 23:25 08.08.2022
2288 Haze 26 995 100 2100 6.69 260 22:42 08.08.2022
2289 Drizzle 26 996 100 2100 3.09 170 21:44 08.08.2022
2290 Drizzle 27 997 94 2100 3.6 160 20:43 08.08.2022
2291 Rain 26 998 100 2100 5.14 200 19:39 08.08.2022
2292 Rain 27 998 100 2100 3.6 220 18:18 08.08.2022
2293 Clouds 26 997 100 2100 8.23 230 15:55 08.08.2022
2294 Clouds 27 996 94 1000 6.17 220 15:37 08.08.2022
2295 Clouds 28 997 89 3000 3.09 120 12:31 08.08.2022
2296 Clouds 27 998 100 2500 3.09 230 10:37 08.08.2022
2297 Haze 27 1000 94 2500 4.12 140 07:59 08.08.2022
2298 Haze 26 999 94 2500 1.54 120 04:45 08.08.2022
2299 Haze 26 998 94 2500 0 0 01:29 08.08.2022
2300 Clouds 26 1001 100 2200 4.12 280 21:42 07.08.2022
2301 Clouds 26 1001 100 2200 4.12 280 21:24 07.08.2022
2302 Rain 25 1001 100 2200 4.12 210 20:24 07.08.2022
2303 Rain 26 1002 94 1800 3.6 240 19:52 07.08.2022
2304 Rain 26 1002 94 1800 3.6 240 19:22 07.08.2022
2305 Thunderstorm 25 1001 100 1600 6.17 230 17:45 07.08.2022
2306 Thunderstorm 26 1000 100 1800 5.14 240 16:52 07.08.2022
2307 Thunderstorm 26 999 100 1500 4.63 220 15:40 07.08.2022
2308 Thunderstorm 26 998 100 1800 4.63 240 14:27 07.08.2022
2309 Clouds 28 998 94 2200 4.63 210 12:41 07.08.2022
2310 Haze 29 999 84 2500 3.09 290 10:53 07.08.2022
2311 Drizzle 29 999 89 2500 4.63 260 10:21 07.08.2022
2312 Clouds 26 1000 100 2200 1.54 0 04:41 07.08.2022
2313 Clouds 26 999 100 2500 1.54 130 02:35 07.08.2022
2314 Clouds 27 999 94 3000 0 0 22:57 06.08.2022
2315 Haze 27 1000 94 3000 0 0 22:19 06.08.2022
2316 Haze 27 1001 94 3000 3.6 170 20:19 06.08.2022
2317 Haze 27 1001 94 3000 2.57 170 19:38 06.08.2022
2318 Haze 29 1000 84 3500 3.09 180 17:52 06.08.2022
2319 Haze 29 999 79 4000 3.09 230 16:33 06.08.2022
2320 Haze 30 998 79 5000 3.6 260 13:52 06.08.2022
2321 Haze 30 998 79 5000 4.12 270 12:50 06.08.2022
2322 Haze 30 999 79 5000 5.14 260 11:21 06.08.2022
2323 Haze 29 1000 84 5000 4.63 240 09:50 06.08.2022
2324 Haze 27 1001 100 3500 3.6 220 07:36 06.08.2022
2325 Haze 26 1000 94 3000 0 0 02:22 06.08.2022
2326 Drizzle 26 1001 100 3500 2.57 150 22:40 05.08.2022
2327 Clouds 27 1001 94 3000 3.09 170 21:36 05.08.2022
2328 Haze 27 1002 94 3000 3.09 190 19:29 05.08.2022
2329 Haze 28 1002 89 3500 2.06 200 18:44 05.08.2022
2330 Haze 28 1001 83 3000 2.06 200 17:26 05.08.2022
2331 Haze 28 1001 83 3000 2.06 190 16:43 05.08.2022
2332 Haze 28 1000 89 3500 3.6 260 15:21 05.08.2022
2333 Drizzle 28 999 89 4000 5.14 250 13:43 05.08.2022
2334 Drizzle 28 999 83 4000 4.63 260 13:22 05.08.2022
2335 Haze 28 999 83 4000 4.12 260 12:24 05.08.2022
2336 Haze 28 1000 89 3000 6.17 270 10:35 05.08.2022
2337 Haze 29 1002 84 3000 1.03 250 07:58 05.08.2022
2338 Haze 27 1002 94 2500 2.06 230 05:32 05.08.2022
2339 Rain 27 1001 100 2500 1.54 160 00:30 05.08.2022
2340 Rain 28 1002 89 2500 2.06 260 22:25 04.08.2022
2341 Haze 28 1002 89 3000 1.54 260 21:25 04.08.2022
2342 Haze 28 1003 89 3000 2.06 270 20:42 04.08.2022
2343 Haze 29 1003 84 3500 1.54 320 19:23 04.08.2022
2344 Haze 28 1002 83 3500 2.57 290 18:35 04.08.2022
2345 Haze 28 1002 83 3500 2.06 260 17:37 04.08.2022
2346 Haze 29 1000 84 5000 5.14 260 13:57 04.08.2022
2347 Haze 30 1000 74 5000 3.09 280 12:43 04.08.2022
2348 Haze 28 1002 89 5000 5.14 300 10:50 04.08.2022
2349 Haze 27 1004 94 3000 2.57 350 07:53 04.08.2022
2350 Clouds 27 1004 94 2500 1.03 320 04:43 04.08.2022
2351 Haze 28 1002 94 2500 4.12 280 02:27 04.08.2022
2352 Haze 28 1002 89 3000 0 0 23:44 03.08.2022
2353 Rain 29 1004 84 3000 0 0 22:30 03.08.2022
2354 Haze 29 1005 84 3000 3.6 240 20:50 03.08.2022
2355 Haze 29 1005 84 3000 3.09 240 19:35 03.08.2022
2356 Haze 29 1004 84 3000 3.09 260 18:36 03.08.2022
2357 Haze 29 1003 79 3000 4.63 260 16:24 03.08.2022
2358 Haze 30 1002 74 3500 3.6 280 14:51 03.08.2022
2359 Haze 29 1002 84 3500 3.6 300 12:32 03.08.2022
2360 Haze 29 1005 84 3500 2.57 280 08:50 03.08.2022
2361 Clouds 27 1004 94 1700 2.06 30 04:47 03.08.2022
2362 Haze 27 1003 94 2500 0 0 03:37 03.08.2022
2363 Clouds 27 1003 94 2200 4.12 350 01:36 03.08.2022
2364 Haze 28 1003 89 2500 2.06 330 23:27 02.08.2022
2365 Haze 28 1004 89 2500 0 0 21:55 02.08.2022
2366 Haze 28 1005 89 2500 0 0 21:33 02.08.2022
2367 Haze 28 1005 89 2500 2.57 340 19:19 02.08.2022
2368 Haze 29 1004 84 4000 4.63 280 16:38 02.08.2022
2369 Haze 31 1003 70 4000 6.69 260 12:55 02.08.2022
2370 Haze 31 1005 74 5000 6.17 270 09:53 02.08.2022
2371 Haze 30 1006 79 4000 5.14 280 08:26 02.08.2022
2372 Haze 30 1006 79 3500 5.14 260 07:50 02.08.2022
2373 Haze 29 1006 84 2500 4.12 280 04:55 02.08.2022
2374 Drizzle 27 1004 94 2500 3.6 290 01:26 02.08.2022
2375 Haze 28 1005 89 3000 3.6 270 22:57 01.08.2022
2376 Haze 29 1006 84 3000 2.57 280 21:19 01.08.2022
2377 Haze 29 1006 84 3000 3.09 280 19:44 01.08.2022
2378 Haze 29 1006 84 3000 2.57 300 18:53 01.08.2022
2379 Haze 29 1005 84 2500 3.09 300 16:55 01.08.2022
2380 Haze 29 1005 84 2500 3.09 300 16:29 01.08.2022
2381 Haze 29 1005 84 2500 4.63 280 15:33 01.08.2022
2382 Haze 30 1004 79 4000 4.63 260 14:44 01.08.2022
2383 Haze 31 1005 74 5000 7.2 260 12:57 01.08.2022
2384 Haze 30 1006 79 5000 5.14 260 10:47 01.08.2022
2385 Haze 30 1007 84 3000 4.63 270 08:45 01.08.2022
2386 Haze 29 1007 84 3500 6.17 250 06:51 01.08.2022
2387 Haze 29 1007 84 3000 3.09 280 04:31 01.08.2022
2388 Haze 28 1005 89 3000 3.6 300 00:58 01.08.2022
2389 Haze 29 1005 79 3000 4.63 280 22:44 31.07.2022
2390 Haze 29 1006 79 3000 4.12 280 22:18 31.07.2022
2391 Haze 29 1006 79 3500 3.6 260 20:28 31.07.2022
2392 Haze 29 1006 79 3500 4.63 280 18:39 31.07.2022
2393 Haze 29 1005 79 3500 4.63 280 16:26 31.07.2022
2394 Haze 30 1004 74 5000 4.12 260 14:37 31.07.2022
2395 Haze 31 1004 70 5000 5.66 270 12:58 31.07.2022
2396 Haze 31 1005 70 5000 5.14 280 11:37 31.07.2022
2397 Haze 31 1007 70 4000 6.17 260 08:46 31.07.2022
2398 Haze 29 1007 89 3000 3.6 280 05:20 31.07.2022
2399 Haze 28 1005 89 2500 2.57 280 01:20 31.07.2022
2400 Haze 28 1006 89 2500 1.54 300 22:46 30.07.2022
2401 Haze 29 1006 84 3000 1.54 310 21:50 30.07.2022
2402 Haze 29 1007 79 3000 1.54 300 21:32 30.07.2022
2403 Haze 29 1007 79 3000 3.09 290 20:33 30.07.2022
2404 Haze 29 1007 84 3000 3.6 280 19:50 30.07.2022
2405 Haze 29 1007 84 3500 2.57 290 17:53 30.07.2022
2406 Haze 29 1006 84 4000 4.12 280 16:38 30.07.2022
2407 Haze 29 1006 84 5000 4.63 300 15:33 30.07.2022
2408 Haze 31 1006 70 5000 5.66 280 13:23 30.07.2022
2409 Haze 31 1006 74 4000 4.63 290 12:22 30.07.2022
2410 Haze 31 1006 74 4000 4.63 290 11:51 30.07.2022
2411 Haze 31 1007 74 4000 5.14 260 10:19 30.07.2022
2412 Haze 31 1008 74 4000 6.69 260 08:55 30.07.2022
2413 Haze 30 1009 79 3000 3.6 280 06:58 30.07.2022
2414 Haze 28 1007 89 3000 1.54 210 02:33 30.07.2022
2415 Haze 28 1007 89 4000 1.54 310 23:57 29.07.2022
2416 Haze 29 1009 84 4000 2.06 330 21:37 29.07.2022
2417 Haze 29 1009 84 4000 1.54 350 20:50 29.07.2022
2418 Haze 29 1009 84 4000 1.54 310 19:46 29.07.2022
2419 Haze 29 1008 84 4000 3.09 310 17:25 29.07.2022
2420 Haze 30 1006 74 4500 5.14 310 14:48 29.07.2022
2421 Haze 31 1006 70 4000 4.63 290 12:42 29.07.2022
2422 Haze 29 1009 84 3000 4.12 310 08:52 29.07.2022
2423 Haze 29 1009 84 3000 4.63 280 08:24 29.07.2022
2424 Haze 29 1009 84 3000 2.06 80 05:22 29.07.2022
2425 Haze 28 1008 89 3000 0 0 01:19 29.07.2022
2426 Haze 28 1009 89 3000 1.54 290 21:41 28.07.2022
2427 Haze 29 1009 84 3000 1.54 310 20:54 28.07.2022
2428 Haze 29 1009 84 3000 2.06 310 20:18 28.07.2022
2429 Clouds 28 1010 81 10000 2.79 299 19:40 28.07.2022
2430 Haze 29 1009 84 3000 1.54 300 18:20 28.07.2022
2431 Haze 29 1008 84 4000 2.57 300 17:36 28.07.2022
2432 Haze 29 1008 84 4000 2.06 310 16:41 28.07.2022
2433 Haze 31 1007 74 4000 4.63 290 14:28 28.07.2022
2434 Haze 31 1006 74 4000 6.17 290 12:41 28.07.2022
2435 Haze 29 1010 84 3000 3.6 250 09:25 28.07.2022
2436 Haze 28 1010 89 2500 0 0 05:45 28.07.2022
2437 Haze 27 1010 94 2500 1.54 130 05:21 28.07.2022
2438 Clouds 25 1008 100 2500 2.57 320 00:28 28.07.2022
2439 Haze 27 1009 94 3500 0 0 21:58 27.07.2022
2440 Haze 28 1009 89 4000 0 0 20:20 27.07.2022
2441 Haze 27 1009 94 4000 0 0 19:30 27.07.2022
2442 Haze 28 1008 83 3500 2.06 260 16:33 27.07.2022
2443 Haze 28 1007 83 3500 1.54 260 15:51 27.07.2022
2444 Haze 28 1007 83 4000 2.57 310 14:42 27.07.2022
2445 Haze 28 1006 83 4000 1.54 310 13:58 27.07.2022
2446 Haze 27 1008 94 3000 3.09 300 11:49 27.07.2022
2447 Haze 28 1009 89 2500 2.06 100 07:53 27.07.2022
2448 Drizzle 26 1008 94 2200 3.09 110 05:23 27.07.2022
2449 Clouds 25 1007 94 2200 0 0 00:28 27.07.2022
2450 Drizzle 26 1008 94 2200 0 0 22:24 26.07.2022
2451 Clouds 26 1008 100 2200 0 0 21:19 26.07.2022
2452 Haze 27 1009 94 2200 2.57 110 19:39 26.07.2022
2453 Drizzle 28 1008 83 2200 2.06 210 18:41 26.07.2022
2454 Clouds 28 1008 89 2200 3.09 230 17:57 26.07.2022
2455 Haze 28 1007 89 2500 4.63 240 15:47 26.07.2022
2456 Haze 28 1007 89 3000 3.6 240 14:44 26.07.2022
2457 Haze 28 1007 83 3000 2.06 230 12:41 26.07.2022
2458 Haze 29 1008 84 3000 3.09 260 10:57 26.07.2022
2459 Haze 29 1009 79 3500 4.12 260 08:31 26.07.2022
2460 Haze 28 1008 83 2500 4.12 250 03:58 26.07.2022
2461 Haze 27 1007 94 2500 5.66 250 00:24 26.07.2022
2462 Haze 28 1007 83 3000 3.6 220 22:43 25.07.2022
2463 Haze 28 1008 83 3000 4.12 250 22:21 25.07.2022
2464 Haze 28 1008 83 3000 5.14 250 21:38 25.07.2022
2465 Haze 28 1008 83 3000 3.6 230 20:39 25.07.2022
2466 Haze 27 1008 94 3000 3.6 220 19:26 25.07.2022
2467 Haze 28 1008 89 3000 4.12 240 18:18 25.07.2022
2468 Haze 28 1007 83 3000 4.63 240 17:24 25.07.2022
2469 Haze 29 1005 84 3000 5.14 240 14:23 25.07.2022
2470 Haze 29 1006 100 2500 5.14 220 11:39 25.07.2022
2471 Haze 28 1007 83 2500 3.6 250 08:22 25.07.2022
2472 Haze 28 1005 89 2500 4.63 230 02:21 25.07.2022
2473 Haze 28 1004 89 2500 5.14 230 23:51 24.07.2022
2474 Haze 28 1005 89 2500 4.63 230 22:54 24.07.2022
2475 Haze 28 1005 89 2500 3.6 230 22:24 24.07.2022
2476 Haze 28 1006 89 2500 5.14 230 21:18 24.07.2022
2477 Haze 28 1006 89 2500 3.6 240 20:46 24.07.2022
2478 Haze 28 1006 89 2500 4.12 240 19:54 24.07.2022
2479 Haze 27 1005 94 2500 2.06 220 18:30 24.07.2022
2480 Clouds 28 1004 89 2500 5.66 250 16:28 24.07.2022
2481 Clouds 28 1004 89 2500 6.17 240 15:45 24.07.2022
2482 Haze 28 1003 83 3500 7.72 240 14:19 24.07.2022
2483 Haze 28 1003 89 3000 6.17 230 12:52 24.07.2022
2484 Haze 30 1004 79 3000 5.66 240 11:38 24.07.2022
2485 Haze 29 1004 84 3000 4.63 220 10:59 24.07.2022
2486 Haze 29 1005 79 3000 4.63 230 08:32 24.07.2022
2487 Haze 29 1005 79 3000 4.63 250 07:52 24.07.2022
2488 Haze 29 1005 84 2500 7.2 240 05:44 24.07.2022
2489 Haze 28 1003 89 2500 6.69 250 00:28 24.07.2022
2490 Haze 26 1005 94 2500 3.09 220 21:28 23.07.2022
2491 Haze 28 1005 83 2500 4.12 240 20:19 23.07.2022
2492 Haze 28 1005 83 2500 3.6 240 18:50 23.07.2022
2493 Haze 28 1005 83 3000 7.72 250 17:28 23.07.2022
2494 Haze 28 1005 89 3000 5.14 240 16:35 23.07.2022
2495 Rain 27 1004 100 3000 6.17 240 15:22 23.07.2022
2496 Rain 29 1003 79 1700 7.72 240 14:58 23.07.2022
2497 Haze 29 1003 79 3500 5.14 260 14:27 23.07.2022
2498 Clouds 28 1003 89 3500 6.17 250 13:26 23.07.2022
2499 Clouds 30 1004 79 2500 7.2 240 10:45 23.07.2022
2500 Haze 30 1005 79 3000 5.66 250 10:21 23.07.2022
2501 Haze 30 1006 79 3000 5.14 250 08:39 23.07.2022
2502 Haze 28 1005 83 2500 5.14 250 03:39 23.07.2022
2503 Haze 27 1005 89 2500 5.66 250 01:27 23.07.2022
2504 Drizzle 27 1005 94 2500 3.6 230 22:42 22.07.2022
2505 Rain 28 1007 89 3000 4.63 250 20:56 22.07.2022
2506 Haze 28 1007 83 3000 4.12 250 19:41 22.07.2022
2507 Rain 27 1008 83 10000 4.88 261 18:28 22.07.2022
2508 Haze 28 1007 89 3000 4.63 260 17:28 22.07.2022
2509 Rain 29 1005 79 4000 6.69 260 14:55 22.07.2022
2510 Haze 29 1007 84 4000 4.63 270 11:36 22.07.2022
2511 Haze 30 1008 79 4000 5.14 270 09:26 22.07.2022
2512 Haze 29 1009 84 4000 6.17 260 08:37 22.07.2022
2513 Haze 29 1009 79 3000 4.63 260 07:20 22.07.2022
2514 Haze 28 1007 83 3000 5.14 260 03:43 22.07.2022
2515 Haze 27 1007 94 3000 4.12 250 22:45 21.07.2022
2516 Haze 27 1007 94 3000 3.6 260 21:34 21.07.2022
2517 Haze 28 1008 89 3000 2.57 280 19:30 21.07.2022
2518 Haze 28 1007 83 3000 4.63 260 17:45 21.07.2022
2519 Haze 28 1007 83 2500 4.12 270 17:19 21.07.2022
2520 Haze 28 1006 89 2500 5.14 280 15:22 21.07.2022
2521 Clouds 27 1006 89 2500 4.12 280 14:39 21.07.2022
2522 Haze 29 1006 84 3000 5.14 270 12:28 21.07.2022
2523 Haze 30 1006 79 2500 4.63 260 11:19 21.07.2022
2524 Haze 28 1007 89 2500 5.14 250 09:41 21.07.2022
2525 Haze 28 1007 89 2500 4.63 240 08:52 21.07.2022
2526 Clouds 26 1007 100 2100 3.6 250 07:50 21.07.2022
2527 Haze 28 1007 89 3000 3.6 220 06:24 21.07.2022
2528 Haze 27 1006 94 2500 3.09 230 00:48 21.07.2022
2529 Haze 28 1006 83 2500 3.6 240 22:22 20.07.2022
2530 Haze 28 1006 89 2500 4.63 250 20:59 20.07.2022
2531 Haze 28 1007 89 2500 4.12 240 19:54 20.07.2022
2532 Haze 28 1007 83 2500 4.63 240 19:25 20.07.2022
2533 Haze 27 1007 94 2500 5.66 240 18:52 20.07.2022
2534 Haze 27 1006 94 2500 3.6 220 18:26 20.07.2022
2535 Clouds 27 1005 94 2200 5.14 230 16:46 20.07.2022
2536 Haze 29 1005 84 3500 4.63 260 15:32 20.07.2022
2537 Haze 29 1005 84 3000 6.17 250 14:20 20.07.2022
2538 Haze 30 1006 79 3000 5.14 250 11:55 20.07.2022
2539 Haze 27 1007 89 2200 3.6 240 09:43 20.07.2022
2540 Haze 27 1006 94 2100 5.66 240 04:36 20.07.2022
2541 Haze 27 1005 94 2500 3.6 260 00:52 20.07.2022
2542 Haze 27 1005 94 2500 3.6 250 00:25 20.07.2022
2543 Haze 27 1005 94 2500 5.14 230 22:33 19.07.2022
2544 Haze 27 1005 94 2500 4.12 230 21:46 19.07.2022
2545 Clouds 28 1006 89 2000 5.14 240 20:48 19.07.2022
2546 Haze 28 1006 89 2500 5.14 240 19:21 19.07.2022
2547 Haze 28 1006 89 2500 5.66 250 18:34 19.07.2022
2548 Haze 28 1006 89 2500 5.66 250 17:49 19.07.2022
2549 Haze 29 1005 84 3000 5.66 240 15:21 19.07.2022
2550 Haze 30 1005 79 3000 5.14 250 12:27 19.07.2022
2551 Haze 29 1005 84 3000 3.6 250 11:31 19.07.2022
2552 Haze 30 1006 84 2500 4.12 250 09:44 19.07.2022
2553 Haze 29 1006 89 2500 5.14 240 08:42 19.07.2022
2554 Clouds 29 1006 89 2500 4.12 230 07:19 19.07.2022
2555 Drizzle 27 1006 100 2100 6.17 250 05:48 19.07.2022
2556 Clouds 27 1005 94 1500 5.14 270 04:59 19.07.2022
2557 Drizzle 26 1004 94 2100 4.12 250 02:33 19.07.2022
2558 Drizzle 27 1004 94 2200 5.14 250 23:50 18.07.2022
2559 Haze 27 1004 94 2500 5.14 230 23:19 18.07.2022
2560 Haze 27 1005 94 2500 4.63 240 22:23 18.07.2022
2561 Haze 28 1005 89 2500 4.63 230 20:57 18.07.2022
2562 Haze 28 1005 89 2500 6.17 230 19:54 18.07.2022
2563 Haze 28 1005 89 2500 3.6 230 18:24 18.07.2022
2564 Haze 28 1004 89 2500 2.57 230 16:28 18.07.2022
2565 Haze 28 1004 89 2500 3.6 240 15:19 18.07.2022
2566 Drizzle 27 1004 89 2500 5.14 220 13:31 18.07.2022
2567 Drizzle 28 1004 89 2500 3.6 240 11:34 18.07.2022
2568 Clouds 28 1005 89 2200 4.63 240 09:55 18.07.2022
2569 Rain 28 1006 89 2200 4.12 250 07:54 18.07.2022
2570 Haze 27 1004 94 2500 6.17 250 03:32 18.07.2022
2571 Haze 28 1004 89 2500 5.14 230 22:56 17.07.2022
2572 Haze 28 1004 89 2500 4.12 230 22:31 17.07.2022
2573 Clouds 28 1005 89 2100 5.14 240 21:39 17.07.2022
2574 Haze 28 1005 89 2500 4.12 220 20:46 17.07.2022
2575 Haze 28 1005 89 2500 4.63 230 19:50 17.07.2022
2576 Haze 28 1005 89 2500 3.6 230 19:21 17.07.2022
2577 Clouds 28 1005 94 2500 4.12 230 17:43 17.07.2022
2578 Haze 28 1004 89 3000 5.14 230 17:25 17.07.2022
2579 Haze 28 1004 89 3000 5.14 230 16:33 17.07.2022
2580 Haze 29 1003 84 3500 6.17 230 15:50 17.07.2022
2581 Haze 29 1003 84 3500 5.14 240 13:51 17.07.2022
2582 Haze 29 1003 84 3500 5.66 230 12:43 17.07.2022
2583 Haze 29 1004 84 3500 4.12 220 10:20 17.07.2022
2584 Haze 29 1004 89 3000 3.6 220 07:31 17.07.2022
2585 Haze 27 1002 94 2200 4.12 230 02:35 17.07.2022
2586 Haze 28 1002 94 2200 4.63 230 23:28 16.07.2022
2587 Haze 27 1003 100 2300 4.63 230 22:33 16.07.2022
2588 Clouds 26 1003 100 1500 4.12 230 20:45 16.07.2022
2589 Clouds 25 1003 100 2200 5.14 250 18:58 16.07.2022
2590 Haze 28 1002 94 2200 5.14 220 17:48 16.07.2022
2591 Clouds 27 1001 100 1500 5.66 230 16:22 16.07.2022
2592 Clouds 28 999 94 2500 6.69 220 13:26 16.07.2022
2593 Clouds 29 1000 89 1200 5.66 210 10:34 16.07.2022
2594 Haze 30 1000 84 3500 5.66 200 09:28 16.07.2022
2595 Haze 30 1001 79 3000 5.66 200 08:41 16.07.2022
2596 Haze 29 1001 89 2500 6.17 220 07:40 16.07.2022
2597 Haze 28 1000 89 2200 6.17 210 03:38 16.07.2022
2598 Drizzle 27 999 94 2100 4.12 200 00:48 16.07.2022
2599 Haze 26 999 100 2500 5.66 230 22:57 15.07.2022
2600 Haze 26 999 100 2500 5.66 230 22:37 15.07.2022
2601 Haze 28 1000 89 2500 5.14 180 20:44 15.07.2022
2602 Haze 28 1001 89 2500 3.6 200 19:35 15.07.2022
2603 Haze 28 1001 89 2500 5.14 220 18:30 15.07.2022
2604 Haze 28 1000 89 2500 3.6 210 17:19 15.07.2022
2605 Clouds 28 998 89 2100 6.17 210 14:24 15.07.2022
2606 Rain 29 999 84 2200 6.17 210 12:38 15.07.2022
2607 Haze 29 1000 89 2500 6.69 210 10:52 15.07.2022
2608 Clouds 28 1000 94 2100 5.14 220 07:55 15.07.2022
2609 Drizzle 27 999 94 2200 6.69 240 04:54 15.07.2022
2610 Drizzle 26 997 94 2200 5.66 210 00:47 15.07.2022
2611 Drizzle 26 998 94 2200 4.63 220 23:25 14.07.2022
2612 Haze 28 998 89 2200 4.12 220 22:32 14.07.2022
2613 Haze 28 999 89 2200 5.66 220 21:41 14.07.2022
2614 Haze 28 999 89 2200 4.63 220 21:23 14.07.2022
2615 Haze 28 999 89 2200 4.63 220 20:43 14.07.2022
2616 Haze 27 999 94 2200 4.12 230 20:19 14.07.2022
2617 Drizzle 27 998 100 2200 4.12 220 18:38 14.07.2022
2618 Drizzle 28 997 89 1600 4.12 230 16:20 14.07.2022
2619 Rain 27 997 94 1600 5.66 220 15:26 14.07.2022
2620 Rain 27 997 94 1500 9.26 220 13:52 14.07.2022
2621 Haze 27 997 94 2100 4.12 240 12:39 14.07.2022
2622 Rain 27 998 94 2100 4.12 240 11:28 14.07.2022
2623 Rain 27 998 94 2100 4.12 240 10:59 14.07.2022
2624 Rain 25 999 100 1200 10.29 260 09:29 14.07.2022
2625 Rain 27 999 94 2200 5.14 230 05:20 14.07.2022
2626 Drizzle 26 998 100 2500 4.12 240 01:22 14.07.2022
2627 Rain 26 999 94 2500 5.66 230 00:52 14.07.2022
2628 Rain 27 1000 94 2500 4.63 240 22:32 13.07.2022
2629 Drizzle 27 1000 94 2200 4.12 220 21:51 13.07.2022
2630 Rain 27 1001 94 1600 3.6 230 20:45 13.07.2022
2631 Haze 28 1001 89 2500 5.14 230 19:19 13.07.2022
2632 Rain 27 1000 94 2000 4.63 240 17:35 13.07.2022
2633 Clouds 27 1000 94 2200 5.14 240 16:23 13.07.2022
2634 Rain 27 1000 94 2200 5.14 240 15:24 13.07.2022
2635 Rain 26 1001 94 2000 7.72 260 12:39 13.07.2022
2636 Rain 27 1002 100 2200 5.14 240 10:45 13.07.2022
2637 Rain 26 1002 100 2100 6.69 250 09:57 13.07.2022
2638 Rain 27 1002 100 2100 7.2 250 09:21 13.07.2022
2639 Rain 25 1002 100 1500 8.75 260 05:52 13.07.2022
2640 Rain 28 1001 89 2200 8.23 250 01:27 13.07.2022
2641 Haze 28 1002 89 2500 4.63 250 23:42 12.07.2022
2642 Haze 27 1003 89 2500 5.66 240 21:55 12.07.2022
2643 Haze 28 1004 89 2500 5.66 250 21:19 12.07.2022
2644 Rain 28 1004 89 2500 4.12 250 20:41 12.07.2022
2645 Haze 28 1005 89 2500 4.12 250 19:25 12.07.2022
2646 Drizzle 28 1005 89 2500 3.6 250 17:49 12.07.2022
2647 Haze 28 1004 89 2500 6.69 260 15:57 12.07.2022
2648 Clouds 28 1003 89 2500 6.17 260 14:30 12.07.2022
2649 Rain 27 1004 89 2100 6.69 250 12:29 12.07.2022
2650 Clouds 28 1004 89 800 10.29 270 11:22 12.07.2022
2651 Clouds 27 1005 94 1500 5.14 300 09:38 12.07.2022
2652 Clouds 26 1006 100 1500 5.66 250 08:19 12.07.2022
2653 Clouds 25 1006 100 1000 5.66 290 06:29 12.07.2022
2654 Rain 25 1005 100 1000 5.14 290 05:39 12.07.2022
2655 Drizzle 26 1004 94 2500 5.14 260 02:32 12.07.2022
2656 Drizzle 28 1004 89 2500 4.63 260 23:28 11.07.2022
2657 Rain 26 1005 100 2200 5.14 260 22:30 11.07.2022
2658 Drizzle 27 1006 94 2500 2.57 250 20:41 11.07.2022
2659 Rain 27 1007 94 2200 4.63 250 19:36 11.07.2022
2660 Rain 24 1006 100 1800 5.14 280 18:32 11.07.2022
2661 Rain 24 1006 100 1800 5.14 280 18:32 11.07.2022
2662 Rain 26 1005 100 2100 5.14 240 17:46 11.07.2022
2663 Drizzle 27 1004 94 2100 4.63 260 16:20 11.07.2022
2664 Drizzle 27 1004 94 2100 4.63 240 14:41 11.07.2022
2665 Rain 29 1004 84 1200 6.69 250 11:58 11.07.2022
2666 Haze 29 1005 84 2500 5.14 250 10:35 11.07.2022
2667 Haze 29 1005 84 2500 5.14 250 09:43 11.07.2022
2668 Drizzle 29 1005 84 2100 7.72 260 08:34 11.07.2022
2669 Rain 28 1005 89 2100 7.2 260 05:52 11.07.2022
2670 Rain 28 1004 89 2100 6.17 250 00:22 11.07.2022
2671 Rain 28 1004 89 2100 5.14 250 23:28 10.07.2022
2672 Clouds 28 1004 89 2100 4.63 260 21:55 10.07.2022
2673 Rain 27 1005 94 2100 5.14 250 20:54 10.07.2022
2674 Haze 28 1005 94 2200 6.17 250 19:50 10.07.2022
2675 Haze 28 1005 89 2200 6.69 250 18:50 10.07.2022
2676 Haze 28 1005 89 2200 6.69 260 17:40 10.07.2022
2677 Rain 28 1004 89 2200 3.6 260 16:57 10.07.2022
2678 Clouds 28 1004 89 1700 4.12 250 16:19 10.07.2022
2679 Haze 27 1003 94 2200 4.63 250 14:33 10.07.2022
2680 Haze 29 1003 89 2500 4.63 250 12:33 10.07.2022
2681 Haze 29 1003 84 2500 6.17 250 11:34 10.07.2022
2682 Haze 29 1004 89 2500 4.12 250 08:46 10.07.2022
2683 Haze 29 1004 89 2500 5.14 240 08:24 10.07.2022
2684 Rain 28 1004 89 2100 4.12 250 05:36 10.07.2022
2685 Rain 28 1002 89 2500 7.2 250 23:32 09.07.2022
2686 Haze 28 1003 89 2500 6.69 250 22:26 09.07.2022
2687 Haze 28 1003 89 2500 6.69 250 22:26 09.07.2022
2688 Haze 28 1003 89 2500 7.2 250 21:31 09.07.2022
2689 Rain 28 1003 89 2500 5.14 250 19:19 09.07.2022
2690 Rain 27 1003 94 2200 6.17 240 18:22 09.07.2022
2691 Rain 29 1002 84 2500 4.63 250 16:59 09.07.2022
2692 Drizzle 29 1002 84 2500 5.14 260 15:54 09.07.2022
2693 Haze 28 1002 89 2500 5.14 260 15:35 09.07.2022
2694 Rain 28 1001 89 2500 6.17 250 13:54 09.07.2022
2695 Haze 28 1001 89 2500 7.72 250 13:28 09.07.2022
2696 Rain 29 1002 84 2500 7.72 260 11:34 09.07.2022
2697 Rain 29 1002 84 2200 5.14 260 10:24 09.07.2022
2698 Haze 29 1002 89 2200 7.2 260 08:27 09.07.2022
2699 Clouds 28 1003 94 1700 6.17 260 06:59 09.07.2022
2700 Rain 28 1002 89 2100 4.63 260 04:35 09.07.2022
2701 Rain 28 1002 94 1700 5.14 260 23:27 08.07.2022
2702 Rain 28 1003 89 1800 6.69 250 22:00 08.07.2022
2703 Rain 28 1003 94 1800 6.69 250 21:20 08.07.2022
2704 Rain 28 1004 94 1800 6.17 250 20:34 08.07.2022
2705 Rain 28 1004 94 2100 5.14 250 18:45 08.07.2022
2706 Rain 28 1004 94 2100 6.17 250 17:45 08.07.2022
2707 Rain 28 1003 89 2100 4.12 270 15:53 08.07.2022
2708 Rain 29 1002 89 2500 7.2 250 14:50 08.07.2022
2709 Haze 29 1003 84 2500 6.17 260 12:31 08.07.2022
2710 Haze 29 1003 84 2500 7.2 260 10:46 08.07.2022
2711 Haze 29 1004 89 2500 6.17 260 09:42 08.07.2022
2712 Clouds 28 1005 89 2100 5.14 250 06:55 08.07.2022
2713 Haze 28 1004 94 2100 4.63 250 04:32 08.07.2022
2714 Haze 28 1003 94 2200 4.12 260 00:23 08.07.2022
2715 Haze 27 1004 94 2200 5.14 250 22:47 07.07.2022
2716 Haze 26 1005 100 2200 0 0 21:41 07.07.2022
2717 Clouds 26 1006 100 1500 5.66 300 19:28 07.07.2022
2718 Clouds 26 1005 100 2100 1.54 260 17:42 07.07.2022
2719 Haze 29 1003 89 2100 7.72 260 15:58 07.07.2022
2720 Haze 29 1003 89 2100 6.17 260 13:32 07.07.2022
2721 Rain 29 1003 89 2100 5.66 260 12:40 07.07.2022
2722 Rain 29 1003 89 2100 4.12 230 12:21 07.07.2022
2723 Clouds 27 1004 100 2000 4.12 220 11:31 07.07.2022
2724 Clouds 28 1004 94 2100 4.12 240 10:45 07.07.2022
2725 Clouds 28 1004 89 2100 5.14 260 10:26 07.07.2022
2726 Clouds 27 1005 100 2200 6.69 260 08:21 07.07.2022
2727 Rain 27 1005 100 2100 4.63 250 05:23 07.07.2022
2728 Rain 27 1004 87 4741 7.64 233 23:37 06.07.2022
2729 Drizzle 26 1003 100 2200 4.63 240 23:19 06.07.2022
2730 Drizzle 26 1003 100 2200 4.63 240 22:58 06.07.2022
2731 Clouds 26 1003 100 2200 5.66 250 22:40 06.07.2022
2732 Clouds 25 1003 100 2100 6.17 250 21:59 06.07.2022
2733 Rain 27 1004 100 2100 4.12 220 19:45 06.07.2022
2734 Rain 27 1003 94 2500 4.63 230 18:41 06.07.2022
2735 Rain 28 1002 94 2200 3.09 210 16:45 06.07.2022
2736 Haze 27 1001 94 2500 4.12 220 15:39 06.07.2022
2737 Drizzle 27 1001 89 2500 3.6 190 12:44 06.07.2022
2738 Clouds 28 1001 94 2100 4.12 240 11:49 06.07.2022
2739 Rain 28 1001 94 2100 3.6 200 10:33 06.07.2022
2740 Rain 27 1002 94 2500 4.63 210 08:43 06.07.2022
2741 Clouds 26 1001 100 2500 4.63 220 07:41 06.07.2022
2742 Rain 26 1001 94 1500 5.66 230 06:40 06.07.2022
2743 Rain 26 999 100 1100 6.69 230 22:50 05.07.2022
2744 Rain 26 1000 100 2200 3.6 230 22:28 05.07.2022
2745 Clouds 27 1000 100 2100 5.66 240 20:42 05.07.2022
2746 Rain 27 1000 100 2500 4.12 230 19:54 05.07.2022
2747 Haze 27 1000 94 2500 3.09 200 19:35 05.07.2022
2748 Clouds 27 1000 94 1200 1.54 0 17:49 05.07.2022
2749 Clouds 27 999 94 1500 2.06 180 17:18 05.07.2022
2750 Clouds 27 999 94 1500 2.06 350 15:39 05.07.2022
2751 Clouds 26 998 100 1200 3.09 240 14:39 05.07.2022
2752 Clouds 26 1001 100 1500 3.6 270 12:52 05.07.2022
2753 Clouds 25 1001 100 1500 2.57 210 12:21 05.07.2022
2754 Clouds 26 1000 100 1300 2.06 350 10:45 05.07.2022
2755 Clouds 25 1000 100 1200 3.6 240 09:32 05.07.2022
2756 Clouds 26 1001 100 400 5.66 240 08:19 05.07.2022
2757 Clouds 26 1000 100 1000 4.63 260 06:22 05.07.2022
2758 Clouds 26 1000 100 1300 1.54 150 04:26 05.07.2022
2759 Clouds 26 1000 100 2100 2.57 100 00:43 05.07.2022
2760 Clouds 26 1000 100 1800 2.57 210 23:36 04.07.2022
2761 Rain 27 1000 100 1000 2.06 140 22:54 04.07.2022
2762 Rain 27 1001 100 2500 2.06 210 21:53 04.07.2022
2763 Clouds 26 1002 100 2500 2.06 220 20:54 04.07.2022
2764 Clouds 26 1002 100 2500 2.06 220 20:35 04.07.2022
2765 Clouds 26 1002 100 2500 2.57 210 19:55 04.07.2022
2766 Clouds 26 1002 100 2200 2.57 220 19:36 04.07.2022
2767 Clouds 26 1002 100 2100 3.6 180 18:26 04.07.2022
2768 Clouds 26 1001 100 1800 3.09 220 16:36 04.07.2022
2769 Clouds 27 1000 100 2100 1.54 120 15:34 04.07.2022
2770 Clouds 27 999 94 1300 4.12 240 13:35 04.07.2022
2771 Rain 28 999 100 1000 6.69 290 12:36 04.07.2022
2772 Clouds 29 1001 89 1700 4.12 270 10:35 04.07.2022
2773 Clouds 30 1001 84 2200 6.17 270 09:53 04.07.2022
2774 Drizzle 28 1001 94 2500 5.14 270 08:31 04.07.2022
2775 Clouds 28 1001 94 2200 1.54 220 05:34 04.07.2022
2776 Haze 26 1001 100 2500 2.57 210 00:42 04.07.2022
2777 Haze 27 1001 94 2500 0 0 23:25 03.07.2022
2778 Haze 28 1002 94 2500 4.63 230 21:58 03.07.2022
2779 Haze 28 1003 89 2500 3.6 220 20:41 03.07.2022
2780 Haze 27 1003 94 2500 3.6 210 19:42 03.07.2022
2781 Haze 27 1003 94 2500 3.6 210 19:23 03.07.2022
2782 Haze 29 1002 89 2500 4.63 210 17:45 03.07.2022
2783 Haze 29 1001 84 2500 5.14 230 16:58 03.07.2022
2784 Clouds 29 1001 89 2500 4.63 250 15:25 03.07.2022
2785 Haze 30 1000 79 3000 6.17 230 14:37 03.07.2022
2786 Haze 30 1000 79 3000 3.6 220 13:49 03.07.2022
2787 Clouds 28 1002 80 10000 9.12 233 12:42 03.07.2022
2788 Haze 31 1002 74 4000 5.14 210 11:40 03.07.2022
2789 Haze 31 1002 74 4000 6.17 220 10:40 03.07.2022
2790 Haze 31 1002 79 4000 6.17 220 09:59 03.07.2022
2791 Haze 30 1002 79 2500 5.14 230 07:37 03.07.2022
2792 Drizzle 27 1002 94 2200 0.51 220 05:22 03.07.2022
2793 Haze 28 1000 94 2500 5.66 240 00:25 03.07.2022
2794 Haze 28 1001 94 2500 3.6 240 22:36 02.07.2022
2795 Haze 28 1002 89 2500 3.6 230 21:43 02.07.2022
2796 Haze 29 1002 89 2500 6.17 240 20:20 02.07.2022
2797 Haze 28 1002 94 2500 4.12 240 19:49 02.07.2022
2798 Haze 29 1002 89 2500 4.12 240 17:58 02.07.2022
2799 Haze 28 1001 94 2500 4.12 240 17:37 02.07.2022
2800 Haze 28 1000 89 2500 4.63 250 15:32 02.07.2022
2801 Clouds 31 1000 79 3500 5.14 240 12:49 02.07.2022
2802 Haze 31 1001 79 3000 5.66 240 11:28 02.07.2022
2803 Haze 31 1001 79 3000 3.6 240 10:48 02.07.2022
2804 Clouds 30 1002 89 2200 6.69 240 09:49 02.07.2022
2805 Haze 31 1003 79 2500 4.63 220 08:37 02.07.2022
2806 Haze 31 1003 79 2500 4.63 220 08:18 02.07.2022
2807 Clouds 28 1001 94 2500 4.12 240 02:53 02.07.2022
2808 Haze 27 1001 94 2500 5.14 210 00:27 02.07.2022
2809 Clouds 26 1002 100 1800 1.54 40 22:59 01.07.2022
2810 Haze 26 1002 100 2500 1.54 180 22:26 01.07.2022
2811 Clouds 26 1003 100 2100 2.06 80 21:37 01.07.2022
2812 Clouds 26 1003 100 2100 3.6 120 20:58 01.07.2022
2813 Haze 26 1004 100 2500 3.09 100 20:19 01.07.2022
2814 Clouds 26 1004 100 2200 3.6 120 19:34 01.07.2022
2815 Clouds 25 1003 100 2100 1.54 170 16:40 01.07.2022
2816 Clouds 25 1002 100 1200 6.17 260 14:27 01.07.2022
2817 Clouds 26 1002 100 1400 5.14 260 13:33 01.07.2022
2818 Clouds 26 1003 100 2200 3.6 340 10:53 01.07.2022
2819 Clouds 26 1003 100 1500 1.54 140 10:19 01.07.2022
2820 Drizzle 26 1005 100 2500 1.03 80 06:21 01.07.2022
2821 Haze 25 1002 100 2500 2.06 100 02:19 01.07.2022
2822 Haze 24 1002 94 2500 2.06 120 23:34 30.06.2022
2823 Haze 24 1002 94 2500 0 0 22:50 30.06.2022
2824 Haze 25 1003 100 2500 3.6 100 22:31 30.06.2022
2825 Drizzle 25 1003 100 2500 3.09 110 21:53 30.06.2022
2826 Clouds 25 1004 100 2500 2.06 130 20:49 30.06.2022
2827 Rain 25 1004 100 2500 2.57 130 20:20 30.06.2022
2828 Rain 25 1005 100 2200 3.09 120 19:47 30.06.2022
2829 Rain 26 1005 94 2200 3.09 110 18:52 30.06.2022
2830 Clouds 25 1004 100 1500 1.54 150 17:56 30.06.2022
2831 Rain 25 1004 100 800 3.6 190 17:18 30.06.2022
2832 Rain 25 1003 100 2200 3.09 200 16:18 30.06.2022
2833 Clouds 26 1001 100 2500 1.03 200 13:59 30.06.2022
2834 Clouds 26 1001 100 2500 2.57 220 13:20 30.06.2022
2835 Rain 26 1002 94 2200 1.54 220 12:33 30.06.2022
2836 Clouds 26 1002 100 1500 2.06 140 10:49 30.06.2022
2837 Clouds 25 1003 100 2200 2.06 230 09:47 30.06.2022
2838 Clouds 25 1003 100 1400 4.12 210 09:23 30.06.2022
2839 Drizzle 27 1003 100 1500 3.09 130 07:41 30.06.2022
2840 Drizzle 28 1003 94 2500 3.09 100 05:45 30.06.2022
2841 Clouds 26 1002 100 2500 1.54 0 23:56 29.06.2022
2842 Haze 26 1002 100 2500 2.57 170 22:42 29.06.2022
2843 Rain 26 1003 100 2500 4.63 170 22:20 29.06.2022
2844 Thunderstorm 26 1003 100 2500 3.6 190 20:54 29.06.2022
2845 Thunderstorm 27 1004 100 2100 2.06 190 20:32 29.06.2022
2846 Clouds 27 1004 94 1700 2.06 270 19:31 29.06.2022
2847 Haze 29 1003 89 3000 3.09 220 17:39 29.06.2022
2848 Haze 29 1002 89 3500 3.6 240 16:31 29.06.2022
2849 Haze 29 1001 89 3500 5.66 250 13:58 29.06.2022
2850 Clouds 28 1001 94 3000 2.57 190 12:38 29.06.2022
2851 Clouds 28 1003 94 2500 2.57 130 10:19 29.06.2022
2852 Clouds 28 1003 94 2500 0 0 09:31 29.06.2022
2853 Clouds 30 1003 84 1700 4.12 250 07:23 29.06.2022
2854 Mist 28 1003 94 2200 2.06 120 04:48 29.06.2022
2855 Haze 27 1002 94 2500 1.54 100 00:55 29.06.2022
2856 Haze 27 1002 94 2500 1.54 100 00:35 29.06.2022
2857 Haze 27 1003 94 2500 2.06 110 22:53 28.06.2022
2858 Haze 27 1004 94 2500 0 0 22:21 28.06.2022
2859 Haze 27 1004 94 2500 0 0 21:50 28.06.2022
2860 Haze 27 1004 94 2500 1.54 130 21:30 28.06.2022
2861 Haze 27 1005 94 2500 2.06 170 20:20 28.06.2022
2862 Haze 27 1005 94 2500 1.54 150 19:32 28.06.2022
2863 Haze 27 1004 94 2500 2.06 140 18:42 28.06.2022
2864 Drizzle 27 1004 94 2500 2.06 130 17:37 28.06.2022
2865 Haze 27 1003 94 2500 1.54 100 15:56 28.06.2022
2866 Haze 27 1003 100 2500 2.06 120 14:59 28.06.2022
2867 Haze 27 1003 94 2500 2.57 100 14:19 28.06.2022
2868 Haze 27 1003 94 2500 1.54 150 13:47 28.06.2022
2869 Haze 26 1004 100 2500 4.12 60 12:47 28.06.2022
2870 Haze 29 1005 84 3000 3.09 150 10:46 28.06.2022
2871 Drizzle 27 1005 94 2500 3.6 210 09:25 28.06.2022
2872 Clouds 27 1005 94 2200 3.09 190 08:43 28.06.2022
2873 Haze 27 1005 100 3000 4.63 170 07:20 28.06.2022
2874 Haze 27 1005 94 3000 3.6 170 04:56 28.06.2022
2875 Haze 27 1003 94 3000 2.06 160 23:56 27.06.2022
2876 Haze 27 1003 94 3000 3.09 160 23:28 27.06.2022
2877 Haze 27 1004 94 3000 2.57 170 22:42 27.06.2022
2878 Haze 27 1005 94 3000 2.06 170 21:30 27.06.2022
2879 Drizzle 27 1005 94 3000 2.57 170 20:38 27.06.2022
2880 Drizzle 28 1005 89 3000 3.09 200 18:55 27.06.2022
2881 Haze 29 1004 84 3000 2.06 180 17:45 27.06.2022
2882 Haze 29 1003 84 3000 5.14 200 15:51 27.06.2022
2883 Haze 29 1002 84 3000 5.66 200 14:26 27.06.2022
2884 Clouds 28 1002 94 2500 5.14 200 12:59 27.06.2022
2885 Clouds 28 1002 94 2500 5.14 200 12:36 27.06.2022
2886 Haze 29 1003 84 4000 3.6 220 10:22 27.06.2022
2887 Haze 29 1003 94 3000 5.14 210 08:43 27.06.2022
2888 Clouds 29 1004 84 2500 4.12 190 07:53 27.06.2022
2889 Clouds 28 1004 94 2500 3.6 140 06:37 27.06.2022
2890 Drizzle 27 1001 94 2500 2.57 170 01:26 27.06.2022
2891 Haze 27 1000 78 4000 4.12 130 23:39 26.06.2022
2892 Haze 27 1002 74 3500 3.6 140 21:51 26.06.2022
2893 Drizzle 26 1002 83 3500 4.12 130 20:34 26.06.2022
2894 Haze 27 1003 74 3500 4.12 150 19:19 26.06.2022
2895 Haze 28 1002 83 4000 5.14 150 18:23 26.06.2022
2896 Haze 29 1001 79 3000 2.57 170 15:53 26.06.2022
2897 Drizzle 29 1000 84 3500 3.6 170 14:34 26.06.2022
2898 Haze 29 999 70 4000 3.09 150 13:29 26.06.2022
2899 Haze 30 999 66 5000 4.12 150 12:44 26.06.2022
2900 Haze 30 1001 66 4000 4.12 170 10:53 26.06.2022
2901 Haze 29 1001 70 4000 4.63 170 10:23 26.06.2022
2902 Haze 29 1001 70 3000 3.6 160 08:45 26.06.2022
2903 Clouds 28 1002 74 2200 3.6 180 07:18 26.06.2022
2904 Haze 26 998 78 4000 2.57 160 00:48 26.06.2022
2905 Haze 26 998 78 4000 3.09 140 00:20 26.06.2022
2906 Haze 28 998 78 4000 4.12 120 23:33 25.06.2022
2907 Haze 28 998 78 4000 4.12 120 23:33 25.06.2022
2908 Haze 28 998 78 4000 4.63 120 22:51 25.06.2022
2909 Haze 29 999 74 4000 5.66 130 22:26 25.06.2022
2910 Haze 29 999 74 4000 5.66 130 21:23 25.06.2022
2911 Haze 29 1000 74 3500 6.17 130 20:59 25.06.2022
2912 Haze 29 1000 74 3500 5.66 140 20:25 25.06.2022
2913 Haze 29 1000 74 3500 4.63 130 18:45 25.06.2022
2914 Haze 29 1000 74 3000 6.17 110 17:28 25.06.2022
2915 Haze 29 999 74 4000 5.14 110 16:44 25.06.2022
2916 Clouds 31 998 66 4000 5.66 130 14:50 25.06.2022
2917 Haze 32 997 66 5000 4.12 160 12:57 25.06.2022
2918 Haze 32 998 66 5000 4.63 170 12:37 25.06.2022
2919 Haze 29 1000 79 4000 5.14 140 10:32 25.06.2022
2920 Haze 29 1001 84 4000 4.63 180 08:57 25.06.2022
2921 Haze 29 1001 84 5000 3.6 140 08:29 25.06.2022
2922 Haze 30 1001 79 5000 3.09 170 07:45 25.06.2022
2923 Haze 27 1000 94 3000 3.6 120 03:30 25.06.2022
2924 Haze 27 1000 89 3000 3.6 140 00:33 25.06.2022
2925 Haze 27 1001 94 2500 1.54 160 22:51 24.06.2022
2926 Haze 27 1001 94 2500 2.06 150 21:34 24.06.2022
2927 Haze 27 1001 94 2500 2.57 120 20:44 24.06.2022
2928 Haze 27 1002 94 2500 3.09 110 20:18 24.06.2022
2929 Rain 27 1003 94 2500 3.09 110 19:20 24.06.2022
2930 Rain 27 1003 94 2500 2.06 110 18:48 24.06.2022
2931 Rain 27 1003 100 2500 1.54 60 18:30 24.06.2022
2932 Clouds 28 1002 94 1000 1.54 270 16:57 24.06.2022
2933 Rain 28 1001 89 3000 3.09 230 15:29 24.06.2022
2934 Haze 28 1000 89 4000 1.54 100 14:26 24.06.2022
2935 Haze 27 1000 94 4000 1.03 100 13:53 24.06.2022
2936 Haze 29 1001 84 3000 5.14 150 11:43 24.06.2022
2937 Clouds 29 1002 84 2500 4.63 170 10:47 24.06.2022
2938 Haze 31 1004 74 4000 4.63 200 09:42 24.06.2022
2939 Haze 31 1004 74 4000 4.63 200 09:19 24.06.2022
2940 Haze 31 1004 74 4000 2.57 160 08:42 24.06.2022
2941 Haze 29 1005 84 3000 4.12 130 06:47 24.06.2022
2942 Haze 29 1005 79 2500 4.12 190 06:29 24.06.2022
2943 Haze 29 1005 79 2500 3.6 180 05:51 24.06.2022
2944 Thunderstorm 27 1003 94 2500 2.57 80 00:57 24.06.2022
2945 Rain 27 1004 94 2500 2.06 20 22:44 23.06.2022
2946 Rain 27 1005 94 2500 2.57 120 21:52 23.06.2022
2947 Thunderstorm 27 1006 94 2500 2.57 120 20:53 23.06.2022
2948 Thunderstorm 28 1006 89 2500 3.6 100 20:31 23.06.2022
2949 Thunderstorm 29 1006 84 3000 3.6 170 18:44 23.06.2022
2950 Thunderstorm 29 1005 79 3000 3.6 180 17:44 23.06.2022
2951 Haze 29 1004 84 3500 4.12 230 16:36 23.06.2022
2952 Haze 30 1003 79 4000 5.14 230 15:29 23.06.2022
2953 Haze 30 1002 79 4000 5.14 260 14:59 23.06.2022
2954 Haze 31 1002 66 4000 3.6 230 12:39 23.06.2022
2955 Haze 32 1004 62 4000 4.12 270 11:20 23.06.2022
2956 Haze 30 1005 70 4000 3.6 220 09:30 23.06.2022
2957 Haze 29 1006 79 4000 4.12 180 07:51 23.06.2022
2958 Haze 27 1004 94 2500 1.54 100 01:29 23.06.2022
2959 Haze 27 1004 94 2500 2.06 110 00:25 23.06.2022
2960 Haze 27 1004 94 2500 3.09 120 23:23 22.06.2022
2961 Haze 27 1005 94 2500 2.06 100 21:45 22.06.2022
2962 Haze 27 1005 94 2500 2.06 100 21:45 22.06.2022
2963 Haze 27 1006 94 2500 2.57 110 20:57 22.06.2022
2964 Rain 27 1006 94 2500 2.57 110 20:21 22.06.2022
2965 Clouds 27 1006 94 2500 3.09 120 19:48 22.06.2022
2966 Clouds 28 1005 89 2500 0 0 17:50 22.06.2022
2967 Clouds 28 1005 89 2500 2.06 150 17:20 22.06.2022
2968 Rain 29 1003 84 3000 4.12 220 15:53 22.06.2022
2969 Rain 29 1003 84 3500 5.66 240 15:24 22.06.2022
2970 Haze 30 1002 79 4000 5.14 220 13:50 22.06.2022
2971 Haze 30 1002 79 4000 3.6 240 13:25 22.06.2022
2972 Haze 30 1002 79 4000 4.63 210 12:44 22.06.2022
2973 Haze 31 1002 74 4000 4.63 230 11:47 22.06.2022
2974 Haze 30 1003 79 4000 4.63 230 10:54 22.06.2022
2975 Clouds 30 1004 79 3500 4.12 200 09:44 22.06.2022
2976 Haze 30 1004 79 3500 3.6 210 07:56 22.06.2022
2977 Haze 27 1002 94 2500 2.57 150 03:25 22.06.2022
2978 Thunderstorm 26 1001 100 2500 3.09 100 01:21 22.06.2022
2979 Haze 27 1001 94 2500 2.06 140 23:39 21.06.2022
2980 Haze 27 1002 94 2500 0 0 21:31 21.06.2022
2981 Drizzle 26 1003 100 2500 3.6 160 19:43 21.06.2022
2982 Thunderstorm 27 1003 89 3000 2.57 180 18:30 21.06.2022
2983 Haze 28 1001 89 3000 5.14 190 16:52 21.06.2022
2984 Clouds 26 1002 100 2500 5.14 210 12:40 21.06.2022
2985 Haze 28 1002 83 3000 5.14 220 10:55 21.06.2022
2986 Drizzle 29 1003 84 3000 7.2 200 09:48 21.06.2022
2987 Haze 29 1003 84 3000 5.14 190 08:22 21.06.2022
2988 Haze 29 1003 84 3000 5.14 190 08:22 21.06.2022
2989 Haze 27 1003 94 2500 3.6 140 05:37 21.06.2022
2990 Clouds 25 1002 100 2500 1.03 100 00:43 21.06.2022
2991 Drizzle 26 1003 100 2200 2.57 110 22:25 20.06.2022
2992 Clouds 27 1003 94 1800 2.57 90 21:50 20.06.2022
2993 Clouds 27 1004 94 1800 1.54 140 20:32 20.06.2022
2994 Clouds 27 1004 94 1800 1.54 140 20:32 20.06.2022
2995 Haze 27 1005 94 2500 2.57 90 19:38 20.06.2022
2996 Haze 27 1004 94 2200 1.54 160 18:44 20.06.2022
2997 Haze 28 1003 89 3000 3.6 170 17:52 20.06.2022
2998 Haze 28 1003 89 3000 2.57 180 17:29 20.06.2022
2999 Haze 28 1003 89 3500 3.6 190 15:53 20.06.2022
3000 Haze 27 1003 94 3000 5.14 210 12:41 20.06.2022
3001 Clouds 26 1005 94 2500 4.12 200 10:41 20.06.2022
3002 Haze 27 1005 89 3000 4.63 200 09:30 20.06.2022
3003 Clouds 29 1005 84 3000 6.69 200 08:44 20.06.2022
3004 Clouds 27 1006 94 2000 5.14 190 05:35 20.06.2022
3005 Drizzle 26 1004 94 2500 1.54 130 02:27 20.06.2022
3006 Haze 26 1004 100 2500 1.54 190 00:26 20.06.2022
3007 Drizzle 27 1005 94 2500 2.06 130 22:53 19.06.2022
3008 Rain 26 1006 94 2500 2.57 160 21:58 19.06.2022
3009 Rain 27 1006 94 2500 3.09 150 21:40 19.06.2022
3010 Rain 27 1007 94 3000 2.57 160 20:39 19.06.2022
3011 Drizzle 27 1007 94 3000 4.12 210 19:47 19.06.2022
3012 Haze 27 1006 89 3500 2.57 190 18:57 19.06.2022
3013 Haze 27 1006 89 3500 3.6 180 18:30 19.06.2022
3014 Thunderstorm 28 1005 89 3500 3.6 200 17:22 19.06.2022
3015 Haze 28 1005 83 3500 4.12 190 16:35 19.06.2022
3016 Haze 29 1004 79 3500 3.6 200 15:42 19.06.2022
3017 Haze 29 1004 84 3500 4.63 230 14:58 19.06.2022
3018 Haze 29 1004 84 3500 5.66 210 14:20 19.06.2022
3019 Haze 30 1004 79 3500 4.63 220 13:36 19.06.2022
3020 Haze 27 1006 83 3000 4.12 270 11:38 19.06.2022
3021 Clouds 27 1007 83 3000 4.12 240 10:31 19.06.2022
3022 Haze 29 1006 89 3000 5.14 180 08:49 19.06.2022
3023 Thunderstorm 27 1007 89 3000 2.06 210 08:19 19.06.2022
3024 Haze 28 1006 89 3000 2.57 110 05:42 19.06.2022
3025 Haze 27 1004 94 2500 0 0 02:32 19.06.2022
3026 Drizzle 27 1004 94 2500 2.57 140 00:26 19.06.2022
3027 Clouds 26 1005 94 2100 0 0 23:36 18.06.2022
3028 Clouds 27 1005 89 1400 4.12 260 22:45 18.06.2022
3029 Haze 29 1005 89 3000 2.57 170 21:43 18.06.2022
3030 Haze 29 1006 89 3500 2.57 160 20:49 18.06.2022
3031 Haze 29 1006 89 3500 3.6 170 19:40 18.06.2022
3032 Haze 29 1006 89 4000 3.09 190 18:54 18.06.2022
3033 Haze 29 1005 84 4000 4.63 170 17:43 18.06.2022
3034 Haze 29 1005 84 4000 5.14 180 17:22 18.06.2022
3035 Haze 30 1004 79 4000 3.6 210 15:37 18.06.2022
3036 Haze 31 1003 70 4000 4.63 180 14:48 18.06.2022
3037 Haze 31 1003 66 4000 5.14 220 13:42 18.06.2022
3038 Haze 32 1005 66 4000 5.14 190 11:58 18.06.2022
3039 Haze 31 1005 62 4000 4.12 200 10:57 18.06.2022
3040 Haze 32 1006 66 4000 4.12 210 09:28 18.06.2022
3041 Haze 30 1006 79 4000 5.14 230 08:33 18.06.2022
3042 Haze 30 1006 74 3500 3.09 230 07:32 18.06.2022
3043 Haze 29 1005 84 3000 3.09 120 04:20 18.06.2022
3044 Haze 28 1004 89 3000 2.57 140 01:27 18.06.2022
3045 Haze 28 1004 89 3000 2.57 140 01:27 18.06.2022
3046 Haze 28 1004 89 3000 2.06 140 00:50 18.06.2022
3047 Haze 29 1004 84 3000 2.06 160 00:22 18.06.2022
3048 Haze 28 1004 89 3000 2.06 210 23:29 17.06.2022
3049 Haze 29 1005 84 3000 2.57 170 21:44 17.06.2022
3050 Haze 30 1005 79 3000 2.57 180 20:29 17.06.2022
3051 Haze 30 1005 79 3000 2.57 190 19:19 17.06.2022
3052 Haze 30 1004 79 3000 4.12 220 17:47 17.06.2022
3053 Haze 30 1003 79 3000 4.12 210 16:44 17.06.2022
3054 Haze 30 1003 74 3000 4.12 220 16:21 17.06.2022
3055 Haze 30 1003 79 3500 4.12 220 15:37 17.06.2022
3056 Haze 30 1003 79 3500 4.12 210 14:23 17.06.2022
3057 Haze 30 1003 79 3500 5.14 210 13:58 17.06.2022
3058 Haze 31 1003 74 3500 5.14 220 13:38 17.06.2022
3059 Haze 31 1003 74 3500 4.12 210 12:24 17.06.2022
3060 Haze 32 1004 74 3500 5.66 230 11:50 17.06.2022
3061 Rain 32 1004 70 3500 6.17 220 11:32 17.06.2022
3062 Haze 31 1006 66 4000 4.63 200 08:56 17.06.2022
3063 Haze 31 1006 70 4000 3.6 200 08:25 17.06.2022
3064 Haze 30 1006 79 3500 3.09 180 06:42 17.06.2022
3065 Haze 28 1005 94 2500 2.57 90 03:42 17.06.2022
3066 Haze 29 1004 84 3000 2.57 120 01:55 17.06.2022
3067 Haze 29 1004 84 3000 3.09 240 23:35 16.06.2022
3068 Haze 30 1005 79 3000 2.06 190 22:41 16.06.2022
3069 Haze 30 1005 79 3000 3.6 220 21:21 16.06.2022
3070 Haze 30 1005 79 3000 3.09 220 20:51 16.06.2022
3071 Haze 30 1006 79 3000 3.6 200 20:32 16.06.2022
3072 Haze 30 1006 79 3500 2.57 220 19:32 16.06.2022
3073 Haze 30 1005 79 3500 3.09 230 17:57 16.06.2022
3074 Haze 30 1005 79 3500 4.12 220 17:33 16.06.2022
3075 Haze 30 1004 79 3500 3.6 230 16:30 16.06.2022
3076 Haze 30 1004 79 3500 4.12 240 15:21 16.06.2022
3077 Haze 30 1004 84 3000 4.12 240 14:28 16.06.2022
3078 Clouds 31 1004 74 4000 4.12 250 12:59 16.06.2022
3079 Haze 33 1005 62 4000 4.63 220 12:35 16.06.2022
3080 Haze 33 1005 66 4000 5.14 250 11:49 16.06.2022
3081 Haze 32 1005 70 3500 4.63 230 10:51 16.06.2022
3082 Haze 30 1006 79 3000 3.6 230 09:43 16.06.2022
3083 Haze 31 1006 70 2500 6.17 250 09:20 16.06.2022
3084 Haze 28 1006 89 2500 1.03 130 07:57 16.06.2022
3085 Clouds 27 1007 83 1500 3.09 250 06:51 16.06.2022
3086 Clouds 26 1006 94 2000 3.09 220 04:28 16.06.2022
3087 Haze 27 1004 94 3000 3.6 180 01:54 16.06.2022
3088 Haze 27 1004 89 3000 2.57 80 01:34 16.06.2022
3089 Haze 28 1005 89 3000 3.09 100 00:36 16.06.2022
3090 Haze 29 1005 84 3000 2.06 160 23:23 15.06.2022
3091 Haze 29 1005 84 3000 1.54 180 22:28 15.06.2022
3092 Haze 30 1005 79 3000 3.6 210 21:21 15.06.2022
3093 Haze 30 1006 79 3000 3.6 210 20:38 15.06.2022
3094 Haze 30 1006 79 3000 3.6 210 20:19 15.06.2022
3095 Haze 30 1006 79 3000 4.63 230 18:51 15.06.2022
3096 Haze 30 1006 74 3000 2.57 250 17:55 15.06.2022
3097 Haze 30 1005 79 3500 4.12 240 16:38 15.06.2022
3098 Haze 30 1004 79 4000 4.63 240 15:35 15.06.2022
3099 Haze 31 1005 66 4000 6.69 260 13:43 15.06.2022
3100 Clouds 31 1005 74 2500 6.69 230 12:53 15.06.2022
3101 Haze 32 1005 70 4000 3.6 250 11:48 15.06.2022
3102 Haze 31 1006 74 5000 6.69 230 10:24 15.06.2022
3103 Haze 32 1006 70 5000 4.63 220 09:39 15.06.2022
3104 Haze 32 1007 70 5000 5.66 220 08:30 15.06.2022
3105 Haze 31 1007 79 4000 4.12 180 06:33 15.06.2022
3106 Haze 29 1005 89 3500 2.57 160 03:45 15.06.2022
3107 Haze 29 1005 89 3500 2.57 170 01:54 15.06.2022
3108 Haze 29 1005 84 3500 2.57 170 00:50 15.06.2022
3109 Haze 29 1005 89 3500 3.09 160 23:39 14.06.2022
3110 Haze 30 1005 74 3500 2.57 170 23:18 14.06.2022
3111 Haze 30 1005 79 3500 4.12 190 22:18 14.06.2022
3112 Haze 30 1006 79 3500 4.63 200 21:33 14.06.2022
3113 Haze 30 1006 79 3500 3.09 180 20:48 14.06.2022
3114 Haze 30 1007 79 3500 3.6 200 20:28 14.06.2022
3115 Haze 30 1007 74 3500 4.63 200 18:54 14.06.2022
3116 Haze 30 1006 74 3500 3.09 230 17:40 14.06.2022
3117 Haze 30 1006 74 4000 4.63 200 16:43 14.06.2022
3118 Haze 31 1005 70 5000 3.09 220 15:50 14.06.2022
3119 Haze 31 1005 70 5000 6.17 230 15:22 14.06.2022
3120 Smoke 32 1005 66 6000 3.6 220 14:30 14.06.2022
3121 Smoke 32 1005 66 6000 4.12 200 13:41 14.06.2022
3122 Haze 33 1006 62 5000 4.63 210 12:42 14.06.2022
3123 Haze 33 1006 62 5000 4.12 230 11:31 14.06.2022
3124 Haze 32 1006 62 5000 4.63 190 10:47 14.06.2022
3125 Haze 33 1007 62 5000 5.66 220 09:48 14.06.2022
3126 Haze 32 1007 55 5000 5.66 190 08:46 14.06.2022
3127 Haze 31 1007 74 4000 5.66 180 07:31 14.06.2022
3128 Clouds 29 1008 79 2100 5.14 230 05:19 14.06.2022
3129 Haze 28 1006 89 3000 3.09 160 02:57 14.06.2022
3130 Haze 29 1005 84 3500 3.09 160 00:32 14.06.2022
3131 Haze 29 1005 79 3500 1.54 190 23:27 13.06.2022
3132 Haze 29 1006 79 3500 4.12 180 22:26 13.06.2022
3133 Haze 29 1006 79 3500 4.12 180 22:26 13.06.2022
3134 Haze 29 1006 84 3500 3.6 40 21:49 13.06.2022
3135 Haze 29 1006 84 3500 2.57 170 20:42 13.06.2022
3136 Haze 30 1006 74 3500 3.09 190 19:34 13.06.2022
3137 Haze 29 1007 84 3500 3.09 200 18:25 13.06.2022
3138 Haze 29 1007 79 3500 3.09 210 17:46 13.06.2022
3139 Haze 30 1006 79 3500 6.17 190 16:52 13.06.2022
3140 Haze 31 1005 74 5000 5.14 210 15:39 13.06.2022
3141 Haze 31 1004 70 6000 4.12 210 14:47 13.06.2022
3142 Clouds 32 1004 70 6000 4.63 230 13:54 13.06.2022
3143 Clouds 32 1004 66 6000 5.66 220 12:48 13.06.2022
3144 Clouds 33 1005 58 6000 4.63 220 11:34 13.06.2022
3145 Clouds 32 1007 66 6000 4.12 210 10:27 13.06.2022
3146 Smoke 32 1007 62 6000 5.66 210 09:39 13.06.2022
3147 Smoke 31 1008 70 6000 5.66 200 07:53 13.06.2022
3148 Smoke 31 1008 70 6000 3.6 170 06:33 13.06.2022
3149 Haze 28 1006 83 4000 4.12 180 03:28 13.06.2022
3150 Haze 28 1005 83 3500 1.54 150 01:38 13.06.2022
3151 Haze 27 1005 89 3500 1.54 170 00:22 13.06.2022
3152 Haze 29 1006 79 3500 3.09 130 23:29 12.06.2022
3153 Clouds 28 1006 81 9290 6.68 194 22:23 12.06.2022
3154 Haze 29 1006 84 3500 4.12 160 21:28 12.06.2022
3155 Haze 29 1006 84 3500 3.6 160 20:34 12.06.2022
3156 Haze 29 1006 84 3500 4.12 160 19:38 12.06.2022
3157 Haze 30 1006 79 4000 4.12 160 18:39 12.06.2022
3158 Haze 30 1004 79 5000 2.57 170 16:42 12.06.2022
3159 Haze 31 1004 70 5000 3.6 200 15:30 12.06.2022
3160 Haze 32 1003 66 6000 5.14 190 14:32 12.06.2022
3161 Haze 31 1003 74 6000 5.66 220 13:55 12.06.2022
3162 Haze 31 1003 66 6000 5.66 220 12:58 12.06.2022
3163 Haze 32 1004 62 4000 5.14 210 11:48 12.06.2022
3164 Drizzle 31 1004 70 4000 4.12 140 10:45 12.06.2022
3165 Haze 30 1006 74 5000 5.14 160 09:28 12.06.2022
3166 Haze 28 1006 83 5000 4.12 160 08:49 12.06.2022
3167 Haze 29 1006 79 5000 7.2 170 07:40 12.06.2022
3168 Haze 28 1006 89 5000 3.09 130 05:39 12.06.2022
3169 Haze 27 1004 89 4000 2.57 110 03:38 12.06.2022
3170 Haze 26 1004 94 2500 3.6 170 01:43 12.06.2022
3171 Drizzle 26 1004 94 2500 2.57 130 00:59 12.06.2022
3172 Haze 26 1004 94 2500 2.06 160 00:28 12.06.2022
3173 Drizzle 26 1004 100 2500 3.09 160 23:56 11.06.2022
3174 Clouds 26 1005 100 2500 3.09 170 22:49 11.06.2022
3175 Clouds 26 1005 94 2500 2.57 170 22:29 11.06.2022
3176 Thunderstorm 27 1006 94 2500 3.09 170 20:55 11.06.2022
3177 Drizzle 27 1006 94 2500 2.57 170 20:26 11.06.2022
3178 Thunderstorm 27 1006 94 2500 3.09 180 19:32 11.06.2022
3179 Rain 27 1006 100 2500 3.09 190 18:36 11.06.2022
3180 Thunderstorm 27 1006 94 2500 0 0 17:52 11.06.2022
3181 Thunderstorm 27 1005 94 1600 4.63 240 17:29 11.06.2022
3182 Rain 28 1005 89 2500 3.6 210 16:59 11.06.2022
3183 Clouds 29 1005 84 2500 3.6 210 16:38 11.06.2022
3184 Haze 30 1004 74 4000 5.14 180 15:46 11.06.2022
3185 Haze 30 1004 74 5000 4.63 200 13:54 11.06.2022
3186 Haze 30 1004 74 5000 5.14 200 13:36 11.06.2022
3187 Haze 32 1004 62 4000 5.14 200 11:18 11.06.2022
3188 Haze 32 1005 66 4000 4.63 160 10:29 11.06.2022
3189 Haze 30 1006 70 4000 4.12 170 09:40 11.06.2022
3190 Haze 29 1006 89 3000 4.12 190 07:58 11.06.2022
3191 Drizzle 25 1006 94 2500 2.57 160 06:31 11.06.2022
3192 Rain 27 1006 94 2200 2.06 90 05:26 11.06.2022
3193 Thunderstorm 27 1004 94 2500 0 0 02:34 11.06.2022
3194 Thunderstorm 27 1004 94 1500 3.09 240 01:41 11.06.2022
3195 Thunderstorm 27 1004 100 2100 0 0 00:37 11.06.2022
3196 Clouds 28 1004 94 1500 2.06 210 22:38 10.06.2022
3197 Haze 28 1004 94 2500 1.54 180 21:56 10.06.2022
3198 Thunderstorm 28 1005 94 2500 2.06 150 21:22 10.06.2022
3199 Clouds 27 1006 94 2500 2.06 130 20:36 10.06.2022
3200 Clouds 27 1006 94 2500 2.06 130 20:18 10.06.2022
3201 Thunderstorm 28 1006 94 2500 4.63 230 19:18 10.06.2022
3202 Thunderstorm 28 1006 94 2500 4.63 230 19:18 10.06.2022
3203 Thunderstorm 31 1005 74 3000 3.6 210 18:20 10.06.2022
3204 Haze 31 1004 74 4000 3.6 230 17:41 10.06.2022
3205 Haze 31 1004 74 4000 4.12 240 16:59 10.06.2022
3206 Haze 31 1003 74 4000 3.6 210 16:20 10.06.2022
3207 Haze 31 1003 74 5000 3.09 240 15:36 10.06.2022
3208 Haze 32 1002 74 5000 5.66 230 13:52 10.06.2022
3209 Haze 32 1002 70 6000 4.63 220 12:48 10.06.2022
3210 Haze 32 1003 70 6000 5.14 220 11:41 10.06.2022
3211 Haze 33 1003 66 5000 5.66 220 10:44 10.06.2022
3212 Haze 33 1004 62 5000 5.14 250 09:44 10.06.2022
3213 Haze 32 1006 66 5000 5.14 230 08:30 10.06.2022
3214 Haze 32 1006 62 4000 4.12 200 07:24 10.06.2022
3215 Haze 32 1006 66 3500 2.57 220 06:43 10.06.2022
3216 Haze 32 1006 66 3500 2.57 220 06:24 10.06.2022
3217 Haze 29 1005 79 2800 2.57 110 03:52 10.06.2022
3218 Haze 28 1003 89 2500 3.09 110 01:41 10.06.2022
3219 Haze 27 1003 94 2500 0 0 00:28 10.06.2022
3220 Haze 27 1003 94 2500 0 0 23:29 09.06.2022
3221 Haze 27 1004 89 2500 1.54 150 21:58 09.06.2022
3222 Haze 27 1004 89 2500 2.06 100 21:32 09.06.2022
3223 Haze 27 1005 89 2500 2.57 100 20:54 09.06.2022
3224 Thunderstorm 27 1005 89 2200 1.54 70 19:59 09.06.2022
3225 Clouds 26 1005 100 2200 1.54 120 19:19 09.06.2022
3226 Thunderstorm 26 1005 94 2100 1.54 70 18:21 09.06.2022
3227 Thunderstorm 30 1005 89 2500 3.6 240 16:50 09.06.2022
3228 Clouds 31 1003 79 3000 4.63 250 15:48 09.06.2022
3229 Clouds 31 1003 79 3000 4.63 250 15:48 09.06.2022
3230 Haze 31 1002 79 6000 4.63 250 14:35 09.06.2022
3231 Clouds 32 1001 74 6000 5.14 250 13:51 09.06.2022
3232 Clouds 32 1002 74 6000 4.12 250 13:27 09.06.2022
3233 Clouds 33 1002 70 6000 4.63 240 11:54 09.06.2022
3234 Clouds 32 1003 66 6000 4.63 240 11:18 09.06.2022
3235 Clouds 34 1004 62 6000 5.66 280 09:44 09.06.2022
3236 Clouds 33 1004 66 6000 5.14 260 09:23 09.06.2022
3237 Clouds 33 1005 58 6000 4.12 240 07:45 09.06.2022
3238 Clouds 33 1005 58 6000 4.12 240 07:45 09.06.2022
3239 Haze 32 1006 66 5000 3.09 240 06:28 09.06.2022
3240 Haze 30 1004 79 3500 1.54 200 02:38 09.06.2022
3241 Haze 31 1004 74 3500 2.06 230 23:39 08.06.2022
3242 Haze 31 1004 74 4000 2.06 260 22:58 08.06.2022
3243 Haze 31 1005 74 4000 2.06 230 22:27 08.06.2022
3244 Haze 31 1005 74 4000 2.57 210 21:54 08.06.2022
3245 Haze 31 1006 79 4000 2.06 220 21:21 08.06.2022
3246 Haze 31 1006 74 4000 1.54 260 20:20 08.06.2022
3247 Haze 31 1006 79 4000 4.12 280 19:38 08.06.2022
3248 Haze 31 1006 79 4000 4.12 250 18:43 08.06.2022
3249 Haze 31 1005 74 4000 5.14 250 16:54 08.06.2022
3250 Haze 31 1004 79 5000 6.17 270 15:44 08.06.2022
3251 Clouds 33 1003 66 6000 5.66 270 13:51 08.06.2022
3252 Clouds 33 1004 66 6000 6.17 270 11:52 08.06.2022
3253 Clouds 33 1004 70 6000 5.14 260 11:29 08.06.2022
3254 Clouds 33 1006 66 6000 6.69 270 09:59 08.06.2022
3255 Clouds 32 1006 70 6000 4.63 260 09:21 08.06.2022
3256 Smoke 33 1007 62 5000 5.14 250 08:26 08.06.2022
3257 Haze 32 1007 66 5000 2.06 290 05:51 08.06.2022
3258 Haze 30 1006 79 3500 3.09 260 03:55 08.06.2022
3259 Haze 30 1005 84 3500 0 0 00:38 08.06.2022
3260 Haze 30 1006 79 3500 2.57 220 23:28 07.06.2022
3261 Haze 30 1006 79 3500 2.57 190 22:45 07.06.2022
3262 Haze 30 1006 79 3500 3.09 200 22:23 07.06.2022
3263 Haze 31 1007 79 3500 3.09 220 21:34 07.06.2022
3264 Haze 31 1007 74 4000 2.57 230 20:58 07.06.2022
3265 Haze 31 1007 74 4000 3.6 210 20:32 07.06.2022
3266 Haze 31 1007 74 4000 3.09 220 19:38 07.06.2022
3267 Haze 31 1007 74 4000 3.6 230 18:23 07.06.2022
3268 Haze 31 1006 74 4000 5.66 250 17:26 07.06.2022
3269 Haze 31 1006 74 4000 5.66 260 16:43 07.06.2022
3270 Haze 31 1005 74 5000 5.66 260 15:54 07.06.2022
3271 Haze 31 1005 74 5000 5.14 250 15:26 07.06.2022
3272 Haze 31 1005 74 5000 5.14 230 14:50 07.06.2022
3273 Haze 32 1005 70 5000 5.66 250 14:32 07.06.2022
3274 Haze 32 1004 70 5000 4.63 270 13:31 07.06.2022
3275 Haze 32 1005 70 5000 4.12 280 12:49 07.06.2022
3276 Haze 32 1005 70 5000 4.63 250 11:47 07.06.2022
3277 Haze 32 1006 70 6000 5.66 260 10:26 07.06.2022
3278 Clouds 33 1006 66 6000 5.14 250 08:50 07.06.2022
3279 Smoke 33 1007 62 6000 5.14 260 07:34 07.06.2022
3280 Haze 31 1007 70 5000 2.06 240 06:18 07.06.2022
3281 Haze 30 1005 74 3500 1.54 160 03:32 07.06.2022
3282 Haze 30 1005 74 3500 0 0 00:45 07.06.2022
3283 Haze 30 1005 74 4000 0 0 23:41 06.06.2022
3284 Haze 30 1006 74 4000 2.06 250 22:53 06.06.2022
3285 Haze 30 1006 74 4000 2.57 240 22:28 06.06.2022
3286 Haze 30 1007 74 4000 3.6 230 20:42 06.06.2022
3287 Haze 30 1007 74 4000 4.12 250 19:24 06.06.2022
3288 Haze 31 1007 70 4000 4.63 250 18:48 06.06.2022
3289 Haze 31 1006 70 4500 4.63 260 17:57 06.06.2022
3290 Haze 31 1006 66 4500 4.63 270 16:57 06.06.2022
3291 Haze 31 1005 70 4500 4.63 260 15:52 06.06.2022
3292 Haze 31 1005 70 5000 5.14 270 14:59 06.06.2022
3293 Haze 31 1005 70 5000 5.14 270 14:59 06.06.2022
3294 Haze 32 1004 66 5000 6.17 260 14:18 06.06.2022
3295 Smoke 32 1004 62 6000 3.6 250 13:20 06.06.2022
3296 Smoke 32 1005 66 6000 4.12 260 12:35 06.06.2022
3297 Smoke 33 1005 58 6000 6.17 260 11:49 06.06.2022
3298 Haze 33 1005 62 5000 5.66 240 09:53 06.06.2022
3299 Haze 33 1006 62 5000 6.17 260 09:18 06.06.2022
3300 Haze 32 1006 62 5000 5.66 230 08:31 06.06.2022
3301 Haze 32 1006 66 5000 4.63 220 07:24 06.06.2022
3302 Haze 30 1006 74 3500 2.06 240 04:42 06.06.2022
3303 Haze 30 1005 74 3500 2.06 230 02:19 06.06.2022
3304 Haze 29 1004 79 3500 2.57 240 00:57 06.06.2022
3305 Haze 30 1004 74 3500 3.09 250 00:35 06.06.2022
3306 Haze 30 1005 74 3500 4.12 230 23:25 05.06.2022
3307 Haze 30 1005 74 3500 3.6 230 22:33 05.06.2022
3308 Rain 30 1006 74 3500 2.57 260 20:34 05.06.2022
3309 Haze 30 1006 74 4000 4.12 250 19:26 05.06.2022
3310 Haze 30 1006 74 4000 3.6 260 18:26 05.06.2022
3311 Haze 30 1006 79 4000 3.09 280 17:46 05.06.2022
3312 Haze 30 1005 74 4000 4.12 290 17:22 05.06.2022
3313 Haze 31 1005 74 4000 5.14 270 16:48 05.06.2022
3314 Haze 31 1004 70 5000 4.63 270 15:47 05.06.2022
3315 Haze 31 1003 70 5000 5.14 270 14:22 05.06.2022
3316 Clouds 32 1004 66 6000 4.12 260 12:43 05.06.2022
3317 Clouds 33 1004 62 6000 5.14 270 11:35 05.06.2022
3318 Clouds 32 1005 70 6000 5.14 270 10:25 05.06.2022
3319 Haze 33 1005 62 6000 7.2 260 09:58 05.06.2022
3320 Haze 33 1006 62 6000 5.14 270 08:26 05.06.2022
3321 Haze 32 1006 62 6000 2.06 230 06:54 05.06.2022
3322 Haze 30 1006 70 3500 2.06 300 05:20 05.06.2022
3323 Haze 30 1006 74 3500 2.57 240 03:38 05.06.2022
3324 Haze 29 1005 79 3500 2.06 320 01:32 05.06.2022
3325 Haze 30 1005 74 3500 2.06 290 23:58 04.06.2022
3326 Haze 30 1005 79 3500 3.6 270 21:49 04.06.2022
3327 Haze 30 1006 79 3500 4.12 280 20:21 04.06.2022
3328 Haze 30 1005 74 4000 4.63 280 18:18 04.06.2022
3329 Haze 30 1005 79 4000 3.6 280 16:43 04.06.2022
3330 Haze 30 1004 74 5000 5.14 290 16:18 04.06.2022
3331 Smoke 32 1004 66 6000 5.66 280 14:47 04.06.2022
3332 Smoke 32 1004 66 6000 5.14 280 12:28 04.06.2022
3333 Smoke 33 1005 62 6000 6.17 250 10:58 04.06.2022
3334 Smoke 33 1005 58 6000 4.63 280 10:26 04.06.2022
3335 Smoke 33 1005 58 6000 4.63 260 09:42 04.06.2022
3336 Haze 32 1006 66 5000 5.66 270 08:40 04.06.2022
3337 Haze 32 1007 66 5000 4.63 270 07:40 04.06.2022
3338 Haze 30 1007 74 4000 3.09 280 04:57 04.06.2022
3339 Haze 29 1005 74 4000 3.09 280 01:25 04.06.2022
3340 Haze 30 1005 74 4000 3.09 240 23:59 03.06.2022
3341 Haze 30 1006 74 4000 3.09 270 22:40 03.06.2022
3342 Haze 30 1007 74 4000 3.09 290 21:24 03.06.2022
3343 Haze 30 1007 74 4000 3.6 280 20:33 03.06.2022
3344 Haze 30 1006 74 4000 6.69 250 18:23 03.06.2022
3345 Haze 30 1006 74 4000 4.12 260 16:47 03.06.2022
3346 Haze 31 1005 70 5000 5.14 260 15:23 03.06.2022
3347 Haze 32 1004 66 5000 5.14 290 13:22 03.06.2022
3348 Haze 33 1004 58 5000 5.14 280 11:40 03.06.2022
3349 Haze 33 1005 58 5000 6.17 280 09:45 03.06.2022
3350 Haze 32 1006 66 5000 6.69 260 08:58 03.06.2022
3351 Haze 32 1007 62 4000 4.12 260 07:26 03.06.2022
3352 Haze 32 1007 62 4000 4.12 260 07:26 03.06.2022
3353 Haze 31 1007 66 4000 3.6 250 06:34 03.06.2022
3354 Haze 31 1007 66 3500 2.57 310 05:52 03.06.2022
3355 Haze 29 1006 79 3500 3.09 250 00:30 03.06.2022
3356 Haze 30 1006 74 3500 4.12 270 22:45 02.06.2022
3357 Haze 30 1006 74 3500 4.12 250 21:51 02.06.2022
3358 Haze 30 1007 74 3500 4.63 270 20:22 02.06.2022
3359 Haze 30 1007 74 3500 4.63 270 20:22 02.06.2022
3360 Haze 30 1007 74 3500 4.63 260 19:50 02.06.2022
3361 Haze 30 1007 74 3500 4.63 270 19:31 02.06.2022
3362 Haze 30 1006 74 3500 4.63 250 17:32 02.06.2022
3363 Haze 30 1005 79 4000 4.63 270 16:27 02.06.2022
3364 Haze 31 1004 70 4000 5.14 270 14:22 02.06.2022
3365 Haze 31 1004 70 4500 4.12 280 13:30 02.06.2022
3366 Haze 31 1004 66 4500 5.66 260 12:21 02.06.2022
3367 Haze 33 1006 55 5000 4.12 270 10:20 02.06.2022
3368 Haze 32 1006 66 4000 5.66 270 09:28 02.06.2022
3369 Haze 32 1007 66 4000 5.14 260 08:27 02.06.2022
3370 Haze 31 1007 66 4000 2.57 270 07:33 02.06.2022
3371 Haze 30 1007 74 3500 2.57 310 04:54 02.06.2022
3372 Haze 30 1006 79 3500 2.57 280 02:48 02.06.2022
3373 Haze 30 1006 74 4000 3.6 280 23:50 01.06.2022
3374 Haze 30 1006 74 3500 4.63 280 22:51 01.06.2022
3375 Haze 30 1006 74 3500 5.14 270 21:37 01.06.2022
3376 Haze 30 1007 79 3500 4.63 260 20:59 01.06.2022
3377 Haze 30 1007 79 3500 4.63 260 20:37 01.06.2022
3378 Haze 30 1007 79 3500 4.12 270 19:28 01.06.2022
3379 Haze 30 1006 74 3500 4.63 280 17:46 01.06.2022
3380 Haze 30 1005 74 4000 4.63 270 16:40 01.06.2022
3381 Haze 31 1004 70 4000 4.63 300 15:18 01.06.2022
3382 Haze 31 1003 70 5000 5.66 280 13:54 01.06.2022
3383 Haze 32 1004 66 5000 5.66 290 12:28 01.06.2022
3384 Clouds 32 1006 62 6000 5.14 290 10:25 01.06.2022
3385 Smoke 33 1006 62 6000 5.14 280 09:24 01.06.2022
3386 Smoke 33 1007 58 4500 3.6 270 07:25 01.06.2022
3387 Haze 32 1008 62 4500 2.06 260 06:30 01.06.2022
3388 Haze 30 1005 74 3500 3.6 270 01:28 01.06.2022
3389 Haze 30 1006 74 3500 3.6 280 23:41 31.05.2022
3390 Haze 30 1006 74 3500 4.63 260 22:37 31.05.2022
3391 Haze 30 1006 74 3500 4.12 260 21:46 31.05.2022
3392 Haze 30 1007 74 3500 4.63 260 20:46 31.05.2022
3393 Haze 30 1007 74 3500 4.63 250 20:23 31.05.2022
3394 Haze 30 1006 74 3500 5.14 270 18:53 31.05.2022
3395 Haze 30 1006 74 4000 5.14 270 17:51 31.05.2022
3396 Haze 30 1005 74 4000 5.66 270 17:20 31.05.2022
3397 Haze 31 1004 70 5000 6.17 280 15:41 31.05.2022
3398 Smoke 32 1003 66 6000 5.66 280 14:33 31.05.2022
3399 Smoke 32 1004 66 6000 6.17 280 12:22 31.05.2022
3400 Smoke 33 1005 62 6000 5.66 290 11:23 31.05.2022
3401 Smoke 33 1005 58 5000 4.63 280 09:49 31.05.2022
3402 Smoke 32 1007 58 4000 4.12 280 07:36 31.05.2022
3403 Haze 30 1007 79 3000 4.12 260 05:24 31.05.2022
3404 Haze 30 1006 74 3000 5.14 260 01:42 31.05.2022
3405 Haze 30 1006 74 4000 4.63 250 23:29 30.05.2022
3406 Haze 30 1006 74 4000 6.17 250 22:57 30.05.2022
3407 Haze 30 1006 74 4000 4.63 260 22:24 30.05.2022
3408 Haze 30 1007 79 4000 4.12 260 21:35 30.05.2022
3409 Haze 30 1007 74 4000 5.66 250 20:22 30.05.2022
3410 Haze 30 1007 74 4000 4.12 280 18:58 30.05.2022
3411 Haze 31 1006 70 4000 5.14 260 17:41 30.05.2022
3412 Haze 31 1006 66 4000 5.14 280 16:45 30.05.2022
3413 Haze 31 1005 70 5000 5.14 270 15:22 30.05.2022
3414 Smoke 32 1005 66 6000 4.12 260 12:37 30.05.2022
3415 Smoke 33 1006 58 6000 4.12 260 10:47 30.05.2022
3416 Smoke 32 1007 66 6000 6.17 290 09:39 30.05.2022
3417 Haze 32 1008 66 5000 6.17 270 07:24 30.05.2022
3418 Haze 31 1008 70 4000 5.14 260 05:50 30.05.2022
3419 Haze 30 1006 74 3000 4.12 250 02:33 30.05.2022
3420 Haze 30 1006 74 3500 5.14 260 23:24 29.05.2022
3421 Haze 30 1006 74 3500 5.66 250 22:39 29.05.2022
3422 Haze 30 1007 74 3500 4.63 250 21:19 29.05.2022
3423 Haze 30 1007 74 4000 5.14 250 19:38 29.05.2022
3424 Haze 30 1007 74 4000 5.14 250 19:18 29.05.2022
3425 Haze 30 1006 74 4000 5.14 250 17:41 29.05.2022
3426 Haze 31 1005 70 5000 4.63 270 15:49 29.05.2022
3427 Haze 31 1005 70 5000 6.17 260 15:28 29.05.2022
3428 Haze 32 1005 66 6000 6.69 260 14:23 29.05.2022
3429 Haze 33 1006 62 6000 5.14 260 11:55 29.05.2022
3430 Haze 33 1006 62 5000 6.17 280 10:42 29.05.2022
3431 Haze 33 1007 62 4500 4.12 260 09:51 29.05.2022
3432 Haze 32 1009 66 3500 4.63 250 06:56 29.05.2022
3433 Haze 31 1008 70 3500 5.14 240 04:49 29.05.2022
3434 Haze 31 1008 70 3500 4.63 230 04:24 29.05.2022
3435 Haze 30 1006 74 3500 4.63 230 23:59 28.05.2022
3436 Haze 30 1006 74 3500 4.63 230 23:39 28.05.2022
3437 Haze 30 1007 74 3500 4.12 230 22:40 28.05.2022
3438 Haze 30 1007 74 3500 4.63 230 21:42 28.05.2022
3439 Haze 30 1007 74 3500 5.66 230 19:52 28.05.2022
3440 Haze 30 1007 74 3500 5.14 230 19:18 28.05.2022
3441 Haze 30 1007 74 4000 5.14 240 17:44 28.05.2022
3442 Haze 31 1006 70 4000 4.12 250 16:53 28.05.2022
3443 Haze 31 1006 70 5000 5.14 250 15:44 28.05.2022
3444 Haze 31 1005 70 6000 5.66 230 14:37 28.05.2022
3445 Haze 32 1005 66 6000 5.66 250 13:21 28.05.2022
3446 Haze 33 1006 62 6000 5.14 270 12:40 28.05.2022
3447 Haze 33 1006 62 6000 6.17 240 11:26 28.05.2022
3448 Haze 32 1007 62 6000 5.14 270 10:25 28.05.2022
3449 Smoke 32 1008 66 6000 5.14 240 09:30 28.05.2022
3450 Haze 32 1008 58 4000 4.63 240 07:47 28.05.2022
3451 Haze 31 1008 70 3500 6.17 240 06:32 28.05.2022
3452 Haze 30 1008 74 3500 6.17 240 04:21 28.05.2022
3453 Haze 30 1006 74 3500 5.14 250 00:50 28.05.2022
3454 Haze 30 1006 74 3500 4.12 250 23:42 27.05.2022
3455 Haze 30 1006 74 3500 3.09 240 22:24 27.05.2022
3456 Haze 30 1007 74 3500 3.6 240 20:58 27.05.2022
3457 Haze 30 1008 74 3500 5.14 250 20:31 27.05.2022
3458 Haze 30 1008 74 3500 4.12 250 19:55 27.05.2022
3459 Haze 30 1008 74 3500 4.12 250 19:33 27.05.2022
3460 Haze 30 1007 74 3500 5.14 260 18:37 27.05.2022
3461 Haze 31 1007 70 4000 5.14 250 16:42 27.05.2022
3462 Haze 31 1006 70 5000 5.66 230 15:44 27.05.2022
3463 Haze 32 1006 66 5000 5.14 270 14:45 27.05.2022
3464 Smoke 32 1006 66 6000 6.17 260 13:35 27.05.2022
3465 Haze 33 1007 62 5000 5.14 270 11:43 27.05.2022
3466 Haze 33 1007 62 5000 4.63 240 11:25 27.05.2022
3467 Haze 33 1008 62 5000 5.14 240 10:35 27.05.2022
3468 Haze 32 1008 66 5000 4.12 240 09:42 27.05.2022
3469 Haze 32 1009 66 5000 5.14 280 08:24 27.05.2022
3470 Haze 32 1010 66 5000 4.63 270 06:50 27.05.2022
3471 Haze 30 1007 74 3500 3.6 240 02:56 27.05.2022
3472 Haze 29 1006 79 3500 2.06 220 00:53 27.05.2022
3473 Haze 30 1007 74 3500 3.6 240 22:50 26.05.2022
3474 Haze 30 1008 74 3500 4.12 240 21:43 26.05.2022
3475 Haze 30 1008 74 3500 6.17 250 20:59 26.05.2022
3476 Haze 30 1009 74 3500 5.14 250 19:29 26.05.2022
3477 Haze 30 1008 74 4000 4.63 250 18:24 26.05.2022
3478 Haze 30 1007 74 5000 4.63 270 16:58 26.05.2022
3479 Haze 31 1006 70 6000 6.17 270 15:49 26.05.2022
3480 Haze 31 1006 70 6000 5.66 270 14:48 26.05.2022
3481 Haze 32 1006 62 6000 6.69 260 13:45 26.05.2022
3482 Haze 32 1007 58 6000 6.69 260 11:38 26.05.2022
3483 Haze 32 1008 66 5000 4.63 260 10:37 26.05.2022
3484 Haze 33 1008 66 5000 5.14 260 09:37 26.05.2022
3485 Haze 33 1009 62 5000 4.12 280 08:38 26.05.2022
3486 Haze 31 1009 70 3500 4.12 290 05:24 26.05.2022
3487 Haze 30 1007 74 3000 3.6 260 01:24 26.05.2022
3488 Haze 30 1007 74 3500 3.09 270 23:41 25.05.2022
3489 Haze 30 1007 74 3500 4.63 260 22:48 25.05.2022
3490 Haze 30 1008 79 3500 4.12 280 21:37 25.05.2022
3491 Haze 30 1009 79 3500 4.63 240 20:39 25.05.2022
3492 Haze 30 1009 79 3500 3.6 270 19:31 25.05.2022
3493 Haze 30 1008 79 3500 3.6 280 18:20 25.05.2022
3494 Haze 31 1007 74 4000 4.12 260 16:41 25.05.2022
3495 Haze 31 1007 74 4000 4.63 260 16:21 25.05.2022
3496 Haze 31 1007 70 5000 6.17 270 15:24 25.05.2022
3497 Haze 31 1007 74 5000 6.17 260 14:37 25.05.2022
3498 Haze 32 1006 70 5000 4.63 260 14:19 25.05.2022
3499 Haze 32 1006 70 5000 5.66 260 12:52 25.05.2022
3500 Clear 31 1007 66 10000 5.63 288 11:31 25.05.2022
3501 Haze 32 1008 62 5000 4.63 270 10:22 25.05.2022
3502 Clear 31 1009 65 10000 5.13 280 08:45 25.05.2022
3503 Clear 30 1010 65 10000 4.52 302 07:23 25.05.2022
3504 Haze 31 1010 74 3500 4.63 260 05:23 25.05.2022
3505 Haze 30 1007 79 3500 4.63 260 00:31 25.05.2022
3506 Haze 30 1007 79 3500 4.63 250 23:47 24.05.2022
3507 Haze 30 1008 79 3500 6.17 250 22:53 24.05.2022
3508 Haze 30 1008 79 3500 3.09 240 21:46 24.05.2022
3509 Haze 30 1008 79 3500 3.09 230 21:22 24.05.2022
3510 Haze 30 1008 79 3500 4.63 230 20:44 24.05.2022
3511 Haze 30 1008 79 3500 3.6 240 18:59 24.05.2022
3512 Haze 31 1008 74 3500 4.63 240 17:50 24.05.2022
3513 Haze 31 1007 74 4000 5.14 230 16:36 24.05.2022
3514 Haze 31 1006 74 4000 5.66 250 15:27 24.05.2022
3515 Haze 32 1006 66 5000 3.6 270 14:37 24.05.2022
3516 Haze 32 1006 70 5000 4.12 260 13:35 24.05.2022
3517 Haze 33 1006 66 5000 5.14 270 12:18 24.05.2022
3518 Haze 33 1007 66 5000 5.14 280 09:50 24.05.2022
3519 Haze 32 1008 70 5000 5.66 260 08:51 24.05.2022
3520 Haze 32 1007 70 5000 3.09 230 07:44 24.05.2022
3521 Haze 31 1007 74 4000 3.6 250 06:34 24.05.2022
3522 Haze 30 1005 79 3000 4.63 260 03:32 24.05.2022
3523 Haze 30 1004 79 3000 4.12 250 01:46 24.05.2022
3524 Haze 30 1003 79 3500 5.14 250 00:21 24.05.2022
3525 Haze 30 1003 79 3500 5.66 240 22:24 23.05.2022
3526 Haze 30 1004 84 3500 4.12 230 21:45 23.05.2022
3527 Haze 30 1004 79 3500 5.14 230 20:46 23.05.2022
3528 Haze 30 1004 79 3500 5.66 230 19:51 23.05.2022
3529 Haze 30 1004 79 3500 5.66 230 19:22 23.05.2022
3530 Haze 30 1004 84 3500 5.14 230 18:40 23.05.2022
3531 Haze 31 1004 79 3500 5.14 240 17:56 23.05.2022
3532 Haze 31 1003 74 3500 3.6 220 16:28 23.05.2022
3533 Haze 32 1002 70 5000 5.14 240 14:18 23.05.2022
3534 Haze 32 1002 66 5000 5.14 210 11:53 23.05.2022
3535 Haze 32 1003 66 5000 6.17 220 10:49 23.05.2022
3536 Haze 33 1004 66 5000 6.17 230 09:48 23.05.2022
3537 Haze 32 1004 70 5000 4.12 230 08:46 23.05.2022
3538 Haze 33 1004 70 5000 5.14 240 08:46 23.05.2022
3539 Haze 32 1004 70 4000 5.66 240 07:31 23.05.2022
3540 Haze 31 1004 74 4000 5.14 240 06:40 23.05.2022
3541 Drizzle 30 1003 84 3500 5.66 230 03:41 23.05.2022
3542 Haze 30 1002 84 3500 5.14 240 01:52 23.05.2022
3543 Haze 30 1002 79 3500 5.66 240 01:32 23.05.2022
3544 Haze 30 1002 79 3500 5.66 240 23:18 22.05.2022
3545 Haze 30 1003 84 3500 4.63 240 22:27 22.05.2022
3546 Haze 30 1004 84 3500 5.14 240 21:52 22.05.2022
3547 Haze 30 1004 84 3500 5.66 220 20:46 22.05.2022
3548 Haze 30 1004 84 3500 3.6 220 20:23 22.05.2022
3549 Haze 30 1005 84 3500 4.12 240 19:39 22.05.2022
3550 Haze 30 1005 79 3500 5.66 230 18:52 22.05.2022
3551 Haze 30 1004 84 3500 4.12 220 18:21 22.05.2022
3552 Haze 30 1004 79 4000 3.6 210 17:26 22.05.2022
3553 Haze 31 1003 74 5000 5.66 230 15:57 22.05.2022
3554 Haze 32 1002 70 5000 6.17 230 14:47 22.05.2022
3555 Haze 32 1002 70 5000 4.63 240 14:47 22.05.2022
3556 Haze 32 1002 70 5000 6.17 240 13:22 22.05.2022
3557 Haze 32 1002 66 5000 5.14 250 12:48 22.05.2022
3558 Haze 33 1003 62 5000 6.17 240 11:29 22.05.2022
3559 Haze 32 1005 66 4000 4.63 230 09:40 22.05.2022
3560 Haze 32 1006 70 4000 4.63 240 07:54 22.05.2022
3561 Haze 32 1006 70 4000 4.12 250 07:20 22.05.2022
3562 Haze 30 1005 79 3000 5.66 260 04:59 22.05.2022
3563 Haze 30 1003 79 3500 4.63 240 01:21 22.05.2022
3564 Haze 30 1003 79 3500 3.09 230 00:26 22.05.2022
3565 Haze 30 1003 79 3500 4.12 230 23:47 21.05.2022
3566 Haze 30 1004 79 3500 5.14 240 22:24 21.05.2022
3567 Haze 30 1005 79 3500 5.14 230 21:41 21.05.2022
3568 Haze 30 1005 79 3500 5.66 240 20:48 21.05.2022
3569 Haze 30 1005 79 3500 5.14 220 20:21 21.05.2022
3570 Haze 30 1006 70 3500 3.6 240 19:25 21.05.2022
3571 Haze 30 1005 79 3500 5.14 240 17:38 21.05.2022
3572 Haze 31 1005 74 4000 5.14 230 15:44 21.05.2022
3573 Haze 32 1005 70 5000 5.14 240 14:37 21.05.2022
3574 Smoke 32 1005 66 5000 3.6 260 13:41 21.05.2022
3575 Smoke 32 1005 66 5000 6.69 260 12:41 21.05.2022
3576 Smoke 32 1005 66 5000 3.6 220 11:56 21.05.2022
3577 Smoke 32 1006 62 5000 4.12 220 10:22 21.05.2022
3578 Smoke 32 1006 62 5000 4.12 240 09:38 21.05.2022
3579 Smoke 32 1007 62 5000 6.17 240 08:52 21.05.2022
3580 Clouds 29 1008 72 10000 4.88 235 06:28 21.05.2022
3581 Haze 29 1006 79 3000 2.57 200 02:26 21.05.2022
3582 Haze 29 1006 79 3000 2.57 230 23:47 20.05.2022
3583 Haze 29 1006 79 3000 3.6 250 22:42 20.05.2022
3584 Haze 29 1006 79 3000 3.6 240 22:23 20.05.2022
3585 Haze 29 1006 79 3000 3.6 240 21:32 20.05.2022
3586 Haze 30 1007 74 3000 3.6 240 20:53 20.05.2022
3587 Haze 30 1007 74 3000 4.63 220 19:57 20.05.2022
3588 Haze 30 1007 74 3000 4.12 250 19:24 20.05.2022
3589 Haze 30 1007 74 3000 4.63 250 18:28 20.05.2022
3590 Haze 30 1006 74 3000 4.12 240 16:51 20.05.2022
3591 Haze 30 1006 74 3000 6.17 230 15:58 20.05.2022
3592 Haze 30 1006 74 3000 6.17 230 15:40 20.05.2022
3593 Haze 31 1005 70 3000 5.14 240 14:29 20.05.2022
3594 Haze 31 1005 70 3000 5.66 230 13:54 20.05.2022
3595 Haze 32 1006 66 3000 6.17 250 11:22 20.05.2022
3596 Haze 31 1007 70 3500 4.63 240 09:51 20.05.2022
3597 Haze 31 1007 62 3500 5.14 260 08:41 20.05.2022
3598 Haze 31 1008 66 3000 4.12 270 06:46 20.05.2022
3599 Haze 31 1008 66 3000 5.14 270 06:21 20.05.2022
3600 Haze 30 1007 74 3000 4.63 260 04:22 20.05.2022
3601 Haze 30 1005 74 3500 5.14 240 00:24 20.05.2022
3602 Haze 30 1005 74 3500 4.63 230 22:44 19.05.2022
3603 Haze 30 1006 79 3500 3.09 240 21:53 19.05.2022
3604 Haze 30 1006 79 3500 4.63 220 21:25 19.05.2022
3605 Haze 30 1006 79 3500 5.14 240 20:59 19.05.2022
3606 Haze 30 1006 79 3500 4.63 240 20:21 19.05.2022
3607 Haze 30 1005 79 3500 4.63 250 19:34 19.05.2022
3608 Haze 30 1005 79 3500 5.14 240 17:59 19.05.2022
3609 Haze 30 1004 79 3500 5.14 240 16:29 19.05.2022
3610 Haze 31 1003 70 3500 5.14 270 14:52 19.05.2022
3611 Haze 31 1003 74 3500 4.63 280 14:21 19.05.2022
3612 Haze 32 1003 70 3500 5.14 280 12:35 19.05.2022
3613 Haze 32 1004 62 3500 5.66 270 11:25 19.05.2022
3614 Haze 32 1006 66 3500 5.66 270 08:59 19.05.2022
3615 Haze 32 1007 66 3500 3.6 230 07:48 19.05.2022
3616 Haze 30 1007 70 3000 2.06 290 04:50 19.05.2022
3617 Haze 29 1005 79 3000 1.54 310 01:58 19.05.2022
3618 Haze 29 1005 74 3000 3.09 280 23:53 18.05.2022
3619 Haze 29 1005 79 3000 3.09 310 22:46 18.05.2022
3620 Haze 29 1005 79 3000 3.09 310 22:46 18.05.2022
3621 Haze 29 1005 79 3000 3.6 270 21:47 18.05.2022
3622 Haze 29 1005 79 3000 2.57 270 21:25 18.05.2022
3623 Haze 29 1006 79 3000 3.6 250 20:24 18.05.2022
3624 Haze 30 1006 74 3000 3.6 260 19:39 18.05.2022
3625 Haze 30 1005 74 3000 3.09 320 18:21 18.05.2022
3626 Haze 30 1005 74 3000 4.12 300 17:41 18.05.2022
3627 Haze 30 1004 74 3000 3.6 300 17:23 18.05.2022
3628 Haze 30 1004 74 3000 4.12 300 16:31 18.05.2022
3629 Haze 31 1003 70 3000 3.6 270 15:40 18.05.2022
3630 Haze 31 1003 66 3000 6.69 280 14:35 18.05.2022
3631 Haze 32 1002 66 3000 5.14 280 13:22 18.05.2022
3632 Smoke 32 1003 62 3000 4.63 280 12:40 18.05.2022
3633 Smoke 32 1004 62 3000 5.66 270 11:34 18.05.2022
3634 Smoke 32 1004 62 3000 4.63 270 10:56 18.05.2022
3635 Smoke 33 1005 55 3000 3.6 300 08:53 18.05.2022
3636 Haze 32 1006 58 3000 3.6 260 07:32 18.05.2022
3637 Haze 30 1006 70 2500 3.09 270 05:34 18.05.2022
3638 Haze 29 1004 79 3000 0 0 00:52 18.05.2022
3639 Haze 29 1004 79 3000 1.54 230 00:21 18.05.2022
3640 Haze 30 1005 74 3000 3.6 270 21:39 17.05.2022
3641 Haze 30 1005 74 3000 3.6 270 21:19 17.05.2022
3642 Haze 30 1005 74 3000 3.6 260 19:52 17.05.2022
3643 Haze 30 1005 74 3000 3.09 230 19:27 17.05.2022
3644 Haze 30 1004 74 3000 3.6 250 17:50 17.05.2022
3645 Haze 30 1003 74 3000 3.6 270 16:58 17.05.2022
3646 Haze 30 1003 79 3000 4.12 280 16:29 17.05.2022
3647 Haze 31 1002 74 4000 6.17 270 15:24 17.05.2022
3648 Haze 31 1002 70 4000 5.66 280 14:30 17.05.2022
3649 Haze 32 1002 66 4000 6.17 260 13:32 17.05.2022
3650 Haze 32 1003 66 4000 6.17 260 11:37 17.05.2022
3651 Smoke 33 1005 58 3500 5.66 280 09:23 17.05.2022
3652 Smoke 34 1005 52 3000 5.14 270 08:25 17.05.2022
3653 Haze 32 1006 58 2500 3.6 250 06:46 17.05.2022
3654 Haze 30 1004 74 3500 2.57 300 03:20 17.05.2022
3655 Haze 30 1003 79 3500 2.57 280 00:36 17.05.2022
3656 Haze 30 1005 79 3500 2.57 240 22:42 16.05.2022
3657 Haze 30 1005 79 3500 4.12 250 21:41 16.05.2022
3658 Haze 30 1005 79 3500 4.12 260 20:47 16.05.2022
3659 Haze 30 1005 79 3500 3.09 290 19:43 16.05.2022
3660 Haze 30 1004 84 3500 4.63 300 18:20 16.05.2022
3661 Haze 30 1002 79 4000 5.14 290 15:50 16.05.2022
3662 Haze 32 1002 70 5000 5.14 280 13:56 16.05.2022
3663 Haze 32 1002 70 5000 4.63 280 13:23 16.05.2022
3664 Smoke 33 1004 58 5000 6.17 260 11:25 16.05.2022
3665 Haze 33 1006 58 4000 5.66 270 09:37 16.05.2022
3666 Haze 32 1007 66 4000 4.63 260 06:56 16.05.2022
3667 Haze 30 1006 74 3500 2.06 240 03:58 16.05.2022
3668 Haze 30 1006 79 3500 3.6 280 23:38 15.05.2022
3669 Haze 30 1006 79 3500 2.57 270 22:30 15.05.2022
3670 Clouds 29 1007 76 10000 3.49 281 21:46 15.05.2022
3671 Haze 30 1007 74 3500 3.6 260 20:57 15.05.2022
3672 Haze 30 1007 79 3500 3.6 270 19:52 15.05.2022
3673 Haze 30 1006 79 3500 4.12 280 17:52 15.05.2022
3674 Haze 31 1005 74 4000 5.14 280 16:29 15.05.2022
3675 Haze 32 1004 66 5000 5.66 270 13:58 15.05.2022
3676 Smoke 32 1004 70 5000 5.66 260 12:57 15.05.2022
3677 Haze 33 1005 62 5000 6.17 270 11:40 15.05.2022
3678 Haze 32 1006 66 4000 6.17 270 10:29 15.05.2022
3679 Haze 33 1007 62 3500 6.17 270 08:46 15.05.2022
3680 Haze 31 1008 70 3000 3.09 280 06:58 15.05.2022
3681 Haze 31 1007 70 3000 3.6 280 05:52 15.05.2022
3682 Haze 30 1004 79 3500 3.6 240 00:49 15.05.2022
3683 Haze 30 1004 74 3500 2.57 220 23:39 14.05.2022
3684 Haze 30 1005 74 3500 3.09 220 22:59 14.05.2022
3685 Haze 30 1005 74 3500 2.57 230 21:29 14.05.2022
3686 Haze 30 1006 74 3500 3.09 210 20:53 14.05.2022
3687 Haze 30 1006 74 3500 4.63 220 19:39 14.05.2022
3688 Haze 30 1006 79 3500 4.63 210 19:19 14.05.2022
3689 Haze 30 1006 74 3500 4.12 230 18:44 14.05.2022
3690 Haze 30 1005 74 3500 4.63 230 16:46 14.05.2022
3691 Haze 31 1004 70 4000 5.14 240 15:33 14.05.2022
3692 Haze 31 1003 70 5000 4.63 240 14:34 14.05.2022
3693 Haze 33 1003 62 5000 5.66 240 12:34 14.05.2022
3694 Haze 33 1004 58 5000 4.63 270 11:35 14.05.2022
3695 Smoke 32 1005 62 5000 4.63 250 10:21 14.05.2022
3696 Smoke 32 1005 66 5000 4.63 230 09:53 14.05.2022
3697 Smoke 32 1006 62 4000 3.6 290 08:49 14.05.2022
3698 Haze 32 1006 66 3500 3.6 220 06:41 14.05.2022
3699 Haze 29 1004 79 3500 2.57 210 02:39 14.05.2022
3700 Haze 29 1003 79 3500 2.57 230 23:44 13.05.2022
3701 Haze 29 1003 79 3500 3.09 240 22:58 13.05.2022
3702 Haze 30 1003 74 3500 4.12 240 22:27 13.05.2022
3703 Haze 30 1003 74 3500 3.6 240 21:52 13.05.2022
3704 Haze 30 1004 79 3500 4.12 250 20:46 13.05.2022
3705 Haze 30 1004 79 3500 3.09 220 20:27 13.05.2022
3706 Haze 30 1004 74 3500 3.6 250 19:28 13.05.2022
3707 Haze 30 1004 74 3500 4.12 270 17:51 13.05.2022
3708 Haze 30 1003 74 3500 4.12 260 17:28 13.05.2022
3709 Haze 30 1003 74 3500 4.12 250 16:20 13.05.2022
3710 Haze 31 1003 74 4000 4.12 260 15:29 13.05.2022
3711 Haze 32 1002 66 5000 3.6 240 13:48 13.05.2022
3712 Haze 32 1003 66 5000 6.17 220 12:32 13.05.2022
3713 Haze 32 1003 66 4000 5.14 220 11:22 13.05.2022
3714 Haze 33 1005 62 4000 5.66 230 09:34 13.05.2022
3715 Haze 33 1006 58 4000 6.17 230 08:44 13.05.2022
3716 Haze 33 1006 62 4000 5.66 230 07:48 13.05.2022
3717 Haze 31 1006 70 3500 5.66 230 06:33 13.05.2022
3718 Haze 31 1006 70 3500 5.66 230 06:33 13.05.2022
3719 Haze 31 1006 70 3500 5.66 230 06:33 13.05.2022
3720 Haze 30 1005 74 3000 3.6 240 03:29 13.05.2022
3721 Haze 29 1003 79 3000 3.09 240 00:24 13.05.2022
3722 Haze 30 1004 79 3000 3.6 260 22:45 12.05.2022
3723 Haze 30 1004 79 3000 5.14 270 21:56 12.05.2022
3724 Haze 30 1004 79 3000 5.14 270 21:56 12.05.2022
3725 Haze 30 1005 79 3000 4.63 270 20:29 12.05.2022
3726 Haze 30 1005 79 3500 5.14 240 18:59 12.05.2022
3727 Haze 30 1004 79 3500 5.14 250 17:24 12.05.2022
3728 Haze 30 1003 79 3500 4.63 250 16:18 12.05.2022
3729 Haze 31 1003 74 4000 6.17 250 14:41 12.05.2022
3730 Haze 31 1003 74 4000 6.17 260 13:46 12.05.2022
3731 Haze 32 1004 62 4000 5.66 240 10:52 12.05.2022
3732 Haze 32 1006 70 3500 4.12 240 09:30 12.05.2022
3733 Haze 32 1006 70 3500 5.66 230 08:51 12.05.2022
3734 Haze 33 1006 66 3000 4.12 220 07:40 12.05.2022
3735 Haze 31 1007 74 3000 4.63 210 06:34 12.05.2022
3736 Haze 30 1004 79 3000 2.57 210 02:58 12.05.2022
3737 Haze 29 1003 84 3000 2.57 230 00:36 12.05.2022
3738 Haze 30 1003 79 3000 4.12 240 22:39 11.05.2022
3739 Haze 30 1004 79 3000 4.12 230 21:52 11.05.2022
3740 Haze 30 1004 79 3000 3.09 230 21:24 11.05.2022
3741 Haze 30 1005 79 3000 4.63 260 18:58 11.05.2022
3742 Haze 30 1004 79 3000 5.14 240 16:55 11.05.2022
3743 Haze 30 1003 79 3500 4.63 240 15:38 11.05.2022
3744 Haze 31 1002 74 4000 5.14 260 14:39 11.05.2022
3745 Haze 31 1002 74 4000 5.66 230 14:19 11.05.2022
3746 Haze 32 1003 70 4000 5.66 280 11:54 11.05.2022
3747 Haze 32 1003 70 4000 5.66 240 11:23 11.05.2022
3748 Haze 32 1005 70 4000 5.14 250 08:46 11.05.2022
3749 Haze 30 1005 79 4000 3.09 270 05:31 11.05.2022
3750 Haze 29 1002 84 3500 1.54 300 01:23 11.05.2022
3751 Haze 30 1002 79 3500 1.54 350 22:32 10.05.2022
3752 Haze 30 1003 79 3500 2.57 290 21:58 10.05.2022
3753 Haze 30 1003 79 3500 2.06 310 20:58 10.05.2022
3754 Haze 30 1003 79 3500 3.6 280 20:19 10.05.2022
3755 Haze 30 1004 79 3500 3.6 280 18:27 10.05.2022
3756 Haze 30 1004 79 3500 3.6 270 17:36 10.05.2022
3757 Haze 30 1003 79 4000 6.17 270 15:42 10.05.2022
3758 Haze 31 1002 74 4000 5.14 280 12:48 10.05.2022
3759 Haze 32 1003 70 4000 6.17 280 11:51 10.05.2022
3760 Haze 32 1003 70 4000 6.17 280 11:21 10.05.2022
3761 Haze 32 1003 70 4000 7.2 280 10:54 10.05.2022
3762 Haze 32 1004 70 4000 6.17 260 09:27 10.05.2022
3763 Haze 32 1005 70 3000 4.63 280 07:32 10.05.2022
3764 Haze 30 1005 79 3000 2.57 320 04:34 10.05.2022
3765 Haze 30 1003 79 3500 2.06 350 01:36 10.05.2022
3766 Haze 30 1003 79 3500 3.09 300 23:37 09.05.2022
3767 Haze 30 1003 84 3500 3.6 290 22:29 09.05.2022
3768 Haze 30 1004 84 3500 4.12 280 21:21 09.05.2022
3769 Haze 30 1004 84 3500 4.12 280 19:52 09.05.2022
3770 Haze 30 1004 84 3500 5.14 280 17:59 09.05.2022
3771 Haze 30 1004 84 3500 4.12 280 16:55 09.05.2022
3772 Haze 30 1003 84 4000 5.66 280 15:54 09.05.2022
3773 Haze 31 1002 79 4000 5.14 290 15:34 09.05.2022
3774 Haze 31 1002 74 5000 5.14 270 14:33 09.05.2022
3775 Haze 31 1002 74 5000 4.12 280 13:51 09.05.2022
3776 Haze 32 1002 70 5000 4.63 270 12:32 09.05.2022
3777 Haze 32 1003 70 5000 4.63 270 11:43 09.05.2022
3778 Haze 32 1003 70 5000 5.66 270 10:45 09.05.2022
3779 Haze 32 1004 70 5000 4.63 280 09:39 09.05.2022
3780 Haze 32 1005 70 4000 4.12 280 07:56 09.05.2022
3781 Haze 30 1005 79 3500 1.54 260 04:33 09.05.2022
3782 Haze 30 1005 79 3500 1.54 260 04:33 09.05.2022
3783 Haze 30 1003 79 3500 2.57 0 00:22 09.05.2022
3784 Haze 30 1003 84 3500 2.57 310 22:58 08.05.2022
3785 Haze 30 1003 84 3500 3.09 300 22:27 08.05.2022
3786 Haze 30 1004 84 3500 3.09 300 20:41 08.05.2022
3787 Haze 30 1005 84 3500 3.09 290 19:53 08.05.2022
3788 Haze 30 1005 84 3500 2.57 300 19:27 08.05.2022
3789 Haze 30 1004 84 3500 3.09 180 18:25 08.05.2022
3790 Haze 30 1004 84 3500 4.12 290 17:21 08.05.2022
3791 Haze 31 1003 74 4000 5.66 300 15:43 08.05.2022
3792 Haze 31 1003 74 4000 4.63 300 15:20 08.05.2022
3793 Smoke 33 1003 66 5000 6.17 300 12:45 08.05.2022
3794 Haze 35 1004 55 4000 6.17 290 10:46 08.05.2022
3795 Haze 34 1005 66 4000 6.17 260 10:21 08.05.2022
3796 Haze 34 1005 66 4000 6.17 290 09:46 08.05.2022
3797 Smoke 33 1007 66 3000 5.66 240 07:41 08.05.2022
3798 Haze 30 1007 74 2500 0 0 04:56 08.05.2022
3799 Haze 29 1005 79 2500 2.06 60 03:20 08.05.2022
3800 Haze 29 1004 79 3000 0 0 00:31 08.05.2022
3801 Haze 29 1005 79 3000 1.54 30 23:54 07.05.2022
3802 Haze 29 1005 84 3000 2.06 20 22:58 07.05.2022
3803 Haze 30 1006 79 3000 2.06 30 22:34 07.05.2022
3804 Haze 30 1006 79 3000 2.06 30 21:44 07.05.2022
3805 Haze 30 1006 79 3000 2.06 350 21:20 07.05.2022
3806 Haze 30 1006 79 3000 2.57 310 19:59 07.05.2022
3807 Haze 30 1006 79 3000 2.06 300 18:38 07.05.2022
3808 Haze 31 1005 74 3000 5.66 300 16:19 07.05.2022
3809 Smoke 32 1005 66 3000 5.66 300 14:46 07.05.2022
3810 Haze 33 1006 66 4000 5.66 290 11:19 07.05.2022
3811 Haze 33 1007 70 3500 5.14 280 09:39 07.05.2022
3812 Haze 32 1008 74 3000 5.66 260 07:54 07.05.2022
3813 Haze 32 1009 70 3000 4.12 280 06:44 07.05.2022
3814 Haze 31 1009 74 3000 3.6 260 05:41 07.05.2022
3815 Haze 29 1008 84 2500 1.54 120 03:54 07.05.2022
3816 Haze 29 1006 84 3500 1.54 0 23:39 06.05.2022
3817 Haze 29 1007 84 3500 1.54 310 22:33 06.05.2022
3818 Haze 29 1007 84 3500 2.57 300 21:47 06.05.2022
3819 Haze 30 1008 79 3500 2.57 320 20:37 06.05.2022
3820 Haze 30 1007 79 3500 2.57 320 19:43 06.05.2022
3821 Haze 30 1007 79 3500 2.57 320 19:19 06.05.2022
3822 Haze 30 1007 79 3500 2.57 310 18:25 06.05.2022
3823 Haze 30 1007 79 3500 4.12 320 17:27 06.05.2022
3824 Haze 30 1006 79 3500 5.14 280 15:49 06.05.2022
3825 Haze 31 1005 74 4000 5.14 320 14:58 06.05.2022
3826 Smoke 32 1005 70 5000 5.14 280 13:31 06.05.2022
3827 Smoke 33 1006 62 4000 5.14 300 12:41 06.05.2022
3828 Smoke 33 1006 62 4000 6.17 290 11:58 06.05.2022
3829 Smoke 33 1007 62 3500 5.14 270 10:36 06.05.2022
3830 Smoke 33 1007 62 3500 6.17 280 09:46 06.05.2022
3831 Haze 34 1008 62 3500 5.14 280 08:52 06.05.2022
3832 Haze 32 1009 66 3000 4.63 260 07:27 06.05.2022
3833 Haze 31 1009 70 3000 3.09 160 06:24 06.05.2022
3834 Haze 29 1008 79 3000 2.06 50 02:54 06.05.2022
3835 Haze 29 1007 79 3000 2.06 40 01:57 06.05.2022
3836 Haze 29 1007 79 3500 2.06 290 22:45 05.05.2022
3837 Haze 29 1007 79 3500 2.06 290 22:45 05.05.2022
3838 Haze 29 1007 79 3500 3.6 290 21:45 05.05.2022
3839 Haze 29 1008 84 3500 2.57 330 20:27 05.05.2022
3840 Haze 30 1007 79 3500 2.57 330 18:36 05.05.2022
3841 Haze 30 1006 79 4000 3.6 310 16:40 05.05.2022
3842 Haze 32 1005 66 5000 6.17 290 14:53 05.05.2022
3843 Haze 33 1006 66 6000 6.17 300 13:25 05.05.2022
3844 Haze 33 1006 66 6000 6.17 280 12:54 05.05.2022
3845 Haze 33 1007 58 5000 5.66 280 10:53 05.05.2022
3846 Haze 32 1008 66 4000 7.2 260 09:40 05.05.2022
3847 Haze 32 1009 66 4000 4.12 260 07:45 05.05.2022
3848 Haze 30 1010 74 3000 1.54 30 05:42 05.05.2022
3849 Haze 29 1008 79 3000 2.06 320 02:18 05.05.2022
3850 Haze 29 1008 79 4000 2.06 300 01:35 05.05.2022
3851 Haze 29 1008 74 4000 2.06 300 23:55 04.05.2022
3852 Haze 30 1008 74 4000 1.54 300 22:50 04.05.2022
3853 Haze 30 1008 74 4000 2.06 280 21:59 04.05.2022
3854 Haze 30 1009 74 4000 3.09 260 21:29 04.05.2022
3855 Haze 30 1009 74 4000 2.57 240 20:42 04.05.2022
3856 Haze 30 1009 79 4000 3.09 270 19:56 04.05.2022
3857 Haze 30 1009 79 4000 3.09 260 19:31 04.05.2022
3858 Haze 30 1008 79 4000 3.6 260 18:22 04.05.2022
3859 Haze 30 1008 79 4000 4.12 290 17:59 04.05.2022
3860 Haze 31 1007 70 4000 5.14 300 15:57 04.05.2022
3861 Haze 31 1007 70 5000 4.63 280 15:30 04.05.2022
3862 Haze 32 1006 66 5000 6.69 270 14:22 04.05.2022
3863 Haze 32 1006 62 5000 6.17 290 13:50 04.05.2022
3864 Haze 33 1007 58 5000 6.69 270 12:34 04.05.2022
3865 Haze 33 1008 62 5000 6.69 270 10:57 04.05.2022
3866 Smoke 33 1009 58 4000 5.14 270 09:46 04.05.2022
3867 Haze 33 1010 58 4000 6.17 240 08:49 04.05.2022
3868 Haze 32 1010 62 3500 4.12 270 07:33 04.05.2022
3869 Haze 29 1008 79 3500 2.06 40 03:50 04.05.2022
3870 Haze 29 1007 79 3500 2.06 290 01:41 04.05.2022
3871 Haze 30 1007 79 3500 3.09 280 22:54 03.05.2022
3872 Haze 30 1007 79 3500 2.06 310 21:47 03.05.2022
3873 Haze 30 1007 79 3500 2.06 310 21:21 03.05.2022
3874 Haze 30 1007 79 3500 2.06 310 21:21 03.05.2022
3875 Haze 30 1008 79 3500 2.57 320 20:38 03.05.2022
3876 Haze 30 1007 79 4000 3.6 270 18:55 03.05.2022
3877 Haze 30 1007 79 4000 3.6 270 18:37 03.05.2022
3878 Haze 30 1007 79 4000 3.6 270 17:20 03.05.2022
3879 Haze 30 1007 79 4000 3.6 270 17:20 03.05.2022
3880 Haze 31 1006 74 4000 5.14 300 15:48 03.05.2022
3881 Haze 32 1006 70 5000 5.14 280 14:22 03.05.2022
3882 Smoke 33 1006 66 6000 5.14 270 12:31 03.05.2022
3883 Smoke 33 1006 62 6000 6.17 260 11:24 03.05.2022
3884 Haze 33 1007 62 5000 5.14 270 10:25 03.05.2022
3885 Haze 34 1008 59 4000 5.14 260 08:18 03.05.2022
3886 Haze 31 1009 74 4000 3.6 250 06:45 03.05.2022
3887 Haze 29 1006 84 3500 1.54 210 01:56 03.05.2022
3888 Haze 29 1006 84 3500 3.09 220 22:56 02.05.2022
3889 Haze 29 1006 84 3500 1.54 230 22:28 02.05.2022
3890 Haze 29 1006 84 3500 2.57 210 21:27 02.05.2022
3891 Haze 30 1007 79 3500 3.09 230 19:22 02.05.2022
3892 Haze 30 1006 79 3500 3.6 240 18:25 02.05.2022
3893 Haze 30 1006 79 3500 3.6 270 17:38 02.05.2022
3894 Haze 30 1005 79 3500 4.63 260 16:42 02.05.2022
3895 Haze 30 1005 79 4000 5.66 250 15:41 02.05.2022
3896 Haze 32 1005 70 5000 5.14 280 14:27 02.05.2022
3897 Haze 32 1005 70 5000 5.66 260 13:42 02.05.2022
3898 Haze 32 1005 66 5000 5.14 220 11:41 02.05.2022
3899 Haze 33 1007 66 5000 6.17 260 09:42 02.05.2022
3900 Haze 33 1007 66 4500 4.12 220 08:20 02.05.2022
3901 Haze 32 1008 70 3500 3.09 220 06:53 02.05.2022
3902 Haze 29 1005 84 3000 1.54 230 00:46 02.05.2022
3903 Haze 29 1005 84 3000 2.57 210 00:21 02.05.2022
3904 Haze 30 1005 79 3000 2.06 220 22:54 01.05.2022
3905 Haze 30 1006 79 3000 2.57 210 21:42 01.05.2022
3906 Haze 30 1006 79 3000 3.09 210 20:36 01.05.2022
3907 Haze 30 1007 79 3500 4.12 230 19:22 01.05.2022
3908 Haze 30 1006 84 4000 4.12 240 18:52 01.05.2022
3909 Haze 30 1006 79 4000 4.63 260 17:49 01.05.2022
3910 Haze 30 1005 84 4000 4.63 260 16:37 01.05.2022
3911 Haze 31 1005 79 4000 6.17 250 15:57 01.05.2022
3912 Haze 31 1004 79 5000 6.17 250 14:45 01.05.2022
3913 Clouds 32 1005 70 6000 5.66 250 12:40 01.05.2022
3914 Clouds 32 1006 66 6000 6.69 240 10:36 01.05.2022
3915 Haze 33 1007 66 4000 5.14 250 08:50 01.05.2022
3916 Haze 32 1008 66 3000 3.09 180 06:50 01.05.2022
3917 Clear 28 1007 76 10000 1.84 191 02:31 01.05.2022
3918 Haze 29 1005 84 3500 0 0 22:51 30.04.2022
3919 Haze 29 1006 84 3500 2.06 200 21:33 30.04.2022
3920 Haze 29 1006 84 3500 2.06 200 21:33 30.04.2022
3921 Haze 29 1006 84 3500 2.06 200 21:33 30.04.2022
3922 Haze 29 1007 84 3500 3.09 230 20:19 30.04.2022
3923 Haze 30 1007 79 3500 3.6 220 19:31 30.04.2022
3924 Haze 30 1006 79 3500 4.12 230 17:32 30.04.2022
3925 Haze 31 1006 74 4000 4.63 240 15:53 30.04.2022
3926 Haze 31 1005 74 5000 5.66 240 15:19 30.04.2022
3927 Haze 32 1005 62 5000 6.17 250 14:19 30.04.2022
3928 Smoke 33 1006 52 5000 6.17 240 11:59 30.04.2022
3929 Smoke 34 1007 52 5000 5.14 230 11:31 30.04.2022
3930 Smoke 34 1007 59 5000 5.14 220 10:25 30.04.2022
3931 Haze 34 1009 59 4000 5.14 230 08:25 30.04.2022
3932 Haze 30 1008 70 3000 2.06 200 04:58 30.04.2022
3933 Haze 29 1006 89 3000 1.54 40 00:25 30.04.2022
3934 Haze 30 1006 84 3000 2.57 340 22:58 29.04.2022
3935 Haze 30 1006 84 3500 2.57 340 22:21 29.04.2022
3936 Haze 30 1007 84 3500 2.06 310 21:26 29.04.2022
3937 Haze 30 1007 79 3500 0 0 20:24 29.04.2022
3938 Haze 30 1007 79 3500 0 0 19:28 29.04.2022
3939 Haze 31 1007 74 3500 0 0 17:37 29.04.2022
3940 Haze 31 1007 74 3500 2.06 320 16:43 29.04.2022
3941 Smoke 32 1006 62 4000 4.63 300 14:38 29.04.2022
3942 Haze 33 1006 55 5000 5.14 300 13:51 29.04.2022
3943 Haze 33 1006 70 5000 6.69 270 12:38 29.04.2022
3944 Haze 33 1008 70 5000 5.66 270 10:44 29.04.2022
3945 Haze 34 1010 66 3500 4.63 250 07:58 29.04.2022
3946 Haze 33 1011 66 3500 4.63 220 07:26 29.04.2022
3947 Haze 32 1011 74 3000 4.12 220 06:33 29.04.2022
3948 Haze 30 1009 84 3000 4.12 160 02:50 29.04.2022
3949 Haze 30 1009 89 3500 3.09 160 00:18 29.04.2022
3950 Haze 30 1009 84 3500 4.12 190 23:26 28.04.2022
3951 Haze 30 1009 84 3500 4.12 160 22:37 28.04.2022
3952 Haze 30 1009 84 3500 3.09 160 21:44 28.04.2022
3953 Haze 30 1009 84 4000 1.54 190 20:49 28.04.2022
3954 Haze 30 1009 84 4000 3.09 180 19:57 28.04.2022
3955 Haze 30 1009 84 4000 3.09 180 19:38 28.04.2022
3956 Haze 30 1009 84 4000 1.54 190 19:19 28.04.2022
3957 Haze 31 1008 74 4000 4.12 200 17:56 28.04.2022
3958 Haze 31 1007 74 4000 3.6 220 16:58 28.04.2022
3959 Haze 31 1007 74 4000 3.6 230 16:21 28.04.2022
3960 Haze 31 1006 70 4000 4.12 250 15:52 28.04.2022
3961 Haze 32 1006 62 4000 5.14 260 15:21 28.04.2022
3962 Haze 33 1005 66 5000 4.63 230 13:43 28.04.2022
3963 Smoke 33 1005 62 5000 5.14 210 12:32 28.04.2022
3964 Smoke 33 1006 62 5000 5.14 210 11:50 28.04.2022
3965 Smoke 35 1007 55 4000 5.14 230 10:29 28.04.2022
3966 Smoke 35 1007 59 4000 5.66 270 09:50 28.04.2022
3967 Smoke 38 1008 27 4000 3.6 240 07:44 28.04.2022
3968 Smoke 35 1008 34 3500 3.09 240 06:54 28.04.2022
3969 Smoke 34 1008 43 3000 2.57 110 05:54 28.04.2022
3970 Smoke 31 1007 58 3000 3.09 40 04:43 28.04.2022
3971 Smoke 30 1006 66 3000 1.54 210 03:28 28.04.2022
3972 Haze 31 1005 66 3500 3.09 330 23:43 27.04.2022
3973 Haze 31 1006 70 3500 2.06 310 22:25 27.04.2022
3974 Haze 31 1006 70 3500 2.06 290 21:47 27.04.2022
3975 Smoke 32 1006 58 3500 2.57 300 20:51 27.04.2022
3976 Smoke 33 1006 38 3500 3.09 320 20:32 27.04.2022
3977 Smoke 34 1006 31 3500 2.57 280 19:36 27.04.2022
3978 Smoke 34 1006 29 3500 3.09 320 18:45 27.04.2022
3979 Smoke 34 1005 31 3500 3.09 320 18:21 27.04.2022
3980 Smoke 34 1004 38 4000 2.57 340 16:21 27.04.2022
3981 Smoke 36 1003 34 6000 5.66 300 13:51 27.04.2022
3982 Smoke 37 1004 47 5000 6.17 310 11:39 27.04.2022
3983 Smoke 37 1004 47 5000 5.66 310 11:18 27.04.2022
3984 Smoke 36 1007 56 5000 5.14 290 08:53 27.04.2022
3985 Smoke 34 1008 38 4000 3.09 10 06:45 27.04.2022
3986 Haze 29 1007 65 4000 0 0 03:30 27.04.2022
3987 Haze 29 1006 70 4000 1.54 300 01:27 27.04.2022
3988 Haze 29 1006 74 4000 2.06 10 00:35 27.04.2022
3989 Haze 30 1006 74 4000 2.57 20 23:25 26.04.2022
3990 Haze 30 1007 70 4000 1.54 300 22:52 26.04.2022
3991 Haze 30 1007 74 4000 2.57 330 22:34 26.04.2022
3992 Haze 30 1007 74 4000 3.09 320 21:26 26.04.2022
3993 Haze 30 1008 74 4000 3.6 290 20:40 26.04.2022
3994 Haze 30 1008 74 4000 3.6 290 20:40 26.04.2022
3995 Haze 30 1008 74 4000 2.57 310 19:48 26.04.2022
3996 Haze 31 1008 70 4000 2.57 310 19:26 26.04.2022
3997 Haze 31 1008 66 4000 1.54 300 18:42 26.04.2022
3998 Haze 31 1007 66 4000 2.57 310 17:50 26.04.2022
3999 Haze 31 1006 70 4500 3.6 300 16:26 26.04.2022
4000 Smoke 32 1005 66 6000 5.66 270 13:58 26.04.2022
4001 Smoke 32 1006 66 6000 6.17 270 13:29 26.04.2022
4002 Smoke 33 1007 55 4000 5.66 270 11:32 26.04.2022
4003 Smoke 34 1008 46 4000 5.14 240 10:31 26.04.2022
4004 Smoke 34 1009 55 4000 5.14 210 08:47 26.04.2022
4005 Smoke 32 1010 55 3000 3.6 210 06:57 26.04.2022
4006 Haze 30 1009 70 3000 3.09 190 04:23 26.04.2022
4007 Haze 29 1006 65 4000 0 0 00:57 26.04.2022
4008 Haze 29 1006 65 4000 0 0 00:20 26.04.2022
4009 Smoke 31 1007 58 4000 2.06 310 22:19 25.04.2022
4010 Haze 30 1008 62 4000 3.09 260 21:33 25.04.2022
4011 Haze 31 1008 58 4000 1.54 310 20:34 25.04.2022
4012 Smoke 31 1008 62 4000 2.06 290 18:54 25.04.2022
4013 Smoke 32 1007 58 4000 2.57 300 17:43 25.04.2022
4014 Smoke 34 1006 40 4000 2.57 290 16:51 25.04.2022
4015 Smoke 35 1004 36 4000 6.17 310 15:23 25.04.2022
4016 Smoke 36 1004 26 4000 5.14 310 14:34 25.04.2022
4017 Smoke 37 1004 28 4000 5.66 310 13:30 25.04.2022
4018 Smoke 37 1005 34 4000 6.69 280 11:37 25.04.2022
4019 Smoke 38 1006 32 4000 6.69 290 10:20 25.04.2022
4020 Smoke 38 1008 20 4000 5.14 280 08:33 25.04.2022
4021 Smoke 34 1009 38 3000 2.06 300 06:27 25.04.2022
4022 Haze 29 1007 70 3000 1.03 0 03:44 25.04.2022
4023 Haze 29 1006 65 3500 2.06 100 00:33 25.04.2022
4024 Haze 29 1006 65 3500 0 0 23:51 24.04.2022
4025 Haze 29 1006 79 3500 3.09 20 22:41 24.04.2022
4026 Haze 30 1007 74 3500 2.57 340 22:18 24.04.2022
4027 Haze 30 1007 70 3500 0 0 21:24 24.04.2022
4028 Haze 30 1008 70 3500 2.06 110 20:48 24.04.2022
4029 Haze 31 1008 66 3500 1.54 330 20:22 24.04.2022
4030 Haze 31 1008 70 3500 0 0 19:19 24.04.2022
4031 Haze 30 1008 79 3500 2.06 350 18:20 24.04.2022
4032 Haze 31 1007 70 3500 2.57 330 17:27 24.04.2022
4033 Haze 30 1007 79 3500 3.6 320 16:58 24.04.2022
4034 Haze 30 1007 79 3500 3.6 310 16:30 24.04.2022
4035 Haze 30 1007 79 3500 3.6 310 16:30 24.04.2022
4036 Haze 31 1006 74 4000 3.6 290 15:53 24.04.2022
4037 Haze 31 1006 74 4000 5.66 270 14:57 24.04.2022
4038 Haze 31 1006 74 4000 5.14 290 13:45 24.04.2022
4039 Haze 31 1006 74 4000 6.17 250 13:23 24.04.2022
4040 Haze 32 1008 70 4000 6.69 240 11:55 24.04.2022
4041 Haze 32 1008 74 4000 6.69 230 11:22 24.04.2022
4042 Smoke 34 1010 59 4000 6.69 230 09:51 24.04.2022
4043 Haze 33 1011 58 3500 4.12 210 08:31 24.04.2022
4044 Haze 32 1011 70 3500 3.09 220 06:18 24.04.2022
4045 Haze 30 1009 79 3000 3.09 130 03:37 24.04.2022
4046 Haze 30 1008 79 3500 2.06 120 01:18 24.04.2022
4047 Haze 30 1008 84 3500 3.09 260 23:55 23.04.2022
4048 Haze 30 1008 84 3500 3.6 250 23:25 23.04.2022
4049 Haze 30 1008 84 3500 3.6 260 22:42 23.04.2022
4050 Haze 30 1008 84 3500 3.09 250 21:49 23.04.2022
4051 Haze 30 1008 84 3500 2.57 220 21:31 23.04.2022
4052 Haze 31 1009 74 3500 2.57 220 20:27 23.04.2022
4053 Haze 31 1009 70 3500 3.09 240 19:21 23.04.2022
4054 Haze 31 1009 66 3500 3.6 250 18:55 23.04.2022
4055 Haze 31 1009 70 3500 2.57 230 18:32 23.04.2022
4056 Haze 31 1008 70 3000 2.57 200 17:48 23.04.2022
4057 Haze 31 1008 70 3000 2.06 260 16:47 23.04.2022
4058 Haze 31 1007 79 3500 4.12 260 15:54 23.04.2022
4059 Haze 32 1006 70 4000 6.17 250 13:33 23.04.2022
4060 Smoke 34 1007 62 4000 4.63 260 11:59 23.04.2022
4061 Haze 34 1008 66 3000 6.17 270 10:40 23.04.2022
4062 Smoke 37 1009 47 3000 4.63 260 08:30 23.04.2022
4063 Haze 33 1009 62 2500 2.06 60 05:45 23.04.2022
4064 Haze 31 1008 79 3000 2.06 100 03:54 23.04.2022
4065 Haze 30 1007 84 3000 2.57 310 00:18 23.04.2022
4066 Haze 31 1007 66 3000 2.06 330 23:25 22.04.2022
4067 Haze 31 1008 62 3000 1.54 200 21:59 22.04.2022
4068 Haze 31 1008 62 3000 1.54 200 21:40 22.04.2022
4069 Haze 31 1009 70 3000 2.06 160 20:44 22.04.2022
4070 Haze 31 1009 70 3000 2.06 160 20:25 22.04.2022
4071 Haze 32 1009 62 3500 4.12 200 19:18 22.04.2022
4072 Smoke 34 1008 43 3500 5.14 170 18:34 22.04.2022
4073 Smoke 34 1007 46 3500 2.06 120 17:34 22.04.2022
4074 Smoke 35 1005 34 3500 4.63 310 16:30 22.04.2022
4075 Smoke 36 1005 30 4000 5.14 330 15:32 22.04.2022
4076 Smoke 36 1004 38 4000 5.66 310 14:41 22.04.2022
4077 Smoke 36 1004 38 4000 6.17 320 13:42 22.04.2022
4078 Smoke 37 1005 41 4000 5.14 290 12:55 22.04.2022
4079 Smoke 37 1005 41 4000 5.14 290 12:55 22.04.2022
4080 Smoke 36 1005 38 4000 5.66 290 11:41 22.04.2022
4081 Smoke 36 1006 46 3500 6.17 270 11:18 22.04.2022
4082 Smoke 36 1006 46 3500 6.17 270 10:47 22.04.2022
4083 Smoke 36 1006 41 3500 7.2 260 10:25 22.04.2022
4084 Smoke 36 1007 41 3000 5.66 280 09:42 22.04.2022
4085 Smoke 37 1008 41 3000 3.6 270 08:49 22.04.2022
4086 Smoke 34 1009 52 3000 2.57 110 06:54 22.04.2022
4087 Haze 30 1006 66 3000 2.57 340 01:41 22.04.2022
4088 Haze 30 1006 79 2500 3.6 340 23:39 21.04.2022
4089 Haze 30 1006 79 3000 4.12 340 22:52 21.04.2022
4090 Haze 30 1007 79 3000 3.09 330 21:49 21.04.2022
4091 Haze 31 1007 66 3000 2.06 310 20:34 21.04.2022
4092 Haze 31 1007 66 3000 2.57 340 19:36 21.04.2022
4093 Haze 31 1006 66 3000 2.06 320 18:32 21.04.2022
4094 Haze 32 1006 62 3000 2.06 310 17:47 21.04.2022
4095 Smoke 33 1005 52 3500 2.57 310 16:24 21.04.2022
4096 Smoke 33 1004 52 3500 4.12 320 15:19 21.04.2022
4097 Smoke 35 1003 43 3500 6.69 310 14:31 21.04.2022
4098 Smoke 38 1003 30 3500 5.14 310 13:22 21.04.2022
4099 Smoke 37 1003 36 3000 6.17 280 12:29 21.04.2022
4100 Smoke 38 1005 27 3500 4.12 300 10:19 21.04.2022
4101 Smoke 38 1007 19 3500 4.12 20 08:53 21.04.2022
4102 Smoke 35 1008 24 3500 2.06 40 06:55 21.04.2022
4103 Smoke 32 1007 40 3500 2.57 260 04:34 21.04.2022
4104 Smoke 31 1006 40 3500 1.54 300 03:24 21.04.2022
4105 Smoke 31 1006 37 3500 1.54 10 02:46 21.04.2022
4106 Smoke 31 1005 40 3500 0 0 00:43 21.04.2022
4107 Smoke 31 1006 37 3500 0 0 23:48 20.04.2022
4108 Smoke 32 1006 31 3500 0 0 23:21 20.04.2022
4109 Smoke 32 1006 29 3500 0 0 22:45 20.04.2022
4110 Smoke 32 1006 29 3500 2.06 350 22:18 20.04.2022
4111 Smoke 32 1007 43 3500 0 0 21:23 20.04.2022
4112 Haze 32 1008 55 3500 2.06 360 20:22 20.04.2022
4113 Haze 32 1008 55 3500 3.09 20 19:51 20.04.2022
4114 Haze 32 1008 58 3500 3.09 330 18:52 20.04.2022
4115 Haze 32 1007 62 3500 3.09 340 17:53 20.04.2022
4116 Haze 33 1006 55 3500 5.14 330 16:40 20.04.2022
4117 Haze 33 1006 58 4000 4.12 330 15:50 20.04.2022
4118 Haze 33 1006 66 5000 6.17 290 13:41 20.04.2022
4119 Haze 33 1007 70 4000 5.14 280 11:43 20.04.2022
4120 Haze 33 1007 66 4000 5.66 290 10:53 20.04.2022
4121 Haze 33 1009 66 4000 4.63 290 09:46 20.04.2022
4122 Haze 32 1010 70 3500 5.66 240 08:59 20.04.2022
4123 Haze 31 1010 74 3500 6.17 260 08:20 20.04.2022
4124 Smoke 32 1010 62 3500 3.09 260 06:49 20.04.2022
4125 Haze 28 1009 83 3000 2.57 80 03:34 20.04.2022
4126 Haze 28 1009 83 3000 0 0 00:22 20.04.2022
4127 Haze 28 1009 83 3000 0 0 23:35 19.04.2022
4128 Haze 28 1010 83 3500 2.06 340 22:24 19.04.2022
4129 Haze 29 1010 79 3500 3.6 350 21:55 19.04.2022
4130 Haze 29 1010 79 3500 2.57 330 21:19 19.04.2022
4131 Haze 29 1010 79 3500 2.06 350 20:41 19.04.2022
4132 Haze 29 1011 74 3500 2.57 350 19:52 19.04.2022
4133 Haze 29 1011 74 3500 2.57 320 18:47 19.04.2022
4134 Haze 30 1010 70 3500 1.54 320 17:32 19.04.2022
4135 Haze 29 1010 74 3500 3.09 310 16:43 19.04.2022
4136 Haze 29 1010 74 4000 4.12 300 16:22 19.04.2022
4137 Haze 30 1009 70 5000 5.14 310 14:48 19.04.2022
4138 Haze 31 1009 66 5000 4.63 290 13:49 19.04.2022
4139 Haze 32 1010 62 5000 5.14 290 12:50 19.04.2022
4140 Smoke 31 1010 58 6000 5.14 260 11:55 19.04.2022
4141 Smoke 32 1012 58 5000 5.66 260 10:25 19.04.2022
4142 Smoke 32 1012 58 5000 5.66 280 09:18 19.04.2022
4143 Haze 28 1012 83 3000 1.03 0 04:56 19.04.2022
4144 Haze 28 1011 83 3000 3.09 50 03:25 19.04.2022
4145 Haze 28 1009 83 3500 2.57 350 00:55 19.04.2022
4146 Haze 28 1009 83 3500 2.57 20 23:30 18.04.2022
4147 Haze 29 1010 74 3500 2.06 30 21:30 18.04.2022
4148 Haze 29 1010 74 3500 2.06 30 21:30 18.04.2022
4149 Haze 29 1010 74 3500 2.57 40 20:55 18.04.2022
4150 Haze 29 1010 74 3500 2.57 360 20:32 18.04.2022
4151 Haze 29 1010 74 3500 2.06 340 19:49 18.04.2022
4152 Haze 29 1010 74 4000 2.06 300 18:56 18.04.2022
4153 Haze 29 1009 74 4000 3.09 310 17:57 18.04.2022
4154 Haze 29 1009 74 4000 3.09 320 17:33 18.04.2022
4155 Haze 30 1009 70 4000 3.6 300 16:55 18.04.2022
4156 Haze 30 1009 66 4000 3.6 310 16:31 18.04.2022
4157 Haze 31 1008 62 5000 5.66 290 14:51 18.04.2022
4158 Smoke 31 1007 62 5000 6.17 260 13:36 18.04.2022
4159 Smoke 32 1008 48 5000 5.14 250 12:30 18.04.2022
4160 Smoke 32 1008 55 5000 6.69 260 11:34 18.04.2022
4161 Haze 32 1009 58 5000 4.63 270 10:31 18.04.2022
4162 Haze 31 1011 62 5000 4.63 240 09:31 18.04.2022
4163 Haze 31 1011 62 4000 3.6 290 07:54 18.04.2022
4164 Haze 29 1011 70 3500 2.57 220 05:41 18.04.2022
4165 Haze 27 1008 83 3500 0 0 00:47 18.04.2022
4166 Haze 28 1008 78 3500 0 0 22:41 17.04.2022
4167 Haze 28 1009 78 3500 2.06 240 21:46 17.04.2022
4168 Haze 29 1009 74 3500 3.09 220 21:24 17.04.2022
4169 Haze 29 1009 74 3500 1.54 230 20:41 17.04.2022
4170 Haze 29 1009 74 3500 2.06 310 19:38 17.04.2022
4171 Haze 29 1008 70 4000 3.6 290 17:48 17.04.2022
4172 Haze 29 1007 70 5000 4.63 300 16:27 17.04.2022
4173 Haze 30 1006 66 5000 6.17 280 15:26 17.04.2022
4174 Clear 31 1005 58 8000 6.17 280 14:19 17.04.2022
4175 Clear 32 1005 55 6000 6.17 260 12:59 17.04.2022
4176 Smoke 33 1006 49 6000 6.17 280 12:27 17.04.2022
4177 Smoke 33 1006 49 6000 6.17 280 12:27 17.04.2022
4178 Smoke 32 1007 58 5000 5.66 260 10:46 17.04.2022
4179 Haze 32 1007 62 5000 5.66 260 10:28 17.04.2022
4180 Haze 32 1008 62 4000 5.14 240 09:37 17.04.2022
4181 Haze 32 1008 62 4000 4.63 220 08:53 17.04.2022
4182 Haze 32 1009 58 4000 4.12 220 07:37 17.04.2022
4183 Haze 27 1008 89 2500 2.57 110 04:30 17.04.2022
4184 Haze 28 1006 78 3500 1.03 0 01:37 17.04.2022
4185 Haze 27 1006 83 3500 1.54 200 23:54 16.04.2022
4186 Haze 28 1006 78 3500 2.06 200 22:39 16.04.2022
4187 Haze 28 1007 83 3500 2.06 210 21:40 16.04.2022
4188 Haze 28 1007 83 3500 2.57 230 20:35 16.04.2022
4189 Haze 28 1007 83 3500 1.54 290 19:18 16.04.2022
4190 Haze 28 1006 83 3500 2.57 300 18:28 16.04.2022
4191 Haze 29 1005 79 4000 3.6 290 16:40 16.04.2022
4192 Haze 30 1004 70 5000 5.14 290 15:46 16.04.2022
4193 Haze 30 1004 70 5000 5.14 270 14:57 16.04.2022
4194 Smoke 31 1004 62 5000 6.17 260 13:58 16.04.2022
4195 Smoke 31 1004 62 5000 5.66 270 13:37 16.04.2022
4196 Smoke 31 1004 62 5000 5.66 270 13:37 16.04.2022
4197 Smoke 32 1005 55 5000 5.66 270 12:27 16.04.2022
4198 Smoke 32 1005 51 5000 6.69 270 11:18 16.04.2022
4199 Smoke 32 1007 51 4000 4.63 260 09:57 16.04.2022
4200 Smoke 32 1007 62 3000 4.63 250 08:59 16.04.2022
4201 Smoke 32 1008 62 3000 4.63 240 08:18 16.04.2022
4202 Smoke 31 1008 58 3000 3.09 240 06:59 16.04.2022
4203 Haze 27 1007 89 3000 2.06 130 03:36 16.04.2022
4204 Haze 27 1006 83 3000 0 0 00:31 16.04.2022
4205 Haze 28 1006 78 3000 1.54 220 23:27 15.04.2022
4206 Haze 28 1006 78 3000 2.06 240 22:37 15.04.2022
4207 Haze 28 1007 78 3000 2.06 250 21:58 15.04.2022
4208 Haze 28 1007 78 3000 2.06 210 21:18 15.04.2022
4209 Haze 29 1008 74 3500 2.06 210 20:27 15.04.2022
4210 Haze 29 1008 74 3500 1.54 300 19:40 15.04.2022
4211 Haze 29 1008 74 3500 2.06 280 18:54 15.04.2022
4212 Haze 29 1007 74 3500 2.06 310 18:25 15.04.2022
4213 Haze 29 1007 74 3500 3.09 300 17:48 15.04.2022
4214 Haze 29 1007 74 3500 3.6 290 17:21 15.04.2022
4215 Haze 30 1006 70 3500 2.57 300 16:23 15.04.2022
4216 Haze 31 1005 66 4000 3.6 320 15:24 15.04.2022
4217 Haze 31 1005 66 5000 6.17 280 13:42 15.04.2022
4218 Haze 31 1005 70 5000 6.69 280 12:43 15.04.2022
4219 Haze 32 1006 66 4000 6.17 260 11:59 15.04.2022
4220 Haze 32 1006 66 4000 5.14 270 11:40 15.04.2022
4221 Haze 33 1007 58 4000 5.66 240 10:45 15.04.2022
4222 Haze 33 1008 62 4000 4.63 270 09:50 15.04.2022
4223 Haze 33 1008 62 4000 4.12 250 09:21 15.04.2022
4224 Haze 32 1009 66 3500 4.12 280 07:53 15.04.2022
4225 Haze 31 1009 70 3500 3.09 240 06:46 15.04.2022
4226 Haze 29 1007 79 3000 3.09 260 03:47 15.04.2022
4227 Haze 29 1007 79 3000 3.09 200 23:32 14.04.2022
4228 Haze 29 1007 79 3000 2.06 210 22:50 14.04.2022
4229 Haze 29 1007 79 3000 2.57 220 22:32 14.04.2022
4230 Haze 29 1008 84 3000 2.06 190 21:59 14.04.2022
4231 Haze 29 1008 84 3000 2.06 240 21:32 14.04.2022
4232 Haze 29 1007 84 3500 3.09 220 19:24 14.04.2022
4233 Haze 29 1007 84 3500 3.09 230 18:31 14.04.2022
4234 Haze 29 1006 84 3500 3.09 230 17:44 14.04.2022
4235 Haze 30 1006 79 3500 3.6 240 16:49 14.04.2022
4236 Haze 30 1005 79 3500 3.6 260 15:48 14.04.2022
4237 Haze 32 1004 66 5000 5.14 270 13:49 14.04.2022
4238 Haze 32 1005 70 5000 5.14 270 13:18 14.04.2022
4239 Haze 32 1005 70 5000 5.66 270 12:32 14.04.2022
4240 Haze 32 1005 62 5000 4.12 220 11:36 14.04.2022
4241 Haze 32 1006 66 5000 4.12 260 10:57 14.04.2022
4242 Haze 32 1007 70 5000 5.66 240 10:29 14.04.2022
4243 Haze 32 1007 70 5000 5.14 260 09:26 14.04.2022
4244 Haze 32 1008 70 4000 3.09 230 07:52 14.04.2022
4245 Haze 30 1008 74 5000 1.54 240 05:23 14.04.2022
4246 Haze 29 1005 74 3000 2.06 270 23:50 13.04.2022
4247 Haze 30 1005 70 3000 2.06 290 22:29 13.04.2022
4248 Haze 30 1005 70 3000 2.06 300 21:42 13.04.2022
4249 Haze 30 1006 70 3000 2.57 310 20:35 13.04.2022
4250 Haze 31 1006 66 3000 2.06 310 19:46 13.04.2022
4251 Haze 31 1005 58 3000 1.54 290 18:36 13.04.2022
4252 Smoke 31 1005 58 3000 2.06 300 17:24 13.04.2022
4253 Smoke 31 1004 58 3000 2.57 310 16:49 13.04.2022
4254 Smoke 32 1004 55 4000 4.63 320 15:44 13.04.2022
4255 Smoke 32 1003 51 4000 4.63 320 15:23 13.04.2022
4256 Smoke 33 1003 46 4000 5.66 300 14:34 13.04.2022
4257 Smoke 34 1003 40 5000 6.17 300 13:37 13.04.2022
4258 Smoke 36 1003 30 5000 6.17 320 12:45 13.04.2022
4259 Smoke 34 1004 55 4000 5.66 270 11:25 13.04.2022
4260 Smoke 34 1005 52 4000 6.17 260 10:27 13.04.2022
4261 Smoke 35 1006 43 4000 5.14 250 08:45 13.04.2022
4262 Smoke 35 1007 29 4000 4.12 270 07:44 13.04.2022
4263 Smoke 34 1007 31 3500 2.06 40 06:47 13.04.2022
4264 Smoke 33 1007 38 3500 1.54 350 06:23 13.04.2022
4265 Haze 28 1004 78 3500 1.54 10 00:52 13.04.2022
4266 Haze 29 1004 74 3500 0 0 00:19 13.04.2022
4267 Haze 29 1005 74 3500 0 0 22:33 12.04.2022
4268 Haze 29 1006 74 3500 1.54 320 21:51 12.04.2022
4269 Haze 30 1006 70 3500 2.57 300 20:48 12.04.2022
4270 Haze 30 1006 70 3500 3.09 310 20:19 12.04.2022
4271 Haze 30 1006 70 3500 2.06 330 19:40 12.04.2022
4272 Haze 30 1006 74 3500 3.09 310 18:53 12.04.2022
4273 Haze 30 1006 74 3500 2.06 300 17:38 12.04.2022
4274 Haze 31 1005 62 4000 3.09 290 16:46 12.04.2022
4275 Smoke 32 1004 51 4000 5.66 320 15:34 12.04.2022
4276 Smoke 32 1004 55 4000 4.12 290 14:48 12.04.2022
4277 Smoke 33 1003 46 5000 5.66 310 13:45 12.04.2022
4278 Smoke 34 1004 40 5000 6.17 290 13:24 12.04.2022
4279 Smoke 34 1004 43 5000 7.72 280 12:18 12.04.2022
4280 Smoke 34 1005 49 5000 6.17 290 11:35 12.04.2022
4281 Smoke 33 1007 55 4000 4.63 250 09:47 12.04.2022
4282 Smoke 34 1007 49 4000 5.14 260 08:49 12.04.2022
4283 Smoke 33 1008 33 4000 2.57 330 06:47 12.04.2022
4284 Smoke 31 1008 45 3500 0 0 05:40 12.04.2022
4285 Haze 28 1006 74 3000 1.54 120 02:37 12.04.2022
4286 Haze 29 1006 65 3500 0 0 23:24 11.04.2022
4287 Haze 29 1007 65 3500 0 0 22:32 11.04.2022
4288 Haze 29 1007 65 3500 0 0 21:22 11.04.2022
4289 Haze 29 1008 65 3500 0 0 20:35 11.04.2022
4290 Haze 30 1008 62 3500 2.06 310 19:59 11.04.2022
4291 Haze 29 1008 70 3500 0 0 19:27 11.04.2022
4292 Haze 29 1008 70 3500 0 0 18:54 11.04.2022
4293 Haze 29 1008 74 3500 2.57 320 17:58 11.04.2022
4294 Haze 29 1007 79 3500 2.57 320 17:39 11.04.2022
4295 Haze 30 1007 74 3500 3.6 290 16:36 11.04.2022
4296 Haze 31 1006 62 5000 4.63 300 14:59 11.04.2022
4297 Smoke 31 1005 55 5000 5.66 270 13:36 11.04.2022
4298 Smoke 32 1005 45 5000 6.69 260 12:40 11.04.2022
4299 Smoke 33 1005 33 5000 6.17 270 12:21 11.04.2022
4300 Smoke 33 1007 43 4000 5.66 260 10:41 11.04.2022
4301 Smoke 33 1008 52 4000 5.66 270 09:57 11.04.2022
4302 Smoke 34 1009 55 3500 4.12 260 08:22 11.04.2022
4303 Haze 29 1009 84 2500 2.06 120 04:56 11.04.2022
4304 Haze 29 1007 79 3500 2.06 230 23:55 10.04.2022
4305 Haze 28 1008 83 3500 2.57 220 22:27 10.04.2022
4306 Haze 29 1008 79 3500 2.06 180 21:52 10.04.2022
4307 Haze 29 1008 79 3500 2.06 210 20:52 10.04.2022
4308 Haze 29 1009 79 3500 2.57 210 19:58 10.04.2022
4309 Haze 29 1009 79 3500 2.57 210 19:34 10.04.2022
4310 Haze 29 1009 79 3500 3.09 240 18:50 10.04.2022
4311 Haze 29 1009 79 3500 3.09 240 18:25 10.04.2022
4312 Haze 30 1008 74 3500 2.57 250 17:43 10.04.2022
4313 Haze 29 1008 79 3500 3.6 270 16:57 10.04.2022
4314 Haze 29 1007 84 4000 5.14 280 15:38 10.04.2022
4315 Haze 30 1006 79 5000 5.14 290 14:41 10.04.2022
4316 Haze 31 1006 74 5000 6.69 250 13:22 10.04.2022
4317 Haze 32 1007 70 4000 5.14 250 12:27 10.04.2022
4318 Haze 32 1007 66 3500 5.66 250 11:38 10.04.2022
4319 Haze 32 1008 66 3500 5.14 250 10:59 10.04.2022
4320 Haze 32 1008 70 3000 5.66 250 10:27 10.04.2022
4321 Haze 33 1009 62 3000 5.14 250 09:41 10.04.2022
4322 Haze 32 1010 70 3000 4.63 210 08:26 10.04.2022
4323 Haze 32 1010 70 3000 3.6 220 07:56 10.04.2022
4324 Haze 31 1011 74 2500 2.57 180 06:59 10.04.2022
4325 Haze 29 1009 84 2500 3.09 220 03:36 10.04.2022
4326 Haze 29 1009 84 2500 3.09 220 03:36 10.04.2022
4327 Haze 29 1008 84 3000 2.57 240 02:18 10.04.2022
4328 Haze 29 1007 84 3000 3.09 230 23:53 09.04.2022
4329 Haze 29 1008 84 3000 2.06 250 22:54 09.04.2022
4330 Haze 29 1008 84 3000 2.57 240 22:24 09.04.2022
4331 Haze 29 1008 84 3000 3.09 240 21:18 09.04.2022
4332 Haze 29 1009 84 3000 3.09 250 20:27 09.04.2022
4333 Haze 29 1009 84 3000 3.6 240 19:49 09.04.2022
4334 Haze 29 1009 84 3000 3.09 240 19:30 09.04.2022
4335 Haze 29 1008 84 3000 3.6 240 18:23 09.04.2022
4336 Haze 30 1008 74 3000 3.6 240 17:43 09.04.2022
4337 Haze 30 1008 84 3000 4.63 220 16:56 09.04.2022
4338 Haze 30 1008 84 3500 4.12 250 16:29 09.04.2022
4339 Haze 30 1007 79 3500 4.63 240 15:48 09.04.2022
4340 Haze 30 1007 79 4000 4.63 220 15:25 09.04.2022
4341 Haze 31 1007 74 4000 5.14 240 14:25 09.04.2022
4342 Haze 31 1007 74 5000 6.17 220 13:24 09.04.2022
4343 Haze 32 1007 70 5000 6.17 260 12:53 09.04.2022
4344 Haze 32 1007 70 5000 6.17 260 11:44 09.04.2022
4345 Smoke 33 1008 66 4000 6.17 240 10:41 09.04.2022
4346 Haze 33 1008 62 3500 5.66 250 10:18 09.04.2022
4347 Smoke 33 1009 66 3500 6.17 250 09:21 09.04.2022
4348 Haze 32 1010 66 3000 3.09 180 07:49 09.04.2022
4349 Haze 29 1009 84 3000 2.57 110 03:57 09.04.2022
4350 Haze 29 1007 79 3000 2.06 160 00:33 09.04.2022
4351 Haze 29 1008 84 3000 3.09 220 23:20 08.04.2022
4352 Haze 29 1008 84 3000 2.57 220 21:42 08.04.2022
4353 Haze 29 1009 84 3000 4.12 230 20:41 08.04.2022
4354 Haze 29 1009 84 3000 2.57 230 19:46 08.04.2022
4355 Haze 29 1009 84 3000 4.12 190 18:42 08.04.2022
4356 Haze 29 1009 84 3000 4.63 200 18:18 08.04.2022
4357 Haze 29 1008 84 3500 3.09 220 17:27 08.04.2022
4358 Haze 29 1008 84 3500 3.09 230 16:52 08.04.2022
4359 Haze 29 1008 84 3500 3.09 210 16:22 08.04.2022
4360 Haze 30 1007 79 3500 4.63 270 15:28 08.04.2022
4361 Haze 30 1006 79 3500 6.17 240 14:45 08.04.2022
4362 Haze 31 1006 74 3500 5.66 260 13:59 08.04.2022
4363 Haze 31 1006 74 3500 6.69 280 13:30 08.04.2022
4364 Haze 32 1006 70 3500 5.14 280 12:45 08.04.2022
4365 Haze 32 1007 70 3500 5.14 270 11:26 08.04.2022
4366 Haze 33 1009 66 3000 4.63 270 09:57 08.04.2022
4367 Haze 33 1009 66 2500 4.63 280 08:59 08.04.2022
4368 Haze 34 1010 59 2500 4.12 260 07:43 08.04.2022
4369 Haze 32 1011 70 2500 2.57 240 06:45 08.04.2022
4370 Haze 28 1009 89 3000 2.57 120 02:53 08.04.2022
4371 Haze 28 1008 89 3000 2.57 90 00:30 08.04.2022
4372 Haze 28 1008 89 3000 3.09 330 23:43 07.04.2022
4373 Haze 28 1008 89 3000 2.57 290 22:44 07.04.2022
4374 Haze 28 1008 89 3000 2.57 290 22:23 07.04.2022
4375 Haze 28 1009 89 3000 3.09 300 21:58 07.04.2022
4376 Haze 28 1009 94 3000 2.06 280 21:30 07.04.2022
4377 Haze 29 1009 84 3000 2.57 250 20:46 07.04.2022
4378 Haze 29 1010 84 3000 2.06 250 20:20 07.04.2022
4379 Haze 29 1009 89 3500 2.57 270 17:43 07.04.2022
4380 Haze 29 1009 89 3500 2.57 270 17:22 07.04.2022
4381 Haze 29 1009 89 3500 3.6 270 16:34 07.04.2022
4382 Haze 30 1008 84 3500 4.12 270 15:47 07.04.2022
4383 Haze 31 1008 70 5000 5.66 270 13:54 07.04.2022
4384 Smoke 31 1008 66 5000 5.14 270 13:24 07.04.2022
4385 Smoke 31 1008 66 5000 5.14 270 13:24 07.04.2022
4386 Haze 32 1008 58 4000 4.12 230 11:53 07.04.2022
4387 Haze 32 1009 58 3000 3.6 220 10:54 07.04.2022
4388 Haze 33 1011 66 2500 4.12 270 09:19 07.04.2022
4389 Haze 31 1012 70 2200 2.57 230 06:59 07.04.2022
4390 Haze 29 1012 84 2200 2.06 90 05:28 07.04.2022
4391 Haze 27 1010 89 3000 0 0 02:37 07.04.2022
4392 Haze 27 1010 89 3000 0 0 00:43 07.04.2022
4393 Haze 28 1010 89 3000 2.57 230 23:36 06.04.2022
4394 Haze 28 1011 89 3000 2.57 260 22:45 06.04.2022
4395 Haze 28 1011 89 3000 2.57 250 22:20 06.04.2022
4396 Haze 28 1012 89 3000 3.09 270 20:50 06.04.2022
4397 Haze 28 1012 89 3000 2.57 250 20:26 06.04.2022
4398 Haze 29 1012 84 3000 1.54 280 19:44 06.04.2022
4399 Haze 29 1011 84 3000 0 0 18:48 06.04.2022
4400 Haze 29 1011 84 3000 2.57 310 17:36 06.04.2022
4401 Haze 29 1010 79 3000 3.09 290 16:58 06.04.2022
4402 Haze 29 1010 84 3500 2.57 300 16:34 06.04.2022
4403 Haze 29 1010 84 4000 5.14 310 15:44 06.04.2022
4404 Haze 31 1009 70 4000 4.63 310 13:53 06.04.2022
4405 Haze 31 1009 70 5000 5.14 290 12:37 06.04.2022
4406 Haze 32 1010 66 4000 5.14 270 11:44 06.04.2022
4407 Smoke 32 1012 66 4000 6.17 250 10:37 06.04.2022
4408 Smoke 32 1012 66 4000 6.17 250 10:18 06.04.2022
4409 Smoke 32 1013 66 4000 4.63 240 09:25 06.04.2022
4410 Haze 32 1013 66 3500 3.6 200 08:25 06.04.2022
4411 Haze 31 1014 70 3000 3.09 220 06:45 06.04.2022
4412 Haze 29 1011 79 3000 1.54 190 01:44 06.04.2022
4413 Haze 29 1011 84 3000 2.06 210 23:50 05.04.2022
4414 Haze 29 1012 84 3500 3.09 200 21:59 05.04.2022
4415 Haze 29 1012 84 3500 0 0 21:18 05.04.2022
4416 Haze 29 1012 84 3500 2.06 230 20:24 05.04.2022
4417 Haze 29 1012 84 3500 2.57 230 18:45 05.04.2022
4418 Haze 29 1011 84 3500 2.06 260 17:30 05.04.2022
4419 Haze 29 1011 84 3500 2.57 290 16:44 05.04.2022
4420 Haze 29 1010 84 3500 4.63 260 15:52 05.04.2022
4421 Haze 30 1009 79 3500 4.63 280 15:31 05.04.2022
4422 Haze 31 1009 74 4000 5.14 280 13:59 05.04.2022
4423 Haze 31 1009 74 4000 4.63 280 12:41 05.04.2022
4424 Haze 32 1010 66 3500 5.66 260 11:43 05.04.2022
4425 Haze 32 1010 66 3500 5.66 260 11:25 05.04.2022
4426 Haze 32 1012 70 3000 3.09 300 09:41 05.04.2022
4427 Haze 32 1012 70 3000 4.12 270 08:51 05.04.2022
4428 Haze 29 1013 84 2500 3.09 190 05:28 05.04.2022
4429 Haze 28 1010 83 3000 2.06 250 23:51 04.04.2022
4430 Haze 28 1010 89 3500 2.06 230 22:41 04.04.2022
4431 Haze 28 1011 83 3500 1.54 210 21:52 04.04.2022
4432 Haze 29 1011 84 3500 3.09 210 21:21 04.04.2022
4433 Haze 29 1011 84 3500 3.09 210 20:48 04.04.2022
4434 Haze 29 1011 79 3500 2.57 220 19:39 04.04.2022
4435 Haze 29 1011 79 3500 2.57 230 18:59 04.04.2022
4436 Haze 29 1010 84 3500 3.09 230 17:54 04.04.2022
4437 Haze 29 1010 79 4000 3.6 270 16:36 04.04.2022
4438 Haze 29 1009 79 4500 4.12 260 15:34 04.04.2022
4439 Haze 30 1008 74 5000 5.14 260 14:58 04.04.2022
4440 Haze 30 1008 74 5000 5.14 250 14:40 04.04.2022
4441 Haze 30 1008 74 5000 5.14 270 13:21 04.04.2022
4442 Haze 31 1008 66 5000 6.17 240 11:49 04.04.2022
4443 Haze 31 1008 62 4000 5.14 230 11:28 04.04.2022
4444 Smoke 32 1010 66 3000 4.12 270 08:29 04.04.2022
4445 Haze 27 1009 83 3000 2.57 130 03:52 04.04.2022
4446 Haze 28 1008 78 3000 2.06 280 00:26 04.04.2022
4447 Haze 28 1009 83 3500 2.57 250 22:33 03.04.2022
4448 Haze 28 1009 83 3500 0 0 21:44 03.04.2022
4449 Haze 28 1009 78 3500 2.57 260 20:53 03.04.2022
4450 Haze 28 1009 78 3500 2.57 260 19:45 03.04.2022
4451 Haze 28 1009 78 3500 4.12 280 18:31 03.04.2022
4452 Haze 29 1009 74 3500 3.6 280 17:47 03.04.2022
4453 Haze 29 1008 70 3500 3.09 290 16:57 03.04.2022
4454 Haze 29 1008 70 3500 3.09 290 16:39 03.04.2022
4455 Smoke 31 1007 55 5000 5.66 290 14:39 03.04.2022
4456 Smoke 32 1007 45 5000 5.14 300 13:51 03.04.2022
4457 Smoke 32 1007 40 5000 6.17 290 12:41 03.04.2022
4458 Smoke 33 1008 38 4000 6.17 260 10:58 03.04.2022
4459 Smoke 32 1010 55 3500 5.14 260 09:38 03.04.2022
4460 Haze 31 1011 62 3500 4.12 230 08:33 03.04.2022
4461 Haze 27 1011 78 3000 2.06 140 04:42 03.04.2022
4462 Haze 27 1009 78 3000 1.54 20 01:53 03.04.2022
4463 Haze 27 1009 78 3500 2.06 320 23:21 02.04.2022
4464 Haze 27 1009 78 3500 2.06 290 22:18 02.04.2022
4465 Haze 27 1010 78 3500 2.57 250 21:46 02.04.2022
4466 Haze 28 1010 74 3500 3.09 250 21:18 02.04.2022
4467 Haze 28 1011 74 3500 1.54 0 19:54 02.04.2022
4468 Haze 28 1011 69 4000 2.57 250 18:23 02.04.2022
4469 Haze 28 1011 65 4000 2.57 240 17:53 02.04.2022
4470 Haze 29 1010 61 4000 3.6 270 16:29 02.04.2022
4471 Smoke 29 1009 61 4500 5.14 250 15:22 02.04.2022
4472 Smoke 30 1009 54 4000 5.14 260 14:51 02.04.2022
4473 Smoke 30 1008 54 4000 5.66 260 13:51 02.04.2022
4474 Smoke 30 1008 51 4000 5.14 280 13:19 02.04.2022
4475 Haze 31 1010 66 4000 5.14 260 11:33 02.04.2022
4476 Smoke 30 1011 66 3000 3.6 270 09:31 02.04.2022
4477 Haze 29 1012 70 2500 3.09 160 06:56 02.04.2022
4478 Haze 27 1010 78 2500 2.57 30 03:55 02.04.2022
4479 Haze 26 1008 89 3000 2.57 260 00:25 02.04.2022
4480 Haze 26 1008 89 3000 1.54 240 23:45 01.04.2022
4481 Haze 27 1010 89 3000 3.09 250 21:55 01.04.2022
4482 Haze 27 1010 89 3000 2.57 260 20:54 01.04.2022
4483 Haze 27 1010 89 3000 0 0 20:31 01.04.2022
4484 Haze 27 1010 89 3000 2.06 240 19:38 01.04.2022
4485 Haze 28 1010 78 3000 2.06 260 18:54 01.04.2022
4486 Haze 28 1010 78 3000 2.57 290 18:23 01.04.2022
4487 Haze 28 1009 78 3500 3.6 270 17:35 01.04.2022
4488 Haze 29 1008 74 3500 4.12 290 15:44 01.04.2022
4489 Smoke 30 1007 66 4000 5.66 270 14:39 01.04.2022
4490 Smoke 31 1007 58 3500 6.17 270 13:36 01.04.2022
4491 Smoke 33 1007 46 3500 4.63 270 12:33 01.04.2022
4492 Smoke 32 1007 48 3500 4.63 280 11:45 01.04.2022
4493 Smoke 32 1008 48 3500 6.69 260 10:34 01.04.2022
4494 Smoke 32 1010 48 3000 6.69 250 09:30 01.04.2022
4495 Smoke 32 1011 40 2500 3.09 290 07:19 01.04.2022
4496 Haze 26 1010 78 2100 0 0 04:56 01.04.2022
4497 Haze 26 1010 78 2100 0 0 04:37 01.04.2022
4498 Haze 25 1008 83 3000 0 0 02:19 01.04.2022
4499 Haze 25 1008 78 3000 0 0 00:46 01.04.2022
4500 Haze 27 1009 83 3000 2.57 360 22:23 31.03.2022
4501 Haze 27 1009 83 3000 2.57 10 21:37 31.03.2022
4502 Haze 27 1010 83 3000 0 0 20:50 31.03.2022
4503 Haze 27 1010 83 3000 1.54 300 20:28 31.03.2022
4504 Haze 28 1010 78 3000 3.09 290 19:18 31.03.2022
4505 Haze 28 1010 78 3000 2.06 290 18:31 31.03.2022
4506 Haze 28 1009 74 3500 2.06 270 16:46 31.03.2022
4507 Haze 29 1008 65 3500 2.57 270 15:54 31.03.2022
4508 Haze 29 1008 65 3500 4.12 270 15:23 31.03.2022
4509 Smoke 30 1008 62 4000 3.6 290 14:44 31.03.2022
4510 Smoke 32 1008 48 4000 5.66 260 13:28 31.03.2022
4511 Smoke 32 1008 48 4000 4.63 250 11:30 31.03.2022
4512 Haze 31 1009 62 3500 5.66 270 10:22 31.03.2022
4513 Haze 31 1010 70 3000 4.12 260 09:19 31.03.2022
4514 Haze 31 1011 70 2500 4.63 260 07:48 31.03.2022
4515 Haze 26 1008 89 3000 0 0 01:37 31.03.2022
4516 Haze 27 1008 89 3000 0 0 23:24 30.03.2022
4517 Haze 28 1009 83 3000 2.06 110 21:55 30.03.2022
4518 Haze 28 1009 83 3000 2.06 120 21:30 30.03.2022
4519 Haze 28 1009 89 3000 2.57 180 20:37 30.03.2022
4520 Haze 28 1009 89 3000 2.57 250 19:47 30.03.2022
4521 Haze 28 1009 89 3000 2.57 290 18:41 30.03.2022
4522 Smoke 29 1008 79 3000 4.12 280 17:51 30.03.2022
4523 Smoke 29 1008 74 4000 3.09 290 16:59 30.03.2022
4524 Smoke 30 1008 70 4000 3.09 280 16:39 30.03.2022
4525 Smoke 30 1007 58 4000 4.12 280 15:47 30.03.2022
4526 Smoke 31 1007 66 5000 6.17 260 14:35 30.03.2022
4527 Smoke 32 1007 58 5000 5.66 260 13:21 30.03.2022
4528 Smoke 33 1007 49 5000 5.14 270 12:22 30.03.2022
4529 Smoke 32 1008 58 5000 6.17 250 10:48 30.03.2022
4530 Smoke 32 1009 58 4000 5.66 270 09:43 30.03.2022
4531 Smoke 33 1010 52 4000 5.14 270 08:20 30.03.2022
4532 Smoke 32 1010 51 3000 3.09 260 06:50 30.03.2022
4533 Haze 29 1010 61 3000 0 0 05:40 30.03.2022
4534 Haze 27 1007 78 3000 1.54 150 01:48 30.03.2022
4535 Haze 28 1008 83 3000 0 0 22:39 29.03.2022
4536 Haze 28 1008 83 3000 2.06 310 21:48 29.03.2022
4537 Haze 28 1008 83 3000 1.54 300 21:20 29.03.2022
4538 Haze 28 1009 89 3000 4.12 300 20:25 29.03.2022
4539 Haze 29 1009 84 3000 2.57 300 19:31 29.03.2022
4540 Haze 29 1009 84 3000 3.09 310 18:53 29.03.2022
4541 Haze 30 1008 74 3000 3.09 290 17:48 29.03.2022
4542 Haze 30 1008 66 3000 3.6 270 17:18 29.03.2022
4543 Smoke 31 1007 48 4000 2.57 290 16:52 29.03.2022
4544 Smoke 33 1007 35 5000 4.63 300 15:20 29.03.2022
4545 Smoke 35 1006 34 5000 5.14 310 14:43 29.03.2022
4546 Smoke 36 1006 24 5000 4.63 310 13:34 29.03.2022
4547 Smoke 36 1007 30 4000 4.63 300 12:21 29.03.2022
4548 Smoke 34 1008 52 3500 5.14 250 10:59 29.03.2022
4549 Smoke 33 1009 52 3000 4.63 290 09:51 29.03.2022
4550 Haze 32 1010 66 2500 5.14 260 08:43 29.03.2022
4551 Haze 30 1010 70 2100 2.57 260 06:21 29.03.2022
4552 Haze 27 1008 78 3000 0 0 02:27 29.03.2022
4553 Haze 28 1008 78 3000 0 0 23:26 28.03.2022
4554 Haze 28 1008 78 3000 0 0 23:26 28.03.2022
4555 Haze 28 1008 78 3000 1.54 340 22:57 28.03.2022
4556 Haze 28 1009 83 3000 2.06 300 22:31 28.03.2022
4557 Haze 28 1009 83 3000 1.54 310 21:38 28.03.2022
4558 Haze 29 1010 84 3000 2.06 300 20:32 28.03.2022
4559 Haze 29 1010 84 3000 2.06 310 19:48 28.03.2022
4560 Haze 29 1010 84 3000 3.09 280 19:30 28.03.2022
4561 Haze 29 1010 79 3500 2.06 270 18:50 28.03.2022
4562 Haze 29 1009 79 3500 2.57 300 17:41 28.03.2022
4563 Haze 30 1009 70 4000 3.09 290 16:48 28.03.2022
4564 Smoke 32 1007 55 5000 4.63 300 14:56 28.03.2022
4565 Smoke 32 1007 55 5000 6.17 280 14:23 28.03.2022
4566 Haze 32 1007 62 4000 6.17 290 13:18 28.03.2022
4567 Haze 31 1008 70 4000 5.14 280 11:52 28.03.2022
4568 Haze 32 1009 70 3000 5.14 250 09:55 28.03.2022
4569 Haze 32 1010 70 3000 5.14 250 09:21 28.03.2022
4570 Smoke 32 1011 66 3000 4.12 280 08:23 28.03.2022
4571 Smoke 33 1012 58 3000 4.12 270 07:59 28.03.2022
4572 Haze 30 1012 74 2500 1.54 280 06:30 28.03.2022
4573 Haze 27 1009 89 3000 1.54 270 00:30 28.03.2022
4574 Haze 28 1010 89 3500 3.09 250 22:35 27.03.2022
4575 Haze 28 1011 89 3500 1.54 270 21:43 27.03.2022
4576 Haze 28 1011 89 3500 2.57 260 21:18 27.03.2022
4577 Haze 28 1012 89 3500 3.09 240 20:21 27.03.2022
4578 Haze 28 1012 89 3500 3.09 240 19:37 27.03.2022
4579 Haze 28 1011 89 3500 2.06 250 18:42 27.03.2022
4580 Haze 28 1011 89 3500 2.06 280 18:23 27.03.2022
4581 Haze 28 1011 89 3500 2.57 290 17:35 27.03.2022
4582 Haze 29 1009 74 3500 3.09 300 15:47 27.03.2022
4583 Smoke 31 1008 62 5000 5.66 290 13:57 27.03.2022
4584 Smoke 31 1008 58 5000 6.17 280 13:20 27.03.2022
4585 Smoke 32 1009 55 5000 6.17 270 11:33 27.03.2022
4586 Smoke 32 1011 62 3500 4.12 280 09:37 27.03.2022
4587 Haze 30 1013 66 3000 2.06 260 06:58 27.03.2022
4588 Haze 27 1011 83 3000 0 0 03:45 27.03.2022
4589 Haze 27 1010 83 3000 1.54 230 00:26 27.03.2022
4590 Haze 27 1010 83 3000 2.57 250 22:49 26.03.2022
4591 Haze 27 1010 89 3000 0 0 21:54 26.03.2022
4592 Haze 27 1011 83 3000 1.54 220 21:29 26.03.2022
4593 Haze 28 1012 83 3500 1.54 220 19:32 26.03.2022
4594 Haze 28 1012 83 3500 2.57 210 18:40 26.03.2022
4595 Haze 28 1012 83 3500 2.06 230 17:34 26.03.2022
4596 Haze 28 1011 83 4000 3.09 260 16:33 26.03.2022
4597 Haze 28 1010 83 4000 4.12 250 15:39 26.03.2022
4598 Smoke 30 1009 54 5000 6.17 270 13:56 26.03.2022
4599 Smoke 30 1009 48 5000 6.17 290 13:20 26.03.2022
4600 Smoke 30 1008 62 3500 6.17 280 11:48 26.03.2022
4601 Haze 32 1008 62 3500 5.14 270 10:48 26.03.2022
4602 Haze 32 1010 66 3000 4.63 250 08:48 26.03.2022
4603 Haze 31 1012 66 3000 2.57 260 06:38 26.03.2022
4604 Haze 29 1012 74 3000 2.57 270 05:29 26.03.2022
4605 Haze 28 1009 78 3000 2.06 280 00:54 26.03.2022
4606 Haze 28 1009 74 3000 2.06 240 22:21 25.03.2022
4607 Haze 28 1010 74 3500 1.54 240 20:57 25.03.2022
4608 Haze 28 1010 69 3500 2.06 150 20:24 25.03.2022
4609 Haze 29 1010 61 3500 1.54 220 19:18 25.03.2022
4610 Smoke 29 1011 61 3500 2.06 240 18:22 25.03.2022
4611 Smoke 29 1010 58 4000 2.06 240 17:28 25.03.2022
4612 Smoke 29 1010 54 4000 2.57 230 16:27 25.03.2022
4613 Smoke 29 1009 54 4000 2.57 260 15:26 25.03.2022
4614 Smoke 30 1007 54 5000 4.12 280 13:28 25.03.2022
4615 Smoke 31 1007 48 4000 4.63 280 10:49 25.03.2022
4616 Smoke 31 1008 51 3000 5.14 260 09:28 25.03.2022
4617 Smoke 31 1009 51 3000 5.14 280 08:43 25.03.2022
4618 Smoke 31 1009 58 3000 5.14 270 07:32 25.03.2022
4619 Smoke 31 1009 62 3000 2.06 260 06:29 25.03.2022
4620 Haze 27 1007 61 3000 0 0 02:28 25.03.2022
4621 Haze 28 1007 61 3000 0 0 22:56 24.03.2022
4622 Haze 28 1007 61 3000 2.06 340 21:56 24.03.2022
4623 Haze 28 1008 61 3000 3.09 290 20:45 24.03.2022
4624 Smoke 28 1008 61 3000 2.57 260 19:49 24.03.2022
4625 Smoke 28 1008 61 3000 2.57 260 19:49 24.03.2022
4626 Smoke 30 1008 42 3000 2.57 270 18:34 24.03.2022
4627 Smoke 30 1008 42 3000 2.57 260 17:32 24.03.2022
4628 Smoke 30 1007 45 3000 2.57 260 15:56 24.03.2022
4629 Smoke 30 1006 48 3000 3.09 250 14:51 24.03.2022
4630 Smoke 30 1006 48 3000 3.6 260 14:21 24.03.2022
4631 Smoke 31 1005 40 3000 3.09 260 13:31 24.03.2022
4632 Smoke 31 1005 40 3000 3.6 250 12:23 24.03.2022
4633 Smoke 31 1006 58 3000 5.14 220 10:32 24.03.2022
4634 Smoke 32 1006 55 3000 5.66 240 09:23 24.03.2022
4635 Smoke 34 1008 33 3000 2.57 260 07:42 24.03.2022
4636 Haze 29 1008 61 3000 0 0 04:43 24.03.2022
4637 Haze 28 1005 65 3000 2.57 260 23:38 23.03.2022
4638 Haze 29 1006 61 3000 0 0 22:18 23.03.2022
4639 Haze 29 1007 65 3000 3.6 250 21:20 23.03.2022
4640 Smoke 31 1007 33 3000 3.09 220 19:51 23.03.2022
4641 Smoke 31 1007 30 3000 2.06 170 19:25 23.03.2022
4642 Smoke 33 1007 22 3000 2.57 40 17:47 23.03.2022
4643 Smoke 33 1006 24 3000 5.14 340 16:55 23.03.2022
4644 Smoke 32 1005 31 3000 2.57 110 15:21 23.03.2022
4645 Smoke 32 1005 31 3000 4.63 340 14:41 23.03.2022
4646 Smoke 33 1004 29 3500 7.2 320 13:30 23.03.2022
4647 Smoke 35 1004 29 4000 8.23 280 10:37 23.03.2022
4648 Smoke 37 1008 12 4000 2.57 310 07:56 23.03.2022
4649 Smoke 34 1009 17 3500 1.54 0 05:40 23.03.2022
4650 Smoke 27 1006 39 3000 0 0 01:41 23.03.2022
4651 Smoke 28 1006 42 3000 1.54 310 00:24 23.03.2022
4652 Smoke 28 1007 54 3000 2.57 320 21:33 22.03.2022
4653 Smoke 29 1007 51 3000 2.06 320 20:55 22.03.2022
4654 Smoke 30 1007 39 3000 2.06 360 19:56 22.03.2022
4655 Smoke 30 1007 35 3000 3.09 330 19:25 22.03.2022
4656 Smoke 31 1008 29 3000 0 0 18:45 22.03.2022
4657 Smoke 32 1007 23 3000 2.57 20 17:42 22.03.2022
4658 Smoke 32 1006 27 3000 4.12 10 16:35 22.03.2022
4659 Smoke 32 1006 33 3000 2.57 40 15:37 22.03.2022
4660 Smoke 32 1006 33 3000 1.54 340 15:18 22.03.2022
4661 Smoke 32 1005 37 3500 2.06 330 14:41 22.03.2022
4662 Smoke 33 1005 38 3500 5.14 320 13:37 22.03.2022
4663 Smoke 33 1005 40 3500 6.17 290 11:52 22.03.2022
4664 Smoke 34 1005 36 3500 5.14 280 10:53 22.03.2022
4665 Smoke 33 1008 31 3500 3.09 290 08:43 22.03.2022
4666 Smoke 32 1009 31 3500 2.06 280 07:21 22.03.2022
4667 Smoke 28 1008 47 3000 2.06 150 03:55 22.03.2022
4668 Smoke 27 1006 57 3000 1.54 40 00:46 22.03.2022
4669 Smoke 28 1006 54 3000 3.6 330 22:46 21.03.2022
4670 Smoke 29 1007 51 3000 3.6 330 21:25 21.03.2022
4671 Smoke 29 1008 54 3000 2.06 300 20:43 21.03.2022
4672 Smoke 29 1008 54 3000 2.06 300 20:21 21.03.2022
4673 Haze 29 1008 61 3000 1.03 250 19:35 21.03.2022
4674 Haze 29 1008 61 3000 1.03 250 19:35 21.03.2022
4675 Haze 29 1008 61 3000 1.03 330 18:47 21.03.2022
4676 Haze 29 1008 70 3000 2.06 10 17:35 21.03.2022
4677 Haze 29 1008 70 3000 3.09 320 16:58 21.03.2022
4678 Haze 29 1007 70 3000 3.09 360 16:26 21.03.2022
4679 Haze 29 1007 70 3000 3.09 330 15:37 21.03.2022
4680 Haze 30 1006 62 3500 6.69 310 14:29 21.03.2022
4681 Haze 30 1006 66 4000 5.14 300 13:20 21.03.2022
4682 Haze 30 1006 66 4000 5.14 290 11:58 21.03.2022
4683 Haze 30 1006 66 4000 6.69 260 11:20 21.03.2022
4684 Smoke 31 1008 58 3000 4.63 270 09:42 21.03.2022
4685 Smoke 31 1010 55 2500 3.09 240 07:22 21.03.2022
4686 Haze 30 1010 62 3000 2.57 260 05:56 21.03.2022
4687 Haze 26 1007 83 3000 2.06 90 01:39 21.03.2022
4688 Haze 26 1007 89 3000 2.06 30 22:57 20.03.2022
4689 Haze 26 1007 89 3000 2.06 350 22:23 20.03.2022
4690 Haze 26 1007 89 3000 1.54 320 21:37 20.03.2022
4691 Haze 27 1008 83 3000 2.57 330 20:54 20.03.2022
4692 Haze 27 1008 83 3000 2.57 340 20:29 20.03.2022
4693 Haze 26 1008 89 3000 2.06 300 19:49 20.03.2022
4694 Haze 27 1008 89 3000 2.57 270 19:19 20.03.2022
4695 Haze 27 1008 89 3000 2.57 290 17:44 20.03.2022
4696 Haze 27 1008 89 3000 2.57 290 17:24 20.03.2022
4697 Haze 28 1007 78 3500 3.09 280 15:58 20.03.2022
4698 Haze 28 1006 78 4000 4.12 290 14:38 20.03.2022
4699 Haze 29 1006 74 4000 5.66 280 13:38 20.03.2022
4700 Haze 29 1006 79 4000 5.14 270 12:19 20.03.2022
4701 Haze 30 1007 70 3500 4.63 250 09:59 20.03.2022
4702 Haze 29 1009 74 3500 2.57 220 08:20 20.03.2022
4703 Haze 29 1009 70 3000 2.06 190 05:49 20.03.2022
4704 Haze 28 1007 69 3000 2.57 230 03:18 20.03.2022
4705 Haze 28 1006 78 3000 3.09 200 00:53 20.03.2022
4706 Haze 28 1005 74 3000 0 0 00:28 20.03.2022
4707 Haze 28 1006 65 3000 1.54 240 22:25 19.03.2022
4708 Haze 28 1007 69 3000 0 0 21:26 19.03.2022
4709 Haze 28 1007 69 3000 0 0 21:26 19.03.2022
4710 Haze 28 1007 69 3500 2.06 190 19:29 19.03.2022
4711 Haze 28 1007 69 3500 0 0 18:38 19.03.2022
4712 Haze 28 1007 69 3500 2.06 210 17:49 19.03.2022
4713 Haze 29 1006 61 3500 2.06 280 16:57 19.03.2022
4714 Smoke 29 1005 65 4000 3.6 290 15:29 19.03.2022
4715 Smoke 31 1004 51 5000 5.66 290 13:49 19.03.2022
4716 Smoke 31 1004 58 5000 6.17 280 12:56 19.03.2022
4717 Smoke 31 1004 62 5000 6.69 270 12:36 19.03.2022
4718 Smoke 31 1004 58 5000 8.23 250 11:45 19.03.2022
4719 Haze 31 1006 70 3000 5.66 260 09:23 19.03.2022
4720 Haze 30 1008 66 3000 2.57 230 05:44 19.03.2022
4721 Haze 27 1006 83 3000 0 0 02:33 19.03.2022
4722 Haze 27 1005 78 3000 1.54 170 23:52 18.03.2022
4723 Haze 28 1005 65 3000 0 0 22:58 18.03.2022
4724 Haze 28 1005 65 3000 2.57 210 22:22 18.03.2022
4725 Haze 29 1006 65 3000 0 0 20:31 18.03.2022
4726 Haze 29 1007 70 3000 2.57 320 19:45 18.03.2022
4727 Smoke 29 1007 70 3000 2.57 290 19:18 18.03.2022
4728 Smoke 31 1006 51 3500 5.66 250 16:59 18.03.2022
4729 Smoke 32 1005 40 3500 2.06 220 16:34 18.03.2022
4730 Smoke 36 1003 19 5000 5.66 330 14:29 18.03.2022
4731 Smoke 37 1003 16 5000 5.66 330 13:41 18.03.2022
4732 Smoke 37 1003 25 3500 7.2 300 11:43 18.03.2022
4733 Smoke 34 1005 46 3000 5.66 270 10:27 18.03.2022
4734 Smoke 33 1006 55 3000 5.14 250 08:50 18.03.2022
4735 Smoke 33 1008 46 2500 4.12 250 07:43 18.03.2022
4736 Smoke 30 1008 54 2200 1.54 200 05:20 18.03.2022
4737 Haze 27 1006 65 2500 2.06 90 01:55 18.03.2022
4738 Haze 28 1005 57 3000 2.06 330 00:20 18.03.2022
4739 Haze 29 1005 58 3000 1.54 320 22:54 17.03.2022
4740 Haze 29 1006 58 3000 2.06 330 22:20 17.03.2022
4741 Haze 29 1006 54 3000 2.06 310 21:46 17.03.2022
4742 Haze 29 1006 61 3000 2.57 290 20:58 17.03.2022
4743 Haze 29 1007 65 3000 1.54 340 20:29 17.03.2022
4744 Smoke 29 1007 65 3000 4.63 250 19:39 17.03.2022
4745 Smoke 30 1007 58 3000 2.06 300 18:55 17.03.2022
4746 Smoke 30 1007 54 3000 6.69 250 17:47 17.03.2022
4747 Smoke 33 1006 38 3000 2.06 30 16:29 17.03.2022
4748 Smoke 33 1006 38 3000 2.06 350 15:43 17.03.2022
4749 Smoke 33 1005 38 3000 4.63 340 15:21 17.03.2022
4750 Smoke 35 1004 31 3500 6.17 330 13:48 17.03.2022
4751 Smoke 35 1004 31 3000 8.23 320 12:47 17.03.2022
4752 Smoke 35 1004 29 3000 6.69 300 11:47 17.03.2022
4753 Smoke 36 1004 26 3000 5.66 320 11:22 17.03.2022
4754 Smoke 35 1006 41 3000 5.66 300 09:41 17.03.2022
4755 Smoke 34 1007 46 3000 4.63 250 08:21 17.03.2022
4756 Smoke 35 1009 31 2500 2.57 240 06:25 17.03.2022
4757 Smoke 33 1009 35 2500 1.54 250 05:25 17.03.2022
4758 Smoke 29 1005 48 3000 2.06 300 00:42 17.03.2022
4759 Smoke 28 1005 69 3000 2.57 290 22:59 16.03.2022
4760 Smoke 28 1005 69 3000 2.57 290 22:39 16.03.2022
4761 Smoke 29 1006 65 3000 3.09 340 22:19 16.03.2022
4762 Smoke 29 1006 58 3000 3.09 270 21:18 16.03.2022
4763 Smoke 29 1006 58 3000 3.09 270 21:18 16.03.2022
4764 Smoke 34 1007 18 3000 2.06 10 19:25 16.03.2022
4765 Smoke 34 1007 18 3000 2.57 350 18:43 16.03.2022
4766 Smoke 35 1007 17 3000 2.57 30 18:20 16.03.2022
4767 Smoke 35 1007 20 3000 3.09 20 17:37 16.03.2022
4768 Smoke 35 1007 20 3000 3.09 350 16:49 16.03.2022
4769 Smoke 36 1006 20 3500 4.12 340 15:35 16.03.2022
4770 Smoke 38 1004 17 3500 5.14 320 13:41 16.03.2022
4771 Smoke 38 1004 19 3500 6.17 300 12:59 16.03.2022
4772 Smoke 37 1004 25 3500 7.2 280 11:44 16.03.2022
4773 Smoke 37 1005 30 3500 5.14 280 11:18 16.03.2022
4774 Smoke 35 1006 38 3500 5.14 260 09:58 16.03.2022
4775 Smoke 35 1007 38 3500 4.12 260 08:37 16.03.2022
4776 Smoke 26 1008 53 2500 0 0 03:30 16.03.2022
4777 Smoke 29 1007 45 3000 1.03 0 23:39 15.03.2022
4778 Smoke 30 1007 45 3000 2.57 310 22:37 15.03.2022
4779 Smoke 30 1008 45 3000 2.57 310 21:33 15.03.2022
4780 Smoke 31 1008 37 3500 5.66 260 19:47 15.03.2022
4781 Smoke 35 1008 16 3500 2.57 360 18:38 15.03.2022
4782 Smoke 34 1008 24 3500 4.63 340 16:47 15.03.2022
4783 Smoke 34 1007 22 3500 6.17 340 16:18 15.03.2022
4784 Smoke 35 1006 21 3500 6.17 330 14:55 15.03.2022
4785 Smoke 36 1006 21 3500 4.12 320 14:30 15.03.2022
4786 Smoke 36 1005 23 3500 5.14 320 13:27 15.03.2022
4787 Smoke 37 1005 25 3000 6.69 280 11:56 15.03.2022
4788 Smoke 37 1005 25 3000 5.66 300 11:19 15.03.2022
4789 Smoke 36 1007 30 3000 3.6 240 09:31 15.03.2022
4790 Smoke 37 1009 22 2500 4.12 270 08:32 15.03.2022
4791 Smoke 36 1010 24 2500 2.57 270 07:44 15.03.2022
4792 Smoke 36 1011 19 2500 4.12 50 06:35 15.03.2022
4793 Smoke 27 1009 50 2500 0 0 02:36 15.03.2022
4794 Smoke 29 1008 45 3000 1.54 330 23:36 14.03.2022
4795 Smoke 29 1008 45 3000 1.54 350 23:18 14.03.2022
4796 Smoke 29 1009 32 3000 4.63 270 21:57 14.03.2022
4797 Smoke 31 1009 27 3000 0 0 21:20 14.03.2022
4798 Smoke 32 1010 23 3000 2.06 150 20:34 14.03.2022
4799 Smoke 32 1010 22 3000 0 0 19:47 14.03.2022
4800 Smoke 33 1010 22 3000 1.54 350 18:23 14.03.2022
4801 Smoke 32 1010 29 3000 2.57 10 17:43 14.03.2022
4802 Smoke 32 1010 33 3000 2.06 60 16:57 14.03.2022
4803 Smoke 33 1009 22 4000 4.12 330 15:29 14.03.2022
4804 Smoke 35 1008 17 5000 5.14 320 14:24 14.03.2022
4805 Smoke 38 1007 13 4000 5.14 280 11:36 14.03.2022
4806 Smoke 39 1008 14 4000 5.14 240 10:35 14.03.2022
4807 Smoke 39 1008 13 3500 4.63 220 09:38 14.03.2022
4808 Smoke 38 1009 12 3500 4.12 280 09:19 14.03.2022
4809 Smoke 39 1010 11 3500 3.6 60 08:46 14.03.2022
4810 Smoke 37 1012 12 3000 3.09 90 07:21 14.03.2022
4811 Smoke 30 1011 30 2500 2.06 190 04:27 14.03.2022
4812 Smoke 28 1010 39 3000 0 0 01:52 14.03.2022
4813 Smoke 28 1009 34 3000 2.06 190 00:38 14.03.2022
4814 Smoke 29 1009 32 3000 0 0 21:56 13.03.2022
4815 Smoke 30 1010 30 3000 0 0 21:27 13.03.2022
4816 Smoke 30 1010 28 3000 1.54 100 20:49 13.03.2022
4817 Smoke 30 1010 28 3000 1.54 50 20:26 13.03.2022
4818 Smoke 31 1010 23 3000 0 0 19:42 13.03.2022
4819 Smoke 31 1010 23 3000 0 0 19:23 13.03.2022
4820 Smoke 32 1010 20 3000 2.06 320 18:49 13.03.2022
4821 Smoke 33 1010 19 3000 3.09 330 18:26 13.03.2022
4822 Smoke 33 1010 19 3000 2.57 10 17:39 13.03.2022
4823 Smoke 33 1010 19 3000 0 0 16:48 13.03.2022
4824 Smoke 34 1009 17 3000 3.6 330 16:27 13.03.2022
4825 Smoke 34 1009 17 3000 4.12 350 15:43 13.03.2022
4826 Smoke 35 1008 17 3500 4.63 330 14:49 13.03.2022
4827 Smoke 36 1008 17 4000 5.66 320 13:29 13.03.2022
4828 Smoke 36 1007 19 4000 5.66 330 12:26 13.03.2022
4829 Smoke 37 1007 19 4000 6.17 310 11:45 13.03.2022
4830 Smoke 37 1008 16 3500 5.66 300 10:51 13.03.2022
4831 Smoke 37 1008 19 3500 4.63 300 10:30 13.03.2022
4832 Smoke 37 1009 25 3500 6.17 270 09:43 13.03.2022
4833 Smoke 37 1010 19 3500 5.14 300 08:51 13.03.2022
4834 Smoke 37 1010 19 3500 3.09 90 08:31 13.03.2022
4835 Smoke 35 1011 20 3500 3.09 90 07:37 13.03.2022
4836 Smoke 33 1012 25 2500 3.09 100 05:39 13.03.2022
4837 Haze 27 1009 61 2100 0 0 01:48 13.03.2022
4838 Haze 27 1008 74 2500 1.54 40 23:28 12.03.2022
4839 Haze 28 1009 69 3000 0 0 21:48 12.03.2022
4840 Haze 28 1010 69 3000 1.54 210 20:27 12.03.2022
4841 Haze 28 1010 74 3000 2.57 240 19:46 12.03.2022
4842 Haze 29 1010 61 3000 2.57 250 18:44 12.03.2022
4843 Haze 29 1010 61 3000 2.57 250 18:19 12.03.2022
4844 Smoke 31 1009 45 3000 2.06 30 16:32 12.03.2022
4845 Smoke 31 1009 45 3000 2.57 310 15:55 12.03.2022
4846 Smoke 31 1009 42 3000 3.09 300 15:22 12.03.2022
4847 Smoke 31 1008 55 3000 5.14 290 13:54 12.03.2022
4848 Smoke 33 1007 38 4000 4.12 230 12:33 12.03.2022
4849 Smoke 33 1007 38 4000 4.63 240 11:55 12.03.2022
4850 Smoke 34 1007 36 4000 4.63 240 11:34 12.03.2022
4851 Smoke 34 1008 36 4000 4.63 230 10:32 12.03.2022
4852 Smoke 36 1008 28 4000 4.12 230 09:44 12.03.2022
4853 Smoke 36 1010 20 3500 3.6 110 08:24 12.03.2022
4854 Smoke 34 1011 27 3000 1.54 40 06:44 12.03.2022
4855 Smoke 28 1009 42 3000 1.54 50 01:44 12.03.2022
4856 Smoke 28 1008 42 3000 2.06 90 23:46 11.03.2022
4857 Smoke 28 1008 44 3000 2.57 70 22:36 11.03.2022
4858 Smoke 28 1009 44 3000 2.06 70 21:24 11.03.2022
4859 Smoke 29 1009 42 3000 2.57 60 20:48 11.03.2022
4860 Smoke 29 1009 42 3000 3.6 80 20:26 11.03.2022
4861 Smoke 30 1010 42 3000 4.12 90 19:35 11.03.2022
4862 Smoke 31 1010 35 3000 5.14 90 18:33 11.03.2022
4863 Smoke 32 1010 37 3000 2.06 80 17:26 11.03.2022
4864 Smoke 32 1009 40 3000 3.09 50 16:25 11.03.2022
4865 Smoke 32 1008 40 3000 4.12 330 15:50 11.03.2022
4866 Smoke 33 1007 38 3500 4.12 310 13:45 11.03.2022
4867 Smoke 35 1006 29 3500 5.14 310 12:41 11.03.2022
4868 Smoke 35 1006 29 3500 5.14 310 12:19 11.03.2022
4869 Smoke 35 1007 31 3000 5.14 280 11:28 11.03.2022
4870 Smoke 36 1008 28 3000 6.17 250 09:36 11.03.2022
4871 Smoke 35 1010 31 3000 4.12 260 08:28 11.03.2022
4872 Smoke 36 1011 28 3000 3.09 280 07:48 11.03.2022
4873 Smoke 33 1012 33 2500 2.57 100 06:44 11.03.2022
4874 Smoke 29 1011 48 1800 2.06 200 04:44 11.03.2022
4875 Haze 28 1009 61 2500 0 0 01:48 11.03.2022
4876 Smoke 28 1009 65 2500 3.6 240 22:33 10.03.2022
4877 Smoke 29 1009 61 2500 1.54 310 21:58 10.03.2022
4878 Smoke 29 1009 58 2500 2.06 240 21:25 10.03.2022
4879 Smoke 30 1010 48 2500 0 0 20:37 10.03.2022
4880 Smoke 30 1010 48 3000 0 0 19:22 10.03.2022
4881 Smoke 30 1010 54 3000 2.06 330 17:55 10.03.2022
4882 Smoke 30 1010 54 3000 2.06 340 16:53 10.03.2022
4883 Smoke 32 1008 43 3000 4.12 330 15:34 10.03.2022
4884 Smoke 33 1007 40 3500 4.12 320 13:51 10.03.2022
4885 Smoke 34 1007 36 4000 6.17 280 12:43 10.03.2022
4886 Smoke 35 1007 31 3500 5.14 250 11:33 10.03.2022
4887 Smoke 34 1009 38 3000 4.63 270 09:54 10.03.2022
4888 Smoke 35 1010 26 2500 4.12 280 08:39 10.03.2022
4889 Smoke 30 1012 42 2500 2.57 90 05:48 10.03.2022
4890 Haze 27 1010 57 2200 2.06 40 03:22 10.03.2022
4891 Smoke 28 1009 57 2500 2.06 340 00:22 10.03.2022
4892 Smoke 28 1009 57 2500 0 0 22:43 09.03.2022
4893 Smoke 29 1009 51 2500 2.06 100 21:48 09.03.2022
4894 Smoke 29 1010 51 2500 2.57 120 20:53 09.03.2022
4895 Smoke 30 1010 42 2500 0 0 19:23 09.03.2022
4896 Smoke 31 1010 42 2500 2.06 340 17:28 09.03.2022
4897 Smoke 30 1010 45 2500 2.06 320 16:48 09.03.2022
4898 Smoke 31 1009 45 2500 3.6 320 15:41 09.03.2022
4899 Smoke 31 1009 48 2500 3.6 300 14:24 09.03.2022
4900 Smoke 31 1008 48 3000 4.63 310 13:38 09.03.2022
4901 Smoke 33 1007 43 4000 4.12 280 12:25 09.03.2022
4902 Smoke 33 1008 43 4000 4.63 290 11:46 09.03.2022
4903 Smoke 34 1008 36 3500 4.12 280 10:55 09.03.2022
4904 Smoke 36 1010 28 3000 3.09 70 09:28 09.03.2022
4905 Smoke 34 1011 31 3000 4.12 50 08:44 09.03.2022
4906 Smoke 30 1012 45 2500 2.57 60 05:56 09.03.2022
4907 Haze 27 1009 74 2500 1.54 340 00:58 09.03.2022
4908 Haze 27 1009 78 2500 0 0 23:48 08.03.2022
4909 Haze 27 1009 78 2500 2.57 290 22:46 08.03.2022
4910 Smoke 28 1009 51 3000 0 0 21:47 08.03.2022
4911 Smoke 29 1009 45 3000 0 0 21:19 08.03.2022
4912 Smoke 30 1010 45 3000 0 0 20:19 08.03.2022
4913 Smoke 30 1010 45 3000 2.06 90 18:57 08.03.2022
4914 Smoke 30 1010 45 3000 2.06 80 18:21 08.03.2022
4915 Smoke 31 1010 40 3000 3.09 340 16:40 08.03.2022
4916 Smoke 32 1008 43 3000 3.09 310 14:36 08.03.2022
4917 Smoke 33 1008 40 3000 3.6 320 13:39 08.03.2022
4918 Smoke 32 1007 45 3000 4.12 250 12:20 08.03.2022
4919 Smoke 33 1008 46 3000 4.12 260 11:42 08.03.2022
4920 Smoke 34 1009 33 3000 3.09 240 10:28 08.03.2022
4921 Smoke 34 1010 29 2500 3.09 90 08:56 08.03.2022
4922 Smoke 31 1012 37 2500 4.12 70 05:51 08.03.2022
4923 Smoke 28 1010 51 2500 3.09 30 01:53 08.03.2022
4924 Haze 28 1009 65 2500 3.6 290 22:41 07.03.2022
4925 Haze 28 1010 69 2500 1.54 320 21:36 07.03.2022
4926 Haze 28 1010 74 2500 3.6 280 20:56 07.03.2022
4927 Smoke 30 1011 48 2500 2.06 170 20:29 07.03.2022
4928 Smoke 30 1011 45 2500 1.54 140 19:48 07.03.2022
4929 Smoke 29 1011 54 2500 1.54 120 18:57 07.03.2022
4930 Smoke 30 1011 48 2500 1.54 100 18:29 07.03.2022
4931 Haze 29 1010 58 2500 1.03 0 17:24 07.03.2022
4932 Haze 29 1010 58 2500 0 0 16:41 07.03.2022
4933 Smoke 29 1009 58 2500 2.06 290 14:49 07.03.2022
4934 Smoke 30 1008 45 3000 5.14 280 12:34 07.03.2022
4935 Smoke 30 1008 54 3000 5.14 250 11:26 07.03.2022
4936 Smoke 31 1008 55 3000 4.12 250 10:30 07.03.2022
4937 Smoke 32 1010 40 2500 3.09 260 08:19 07.03.2022
4938 Smoke 27 1010 47 3000 1.54 270 02:25 07.03.2022
4939 Smoke 27 1009 57 3000 3.09 290 00:20 07.03.2022
4940 Smoke 28 1009 42 3000 0 0 23:22 06.03.2022
4941 Smoke 28 1010 51 3000 0 0 22:26 06.03.2022
4942 Smoke 27 1010 47 3000 0 0 21:24 06.03.2022
4943 Smoke 29 1010 39 3000 0 0 20:29 06.03.2022
4944 Smoke 30 1010 35 3000 0 0 19:39 06.03.2022
4945 Smoke 30 1011 32 3000 1.54 30 18:50 06.03.2022
4946 Smoke 30 1011 35 3000 1.54 40 17:46 06.03.2022
4947 Smoke 30 1011 32 3000 3.09 40 17:19 06.03.2022
4948 Smoke 30 1010 37 3000 2.06 350 16:28 06.03.2022
4949 Smoke 31 1009 35 3000 3.09 350 15:26 06.03.2022
4950 Smoke 31 1008 37 3000 4.12 300 14:42 06.03.2022
4951 Smoke 31 1008 40 3000 4.12 310 13:49 06.03.2022
4952 Smoke 31 1008 51 2500 3.6 280 12:40 06.03.2022
4953 Smoke 31 1008 58 2500 5.14 310 11:45 06.03.2022
4954 Smoke 36 1008 28 3000 5.66 260 10:40 06.03.2022
4955 Smoke 37 1009 28 3000 4.12 270 09:18 06.03.2022
4956 Smoke 36 1010 20 3000 4.12 250 08:28 06.03.2022
4957 Smoke 35 1011 23 2500 4.12 270 07:25 06.03.2022
4958 Haze 26 1009 57 3000 0 0 02:22 06.03.2022
4959 Smoke 26 1009 61 3000 0 0 00:36 06.03.2022
4960 Smoke 26 1009 57 3000 0 0 00:18 06.03.2022
4961 Smoke 26 1009 47 3000 2.57 280 23:19 05.03.2022
4962 Smoke 27 1009 41 3000 0 0 22:34 05.03.2022
4963 Smoke 27 1009 44 3000 0 0 21:29 05.03.2022
4964 Smoke 28 1010 36 3000 2.57 130 20:32 05.03.2022
4965 Smoke 29 1011 32 3000 2.06 160 19:19 05.03.2022
4966 Smoke 29 1011 32 3000 3.09 100 18:39 05.03.2022
4967 Smoke 30 1011 28 3000 2.57 30 17:34 05.03.2022
4968 Smoke 30 1011 28 3000 2.57 30 17:34 05.03.2022
4969 Smoke 29 1011 37 3000 3.09 20 16:19 05.03.2022
4970 Smoke 29 1010 39 3000 4.63 340 15:20 05.03.2022
4971 Smoke 29 1010 39 3000 4.63 340 15:20 05.03.2022
4972 Smoke 29 1010 45 3000 4.12 320 14:36 05.03.2022
4973 Smoke 30 1009 45 3500 4.63 300 13:42 05.03.2022
4974 Smoke 32 1009 37 4000 6.17 300 12:45 05.03.2022
4975 Smoke 33 1009 29 4000 5.14 250 11:21 05.03.2022
4976 Smoke 33 1009 31 3500 4.63 250 10:52 05.03.2022
4977 Smoke 32 1011 35 3000 4.12 260 09:33 05.03.2022
4978 Smoke 32 1011 37 3000 4.12 250 08:28 05.03.2022
4979 Smoke 34 1013 18 3000 3.09 190 07:22 05.03.2022
4980 Smoke 29 1013 32 2500 2.57 100 05:39 05.03.2022
4981 Smoke 25 1010 44 3000 0 0 00:49 05.03.2022
4982 Smoke 26 1010 34 3000 1.54 290 22:58 04.03.2022
4983 Smoke 26 1010 34 3000 1.54 290 22:38 04.03.2022
4984 Smoke 28 1011 30 3000 1.54 200 21:43 04.03.2022
4985 Smoke 28 1011 23 3000 0 0 20:45 04.03.2022
4986 Smoke 28 1012 24 3000 0 0 19:38 04.03.2022
4987 Smoke 29 1012 26 3000 0 0 18:58 04.03.2022
4988 Smoke 31 1012 16 3000 1.54 30 18:35 04.03.2022
4989 Smoke 29 1012 26 3000 3.6 30 17:29 04.03.2022
4990 Smoke 30 1011 28 3000 4.63 330 15:58 04.03.2022
4991 Smoke 30 1010 32 3000 4.12 320 15:27 04.03.2022
4992 Smoke 32 1010 29 4000 5.14 320 13:36 04.03.2022
4993 Smoke 33 1009 22 4000 3.6 310 12:48 04.03.2022
4994 Smoke 35 1010 21 5000 7.2 320 11:37 04.03.2022
4995 Smoke 35 1010 20 4000 6.69 300 10:26 04.03.2022
4996 Smoke 36 1011 14 3500 4.63 300 09:28 04.03.2022
4997 Smoke 36 1013 15 3500 2.57 360 07:49 04.03.2022
4998 Smoke 33 1014 19 3000 2.57 310 06:26 04.03.2022
4999 Smoke 28 1012 26 2500 1.54 20 02:52 04.03.2022
5000 Smoke 29 1011 28 2500 2.06 330 23:43 03.03.2022
5001 Smoke 28 1012 36 2500 0 0 22:18 03.03.2022
5002 Smoke 28 1012 42 2500 0 0 21:36 03.03.2022
5003 Smoke 28 1013 44 2500 0 0 20:50 03.03.2022
5004 Smoke 28 1013 39 2500 1.54 40 19:42 03.03.2022
5005 Smoke 30 1013 35 2500 4.12 330 18:44 03.03.2022
5006 Smoke 30 1013 37 2500 3.6 340 17:43 03.03.2022
5007 Smoke 31 1013 37 2500 2.06 20 17:24 03.03.2022
5008 Smoke 30 1011 42 2500 3.09 340 15:47 03.03.2022
5009 Smoke 30 1010 48 2500 1.54 290 14:52 03.03.2022
5010 Smoke 31 1010 42 2500 3.09 310 14:32 03.03.2022
5011 Smoke 33 1009 33 3000 6.17 310 12:44 03.03.2022
5012 Smoke 34 1009 29 3000 6.17 280 11:39 03.03.2022
5013 Smoke 33 1009 38 3000 5.14 270 10:40 03.03.2022
5014 Smoke 35 1012 20 2500 6.17 130 08:45 03.03.2022
5015 Smoke 34 1013 26 2500 4.63 50 06:58 03.03.2022
5016 Smoke 33 1013 27 2100 3.09 40 06:33 03.03.2022
5017 Smoke 25 1010 53 2500 0 0 01:21 03.03.2022
5018 Smoke 26 1010 50 2500 1.54 30 23:28 02.03.2022
5019 Smoke 26 1010 50 2500 0 0 22:49 02.03.2022
5020 Smoke 27 1011 47 2500 0 0 21:25 02.03.2022
5021 Smoke 28 1011 42 3000 0 0 20:40 02.03.2022
5022 Smoke 28 1012 44 3000 0 0 19:56 02.03.2022
5023 Smoke 28 1012 44 3000 0 0 19:56 02.03.2022
5024 Smoke 30 1012 37 3000 2.06 150 19:33 02.03.2022
5025 Smoke 29 1012 37 3000 0 0 18:44 02.03.2022
5026 Smoke 30 1012 32 3000 2.57 70 17:57 02.03.2022
5027 Smoke 31 1011 29 3000 2.06 40 17:21 02.03.2022
5028 Smoke 31 1011 29 3000 2.06 40 16:42 02.03.2022
5029 Smoke 32 1009 29 3000 4.12 330 14:43 02.03.2022
5030 Smoke 33 1009 31 3000 5.14 330 13:24 02.03.2022
5031 Smoke 32 1009 31 2500 6.17 320 12:42 02.03.2022
5032 Smoke 33 1009 35 2500 4.12 300 11:40 02.03.2022
5033 Smoke 33 1010 35 2500 6.17 300 11:21 02.03.2022
5034 Smoke 33 1011 38 2500 5.14 240 09:41 02.03.2022
5035 Smoke 33 1012 43 2500 5.14 260 08:54 02.03.2022
5036 Smoke 34 1013 26 2500 4.12 270 07:38 02.03.2022
5037 Smoke 33 1014 29 2500 3.09 30 06:51 02.03.2022
5038 Haze 25 1011 61 2500 0 0 01:32 02.03.2022
5039 Haze 24 1011 73 2500 0 0 23:49 01.03.2022
5040 Haze 25 1011 65 2500 0 0 22:45 01.03.2022
5041 Smoke 25 1011 69 2500 0 0 21:58 01.03.2022
5042 Smoke 26 1011 65 3000 0 0 21:24 01.03.2022
5043 Smoke 26 1012 57 3000 0 0 20:30 01.03.2022
5044 Smoke 26 1012 57 3000 0 0 20:30 01.03.2022
5045 Smoke 27 1013 54 3000 0 0 19:28 01.03.2022
5046 Smoke 27 1013 54 3000 2.06 330 18:49 01.03.2022
5047 Smoke 28 1013 51 3000 1.54 310 18:19 01.03.2022
5048 Smoke 28 1013 51 3000 2.06 330 17:19 01.03.2022
5049 Smoke 29 1012 42 3000 2.57 320 16:31 01.03.2022
5050 Smoke 29 1011 42 3500 2.06 320 15:38 01.03.2022
5051 Smoke 30 1011 39 3500 3.09 310 14:34 01.03.2022
5052 Smoke 30 1010 39 4000 4.63 290 13:52 01.03.2022
5053 Smoke 32 1010 35 4000 4.12 330 13:24 01.03.2022
5054 Smoke 32 1011 35 3000 4.63 320 12:30 01.03.2022
5055 Smoke 31 1011 40 3000 4.63 250 10:34 01.03.2022
5056 Smoke 32 1013 40 2500 4.12 280 08:41 01.03.2022
5057 Smoke 31 1014 42 2500 4.12 260 07:52 01.03.2022
5058 Smoke 29 1015 39 2200 0 0 05:54 01.03.2022
5059 Smoke 25 1012 53 2500 2.06 350 02:33 01.03.2022
5060 Smoke 25 1012 53 2500 0 0 00:34 01.03.2022
5061 Smoke 25 1012 57 2500 1.54 30 23:30 28.02.2022
5062 Smoke 25 1012 61 2500 3.09 340 22:18 28.02.2022
5063 Smoke 25 1013 61 2500 2.57 350 21:37 28.02.2022
5064 Smoke 27 1013 50 3000 2.57 310 19:56 28.02.2022
5065 Smoke 27 1013 50 3000 2.57 340 19:36 28.02.2022
5066 Smoke 27 1014 54 3000 3.09 340 18:43 28.02.2022
5067 Smoke 28 1013 44 3000 2.06 350 17:33 28.02.2022
5068 Smoke 28 1012 44 3000 0 0 16:34 28.02.2022
5069 Smoke 29 1011 42 3000 3.09 300 15:24 28.02.2022
5070 Smoke 31 1011 33 3000 3.6 290 14:32 28.02.2022
5071 Smoke 31 1010 30 3000 3.6 270 13:48 28.02.2022
5072 Smoke 33 1010 22 3000 4.12 300 12:48 28.02.2022
5073 Smoke 34 1010 18 3000 5.14 300 11:58 28.02.2022
5074 Smoke 33 1011 35 3000 5.14 260 10:49 28.02.2022
5075 Smoke 32 1011 37 3000 4.63 240 10:21 28.02.2022
5076 Smoke 31 1012 42 3000 4.63 270 09:33 28.02.2022
5077 Smoke 31 1013 40 3000 4.12 280 08:44 28.02.2022
5078 Smoke 31 1014 40 3000 2.57 270 07:35 28.02.2022
5079 Smoke 27 1014 39 2500 1.54 30 05:21 28.02.2022
5080 Smoke 25 1014 47 2500 1.54 100 04:27 28.02.2022
5081 Smoke 23 1011 49 3000 1.54 270 23:45 27.02.2022
5082 Smoke 23 1012 43 3000 3.6 300 22:36 27.02.2022
5083 Smoke 24 1012 43 3000 3.6 20 21:52 27.02.2022
5084 Smoke 25 1012 41 3500 4.12 340 21:27 27.02.2022
5085 Smoke 26 1012 36 3500 3.6 30 20:37 27.02.2022
5086 Smoke 27 1013 32 3500 2.57 40 19:58 27.02.2022
5087 Smoke 28 1013 30 3500 3.6 50 19:27 27.02.2022
5088 Smoke 28 1013 30 3500 3.6 50 19:27 27.02.2022
5089 Smoke 28 1013 32 3500 3.09 20 18:48 27.02.2022
5090 Smoke 29 1013 37 3500 2.57 350 17:57 27.02.2022
5091 Smoke 28 1013 44 3500 2.57 20 17:20 27.02.2022
5092 Smoke 29 1013 37 3500 3.6 330 16:22 27.02.2022
5093 Smoke 31 1011 35 4000 4.12 310 13:49 27.02.2022
5094 Smoke 32 1011 37 4000 3.6 290 12:35 27.02.2022
5095 Smoke 32 1011 37 3500 4.12 290 11:28 27.02.2022
5096 Smoke 32 1012 43 3000 5.14 260 10:24 27.02.2022
5097 Smoke 32 1013 43 3000 5.14 260 09:51 27.02.2022
5098 Smoke 32 1013 37 3000 4.63 240 09:21 27.02.2022
5099 Smoke 31 1014 42 3000 4.63 250 08:38 27.02.2022
5100 Smoke 27 1015 34 2500 2.06 280 05:41 27.02.2022
5101 Smoke 24 1013 46 2500 0 0 02:57 27.02.2022
5102 Smoke 25 1012 53 3000 2.06 310 23:36 26.02.2022
5103 Smoke 25 1012 36 3000 1.54 300 22:42 26.02.2022
5104 Smoke 26 1013 25 3000 2.06 350 21:26 26.02.2022
5105 Smoke 26 1013 44 3000 0 0 20:37 26.02.2022
5106 Smoke 25 1013 38 3000 0 0 20:37 26.02.2022
5107 Smoke 27 1013 24 3000 0 0 19:54 26.02.2022
5108 Smoke 28 1013 23 3000 0 0 19:33 26.02.2022
5109 Smoke 28 1014 28 3000 1.54 290 18:31 26.02.2022
5110 Smoke 28 1013 23 3000 2.06 350 17:31 26.02.2022
5111 Smoke 28 1013 28 3000 2.57 340 16:38 26.02.2022
5112 Smoke 28 1012 42 3500 3.09 310 15:28 26.02.2022
5113 Smoke 29 1012 39 3500 2.57 310 14:59 26.02.2022
5114 Smoke 29 1011 42 3500 4.12 310 14:41 26.02.2022
5115 Smoke 30 1011 39 4000 3.6 310 13:46 26.02.2022
5116 Smoke 32 1011 31 4000 3.6 330 12:53 26.02.2022
5117 Smoke 32 1011 33 4000 5.66 280 11:50 26.02.2022
5118 Smoke 32 1011 40 4000 5.66 290 11:25 26.02.2022
5119 Smoke 31 1013 51 3000 5.14 290 09:31 26.02.2022
5120 Smoke 31 1014 40 3000 5.14 280 08:26 26.02.2022
5121 Smoke 25 1014 50 2500 0 0 04:23 26.02.2022
5122 Smoke 25 1011 47 2500 0 0 23:50 25.02.2022
5123 Smoke 24 1011 57 2500 0 0 22:31 25.02.2022
5124 Haze 25 1012 57 2500 0 0 21:31 25.02.2022
5125 Haze 25 1012 61 2500 2.57 10 20:47 25.02.2022
5126 Haze 26 1012 57 2500 2.57 340 20:25 25.02.2022
5127 Haze 26 1013 65 2500 0 0 17:54 25.02.2022
5128 Smoke 27 1012 61 2500 2.57 330 16:48 25.02.2022
5129 Smoke 27 1012 61 2500 2.06 360 15:55 25.02.2022
5130 Smoke 27 1011 57 2500 2.57 300 15:23 25.02.2022
5131 Smoke 28 1011 51 2500 3.09 300 14:55 25.02.2022
5132 Smoke 29 1011 45 3500 4.12 320 14:24 25.02.2022
5133 Smoke 30 1011 39 3500 4.63 310 13:30 25.02.2022
5134 Smoke 31 1011 40 3500 5.66 280 12:21 25.02.2022
5135 Smoke 32 1011 35 3500 4.63 290 11:21 25.02.2022
5136 Smoke 32 1012 43 3000 5.66 260 10:23 25.02.2022
5137 Smoke 32 1012 40 3000 5.66 250 09:45 25.02.2022
5138 Smoke 31 1014 51 3000 5.66 250 08:22 25.02.2022
5139 Smoke 30 1015 42 2500 5.14 250 07:31 25.02.2022
5140 Smoke 28 1015 42 2200 1.54 200 05:42 25.02.2022
5141 Haze 23 1013 60 2500 0 0 02:46 25.02.2022
5142 Smoke 25 1012 50 3000 0 0 22:47 24.02.2022
5143 Smoke 25 1012 50 3000 0 0 21:51 24.02.2022
5144 Smoke 26 1013 44 3000 1.54 130 21:30 24.02.2022
5145 Smoke 27 1013 41 3000 1.54 30 20:47 24.02.2022
5146 Smoke 27 1013 54 3000 2.57 360 19:32 24.02.2022
5147 Smoke 28 1013 47 3000 2.57 340 18:21 24.02.2022
5148 Smoke 28 1013 47 3000 3.09 350 17:58 24.02.2022
5149 Smoke 28 1014 51 3000 2.06 320 17:33 24.02.2022
5150 Smoke 29 1013 45 3000 2.06 360 16:28 24.02.2022
5151 Smoke 29 1013 42 3000 1.03 0 15:44 24.02.2022
5152 Smoke 30 1012 39 3500 3.09 310 14:50 24.02.2022
5153 Smoke 30 1012 42 3500 3.09 310 14:19 24.02.2022
5154 Smoke 31 1012 37 3500 4.12 300 13:39 24.02.2022
5155 Smoke 31 1012 37 3500 4.12 300 13:39 24.02.2022
5156 Smoke 32 1011 40 3000 5.14 310 11:56 24.02.2022
5157 Smoke 31 1012 48 2500 5.14 240 10:39 24.02.2022
5158 Smoke 30 1014 58 2500 3.09 250 08:46 24.02.2022
5159 Smoke 29 1015 61 2500 3.09 270 08:22 24.02.2022
5160 Smoke 28 1016 57 2200 2.57 270 05:52 24.02.2022
5161 Haze 24 1012 83 3000 2.06 350 00:32 24.02.2022
5162 Haze 24 1013 73 3000 0 0 22:38 23.02.2022
5163 Haze 24 1013 64 3000 0 0 21:34 23.02.2022
5164 Haze 26 1013 61 3000 0 0 20:30 23.02.2022
5165 Smoke 26 1013 61 3000 0 0 19:44 23.02.2022
5166 Smoke 27 1013 57 3000 0 0 18:32 23.02.2022
5167 Smoke 28 1013 51 3000 2.06 350 17:21 23.02.2022
5168 Smoke 30 1011 42 4000 3.09 300 14:34 23.02.2022
5169 Smoke 32 1010 43 5000 4.63 300 12:37 23.02.2022
5170 Smoke 32 1010 43 5000 5.14 270 11:23 23.02.2022
5171 Smoke 32 1011 43 4000 5.66 250 10:31 23.02.2022
5172 Smoke 31 1012 48 3000 5.66 290 08:58 23.02.2022
5173 Smoke 30 1013 51 3000 5.66 240 07:57 23.02.2022
5174 Smoke 24 1013 57 2500 1.54 120 03:48 23.02.2022
5175 Haze 23 1011 64 3000 0 0 00:26 23.02.2022
5176 Haze 23 1011 68 3000 0 0 23:35 22.02.2022
5177 Smoke 23 1011 60 3000 0 0 22:31 22.02.2022
5178 Smoke 24 1012 60 3000 0 0 21:49 22.02.2022
5179 Smoke 24 1012 57 3000 0 0 21:28 22.02.2022
5180 Smoke 24 1012 57 3000 0 0 20:51 22.02.2022
5181 Smoke 24 1012 57 3000 0 0 20:29 22.02.2022
5182 Smoke 24 1012 57 3000 0 0 20:29 22.02.2022
5183 Haze 24 1013 64 3000 1.54 110 19:36 22.02.2022
5184 Haze 24 1013 64 3000 1.54 110 19:18 22.02.2022
5185 Haze 25 1013 78 3000 2.57 350 17:46 22.02.2022
5186 Haze 25 1012 78 3000 4.12 330 17:20 22.02.2022
5187 Haze 25 1011 78 3000 3.09 330 16:36 22.02.2022
5188 Haze 25 1011 83 3000 4.12 320 15:39 22.02.2022
5189 Haze 26 1010 73 4000 6.17 310 14:44 22.02.2022
5190 Smoke 30 1009 45 4000 5.66 290 12:23 22.02.2022
5191 Smoke 30 1009 48 3500 5.66 260 10:39 22.02.2022
5192 Smoke 31 1010 33 3500 4.63 270 08:40 22.02.2022
5193 Smoke 32 1012 20 3000 2.57 260 07:26 22.02.2022
5194 Smoke 25 1012 38 1700 0 0 04:31 22.02.2022
5195 Haze 22 1010 56 2500 2.06 100 01:44 22.02.2022
5196 Haze 22 1010 56 2500 2.06 100 01:44 22.02.2022
5197 Smoke 23 1010 60 3000 0 0 22:44 21.02.2022
5198 Smoke 24 1010 57 3000 0 0 21:31 21.02.2022
5199 Smoke 25 1011 57 3000 1.54 0 20:35 21.02.2022
5200 Smoke 26 1011 44 3000 1.54 10 18:46 21.02.2022
5201 Smoke 27 1010 44 3000 2.57 360 16:56 21.02.2022
5202 Smoke 27 1009 44 4000 3.6 300 14:52 21.02.2022
5203 Smoke 28 1009 39 4000 4.12 320 14:21 21.02.2022
5204 Smoke 29 1008 39 4000 5.66 300 12:59 21.02.2022
5205 Smoke 30 1008 37 4000 5.66 310 12:23 21.02.2022
5206 Smoke 31 1008 33 4000 5.66 290 10:58 21.02.2022
5207 Smoke 31 1009 37 3000 5.66 260 09:34 21.02.2022
5208 Smoke 25 1011 47 2500 1.54 100 04:52 21.02.2022
5209 Smoke 22 1009 60 3000 0 0 23:32 20.02.2022
5210 Smoke 24 1009 53 3000 0 0 22:20 20.02.2022
5211 Smoke 24 1010 57 3000 0 0 21:42 20.02.2022
5212 Smoke 24 1010 60 3000 0 0 20:53 20.02.2022
5213 Smoke 25 1010 53 3000 3.09 120 20:33 20.02.2022
5214 Smoke 25 1011 50 3000 1.54 30 19:31 20.02.2022
5215 Smoke 25 1011 50 3000 1.54 30 19:31 20.02.2022
5216 Smoke 26 1011 47 3000 2.06 350 18:50 20.02.2022
5217 Smoke 26 1011 50 3000 2.06 340 18:31 20.02.2022
5218 Smoke 26 1011 53 3000 2.06 340 17:47 20.02.2022
5219 Smoke 27 1009 54 3000 3.6 320 15:32 20.02.2022
5220 Smoke 27 1009 47 3000 3.6 300 14:41 20.02.2022
5221 Smoke 30 1008 37 4000 5.14 300 13:23 20.02.2022
5222 Smoke 30 1008 39 4000 5.14 290 12:25 20.02.2022
5223 Smoke 32 1009 37 4000 5.14 300 10:21 20.02.2022
5224 Smoke 31 1010 42 4000 4.63 290 09:53 20.02.2022
5225 Smoke 30 1012 39 3000 3.09 260 07:45 20.02.2022
5226 Haze 23 1010 73 3000 1.54 350 00:54 20.02.2022
5227 Haze 23 1010 78 3000 2.57 20 00:29 20.02.2022
5228 Haze 24 1011 78 3000 2.57 350 22:44 19.02.2022
5229 Haze 24 1011 78 3000 2.57 20 22:21 19.02.2022
5230 Haze 24 1012 88 3000 2.57 310 20:51 19.02.2022
5231 Haze 25 1012 83 3000 2.06 330 19:48 19.02.2022
5232 Haze 25 1012 83 3000 2.06 320 19:25 19.02.2022
5233 Haze 25 1012 78 3000 2.57 320 18:32 19.02.2022
5234 Haze 26 1012 65 3000 2.06 300 17:33 19.02.2022
5235 Smoke 27 1011 54 3000 0 0 16:22 19.02.2022
5236 Smoke 28 1010 44 3500 3.09 260 14:56 19.02.2022
5237 Smoke 28 1010 47 3500 4.12 280 14:37 19.02.2022
5238 Smoke 30 1010 42 3500 5.14 280 12:50 19.02.2022
5239 Smoke 30 1010 42 3500 4.63 260 11:37 19.02.2022
5240 Smoke 30 1011 48 3000 4.12 260 09:45 19.02.2022
5241 Smoke 29 1013 39 2500 3.09 270 06:54 19.02.2022
5242 Haze 23 1011 64 2500 0 0 02:52 19.02.2022
5243 Smoke 23 1009 60 3000 0 0 23:29 18.02.2022
5244 Smoke 23 1010 60 3000 0 0 21:49 18.02.2022
5245 Smoke 24 1010 60 3000 0 0 20:42 18.02.2022
5246 Smoke 24 1010 60 3000 0 0 19:52 18.02.2022
5247 Smoke 25 1010 57 4000 0 0 18:50 18.02.2022
5248 Smoke 26 1010 53 4000 2.06 340 18:20 18.02.2022
5249 Smoke 26 1010 47 4000 1.03 0 17:38 18.02.2022
5250 Smoke 27 1008 41 4000 3.09 280 14:50 18.02.2022
5251 Smoke 28 1008 34 5000 4.12 260 13:55 18.02.2022
5252 Smoke 29 1008 34 4000 3.6 280 12:53 18.02.2022
5253 Smoke 29 1008 34 4000 3.6 270 11:58 18.02.2022
5254 Smoke 29 1008 34 4000 3.6 270 11:58 18.02.2022
5255 Smoke 29 1008 34 4000 3.6 270 11:21 18.02.2022
5256 Smoke 29 1009 39 4000 3.6 290 09:52 18.02.2022
5257 Smoke 29 1011 37 2500 3.09 260 06:54 18.02.2022
5258 Haze 25 1011 73 2100 1.03 230 05:39 18.02.2022
5259 Haze 22 1007 78 3000 0 0 22:57 17.02.2022
5260 Haze 23 1008 73 4000 0 0 21:44 17.02.2022
5261 Haze 23 1008 73 4000 0 0 21:19 17.02.2022
5262 Haze 23 1008 68 4000 0 0 20:36 17.02.2022
5263 Haze 24 1008 69 4000 2.06 10 19:48 17.02.2022
5264 Haze 25 1008 61 4000 0 0 18:41 17.02.2022
5265 Haze 25 1008 61 4000 0 0 17:50 17.02.2022
5266 Smoke 25 1007 61 4000 1.54 300 16:20 17.02.2022
5267 Smoke 25 1006 57 4000 2.57 290 15:30 17.02.2022
5268 Smoke 26 1006 53 4000 4.12 260 14:25 17.02.2022
5269 Smoke 27 1005 57 5000 4.63 260 12:35 17.02.2022
5270 Smoke 27 1006 57 5000 4.63 260 11:21 17.02.2022
5271 Haze 28 1008 61 3500 3.6 280 08:45 17.02.2022
5272 Haze 20 1007 83 2500 0 0 00:31 17.02.2022
5273 Haze 21 1007 78 2500 0 0 22:59 16.02.2022
5274 Haze 21 1008 78 3000 0 0 21:25 16.02.2022
5275 Haze 22 1008 78 3000 0 0 19:43 16.02.2022
5276 Haze 23 1008 68 3000 2.06 330 18:38 16.02.2022
5277 Haze 23 1008 68 3000 0 0 17:46 16.02.2022
5278 Haze 24 1007 64 3000 3.09 310 15:36 16.02.2022
5279 Haze 24 1007 64 4000 3.09 300 14:57 16.02.2022
5280 Smoke 27 1006 61 5000 6.17 280 12:35 16.02.2022
5281 Smoke 27 1006 65 5000 6.17 270 11:55 16.02.2022
5282 Smoke 27 1006 61 5000 6.69 250 11:24 16.02.2022
5283 Smoke 27 1007 61 5000 5.14 300 10:30 16.02.2022
5284 Haze 26 1012 61 3500 5.66 280 06:57 16.02.2022
5285 Haze 24 1011 69 2500 1.54 320 04:43 16.02.2022
5286 Haze 21 1009 68 3000 0 0 23:44 15.02.2022
5287 Haze 22 1010 68 3000 1.54 330 22:28 15.02.2022
5288 Smoke 22 1010 64 3000 1.54 0 21:46 15.02.2022
5289 Smoke 22 1010 64 3000 0 0 21:27 15.02.2022
5290 Smoke 23 1010 56 3000 0 0 20:55 15.02.2022
5291 Smoke 22 1010 60 3000 1.54 0 19:57 15.02.2022
5292 Smoke 23 1011 56 3000 1.54 0 18:52 15.02.2022
5293 Smoke 23 1011 53 3000 0 0 18:20 15.02.2022
5294 Smoke 24 1011 53 3000 1.54 360 17:49 15.02.2022
5295 Smoke 24 1010 53 3500 2.57 320 16:32 15.02.2022
5296 Smoke 24 1010 57 4000 3.6 310 15:26 15.02.2022
5297 Smoke 27 1009 47 5000 5.14 300 13:27 15.02.2022
5298 Smoke 28 1009 36 5000 4.63 300 11:58 15.02.2022
5299 Smoke 27 1009 44 5000 5.14 300 10:59 15.02.2022
5300 Smoke 27 1011 57 4000 5.14 310 09:31 15.02.2022
5301 Smoke 27 1013 54 3500 5.14 300 06:52 15.02.2022
5302 Haze 23 1012 73 2500 2.57 350 03:55 15.02.2022
5303 Haze 24 1010 64 2500 2.57 330 22:36 14.02.2022
5304 Smoke 24 1011 57 2500 1.54 20 21:35 14.02.2022
5305 Smoke 25 1011 61 3000 3.09 310 20:37 14.02.2022
5306 Smoke 25 1011 38 3000 1.54 220 19:34 14.02.2022
5307 Smoke 26 1011 36 3000 0 0 18:42 14.02.2022
5308 Smoke 26 1011 38 3500 0 0 17:58 14.02.2022
5309 Smoke 26 1011 36 3500 1.54 50 17:25 14.02.2022
5310 Smoke 27 1010 32 3500 3.09 340 16:19 14.02.2022
5311 Smoke 29 1009 28 5000 6.69 360 13:54 14.02.2022
5312 Smoke 30 1009 28 5000 5.66 330 13:26 14.02.2022
5313 Smoke 31 1009 25 5000 5.66 320 12:33 14.02.2022
5314 Smoke 31 1009 25 5000 5.66 300 11:54 14.02.2022
5315 Smoke 31 1009 25 5000 5.66 300 11:54 14.02.2022
5316 Smoke 31 1009 25 4000 6.17 300 10:43 14.02.2022
5317 Smoke 31 1011 23 3500 4.12 280 08:45 14.02.2022
5318 Smoke 30 1012 30 3000 3.09 40 07:31 14.02.2022
5319 Haze 23 1009 78 2200 0 0 01:18 14.02.2022
5320 Haze 23 1010 83 2500 0 0 22:42 13.02.2022
5321 Haze 24 1010 78 2500 0 0 22:24 13.02.2022
5322 Haze 24 1010 73 2500 0 0 21:32 13.02.2022
5323 Haze 25 1011 69 2500 1.54 10 20:35 13.02.2022
5324 Haze 25 1011 69 2500 0 0 19:31 13.02.2022
5325 Haze 25 1011 73 2500 2.06 40 18:49 13.02.2022
5326 Haze 25 1011 73 2500 2.57 30 18:28 13.02.2022
5327 Haze 26 1009 61 2500 3.6 310 15:54 13.02.2022
5328 Haze 26 1009 65 2500 3.09 320 15:24 13.02.2022
5329 Smoke 27 1008 61 3000 5.14 300 14:31 13.02.2022
5330 Smoke 29 1007 45 3000 5.66 270 12:51 13.02.2022
5331 Smoke 32 1008 33 3000 4.12 280 11:44 13.02.2022
5332 Smoke 30 1008 48 3000 5.66 240 10:33 13.02.2022
5333 Smoke 30 1009 51 2800 5.14 260 09:46 13.02.2022
5334 Smoke 30 1011 39 2200 2.06 280 07:49 13.02.2022
5335 Haze 23 1010 64 2500 0 0 00:35 13.02.2022
5336 Smoke 24 1010 57 2500 0 0 23:42 12.02.2022
5337 Smoke 24 1010 57 2500 0 0 22:33 12.02.2022
5338 Smoke 24 1011 53 2500 0 0 21:30 12.02.2022
5339 Smoke 25 1011 47 2500 0 0 20:47 12.02.2022
5340 Smoke 25 1012 50 2500 2.06 80 19:35 12.02.2022
5341 Smoke 26 1012 47 2500 2.06 100 18:53 12.02.2022
5342 Smoke 25 1012 53 2500 0 0 18:35 12.02.2022
5343 Smoke 26 1012 47 2500 3.6 340 17:20 12.02.2022
5344 Smoke 27 1011 41 2500 2.06 330 16:29 12.02.2022
5345 Smoke 27 1011 41 2500 3.09 310 15:51 12.02.2022
5346 Smoke 27 1010 47 3000 3.09 300 14:44 12.02.2022
5347 Smoke 28 1010 42 3000 4.63 330 14:24 12.02.2022
5348 Smoke 30 1010 37 3000 5.66 280 11:18 12.02.2022
5349 Smoke 31 1011 37 3000 5.14 260 09:51 12.02.2022
5350 Smoke 31 1011 40 3000 4.63 270 09:27 12.02.2022
5351 Smoke 32 1012 27 3000 4.63 270 08:45 12.02.2022
5352 Smoke 28 1014 34 2500 4.12 60 05:40 12.02.2022
5353 Smoke 25 1013 41 2500 3.6 50 04:33 12.02.2022
5354 Smoke 23 1012 53 2500 2.57 100 02:18 12.02.2022
5355 Smoke 24 1011 50 2500 0 0 22:55 11.02.2022
5356 Smoke 25 1011 47 3000 0 0 22:20 11.02.2022
5357 Smoke 25 1012 44 3000 0 0 20:52 11.02.2022
5358 Smoke 26 1012 41 3000 0 0 19:50 11.02.2022
5359 Smoke 26 1012 41 3000 3.09 350 19:27 11.02.2022
5360 Smoke 27 1013 36 3000 3.6 360 18:28 11.02.2022
5361 Smoke 28 1012 34 3000 3.09 350 17:26 11.02.2022
5362 Smoke 29 1012 32 3000 5.66 20 16:26 11.02.2022
5363 Smoke 29 1011 39 3000 3.09 320 14:59 11.02.2022
5364 Smoke 29 1011 42 3500 3.09 330 14:37 11.02.2022
5365 Smoke 29 1011 42 3500 4.12 330 14:18 11.02.2022
5366 Smoke 29 1010 39 4000 4.12 330 13:40 11.02.2022
5367 Smoke 30 1010 39 4000 5.66 310 12:20 11.02.2022
5368 Smoke 33 1010 31 4000 4.63 300 10:30 11.02.2022
5369 Smoke 32 1011 27 4000 4.63 120 09:22 11.02.2022
5370 Smoke 31 1012 30 4000 3.6 110 08:28 11.02.2022
5371 Smoke 29 1013 32 3500 4.12 60 07:39 11.02.2022
5372 Smoke 24 1012 38 3000 5.14 90 02:40 11.02.2022
5373 Smoke 25 1011 38 3000 5.66 90 02:20 11.02.2022
5374 Smoke 26 1011 38 2500 4.12 30 23:40 10.02.2022
5375 Haze 24 1012 57 2500 1.54 70 21:55 10.02.2022
5376 Haze 24 1012 57 2500 1.54 70 21:35 10.02.2022
5377 Smoke 24 1012 60 2500 0 0 20:48 10.02.2022
5378 Smoke 24 1013 60 2500 0 0 19:49 10.02.2022
5379 Smoke 24 1013 60 2500 0 0 19:20 10.02.2022
5380 Smoke 25 1013 57 2500 2.57 330 17:53 10.02.2022
5381 Smoke 26 1012 53 2500 3.09 340 17:21 10.02.2022
5382 Smoke 26 1012 57 2500 3.6 330 16:30 10.02.2022
5383 Smoke 27 1011 50 1900 3.09 320 15:37 10.02.2022
5384 Smoke 27 1011 50 1900 3.09 320 15:18 10.02.2022
5385 Smoke 28 1011 42 1800 2.57 340 14:33 10.02.2022
5386 Smoke 29 1010 39 4000 6.17 320 13:34 10.02.2022
5387 Smoke 29 1010 45 4000 5.14 320 12:53 10.02.2022
5388 Smoke 30 1010 42 4000 5.66 310 11:48 10.02.2022
5389 Smoke 30 1010 39 3500 5.66 290 11:28 10.02.2022
5390 Smoke 31 1011 35 3500 5.66 310 10:21 10.02.2022
5391 Smoke 31 1012 33 3500 5.14 280 09:37 10.02.2022
5392 Smoke 29 1013 34 3500 4.12 50 08:21 10.02.2022
5393 Smoke 26 1015 41 3000 3.09 40 06:19 10.02.2022
5394 Haze 22 1012 56 3000 1.54 0 02:28 10.02.2022
5395 Haze 21 1011 64 3000 0 0 00:51 10.02.2022
5396 Haze 22 1011 60 3000 0 0 00:30 10.02.2022
5397 Haze 22 1011 60 3000 0 0 00:30 10.02.2022
5398 Haze 21 1011 68 3000 0 0 23:53 09.02.2022
5399 Haze 22 1012 78 3000 0 0 22:51 09.02.2022
5400 Haze 22 1012 78 3000 0 0 22:30 09.02.2022
5401 Haze 22 1012 73 3000 0 0 21:45 09.02.2022
5402 Haze 22 1013 73 3000 0 0 21:24 09.02.2022
5403 Smoke 23 1013 68 3000 0 0 20:41 09.02.2022
5404 Smoke 23 1013 68 3000 0 0 20:21 09.02.2022
5405 Smoke 24 1013 57 3000 1.54 30 19:39 09.02.2022
5406 Haze 24 1014 64 3000 2.57 20 18:30 09.02.2022
5407 Haze 24 1013 73 3000 3.6 350 16:54 09.02.2022
5408 Smoke 25 1013 61 3000 3.09 330 15:56 09.02.2022
5409 Smoke 25 1012 61 3000 3.09 310 15:22 09.02.2022
5410 Smoke 27 1011 50 5000 5.66 310 12:42 09.02.2022
5411 Smoke 27 1011 57 5000 5.14 300 11:20 09.02.2022
5412 Smoke 27 1012 57 4000 4.63 290 10:33 09.02.2022
5413 Smoke 27 1012 57 3500 4.63 280 09:45 09.02.2022
5414 Smoke 27 1013 57 3500 4.63 280 09:20 09.02.2022
5415 Smoke 27 1013 61 3500 4.63 300 08:43 09.02.2022
5416 Haze 24 1015 73 2500 3.6 90 05:37 09.02.2022
5417 Haze 21 1014 88 2200 3.09 80 03:51 09.02.2022
5418 Haze 21 1012 83 2500 1.54 100 01:33 09.02.2022
5419 Haze 22 1012 78 2500 0 0 23:42 08.02.2022
5420 Haze 22 1012 78 2500 1.54 30 22:53 08.02.2022
5421 Haze 22 1013 78 2500 0 0 22:27 08.02.2022
5422 Haze 23 1013 73 2500 0 0 21:58 08.02.2022
5423 Haze 23 1013 73 3000 1.54 320 21:22 08.02.2022
5424 Haze 23 1013 73 3000 1.54 300 20:56 08.02.2022
5425 Haze 23 1013 73 3000 1.54 320 20:31 08.02.2022
5426 Haze 24 1014 69 3000 2.06 300 18:55 08.02.2022
5427 Haze 24 1014 69 3000 3.09 280 17:50 08.02.2022
5428 Haze 24 1014 64 3000 2.06 250 16:55 08.02.2022
5429 Haze 24 1013 69 3000 3.09 290 15:45 08.02.2022
5430 Haze 24 1012 69 4000 3.09 310 14:57 08.02.2022
5431 Haze 25 1011 65 5000 2.57 290 13:39 08.02.2022
5432 Haze 26 1011 61 5000 5.66 280 12:21 08.02.2022
5433 Haze 26 1012 65 5000 6.69 260 10:47 08.02.2022
5434 Haze 26 1012 65 5000 6.17 260 09:47 08.02.2022
5435 Haze 26 1014 65 5000 5.14 280 08:34 08.02.2022
5436 Haze 25 1016 69 3500 3.6 360 05:46 08.02.2022
5437 Haze 23 1015 78 3000 1.54 10 04:40 08.02.2022
5438 Haze 23 1015 78 3000 1.54 10 04:22 08.02.2022
5439 Haze 22 1014 83 3000 0 0 03:36 08.02.2022
5440 Haze 21 1014 83 3000 0 0 03:18 08.02.2022
5441 Haze 21 1013 83 3000 0 0 02:59 08.02.2022
5442 Haze 21 1013 83 3000 0 0 02:36 08.02.2022
5443 Haze 22 1013 78 3000 0 0 02:18 08.02.2022
5444 Haze 22 1013 78 3000 2.06 10 01:44 08.02.2022
5445 Haze 22 1013 78 3000 2.06 10 01:25 08.02.2022
5446 Haze 21 1013 83 3000 0 0 00:55 08.02.2022
5447 Haze 22 1013 83 3000 2.06 360 00:19 08.02.2022
5448 Haze 22 1013 83 3000 1.54 350 23:43 07.02.2022
5449 Haze 22 1013 83 3000 2.06 20 23:18 07.02.2022
5450 Haze 22 1013 83 3000 2.06 20 22:59 07.02.2022
5451 Haze 22 1013 83 3000 2.57 10 22:18 07.02.2022
5452 Haze 22 1014 83 3000 0 0 21:49 07.02.2022
5453 Haze 22 1014 83 3000 2.06 330 21:27 07.02.2022
5454 Haze 22 1014 83 3000 0 0 20:41 07.02.2022
5455 Haze 23 1014 83 3000 2.06 330 20:18 07.02.2022
5456 Haze 23 1014 83 3000 0 0 19:46 07.02.2022
5457 Haze 23 1015 83 3000 0 0 18:24 07.02.2022
5458 Haze 23 1014 78 3000 2.57 310 16:53 07.02.2022
5459 Haze 23 1014 83 3000 3.09 300 16:21 07.02.2022
5460 Haze 23 1014 78 3000 3.6 300 15:48 07.02.2022
5461 Smoke 25 1012 57 4000 5.14 300 13:39 07.02.2022
5462 Smoke 25 1012 57 4000 5.14 300 13:21 07.02.2022
5463 Smoke 26 1012 50 4000 4.63 270 11:58 07.02.2022
5464 Smoke 26 1012 50 4000 4.63 270 11:38 07.02.2022
5465 Smoke 26 1012 57 4000 5.14 250 10:53 07.02.2022
5466 Smoke 26 1013 61 4000 5.66 250 10:33 07.02.2022
5467 Smoke 27 1013 57 3500 6.17 280 09:53 07.02.2022
5468 Smoke 26 1013 65 3000 6.17 270 09:18 07.02.2022
5469 Smoke 26 1014 65 3000 6.17 280 08:44 07.02.2022
5470 Smoke 27 1015 57 3000 3.09 290 07:34 07.02.2022
5471 Haze 26 1016 65 3000 2.57 340 06:34 07.02.2022
5472 Haze 23 1015 88 2100 1.54 50 04:18 07.02.2022
5473 Haze 22 1014 94 2500 0 0 00:54 07.02.2022
5474 Haze 23 1014 88 2500 0 0 23:50 06.02.2022
5475 Haze 23 1014 88 2500 1.54 300 23:19 06.02.2022
5476 Haze 23 1014 88 2500 0 0 22:37 06.02.2022
5477 Haze 23 1014 88 2500 0 0 21:37 06.02.2022
5478 Haze 23 1014 88 2500 0 0 20:58 06.02.2022
5479 Haze 23 1014 88 2500 0 0 20:36 06.02.2022
5480 Haze 24 1015 83 2500 1.54 340 19:46 06.02.2022
5481 Haze 24 1015 83 3000 2.57 300 18:52 06.02.2022
5482 Haze 24 1015 83 3000 1.54 320 18:26 06.02.2022
5483 Haze 24 1015 78 3000 3.09 280 17:29 06.02.2022
5484 Haze 25 1015 73 3000 2.57 310 16:50 06.02.2022
5485 Haze 25 1014 73 3000 3.09 290 15:50 06.02.2022
5486 Haze 25 1013 73 3000 4.12 300 15:28 06.02.2022
5487 Haze 26 1013 65 3000 3.09 300 14:52 06.02.2022
5488 Smoke 27 1012 54 3500 3.6 310 13:53 06.02.2022
5489 Smoke 27 1012 54 3500 5.14 290 13:20 06.02.2022
5490 Smoke 28 1011 47 3500 5.14 260 11:44 06.02.2022
5491 Smoke 30 1011 37 3500 4.63 250 10:33 06.02.2022
5492 Smoke 29 1012 42 3500 4.63 260 09:29 06.02.2022
5493 Smoke 32 1013 25 3500 1.54 100 08:41 06.02.2022
5494 Smoke 26 1014 44 2500 2.57 30 06:27 06.02.2022
5495 Smoke 24 1014 50 2200 3.6 40 05:27 06.02.2022
5496 Haze 21 1012 68 2500 0 0 02:25 06.02.2022
5497 Haze 21 1012 56 3000 1.54 30 00:30 06.02.2022
5498 Haze 22 1012 56 3000 1.54 320 23:27 05.02.2022
5499 Smoke 22 1012 60 3000 0 0 21:43 05.02.2022
5500 Smoke 23 1012 53 3000 1.54 290 20:39 05.02.2022
5501 Smoke 23 1012 53 3000 1.54 290 20:19 05.02.2022
5502 Smoke 24 1012 46 3000 2.06 320 19:41 05.02.2022
5503 Haze 23 1013 60 3000 2.57 20 18:26 05.02.2022
5504 Haze 24 1012 60 3000 2.57 340 17:34 05.02.2022
5505 Smoke 24 1011 60 3000 3.09 340 15:43 05.02.2022
5506 Smoke 25 1011 53 3000 3.09 330 15:25 05.02.2022
5507 Smoke 27 1010 44 3500 5.66 290 13:25 05.02.2022
5508 Smoke 27 1010 47 3500 3.6 300 12:42 05.02.2022
5509 Smoke 27 1010 41 4000 5.14 270 11:29 05.02.2022
5510 Smoke 27 1010 41 4000 4.63 280 10:43 05.02.2022
5511 Smoke 28 1011 36 3500 5.14 260 09:49 05.02.2022
5512 Smoke 28 1012 34 3000 3.09 270 08:34 05.02.2022
5513 Smoke 26 1013 38 2500 1.54 330 06:58 05.02.2022
5514 Smoke 25 1013 38 2500 1.54 10 06:27 05.02.2022
5515 Smoke 20 1010 52 2500 2.57 100 02:31 05.02.2022
5516 Haze 20 1010 60 2500 2.06 90 01:18 05.02.2022
5517 Haze 20 1010 56 2500 1.54 120 00:36 05.02.2022
5518 Haze 20 1010 64 2500 0 0 23:33 04.02.2022
5519 Smoke 21 1010 60 2500 0 0 22:37 04.02.2022
5520 Smoke 21 1011 56 2500 0 0 21:36 04.02.2022
5521 Smoke 21 1011 56 2500 0 0 21:18 04.02.2022
5522 Smoke 22 1011 53 2500 0 0 20:29 04.02.2022
5523 Smoke 23 1012 64 2500 2.57 350 18:35 04.02.2022
5524 Smoke 24 1011 53 3000 2.57 320 16:20 04.02.2022
5525 Smoke 25 1010 44 3000 2.57 310 15:18 04.02.2022
5526 Smoke 25 1009 50 3000 3.6 280 14:26 04.02.2022
5527 Smoke 26 1009 41 4000 4.63 260 12:43 04.02.2022
5528 Smoke 26 1009 41 4000 4.63 290 11:44 04.02.2022
5529 Smoke 27 1010 41 4000 4.63 240 10:51 04.02.2022
5530 Smoke 27 1011 36 3500 4.63 270 09:31 04.02.2022
5531 Smoke 27 1013 39 3000 4.12 230 07:44 04.02.2022
5532 Haze 22 1011 68 2500 2.06 20 03:28 04.02.2022
5533 Haze 23 1010 68 3000 0 0 02:33 04.02.2022
5534 Haze 24 1009 69 3000 3.6 310 23:34 03.02.2022
5535 Haze 24 1010 69 3000 3.09 310 22:48 03.02.2022
5536 Haze 24 1010 73 3000 2.06 330 21:51 03.02.2022
5537 Haze 24 1010 73 3000 0 0 21:18 03.02.2022
5538 Haze 24 1011 73 3000 2.06 290 20:21 03.02.2022
5539 Haze 25 1011 69 3000 2.06 280 19:36 03.02.2022
5540 Haze 25 1011 69 3000 3.09 260 18:50 03.02.2022
5541 Haze 25 1011 73 3000 2.06 210 17:51 03.02.2022
5542 Haze 25 1011 73 3000 2.06 220 16:46 03.02.2022
5543 Haze 25 1010 73 3000 4.12 240 14:55 03.02.2022
5544 Haze 26 1010 73 4000 4.63 250 13:19 03.02.2022
5545 Haze 27 1009 65 4000 4.63 240 11:44 03.02.2022
5546 Smoke 28 1011 47 4000 4.63 240 08:55 03.02.2022
5547 Haze 27 1013 61 3000 5.14 260 07:40 03.02.2022
5548 Mist 21 1010 88 1600 0 0 00:34 03.02.2022
5549 Mist 21 1010 94 1500 0 0 23:47 02.02.2022
5550 Mist 21 1011 94 1700 0 0 22:38 02.02.2022
5551 Mist 22 1012 94 1800 0 0 21:42 02.02.2022
5552 Mist 22 1012 94 1800 0 0 21:24 02.02.2022
5553 Mist 22 1012 94 2200 2.06 270 20:19 02.02.2022
5554 Mist 22 1012 88 2200 1.54 260 19:45 02.02.2022
5555 Mist 22 1013 88 2500 2.06 260 18:53 02.02.2022
5556 Haze 22 1013 88 2500 2.57 260 18:23 02.02.2022
5557 Haze 24 1012 69 2500 2.06 200 17:20 02.02.2022
5558 Haze 24 1012 69 2500 2.06 200 17:20 02.02.2022
5559 Haze 24 1012 64 2500 1.54 290 16:48 02.02.2022
5560 Smoke 26 1010 61 3000 3.09 300 14:21 02.02.2022
5561 Haze 28 1009 61 3000 4.63 290 12:26 02.02.2022
5562 Haze 28 1009 61 3000 4.63 300 11:42 02.02.2022
5563 Smoke 28 1009 54 3000 6.17 280 11:23 02.02.2022
5564 Smoke 28 1012 51 2500 4.63 250 07:59 02.02.2022
5565 Haze 20 1010 77 2500 0 0 01:36 02.02.2022
5566 Haze 22 1011 78 3000 0 0 21:59 01.02.2022
5567 Haze 23 1011 78 3000 0 0 20:49 01.02.2022
5568 Haze 23 1012 78 3000 1.54 250 18:55 01.02.2022
5569 Smoke 25 1011 61 3000 2.06 320 16:44 01.02.2022
5570 Smoke 25 1010 57 3000 1.54 310 15:30 01.02.2022
5571 Smoke 28 1009 47 3500 5.14 290 12:49 01.02.2022
5572 Smoke 29 1009 48 4000 5.14 290 11:48 01.02.2022
5573 Smoke 29 1011 42 2500 5.66 250 08:34 01.02.2022
5574 Smoke 19 1011 59 2500 0 0 23:54 31.01.2022
5575 Smoke 19 1011 59 2500 0 0 23:54 31.01.2022
5576 Smoke 20 1011 60 2500 0 0 23:36 31.01.2022
5577 Smoke 19 1011 59 2500 0 0 23:36 31.01.2022
5578 Smoke 20 1012 56 2500 0 0 22:30 31.01.2022
5579 Smoke 22 1012 53 2500 0 0 21:34 31.01.2022
5580 Smoke 22 1012 53 2500 0 0 20:34 31.01.2022
5581 Smoke 23 1013 49 2500 0 0 19:46 31.01.2022
5582 Smoke 24 1013 50 2500 0 0 18:31 31.01.2022
5583 Smoke 23 1013 53 2500 0 0 17:55 31.01.2022
5584 Smoke 25 1012 47 2500 1.54 320 16:58 31.01.2022
5585 Smoke 25 1012 47 2500 2.57 290 15:46 31.01.2022
5586 Smoke 27 1011 47 3500 3.6 300 14:27 31.01.2022
5587 Smoke 30 1010 28 3500 4.63 290 12:55 31.01.2022
5588 Smoke 30 1010 32 3500 3.6 280 12:36 31.01.2022
5589 Smoke 29 1010 32 3000 3.6 250 10:58 31.01.2022
5590 Smoke 30 1011 37 3000 5.14 240 10:37 31.01.2022
5591 Smoke 30 1011 32 3000 4.12 250 09:35 31.01.2022
5592 Smoke 30 1012 37 2500 5.14 250 08:53 31.01.2022
5593 Smoke 30 1013 26 2500 1.54 310 08:20 31.01.2022
5594 Smoke 28 1014 30 2500 2.57 20 06:53 31.01.2022
5595 Smoke 25 1014 38 2500 0 0 05:24 31.01.2022
5596 Smoke 22 1011 60 3000 0 0 23:37 30.01.2022
5597 Smoke 22 1011 60 3000 0 0 22:30 30.01.2022
5598 Smoke 22 1011 64 3000 0 0 21:44 30.01.2022
5599 Smoke 22 1011 64 3000 0 0 21:44 30.01.2022
5600 Smoke 23 1012 56 3000 0 0 21:22 30.01.2022
5601 Smoke 24 1012 46 3000 0 0 20:50 30.01.2022
5602 Smoke 24 1012 46 3000 0 0 20:30 30.01.2022
5603 Smoke 24 1012 50 3000 0 0 19:54 30.01.2022
5604 Smoke 25 1013 44 3000 0 0 18:51 30.01.2022
5605 Smoke 26 1013 41 3000 0 0 18:21 30.01.2022
5606 Smoke 26 1012 44 3500 0 0 17:30 30.01.2022
5607 Smoke 27 1012 41 3500 1.54 330 16:42 30.01.2022
5608 Smoke 27 1012 41 3500 1.54 330 16:22 30.01.2022
5609 Smoke 27 1012 41 3500 1.54 330 16:22 30.01.2022
5610 Smoke 27 1011 41 3500 2.06 300 15:54 30.01.2022
5611 Smoke 27 1011 41 3500 2.06 300 15:54 30.01.2022
5612 Smoke 27 1011 44 3500 2.06 290 15:32 30.01.2022
5613 Smoke 27 1011 44 3500 3.09 270 14:47 30.01.2022
5614 Smoke 30 1010 35 4000 2.57 300 13:44 30.01.2022
5615 Smoke 31 1010 30 4000 3.6 300 12:44 30.01.2022
5616 Smoke 31 1011 40 3500 4.63 260 10:39 30.01.2022
5617 Smoke 31 1011 35 3500 4.12 260 09:58 30.01.2022
5618 Smoke 32 1012 31 3500 4.63 260 09:21 30.01.2022
5619 Smoke 30 1014 28 3500 2.57 50 07:57 30.01.2022
5620 Smoke 21 1013 49 2500 0 0 02:44 30.01.2022
5621 Smoke 20 1013 52 2500 1.54 100 01:52 30.01.2022
5622 Smoke 21 1013 52 2500 0 0 23:46 29.01.2022
5623 Smoke 23 1013 43 2500 1.54 30 22:48 29.01.2022
5624 Smoke 23 1014 40 2500 0 0 21:28 29.01.2022
5625 Smoke 23 1015 46 3000 0 0 20:50 29.01.2022
5626 Smoke 25 1015 31 3000 0 0 19:47 29.01.2022
5627 Smoke 25 1015 31 3000 1.54 20 19:29 29.01.2022
5628 Smoke 25 1015 31 3000 1.54 90 18:39 29.01.2022
5629 Smoke 26 1015 31 3000 1.54 40 17:46 29.01.2022
5630 Smoke 26 1015 29 3000 3.6 180 16:43 29.01.2022
5631 Smoke 27 1013 32 3500 5.14 340 15:20 29.01.2022
5632 Smoke 28 1012 39 4000 3.6 320 13:47 29.01.2022
5633 Smoke 29 1012 32 4000 4.12 310 13:26 29.01.2022
5634 Smoke 30 1012 25 4000 3.6 290 12:42 29.01.2022
5635 Smoke 31 1012 25 4000 3.6 290 11:39 29.01.2022
5636 Smoke 31 1013 23 3500 2.06 200 10:31 29.01.2022
5637 Smoke 28 1016 32 3000 2.57 80 07:57 29.01.2022
5638 Smoke 23 1013 40 3000 4.12 50 01:37 29.01.2022
5639 Smoke 22 1013 46 3000 0.51 60 00:31 29.01.2022
5640 Smoke 23 1013 43 3000 3.09 50 23:29 28.01.2022
5641 Smoke 22 1013 46 3000 2.57 50 22:46 28.01.2022
5642 Smoke 22 1013 46 3000 0 0 22:18 28.01.2022
5643 Smoke 24 1014 41 3000 0 0 20:41 28.01.2022
5644 Smoke 25 1015 33 3000 1.54 30 19:53 28.01.2022
5645 Smoke 26 1015 31 3000 4.12 10 18:51 28.01.2022
5646 Smoke 26 1014 34 3000 3.6 20 17:52 28.01.2022
5647 Smoke 27 1013 39 3000 4.12 340 15:46 28.01.2022
5648 Smoke 27 1013 39 4000 4.12 340 14:46 28.01.2022
5649 Smoke 30 1012 30 5000 4.12 290 12:40 28.01.2022
5650 Smoke 30 1012 26 4000 4.63 270 11:38 28.01.2022
5651 Smoke 30 1012 26 4000 4.63 270 11:38 28.01.2022
5652 Smoke 31 1012 23 4000 1.54 110 10:22 28.01.2022
5653 Smoke 31 1013 23 4000 1.54 140 09:45 28.01.2022
5654 Smoke 28 1015 34 3000 4.12 60 07:40 28.01.2022
5655 Smoke 25 1015 38 2500 3.6 80 05:30 28.01.2022
5656 Smoke 22 1014 46 2500 4.12 40 03:48 28.01.2022
5657 Smoke 22 1013 43 2500 3.09 40 02:23 28.01.2022
5658 Smoke 23 1012 40 2500 4.12 40 01:35 28.01.2022
5659 Smoke 23 1011 43 2500 2.57 50 23:47 27.01.2022
5660 Haze 23 1012 46 2500 3.6 40 21:58 27.01.2022
5661 Haze 22 1012 53 2500 3.09 40 21:32 27.01.2022
5662 Haze 23 1012 49 2500 1.54 60 20:55 27.01.2022
5663 Haze 23 1012 56 2500 0 0 19:35 27.01.2022
5664 Smoke 24 1013 60 3000 1.54 350 17:58 27.01.2022
5665 Smoke 25 1012 50 3000 2.06 330 15:43 27.01.2022
5666 Smoke 27 1010 44 4000 4.12 290 13:39 27.01.2022
5667 Smoke 27 1010 44 4000 5.14 290 12:46 27.01.2022
5668 Smoke 28 1010 39 4000 4.63 250 10:59 27.01.2022
5669 Smoke 30 1012 30 3500 2.57 120 09:27 27.01.2022
5670 Smoke 28 1013 34 3000 3.09 110 08:38 27.01.2022
5671 Smoke 26 1014 36 3000 4.12 100 07:23 27.01.2022
5672 Smoke 21 1012 49 2200 0 0 02:59 27.01.2022
5673 Haze 20 1011 60 1900 0 0 23:52 26.01.2022
5674 Haze 21 1011 64 1800 0 0 22:27 26.01.2022
5675 Haze 22 1011 64 2100 0 0 21:41 26.01.2022
5676 Haze 22 1012 64 2100 1.54 0 20:42 26.01.2022
5677 Haze 21 1012 64 2100 0 0 20:23 26.01.2022
5678 Haze 22 1012 60 2100 0 0 19:28 26.01.2022
5679 Smoke 22 1012 60 2200 1.54 230 18:46 26.01.2022
5680 Smoke 23 1012 53 2500 0 0 17:52 26.01.2022
5681 Smoke 23 1012 56 2500 0 0 17:24 26.01.2022
5682 Smoke 24 1012 53 2500 2.06 20 16:40 26.01.2022
5683 Smoke 24 1012 53 2500 2.06 340 15:50 26.01.2022
5684 Smoke 24 1010 53 2500 2.06 320 14:23 26.01.2022
5685 Smoke 27 1010 41 3000 4.63 310 11:56 26.01.2022
5686 Smoke 28 1010 39 3000 5.66 270 10:45 26.01.2022
5687 Smoke 29 1011 34 3000 4.12 250 09:49 26.01.2022
5688 Smoke 27 1012 34 3000 3.6 120 08:32 26.01.2022
5689 Smoke 22 1014 43 2500 4.63 50 05:42 26.01.2022
5690 Smoke 19 1011 52 2200 0 0 23:59 25.01.2022
5691 Smoke 20 1011 49 2200 0 0 23:28 25.01.2022
5692 Smoke 20 1011 49 2200 0 0 22:48 25.01.2022
5693 Smoke 21 1011 46 2200 2.57 30 22:18 25.01.2022
5694 Smoke 21 1011 49 2100 1.54 60 21:22 25.01.2022
5695 Smoke 21 1012 73 2100 0 0 20:44 25.01.2022
5696 Smoke 22 1012 49 2100 2.06 30 19:53 25.01.2022
5697 Smoke 22 1012 49 2100 2.06 30 19:53 25.01.2022
5698 Smoke 22 1012 53 2100 2.57 120 18:43 25.01.2022
5699 Smoke 22 1012 53 2100 3.6 20 17:45 25.01.2022
5700 Smoke 23 1012 49 2200 2.57 340 16:47 25.01.2022
5701 Smoke 23 1012 49 2200 2.57 350 16:21 25.01.2022
5702 Smoke 23 1012 49 2200 3.09 350 15:38 25.01.2022
5703 Smoke 24 1011 50 2500 3.09 320 14:58 25.01.2022
5704 Smoke 25 1010 47 3500 4.12 300 13:46 25.01.2022
5705 Smoke 27 1010 32 3000 3.6 250 10:58 25.01.2022
5706 Smoke 25 1012 36 2500 3.09 90 08:38 25.01.2022
5707 Smoke 23 1013 35 2500 2.06 50 07:29 25.01.2022
5708 Smoke 23 1014 35 2500 2.57 70 06:50 25.01.2022
5709 Smoke 20 1014 40 2500 3.09 50 05:22 25.01.2022
5710 Smoke 17 1011 55 3000 0 0 23:37 24.01.2022
5711 Smoke 18 1011 59 3000 0 0 23:19 24.01.2022
5712 Smoke 18 1012 55 3000 0 0 22:59 24.01.2022
5713 Smoke 18 1012 52 3000 0 0 22:41 24.01.2022
5714 Smoke 18 1012 55 3000 0 0 21:54 24.01.2022
5715 Smoke 18 1012 52 3000 0 0 21:29 24.01.2022
5716 Smoke 19 1013 48 3000 2.06 350 20:30 24.01.2022
5717 Smoke 19 1013 48 3000 3.09 360 19:52 24.01.2022
5718 Smoke 19 1013 48 3000 2.57 10 19:30 24.01.2022
5719 Smoke 20 1013 42 3000 2.57 10 18:19 24.01.2022
5720 Smoke 20 1013 40 3000 3.6 350 17:24 24.01.2022
5721 Smoke 21 1013 37 3000 4.12 340 16:55 24.01.2022
5722 Smoke 21 1013 37 3000 3.6 340 16:19 24.01.2022
5723 Smoke 21 1012 40 3000 3.6 320 14:43 24.01.2022
5724 Smoke 22 1011 35 4000 4.63 310 13:24 24.01.2022
5725 Smoke 23 1010 33 4000 5.14 330 12:23 24.01.2022
5726 Smoke 23 1011 28 3000 2.06 320 10:46 24.01.2022
5727 Smoke 23 1012 25 3000 4.63 30 09:48 24.01.2022
5728 Smoke 22 1013 33 2500 4.63 60 08:41 24.01.2022
5729 Smoke 21 1015 32 2500 5.14 50 06:41 24.01.2022
5730 Smoke 18 1011 45 2500 2.06 50 01:31 24.01.2022
5731 Smoke 19 1011 45 2500 2.06 40 00:38 24.01.2022
5732 Smoke 19 1011 45 2500 2.06 50 00:20 24.01.2022
5733 Smoke 19 1012 55 2500 3.09 10 22:37 23.01.2022
5734 Smoke 20 1012 52 2500 3.09 360 21:50 23.01.2022
5735 Smoke 20 1012 45 2500 3.6 320 21:26 23.01.2022
5736 Smoke 21 1012 43 2500 3.6 300 20:45 23.01.2022
5737 Smoke 21 1012 60 2500 2.57 30 19:52 23.01.2022
5738 Smoke 21 1013 60 2500 2.57 10 18:52 23.01.2022
5739 Smoke 21 1013 60 2500 2.57 10 17:49 23.01.2022
5740 Smoke 21 1013 60 2500 2.57 10 16:48 23.01.2022
5741 Smoke 21 1013 56 2500 3.6 330 15:18 23.01.2022
5742 Smoke 22 1012 53 2100 5.66 330 14:31 23.01.2022
5743 Smoke 22 1012 53 2100 5.66 330 14:31 23.01.2022
5744 Dust 22 1011 53 2500 4.12 300 13:22 23.01.2022
5745 Dust 22 1011 53 2500 4.12 300 12:36 23.01.2022
5746 Dust 22 1010 53 2500 5.14 330 12:18 23.01.2022
5747 Dust 23 1010 53 2500 4.63 310 11:23 23.01.2022
5748 Smoke 23 1011 53 2100 4.12 310 10:43 23.01.2022
5749 Smoke 23 1011 53 2100 4.12 310 10:19 23.01.2022
5750 Smoke 23 1012 53 1200 5.14 320 08:59 23.01.2022
5751 Haze 23 1013 56 1300 4.12 10 05:58 23.01.2022
5752 Haze 23 1009 68 2100 2.57 340 01:54 23.01.2022
5753 Haze 24 1009 57 2500 4.63 10 01:34 23.01.2022
5754 Smoke 24 1009 43 2500 5.66 300 00:31 23.01.2022
5755 Smoke 24 1009 50 2500 5.66 300 23:57 22.01.2022
5756 Haze 24 1009 60 2500 5.14 300 22:46 22.01.2022
5757 Clouds 25 1009 65 2500 6.17 300 21:38 22.01.2022
5758 Haze 24 1010 73 2500 4.12 270 20:23 22.01.2022
5759 Haze 24 1010 73 2500 3.09 260 19:27 22.01.2022
5760 Haze 25 1010 69 2500 3.09 290 18:29 22.01.2022
5761 Haze 25 1010 65 2500 3.6 300 17:41 22.01.2022
5762 Haze 25 1010 65 2500 3.6 300 16:57 22.01.2022
5763 Haze 25 1010 69 2500 3.6 310 15:55 22.01.2022
5764 Haze 25 1010 69 2500 3.6 310 15:37 22.01.2022
5765 Haze 27 1008 69 2500 4.63 280 13:59 22.01.2022
5766 Drizzle 27 1008 69 4000 6.17 260 12:58 22.01.2022
5767 Haze 27 1008 69 4000 3.6 260 12:30 22.01.2022
5768 Haze 27 1008 69 4000 6.17 260 11:57 22.01.2022
5769 Haze 27 1009 69 3000 5.14 260 10:38 22.01.2022
5770 Haze 27 1009 69 3000 5.14 260 10:19 22.01.2022
5771 Haze 28 1010 65 2500 7.2 250 08:54 22.01.2022
5772 Haze 27 1011 69 2500 6.69 250 08:31 22.01.2022
5773 Haze 24 1013 83 1600 2.06 100 05:20 22.01.2022
5774 Haze 22 1010 94 2500 0 0 01:58 22.01.2022
5775 Haze 22 1009 94 2500 3.09 100 23:49 21.01.2022
5776 Haze 23 1010 88 3000 0 0 22:58 21.01.2022
5777 Haze 23 1011 88 3000 0 0 20:46 21.01.2022
5778 Haze 24 1012 78 3000 1.54 350 19:20 21.01.2022
5779 Haze 25 1012 65 3000 0 0 17:48 21.01.2022
5780 Haze 25 1011 78 3000 2.57 290 15:48 21.01.2022
5781 Smoke 25 1010 78 3500 2.57 300 14:41 21.01.2022
5782 Smoke 27 1010 65 5000 4.12 300 12:43 21.01.2022
5783 Smoke 28 1010 65 5000 6.17 280 11:29 21.01.2022
5784 Smoke 28 1011 61 4000 5.14 290 10:27 21.01.2022
5785 Smoke 28 1012 65 3000 5.14 280 08:58 21.01.2022
5786 Smoke 28 1013 61 3000 2.57 300 07:48 21.01.2022
5787 Haze 22 1011 78 2500 0 0 01:48 21.01.2022
5788 Haze 23 1011 78 3000 0 0 22:47 20.01.2022
5789 Haze 23 1011 78 3000 0 0 21:49 20.01.2022
5790 Haze 23 1011 78 3000 0 0 21:25 20.01.2022
5791 Haze 24 1011 69 3000 1.54 350 19:47 20.01.2022
5792 Haze 24 1012 69 3000 1.54 310 19:18 20.01.2022
5793 Smoke 25 1012 65 3000 2.57 310 17:37 20.01.2022
5794 Smoke 25 1011 61 3000 2.57 310 16:19 20.01.2022
5795 Smoke 26 1011 50 3000 3.09 310 15:29 20.01.2022
5796 Smoke 26 1010 44 3000 3.6 310 14:20 20.01.2022
5797 Smoke 28 1009 47 4000 4.12 290 12:49 20.01.2022
5798 Smoke 28 1009 51 4000 5.14 270 12:29 20.01.2022
5799 Smoke 28 1010 54 4000 4.12 220 11:19 20.01.2022
5800 Smoke 29 1010 54 3500 4.63 260 10:18 20.01.2022
5801 Smoke 28 1012 57 3000 5.14 240 08:51 20.01.2022
5802 Smoke 28 1014 47 2500 2.06 360 06:57 20.01.2022
5803 Smoke 22 1011 60 2500 0 0 00:40 20.01.2022
5804 Smoke 23 1011 53 2500 0 0 22:39 19.01.2022
5805 Smoke 24 1012 50 2500 2.06 350 21:36 19.01.2022
5806 Haze 24 1013 53 2500 3.09 10 20:58 19.01.2022
5807 Haze 25 1013 50 2500 2.57 350 20:40 19.01.2022
5808 Haze 24 1013 69 2500 2.06 20 18:59 19.01.2022
5809 Haze 25 1013 65 2500 2.06 330 17:51 19.01.2022
5810 Haze 26 1013 57 2500 2.57 310 17:18 19.01.2022
5811 Smoke 26 1012 53 3000 2.57 300 15:35 19.01.2022
5812 Smoke 29 1011 39 3000 4.63 330 13:26 19.01.2022
5813 Smoke 30 1011 39 3000 3.6 290 11:59 19.01.2022
5814 Smoke 30 1011 39 3000 3.6 290 11:38 19.01.2022
5815 Smoke 30 1013 42 3000 5.14 240 09:49 19.01.2022
5816 Smoke 30 1013 42 3000 4.63 260 09:22 19.01.2022
5817 Smoke 26 1016 53 2100 0 0 05:29 19.01.2022
5818 Smoke 23 1013 60 2500 0 0 00:22 19.01.2022
5819 Smoke 23 1013 60 2500 0 0 23:18 18.01.2022
5820 Smoke 23 1014 60 2500 0 0 21:50 18.01.2022
5821 Smoke 24 1014 53 2500 0 0 20:38 18.01.2022
5822 Smoke 25 1015 47 3000 0 0 19:51 18.01.2022
5823 Smoke 26 1015 41 3000 0 0 19:33 18.01.2022
5824 Smoke 26 1015 44 3000 2.06 310 18:23 18.01.2022
5825 Smoke 26 1015 50 3000 2.06 10 17:32 18.01.2022
5826 Smoke 26 1014 47 3000 3.09 340 16:22 18.01.2022
5827 Smoke 27 1013 47 3000 3.09 320 15:25 18.01.2022
5828 Smoke 27 1013 54 3000 3.09 300 14:23 18.01.2022
5829 Smoke 31 1012 40 3000 4.63 300 11:45 18.01.2022
5830 Smoke 30 1013 54 3000 5.66 250 10:30 18.01.2022
5831 Smoke 30 1015 51 2500 4.63 260 08:36 18.01.2022
5832 Smoke 31 1016 45 2500 2.06 60 07:45 18.01.2022
5833 Haze 24 1015 78 2200 0 0 00:42 18.01.2022
5834 Haze 25 1015 69 2500 2.06 150 22:47 17.01.2022
5835 Haze 24 1015 73 2500 0 0 21:50 17.01.2022
5836 Haze 25 1016 69 2500 0 0 21:29 17.01.2022
5837 Smoke 26 1016 65 2500 2.06 10 19:37 17.01.2022
5838 Smoke 27 1017 61 2500 1.54 360 18:26 17.01.2022
5839 Smoke 27 1017 61 2500 2.06 350 17:22 17.01.2022
5840 Smoke 27 1016 61 2500 2.06 330 16:22 17.01.2022
5841 Smoke 28 1015 57 2500 2.06 330 14:58 17.01.2022
5842 Smoke 29 1014 54 2500 2.06 300 14:32 17.01.2022
5843 Smoke 30 1013 51 3000 3.09 280 13:19 17.01.2022
5844 Smoke 30 1013 48 3000 3.09 300 12:27 17.01.2022
5845 Smoke 31 1013 45 3000 4.12 270 11:33 17.01.2022
5846 Smoke 31 1014 48 3000 4.12 270 10:21 17.01.2022
5847 Smoke 30 1015 45 3000 3.09 120 08:44 17.01.2022
5848 Smoke 29 1017 48 2500 3.09 90 07:21 17.01.2022
5849 Haze 23 1014 64 2500 3.09 90 01:52 17.01.2022
5850 Haze 24 1013 60 2500 3.6 90 00:43 17.01.2022
5851 Smoke 25 1014 57 3000 3.09 80 21:22 16.01.2022
5852 Smoke 26 1014 57 3000 4.12 40 20:28 16.01.2022
5853 Haze 26 1014 61 3000 0 0 18:46 16.01.2022
5854 Haze 26 1014 61 3000 2.06 80 17:50 16.01.2022
5855 Smoke 26 1014 57 3000 0 0 16:55 16.01.2022
5856 Smoke 27 1013 54 3000 3.6 350 15:43 16.01.2022
5857 Smoke 28 1012 54 3000 2.06 320 14:29 16.01.2022
5858 Smoke 28 1012 54 3000 2.06 320 14:29 16.01.2022
5859 Smoke 29 1012 48 3500 3.6 320 13:33 16.01.2022
5860 Smoke 31 1011 40 3500 4.12 270 12:21 16.01.2022
5861 Smoke 32 1011 35 3500 3.09 270 11:27 16.01.2022
5862 Smoke 31 1012 35 4000 2.06 100 10:27 16.01.2022
5863 Smoke 31 1013 35 4000 0 0 09:57 16.01.2022
5864 Smoke 31 1013 37 3500 5.14 80 09:23 16.01.2022
5865 Smoke 31 1014 37 3500 3.6 90 08:53 16.01.2022
5866 Smoke 26 1016 50 2500 4.12 70 05:52 16.01.2022
5867 Haze 23 1012 56 2500 0 0 00:19 16.01.2022
5868 Haze 23 1012 60 2500 2.06 50 22:49 15.01.2022
5869 Haze 24 1013 57 2500 2.57 40 21:21 15.01.2022
5870 Haze 24 1013 57 2500 2.57 40 21:21 15.01.2022
5871 Haze 24 1013 64 2500 0 0 20:44 15.01.2022
5872 Haze 24 1013 64 2500 0 0 20:21 15.01.2022
5873 Haze 23 1013 68 2500 0 0 19:26 15.01.2022
5874 Haze 25 1013 61 2500 3.09 340 17:58 15.01.2022
5875 Haze 25 1013 65 2500 2.57 330 16:43 15.01.2022
5876 Haze 26 1012 65 3000 2.57 330 14:36 15.01.2022
5877 Smoke 28 1011 54 4000 3.6 290 12:38 15.01.2022
5878 Smoke 29 1010 45 4000 3.6 260 11:20 15.01.2022
5879 Smoke 30 1012 37 3000 3.6 50 09:45 15.01.2022
5880 Haze 21 1012 78 2100 2.57 90 01:27 15.01.2022
5881 Haze 22 1012 78 2100 0 0 22:40 14.01.2022
5882 Haze 22 1013 78 2200 3.09 360 20:54 14.01.2022
5883 Haze 22 1013 78 2200 2.06 10 20:23 14.01.2022
5884 Haze 23 1013 78 2200 2.06 330 19:49 14.01.2022
5885 Haze 23 1013 73 2200 2.06 210 18:33 14.01.2022
5886 Haze 24 1012 64 2500 2.57 320 16:57 14.01.2022
5887 Haze 24 1012 60 2500 1.54 300 16:38 14.01.2022
5888 Haze 25 1011 65 2500 2.06 330 14:50 14.01.2022
5889 Haze 25 1011 65 2500 3.09 320 14:20 14.01.2022
5890 Smoke 26 1010 61 2500 4.12 300 12:47 14.01.2022
5891 Smoke 27 1010 57 2500 4.12 310 11:51 14.01.2022
5892 Smoke 27 1011 57 2500 5.14 260 10:24 14.01.2022
5893 Smoke 26 1012 65 2100 5.14 270 08:52 14.01.2022
5894 Smoke 27 1014 54 2100 0 0 07:29 14.01.2022
5895 Haze 21 1012 78 2100 2.24 75 02:20 14.01.2022
5896 Haze 22 1011 78 2100 0 0 23:40 13.01.2022
5897 Haze 22 1011 78 2100 0 0 21:46 13.01.2022
5898 Haze 22 1011 78 2200 0 0 21:27 13.01.2022
5899 Haze 23 1012 73 2500 2.57 290 19:44 13.01.2022
5900 Haze 23 1012 73 2500 2.06 260 19:23 13.01.2022
5901 Haze 23 1013 68 2500 2.06 350 18:36 13.01.2022
5902 Haze 23 1012 68 2500 3.09 330 16:48 13.01.2022
5903 Haze 24 1011 69 2500 4.12 330 15:38 13.01.2022
5904 Haze 24 1011 69 2500 4.12 330 15:18 13.01.2022
5905 Haze 25 1010 61 2500 3.6 280 13:28 13.01.2022
5906 Smoke 26 1010 57 2500 5.14 270 10:39 13.01.2022
5907 Smoke 26 1011 57 2500 3.09 100 09:23 13.01.2022
5908 Smoke 27 1013 50 2500 3.09 60 08:28 13.01.2022
5909 Smoke 26 1013 53 2500 2.57 120 07:58 13.01.2022
5910 Smoke 25 1013 57 2500 3.09 110 07:18 13.01.2022
5911 Smoke 22 1014 68 2200 4.12 100 05:20 13.01.2022
5912 Haze 20 1013 77 1800 3.09 30 03:34 13.01.2022
5913 Haze 20 1011 73 2500 2.57 120 01:38 13.01.2022
5914 Haze 20 1011 83 2500 0 0 23:53 12.01.2022
5915 Haze 21 1011 78 2500 0 0 23:33 12.01.2022
5916 Haze 21 1012 73 2500 0 0 21:59 12.01.2022
5917 Haze 21 1013 73 2500 0 0 21:39 12.01.2022
5918 Haze 21 1013 73 2500 0 0 21:18 12.01.2022
5919 Haze 22 1013 68 2500 1.54 300 20:41 12.01.2022
5920 Haze 22 1014 68 2500 1.54 0 18:48 12.01.2022
5921 Haze 22 1014 73 2500 0 0 17:54 12.01.2022
5922 Haze 23 1013 64 2500 2.57 350 16:43 12.01.2022
5923 Haze 24 1012 69 2500 3.09 310 14:49 12.01.2022
5924 Haze 24 1012 69 2500 4.12 320 14:19 12.01.2022
5925 Smoke 25 1011 57 3000 4.63 290 12:57 12.01.2022
5926 Smoke 26 1012 50 3000 4.12 260 09:48 12.01.2022
5927 Smoke 26 1014 47 2500 2.06 110 07:57 12.01.2022
5928 Smoke 25 1014 50 2500 0 0 07:33 12.01.2022
5929 Smoke 18 1013 59 3000 2.06 20 02:20 12.01.2022
5930 Haze 19 1012 63 3000 2.06 350 23:26 11.01.2022
5931 Haze 19 1012 63 3000 3.09 360 22:39 11.01.2022
5932 Haze 20 1012 60 3000 2.57 10 22:18 11.01.2022
5933 Haze 21 1014 60 3000 2.57 340 20:40 11.01.2022
5934 Haze 21 1014 64 3000 2.57 10 19:35 11.01.2022
5935 Haze 22 1014 64 3000 1.54 320 17:54 11.01.2022
5936 Haze 23 1014 60 3000 1.54 330 16:40 11.01.2022
5937 Haze 23 1014 64 3000 2.06 30 16:40 11.01.2022
5938 Haze 23 1014 60 3000 1.54 330 16:18 11.01.2022
5939 Haze 24 1013 60 3000 2.57 310 14:53 11.01.2022
5940 Haze 24 1013 60 3000 2.57 310 14:34 11.01.2022
5941 Smoke 24 1012 60 3000 4.12 320 13:52 11.01.2022
5942 Smoke 25 1012 53 3000 4.12 320 13:28 11.01.2022
5943 Smoke 25 1012 53 2500 4.12 270 12:34 11.01.2022
5944 Smoke 25 1012 57 2500 4.63 280 10:40 11.01.2022
5945 Smoke 26 1014 47 2500 3.6 260 08:26 11.01.2022
5946 Haze 20 1015 68 1800 1.54 120 04:28 11.01.2022
5947 Haze 19 1012 77 2200 2.57 90 00:27 11.01.2022
5948 Haze 19 1012 77 2200 3.09 110 23:39 10.01.2022
5949 Smoke 20 1013 68 2500 2.06 90 22:42 10.01.2022
5950 Smoke 20 1013 64 2500 0 0 22:18 10.01.2022
5951 Smoke 20 1013 64 2500 2.57 100 21:36 10.01.2022
5952 Smoke 21 1014 56 2500 0 0 21:18 10.01.2022
5953 Smoke 20 1014 60 2500 0 0 20:54 10.01.2022
5954 Smoke 20 1014 64 2500 0 0 20:19 10.01.2022
5955 Smoke 21 1014 56 3000 2.06 350 19:39 10.01.2022
5956 Smoke 21 1014 56 3000 2.06 350 19:19 10.01.2022
5957 Smoke 21 1014 56 3000 1.54 340 18:47 10.01.2022
5958 Smoke 21 1014 56 3000 3.09 340 16:51 10.01.2022
5959 Smoke 22 1014 49 3500 4.12 340 16:33 10.01.2022
5960 Smoke 22 1013 53 4000 4.63 330 14:49 10.01.2022
5961 Smoke 23 1012 49 4500 3.6 300 13:35 10.01.2022
5962 Smoke 24 1012 43 5000 6.17 310 11:57 10.01.2022
5963 Smoke 24 1012 43 5000 7.2 280 10:50 10.01.2022
5964 Smoke 25 1013 38 4000 3.6 280 09:40 10.01.2022
5965 Smoke 22 1016 40 2500 1.03 0 05:52 10.01.2022
5966 Smoke 20 1015 45 2500 0 0 04:48 10.01.2022
5967 Smoke 19 1013 48 3000 0 0 01:22 10.01.2022
5968 Smoke 18 1013 55 3000 0 0 00:22 10.01.2022
5969 Smoke 19 1013 55 3000 1.54 40 22:48 09.01.2022
5970 Smoke 19 1013 55 3000 1.54 40 22:21 09.01.2022
5971 Smoke 20 1014 49 3000 0 0 21:42 09.01.2022
5972 Smoke 20 1014 49 3000 0 0 21:22 09.01.2022
5973 Smoke 20 1014 49 3000 0 0 20:49 09.01.2022
5974 Smoke 20 1014 45 3000 2.06 30 20:29 09.01.2022
5975 Smoke 20 1015 45 3000 3.6 350 19:44 09.01.2022
5976 Smoke 20 1015 45 3000 3.6 350 19:22 09.01.2022
5977 Smoke 21 1015 46 3000 3.09 10 18:49 09.01.2022
5978 Smoke 21 1015 46 3000 3.09 10 18:30 09.01.2022
5979 Smoke 22 1015 43 3000 4.63 340 17:30 09.01.2022
5980 Rain 22 1015 49 3000 4.63 330 16:51 09.01.2022
5981 Smoke 22 1014 56 4000 4.12 330 15:56 09.01.2022
5982 Smoke 23 1014 49 4000 3.6 320 15:34 09.01.2022
5983 Smoke 23 1014 49 4000 4.63 320 14:40 09.01.2022
5984 Smoke 24 1013 46 5000 4.12 330 13:50 09.01.2022
5985 Smoke 26 1012 38 5000 5.14 300 12:44 09.01.2022
5986 Smoke 26 1012 38 5000 4.63 300 11:48 09.01.2022
5987 Smoke 26 1012 36 5000 4.12 290 10:49 09.01.2022
5988 Smoke 26 1013 36 5000 2.57 310 09:42 09.01.2022
5989 Haze 26 1015 34 5000 3.09 340 08:31 09.01.2022
5990 Haze 21 1014 73 2500 3.6 350 02:48 09.01.2022
5991 Haze 22 1013 73 2500 1.54 10 01:21 09.01.2022
5992 Haze 23 1013 73 2500 1.54 40 23:38 08.01.2022
5993 Haze 23 1013 68 2500 2.57 340 22:59 08.01.2022
5994 Haze 23 1013 73 2500 3.09 350 22:19 08.01.2022
5995 Haze 23 1013 68 2500 3.6 20 21:25 08.01.2022
5996 Haze 23 1014 73 2500 2.57 40 20:41 08.01.2022
5997 Haze 23 1014 73 2500 2.57 40 20:19 08.01.2022
5998 Haze 23 1014 78 2500 2.06 350 18:34 08.01.2022
5999 Haze 24 1014 73 2500 3.6 340 17:22 08.01.2022
6000 Clouds 24 1014 73 2500 3.09 350 15:52 08.01.2022
6001 Haze 24 1013 73 2500 3.6 330 14:44 08.01.2022
6002 Haze 24 1012 83 2500 4.63 300 13:25 08.01.2022
6003 Haze 26 1012 69 2500 4.63 300 11:25 08.01.2022
6004 Haze 26 1012 73 2500 3.6 310 10:25 08.01.2022
6005 Haze 26 1012 73 2500 3.09 300 09:48 08.01.2022
6006 Clouds 26 1015 73 2200 2.06 150 07:50 08.01.2022
6007 Haze 24 1013 88 2200 2.06 110 02:50 08.01.2022
6008 Haze 24 1012 88 2200 2.06 70 00:41 08.01.2022
6009 Haze 24 1012 88 2200 2.57 120 22:47 07.01.2022
6010 Haze 24 1013 88 2200 0 0 21:18 07.01.2022
6011 Haze 25 1013 83 2500 2.06 120 20:19 07.01.2022
6012 Haze 26 1013 73 2500 0 0 19:23 07.01.2022
6013 Haze 26 1014 73 2500 0 0 18:44 07.01.2022
6014 Haze 26 1014 73 2500 2.57 230 17:28 07.01.2022
6015 Haze 26 1013 73 2500 2.06 240 16:39 07.01.2022
6016 Haze 27 1012 74 2200 3.6 230 14:29 07.01.2022
6017 Haze 27 1011 74 2500 4.12 240 13:41 07.01.2022
6018 Haze 28 1011 65 2500 5.14 240 12:49 07.01.2022
6019 Haze 28 1011 65 2500 5.14 240 12:49 07.01.2022
6020 Haze 28 1011 65 2200 5.14 220 09:42 07.01.2022
6021 Haze 23 1012 83 1800 1.54 120 02:56 07.01.2022
6022 Haze 23 1012 83 2200 2.57 100 01:55 07.01.2022
6023 Haze 23 1011 83 2200 2.06 90 01:28 07.01.2022
6024 Haze 23 1011 83 2200 2.06 90 01:28 07.01.2022
6025 Haze 23 1011 83 2200 2.57 100 00:59 07.01.2022
6026 Haze 24 1011 78 2200 1.54 90 00:28 07.01.2022
6027 Haze 24 1012 78 2200 2.06 50 21:34 06.01.2022
6028 Haze 24 1012 83 2200 2.06 100 20:22 06.01.2022
6029 Haze 24 1013 83 2200 2.57 110 19:45 06.01.2022
6030 Haze 25 1013 73 2200 1.54 40 18:59 06.01.2022
6031 Haze 25 1013 73 2200 1.54 30 17:41 06.01.2022
6032 Haze 26 1013 73 2500 3.09 330 16:57 06.01.2022
6033 Haze 26 1013 73 2500 2.06 320 15:49 06.01.2022
6034 Haze 26 1012 78 2500 4.12 340 15:27 06.01.2022
6035 Haze 26 1012 78 2500 4.12 310 14:55 06.01.2022
6036 Haze 26 1012 78 2500 3.6 310 14:18 06.01.2022
6037 Smoke 27 1011 65 3000 4.63 290 12:56 06.01.2022
6038 Smoke 29 1011 54 3000 4.12 270 11:43 06.01.2022
6039 Smoke 29 1011 51 3000 4.12 250 11:23 06.01.2022
6040 Smoke 29 1012 58 2500 5.14 260 08:59 06.01.2022
6041 Haze 24 1013 83 2200 2.06 30 01:51 06.01.2022
6042 Haze 25 1012 83 2000 1.54 270 23:40 05.01.2022
6043 Mist 24 1013 88 1900 0 0 22:59 05.01.2022
6044 Mist 24 1013 88 1900 0 0 22:40 05.01.2022
6045 Mist 25 1013 83 1900 1.54 130 21:54 05.01.2022
6046 Mist 25 1013 83 1900 2.06 110 21:21 05.01.2022
6047 Mist 25 1013 88 2100 2.06 360 20:21 05.01.2022
6048 Mist 25 1014 88 2100 2.06 20 19:27 05.01.2022
6049 Haze 26 1014 78 2200 2.57 20 17:50 05.01.2022
6050 Haze 27 1014 74 2200 0 0 16:56 05.01.2022
6051 Haze 27 1013 74 2200 3.09 310 15:46 05.01.2022
6052 Mist 27 1012 78 1800 3.6 280 14:28 05.01.2022
6053 Haze 28 1012 69 2200 3.09 280 13:33 05.01.2022
6054 Smoke 29 1011 58 2200 4.63 260 11:46 05.01.2022
6055 Smoke 30 1014 48 1800 3.09 180 08:20 05.01.2022
6056 Haze 28 1015 65 1500 0 0 06:36 05.01.2022
6057 Haze 25 1013 78 2100 0 0 00:59 05.01.2022
6058 Haze 25 1013 78 2100 0 0 23:38 04.01.2022
6059 Haze 25 1013 78 2100 0 0 23:18 04.01.2022
6060 Haze 25 1013 78 2100 0 0 21:32 04.01.2022
6061 Haze 26 1014 69 2100 0 0 20:27 04.01.2022
6062 Haze 27 1015 69 2100 2.06 20 18:35 04.01.2022
6063 Haze 27 1014 65 2200 1.54 340 17:18 04.01.2022
6064 Haze 27 1013 65 1800 0 0 16:31 04.01.2022
6065 Haze 28 1013 61 2100 2.06 310 14:58 04.01.2022
6066 Haze 28 1012 61 2100 2.06 310 14:36 04.01.2022
6067 Smoke 29 1012 58 2200 3.6 290 13:55 04.01.2022
6068 Smoke 31 1010 42 2500 4.63 240 11:44 04.01.2022
6069 Smoke 31 1012 48 2500 3.6 250 10:18 04.01.2022
6070 Smoke 31 1013 48 2500 3.09 290 08:49 04.01.2022
6071 Smoke 28 1016 54 2100 2.06 130 06:28 04.01.2022
6072 Haze 25 1013 69 2500 2.06 60 00:42 04.01.2022
6073 Haze 25 1013 69 2500 0 0 23:49 03.01.2022
6074 Haze 26 1014 61 2500 0 0 22:22 03.01.2022
6075 Haze 26 1014 61 2500 0 0 21:38 03.01.2022
6076 Haze 26 1015 65 2500 0 0 20:41 03.01.2022
6077 Haze 26 1015 61 2500 0 0 18:55 03.01.2022
6078 Smoke 27 1015 57 2500 0 0 18:30 03.01.2022
6079 Smoke 28 1015 57 2500 2.06 10 17:21 03.01.2022
6080 Haze 28 1015 57 2500 1.54 350 16:53 03.01.2022
6081 Smoke 28 1013 57 2500 3.09 300 14:31 03.01.2022
6082 Smoke 29 1012 58 2500 4.63 270 12:52 03.01.2022
6083 Smoke 30 1012 54 2500 5.14 270 11:50 03.01.2022
6084 Smoke 30 1012 48 2500 4.63 250 10:52 03.01.2022
6085 Smoke 32 1013 37 3000 2.57 160 09:28 03.01.2022
6086 Smoke 32 1013 37 3000 2.57 160 09:28 03.01.2022
6087 Smoke 31 1015 40 3000 4.12 110 07:54 03.01.2022
6088 Haze 25 1014 69 2100 2.06 150 03:22 03.01.2022
6089 Haze 25 1013 69 2500 0 0 23:24 02.01.2022
6090 Haze 25 1013 73 2500 2.06 40 22:56 02.01.2022
6091 Haze 25 1013 73 2500 0 0 21:58 02.01.2022
6092 Haze 25 1014 69 2500 0 0 20:50 02.01.2022
6093 Haze 26 1014 69 2500 0 0 20:30 02.01.2022
6094 Haze 26 1014 65 2500 0 0 19:31 02.01.2022
6095 Haze 27 1014 61 2500 2.06 20 18:56 02.01.2022
6096 Smoke 27 1014 61 2500 0 0 17:57 02.01.2022
6097 Smoke 27 1014 61 2500 0 0 17:39 02.01.2022
6098 Smoke 28 1014 57 2500 1.54 330 17:20 02.01.2022
6099 Smoke 28 1014 57 2500 1.54 350 16:28 02.01.2022
6100 Smoke 29 1013 48 2500 4.12 340 14:44 02.01.2022
6101 Smoke 30 1012 51 3000 3.09 300 13:37 02.01.2022
6102 Smoke 31 1012 48 3000 4.12 290 12:32 02.01.2022
6103 Smoke 31 1012 51 3000 3.6 280 11:49 02.01.2022
6104 Smoke 31 1012 48 3000 5.14 240 10:53 02.01.2022
6105 Smoke 32 1013 40 3000 1.03 250 09:57 02.01.2022
6106 Smoke 30 1016 45 2500 3.09 90 07:34 02.01.2022
6107 Haze 25 1015 61 2100 2.06 90 02:56 02.01.2022
6108 Haze 24 1014 73 2200 0 0 23:42 01.01.2022
6109 Haze 24 1014 73 2200 0 0 23:24 01.01.2022
6110 Haze 24 1015 73 2200 0 0 22:25 01.01.2022
6111 Haze 25 1015 69 2500 0 0 21:45 01.01.2022
6112 Haze 24 1015 78 2500 0 0 21:21 01.01.2022
6113 Haze 25 1015 69 2500 2.06 60 20:25 01.01.2022
6114 Haze 26 1016 65 2500 0 0 19:34 01.01.2022
6115 Haze 26 1016 65 2500 1.54 40 18:51 01.01.2022
6116 Smoke 27 1016 61 3000 1.54 330 17:38 01.01.2022
6117 Smoke 27 1015 57 3000 2.57 350 16:34 01.01.2022
6118 Smoke 27 1015 57 3000 2.57 350 16:34 01.01.2022
6119 Smoke 28 1015 54 3000 3.09 360 15:37 01.01.2022
6120 Smoke 28 1014 54 3000 3.09 330 14:25 01.01.2022
6121 Smoke 29 1014 48 3500 2.06 300 13:36 01.01.2022
6122 Smoke 31 1014 37 4000 4.12 280 12:25 01.01.2022
6123 Smoke 31 1014 42 3500 4.12 270 11:25 01.01.2022
6124 Smoke 31 1014 45 3500 3.6 280 10:56 01.01.2022
6125 Smoke 31 1015 42 3000 0 0 09:48 01.01.2022
6126 Smoke 31 1016 42 3000 2.57 100 08:35 01.01.2022
6127 Smoke 29 1017 48 2500 3.09 20 07:56 01.01.2022
6128 Smoke 29 1017 48 2500 3.09 20 07:37 01.01.2022
6129 Smoke 27 1018 57 2500 3.6 90 06:43 01.01.2022
6130 Haze 25 1018 61 2200 3.09 70 04:39 01.01.2022
6131 Haze 24 1017 64 2200 2.57 40 03:52 01.01.2022
6132 Smoke 24 1015 60 2500 3.09 50 23:55 31.12.2021
6133 Haze 25 1016 57 2500 2.57 60 22:24 31.12.2021
6134 Haze 25 1016 61 2500 0 0 21:39 31.12.2021
6135 Haze 26 1017 57 2500 2.06 50 19:48 31.12.2021
6136 Haze 26 1017 57 2500 0 0 19:28 31.12.2021
6137 Haze 27 1017 57 2500 3.6 10 17:56 31.12.2021
6138 Haze 27 1017 57 2500 2.57 40 17:26 31.12.2021
6139 Haze 27 1016 61 2500 2.57 10 16:52 31.12.2021
6140 Haze 27 1016 61 2500 2.57 340 16:18 31.12.2021
6141 Smoke 28 1015 54 3000 2.57 20 15:45 31.12.2021
6142 Smoke 28 1015 54 3000 2.57 20 15:26 31.12.2021
6143 Smoke 28 1015 54 3000 2.57 20 15:26 31.12.2021
6144 Smoke 29 1015 48 3000 2.06 350 14:39 31.12.2021
6145 Smoke 30 1014 42 3000 3.09 30 13:51 31.12.2021
6146 Smoke 31 1013 42 3500 3.09 50 12:51 31.12.2021
6147 Smoke 31 1013 40 3500 2.57 30 12:21 31.12.2021
6148 Smoke 31 1013 40 3500 3.6 330 11:42 31.12.2021
6149 Smoke 31 1014 42 3500 3.6 40 10:55 31.12.2021
6150 Smoke 31 1014 42 3500 3.6 100 10:28 31.12.2021
6151 Smoke 31 1014 42 3500 2.57 70 09:34 31.12.2021
6152 Smoke 30 1016 42 3000 3.09 30 08:52 31.12.2021
6153 Smoke 29 1017 48 2500 3.09 100 07:59 31.12.2021
6154 Haze 25 1017 61 2200 4.63 110 04:55 31.12.2021
6155 Haze 23 1014 64 2200 3.09 70 23:18 30.12.2021
6156 Haze 24 1014 60 2200 3.6 90 22:32 30.12.2021
6157 Haze 24 1015 60 2200 5.14 80 21:39 30.12.2021
6158 Haze 24 1015 60 2200 4.12 90 21:19 30.12.2021
6159 Haze 24 1015 60 2200 3.09 80 20:40 30.12.2021
6160 Haze 24 1015 60 2200 4.12 80 19:56 30.12.2021
6161 Haze 24 1016 60 2200 1.54 60 19:31 30.12.2021
6162 Haze 25 1016 61 2200 4.12 40 18:28 30.12.2021
6163 Haze 26 1015 61 2500 2.57 50 16:53 30.12.2021
6164 Haze 26 1015 61 2500 2.06 30 15:54 30.12.2021
6165 Haze 26 1015 65 2500 2.06 360 15:21 30.12.2021
6166 Haze 26 1014 69 3000 2.57 320 14:36 30.12.2021
6167 Haze 28 1013 57 3500 4.63 280 13:26 30.12.2021
6168 Smoke 30 1012 42 4000 2.06 70 11:58 30.12.2021
6169 Smoke 30 1012 42 3000 2.57 70 10:40 30.12.2021
6170 Smoke 29 1013 45 3000 2.57 80 09:50 30.12.2021
6171 Smoke 26 1016 50 2500 4.63 100 07:25 30.12.2021
6172 Smoke 25 1016 50 2200 5.14 100 06:32 30.12.2021
6173 Haze 22 1015 64 2200 2.06 50 03:41 30.12.2021
6174 Haze 22 1014 64 2500 2.57 30 02:32 30.12.2021
6175 Haze 23 1013 60 2500 4.12 50 23:40 29.12.2021
6176 Haze 23 1014 60 2500 3.09 50 22:59 29.12.2021
6177 Haze 23 1014 60 2500 3.09 30 22:18 29.12.2021
6178 Haze 23 1014 64 2500 1.54 20 21:19 29.12.2021
6179 Haze 24 1014 64 2500 0 0 20:30 29.12.2021
6180 Haze 24 1014 64 2500 0 0 20:30 29.12.2021
6181 Haze 24 1015 64 2500 1.54 350 19:43 29.12.2021
6182 Haze 24 1015 69 2500 2.57 340 18:44 29.12.2021
6183 Haze 24 1015 69 2500 2.06 10 17:53 29.12.2021
6184 Haze 24 1015 73 2500 3.09 360 17:27 29.12.2021
6185 Rain 25 1014 69 2500 1.54 340 16:23 29.12.2021
6186 Haze 25 1013 69 3000 2.06 340 15:42 29.12.2021
6187 Haze 26 1012 61 3000 3.6 310 13:53 29.12.2021
6188 Smoke 27 1012 57 4000 4.12 290 12:36 29.12.2021
6189 Smoke 28 1012 51 4000 4.63 290 11:27 29.12.2021
6190 Smoke 30 1013 32 3500 2.06 50 09:56 29.12.2021
6191 Smoke 29 1015 39 3000 3.6 40 07:51 29.12.2021
6192 Haze 26 1016 50 2500 2.57 80 06:38 29.12.2021
6193 Haze 25 1016 53 2500 0 0 05:59 29.12.2021
6194 Haze 25 1016 53 2500 0 0 05:36 29.12.2021
6195 Haze 22 1013 64 2500 2.06 340 02:40 29.12.2021
6196 Haze 22 1012 64 2500 2.06 10 00:22 29.12.2021
6197 Haze 22 1012 64 2500 1.54 360 23:34 28.12.2021
6198 Haze 23 1013 60 2500 3.09 340 22:42 28.12.2021
6199 Haze 23 1013 60 2500 3.09 340 22:24 28.12.2021
6200 Haze 23 1013 64 2500 2.57 340 21:37 28.12.2021
6201 Haze 23 1013 68 2500 2.06 360 20:39 28.12.2021
6202 Haze 24 1014 64 2500 1.54 340 19:24 28.12.2021
6203 Haze 24 1014 64 2500 3.6 340 18:37 28.12.2021
6204 Haze 25 1014 61 2500 3.09 10 17:59 28.12.2021
6205 Haze 26 1014 69 2200 3.6 20 16:34 28.12.2021
6206 Haze 27 1013 65 2200 2.57 20 15:50 28.12.2021
6207 Haze 26 1013 69 2200 1.54 340 15:21 28.12.2021
6208 Smoke 26 1013 73 2200 1.54 290 14:48 28.12.2021
6209 Smoke 26 1012 69 2200 2.57 290 14:21 28.12.2021
6210 Smoke 28 1012 51 2500 3.09 280 13:42 28.12.2021
6211 Smoke 28 1012 51 2500 3.09 280 13:42 28.12.2021
6212 Smoke 28 1012 51 2500 3.09 280 13:24 28.12.2021
6213 Smoke 29 1012 45 2500 4.63 290 12:49 28.12.2021
6214 Smoke 29 1012 45 2500 4.63 320 11:36 28.12.2021
6215 Smoke 28 1014 51 2500 3.6 300 08:35 28.12.2021
6216 Smoke 28 1015 54 2100 2.57 240 06:42 28.12.2021
6217 Haze 23 1013 78 2200 1.54 50 23:44 27.12.2021
6218 Haze 23 1013 78 2200 1.54 350 23:23 27.12.2021
6219 Haze 24 1013 69 2200 1.54 10 21:42 27.12.2021
6220 Haze 24 1013 73 2200 0 0 21:21 27.12.2021
6221 Haze 25 1014 73 2200 0 0 20:23 27.12.2021
6222 Haze 25 1014 73 2200 0 0 19:41 27.12.2021
6223 Haze 25 1015 69 2200 1.54 290 18:52 27.12.2021
6224 Haze 26 1014 65 2500 2.06 340 17:49 27.12.2021
6225 Haze 26 1014 69 2500 1.54 330 16:55 27.12.2021
6226 Smoke 27 1013 57 3000 1.54 340 15:52 27.12.2021
6227 Smoke 27 1012 61 3000 2.06 290 14:33 27.12.2021
6228 Smoke 29 1012 51 3000 2.06 320 13:40 27.12.2021
6229 Smoke 30 1012 51 3500 3.09 310 12:40 27.12.2021
6230 Smoke 30 1012 48 2500 3.09 260 10:32 27.12.2021
6231 Smoke 30 1013 48 2500 3.09 230 09:57 27.12.2021
6232 Smoke 31 1014 40 2500 2.06 20 08:39 27.12.2021
6233 Smoke 29 1016 48 2200 1.54 20 07:32 27.12.2021
6234 Mist 22 1014 83 2100 0 0 02:24 27.12.2021
6235 Mist 21 1013 88 2200 0 0 23:58 26.12.2021
6236 Mist 21 1013 88 2200 0 0 23:40 26.12.2021
6237 Mist 22 1013 88 2200 0 0 22:36 26.12.2021
6238 Mist 22 1014 83 2200 0 0 20:59 26.12.2021
6239 Haze 23 1015 78 2500 0 0 19:49 26.12.2021
6240 Haze 25 1016 69 2500 1.54 10 18:25 26.12.2021
6241 Haze 25 1016 73 2500 2.57 40 17:30 26.12.2021
6242 Haze 26 1014 69 2500 3.09 340 14:32 26.12.2021
6243 Haze 27 1013 65 3000 4.12 300 13:43 26.12.2021
6244 Haze 27 1013 65 3000 4.12 300 13:20 26.12.2021
6245 Smoke 28 1013 54 3000 3.6 280 12:33 26.12.2021
6246 Smoke 29 1013 54 2500 5.14 270 10:43 26.12.2021
6247 Smoke 29 1014 54 2200 2.57 280 09:28 26.12.2021
6248 Smoke 28 1015 57 2100 4.12 270 08:44 26.12.2021
6249 Smoke 28 1015 51 2100 0 0 07:59 26.12.2021
6250 Mist 21 1013 88 2100 0 0 01:30 26.12.2021
6251 Mist 21 1013 88 2200 0 0 23:58 25.12.2021
6252 Haze 22 1013 83 2200 1.54 90 23:28 25.12.2021
6253 Haze 23 1013 83 2200 1.54 110 22:28 25.12.2021
6254 Haze 22 1013 88 2200 0 0 21:18 25.12.2021
6255 Haze 24 1014 78 2500 0 0 19:28 25.12.2021
6256 Haze 24 1014 78 2500 0 0 18:57 25.12.2021
6257 Haze 24 1014 78 2500 1.54 50 18:21 25.12.2021
6258 Haze 25 1014 69 2500 2.57 330 16:46 25.12.2021
6259 Haze 26 1014 69 2500 3.6 20 15:26 25.12.2021
6260 Haze 26 1013 69 2500 3.09 320 13:43 25.12.2021
6261 Smoke 28 1012 61 2500 3.09 330 12:18 25.12.2021
6262 Smoke 28 1012 51 3000 5.66 250 10:32 25.12.2021
6263 Smoke 28 1013 51 3000 4.63 260 09:48 25.12.2021
6264 Haze 24 1016 73 2100 0 0 05:39 25.12.2021
6265 Mist 21 1013 94 2500 0 0 01:31 25.12.2021
6266 Mist 22 1012 88 2500 0 0 23:55 24.12.2021
6267 Haze 23 1013 83 3000 2.06 160 20:53 24.12.2021
6268 Haze 24 1014 78 3000 1.54 10 19:25 24.12.2021
6269 Haze 24 1014 78 3000 2.06 360 18:23 24.12.2021
6270 Haze 25 1014 73 3000 2.06 330 16:40 24.12.2021
6271 Haze 25 1013 73 3000 2.57 300 15:49 24.12.2021
6272 Haze 25 1013 73 3000 2.57 300 15:20 24.12.2021
6273 Haze 25 1013 73 4000 2.57 320 14:31 24.12.2021
6274 Haze 26 1012 69 4000 3.6 310 13:45 24.12.2021
6275 Haze 26 1012 65 4000 4.12 310 12:55 24.12.2021
6276 Haze 26 1012 65 4000 4.12 310 12:35 24.12.2021
6277 Haze 27 1012 65 3000 4.63 280 11:42 24.12.2021
6278 Haze 27 1012 57 3000 5.14 270 11:24 24.12.2021
6279 Smoke 27 1012 57 3000 4.63 270 10:33 24.12.2021
6280 Smoke 27 1013 50 3000 4.63 280 08:40 24.12.2021
6281 Smoke 27 1014 57 2500 4.63 250 07:58 24.12.2021
6282 Smoke 27 1014 54 2200 0 0 06:44 24.12.2021
6283 Haze 21 1011 83 2500 0 0 00:22 24.12.2021
6284 Haze 21 1011 83 2500 0 0 23:49 23.12.2021
6285 Haze 23 1012 73 2500 0 0 22:51 23.12.2021
6286 Haze 23 1012 73 2500 2.06 350 22:24 23.12.2021
6287 Haze 23 1012 73 2500 0 0 21:39 23.12.2021
6288 Haze 24 1013 73 2500 2.06 20 20:30 23.12.2021
6289 Haze 24 1013 73 2500 1.54 340 19:28 23.12.2021
6290 Haze 25 1013 69 2500 0 0 18:18 23.12.2021
6291 Haze 25 1014 69 2500 2.06 320 17:45 23.12.2021
6292 Haze 26 1013 65 2500 2.06 340 16:27 23.12.2021
6293 Haze 26 1013 61 2500 1.54 340 15:40 23.12.2021
6294 Haze 26 1013 61 2500 2.06 360 15:22 23.12.2021
6295 Smoke 26 1012 61 2500 2.57 310 14:40 23.12.2021
6296 Smoke 27 1011 57 3000 3.09 300 13:31 23.12.2021
6297 Smoke 29 1011 45 3000 3.09 290 11:49 23.12.2021
6298 Smoke 28 1011 44 2500 3.09 260 09:53 23.12.2021
6299 Smoke 28 1011 44 2500 3.09 260 09:53 23.12.2021
6300 Smoke 28 1012 44 2500 4.63 250 09:34 23.12.2021
6301 Smoke 28 1013 44 2500 4.63 250 08:28 23.12.2021
6302 Smoke 26 1014 50 1800 1.54 10 05:39 23.12.2021
6303 Haze 22 1013 73 2100 0 0 02:56 23.12.2021
6304 Haze 23 1012 78 2500 0 0 22:53 22.12.2021
6305 Haze 24 1012 64 2500 0 0 22:19 22.12.2021
6306 Haze 24 1012 73 2500 0 0 21:36 22.12.2021
6307 Haze 24 1012 73 2500 0 0 21:18 22.12.2021
6308 Haze 24 1012 69 2500 0 0 20:40 22.12.2021
6309 Haze 24 1013 64 2500 0 0 19:57 22.12.2021
6310 Haze 25 1013 65 2500 1.54 360 18:55 22.12.2021
6311 Haze 26 1013 69 2500 2.06 340 17:38 22.12.2021
6312 Haze 26 1013 69 2100 0 0 16:25 22.12.2021
6313 Haze 27 1011 61 2100 2.57 310 14:33 22.12.2021
6314 Smoke 28 1011 57 2100 3.6 270 12:55 22.12.2021
6315 Smoke 29 1011 54 2100 4.12 270 11:50 22.12.2021
6316 Smoke 29 1011 58 2100 4.12 250 09:53 22.12.2021
6317 Smoke 30 1012 48 2100 3.6 260 08:34 22.12.2021
6318 Haze 26 1015 61 1600 2.06 110 05:56 22.12.2021
6319 Haze 25 1015 69 1600 2.57 110 05:37 22.12.2021
6320 Haze 25 1015 69 1600 2.57 110 05:19 22.12.2021
6321 Haze 23 1014 78 1600 1.54 140 04:40 22.12.2021
6322 Haze 23 1014 78 1600 0 0 03:54 22.12.2021
6323 Haze 22 1014 83 1600 0 0 03:31 22.12.2021
6324 Haze 23 1013 78 2100 0 0 23:49 21.12.2021
6325 Haze 24 1013 69 2100 1.54 120 22:42 21.12.2021
6326 Haze 24 1014 69 2100 0 0 22:24 21.12.2021
6327 Haze 24 1014 69 2100 0 0 21:42 21.12.2021
6328 Haze 24 1014 69 2200 1.54 110 20:44 21.12.2021
6329 Haze 25 1015 65 2200 0 0 20:20 21.12.2021
6330 Haze 25 1015 65 2200 0 0 20:20 21.12.2021
6331 Haze 25 1015 69 2500 0 0 19:40 21.12.2021
6332 Haze 25 1016 69 2500 1.54 40 18:33 21.12.2021
6333 Haze 26 1016 69 2500 2.06 350 17:59 21.12.2021
6334 Haze 26 1016 69 2500 1.54 330 17:40 21.12.2021
6335 Haze 26 1015 69 2500 3.09 310 15:46 21.12.2021
6336 Haze 27 1014 65 2200 2.57 310 14:29 21.12.2021
6337 Smoke 28 1013 57 2500 3.6 290 13:42 21.12.2021
6338 Smoke 29 1013 45 2500 4.12 270 12:39 21.12.2021
6339 Smoke 30 1012 45 2100 5.14 260 10:52 21.12.2021
6340 Smoke 31 1013 33 2100 2.06 230 09:56 21.12.2021
6341 Smoke 30 1014 37 2000 2.06 130 08:57 21.12.2021
6342 Smoke 29 1015 42 2000 2.06 110 07:45 21.12.2021
6343 Smoke 29 1016 42 2000 2.57 100 07:24 21.12.2021
6344 Haze 24 1016 64 1500 2.06 120 04:37 21.12.2021
6345 Haze 22 1014 78 2100 2.57 120 02:31 21.12.2021
6346 Haze 23 1013 73 2200 2.06 40 23:55 20.12.2021
6347 Haze 23 1014 78 2500 0 0 22:44 20.12.2021
6348 Haze 23 1014 78 2500 0 0 22:25 20.12.2021
6349 Haze 24 1014 73 2500 2.06 110 21:28 20.12.2021
6350 Haze 25 1015 69 2500 2.06 110 20:55 20.12.2021
6351 Haze 25 1015 69 2500 2.06 150 20:32 20.12.2021
6352 Haze 25 1015 65 2500 1.54 10 19:38 20.12.2021
6353 Haze 25 1015 65 2500 1.54 10 19:20 20.12.2021
6354 Haze 26 1016 61 2500 3.09 50 18:33 20.12.2021
6355 Haze 26 1016 61 2500 3.09 40 17:51 20.12.2021
6356 Haze 26 1015 61 2500 2.57 340 16:47 20.12.2021
6357 Smoke 27 1015 57 2200 3.6 340 16:25 20.12.2021
6358 Smoke 27 1014 61 2200 4.12 340 15:40 20.12.2021
6359 Smoke 27 1013 61 1800 3.09 330 14:40 20.12.2021
6360 Smoke 31 1012 42 2200 2.57 300 12:41 20.12.2021
6361 Smoke 31 1013 33 3000 2.06 70 10:51 20.12.2021
6362 Smoke 30 1014 32 3000 3.09 60 09:44 20.12.2021
6363 Smoke 30 1014 39 2500 2.57 20 08:56 20.12.2021
6364 Smoke 30 1015 39 2500 2.57 100 08:38 20.12.2021
6365 Smoke 29 1016 39 2200 3.6 90 07:44 20.12.2021
6366 Smoke 27 1017 44 2200 4.12 100 06:39 20.12.2021
6367 Haze 21 1015 68 2500 2.57 120 02:32 20.12.2021
6368 Haze 24 1014 64 2500 2.57 60 23:37 19.12.2021
6369 Haze 23 1014 73 2500 2.06 50 22:44 19.12.2021
6370 Haze 24 1015 69 2500 2.57 80 21:44 19.12.2021
6371 Haze 24 1015 69 2500 2.06 110 21:25 19.12.2021
6372 Haze 24 1015 73 2500 0 0 20:24 19.12.2021
6373 Haze 25 1016 65 2500 2.06 90 19:43 19.12.2021
6374 Haze 25 1016 65 2500 1.54 0 18:50 19.12.2021
6375 Haze 26 1016 61 2500 2.06 50 18:20 19.12.2021
6376 Haze 26 1016 65 2500 2.57 10 17:45 19.12.2021
6377 Haze 26 1015 69 2500 1.54 10 16:46 19.12.2021
6378 Haze 26 1015 69 2500 1.54 10 16:46 19.12.2021
6379 Haze 27 1015 61 2500 3.09 350 15:56 19.12.2021
6380 Haze 27 1014 61 2500 3.09 340 15:25 19.12.2021
6381 Haze 27 1014 61 2500 2.57 350 14:48 19.12.2021
6382 Smoke 29 1013 45 3000 3.6 300 13:38 19.12.2021
6383 Smoke 29 1013 51 3000 3.6 280 12:59 19.12.2021
6384 Smoke 30 1013 42 3000 3.6 280 12:32 19.12.2021
6385 Smoke 30 1013 45 3000 4.63 260 11:39 19.12.2021
6386 Clear 27 1013 46 10000 2.97 301 10:51 19.12.2021
6387 Clear 27 1014 43 10000 1.41 281 10:23 19.12.2021
6388 Smoke 31 1015 35 2500 3.09 120 08:55 19.12.2021
6389 Smoke 28 1017 44 2200 3.6 70 07:35 19.12.2021
6390 Haze 23 1015 64 2500 0 0 02:30 19.12.2021
6391 Haze 24 1014 69 2500 0 0 00:55 19.12.2021
6392 Haze 25 1013 69 2500 1.54 110 23:21 18.12.2021
6393 Haze 25 1014 69 2500 1.54 60 22:29 18.12.2021
6394 Haze 25 1014 69 2500 0 0 21:51 18.12.2021
6395 Haze 25 1014 65 2500 2.06 120 21:30 18.12.2021
6396 Haze 25 1014 69 2500 0 0 20:43 18.12.2021
6397 Haze 26 1015 65 2500 2.57 10 19:50 18.12.2021
6398 Haze 26 1015 69 2500 2.06 30 18:26 18.12.2021
6399 Haze 26 1015 69 2500 0 0 17:50 18.12.2021
6400 Haze 26 1015 69 2200 2.57 30 16:55 18.12.2021
6401 Haze 27 1015 65 2200 2.57 340 16:21 18.12.2021
6402 Haze 27 1014 61 2200 2.57 350 15:25 18.12.2021
6403 Haze 28 1013 61 2100 2.06 310 14:19 18.12.2021
6404 Smoke 29 1012 54 2200 4.12 280 12:21 18.12.2021
6405 Smoke 30 1013 51 2200 5.14 260 10:43 18.12.2021
6406 Smoke 31 1014 48 2200 3.6 290 09:32 18.12.2021
6407 Smoke 29 1015 45 2000 2.06 40 08:37 18.12.2021
6408 Smoke 29 1016 45 1800 2.57 120 07:42 18.12.2021
6409 Mist 23 1014 78 2200 0 0 01:48 18.12.2021
6410 Mist 23 1013 83 2200 0 0 00:23 18.12.2021
6411 Mist 23 1013 83 2200 0 0 23:35 17.12.2021
6412 Mist 24 1014 78 2200 0 0 21:54 17.12.2021
6413 Mist 24 1015 78 2500 0 0 20:50 17.12.2021
6414 Haze 25 1015 73 2500 1.54 190 20:21 17.12.2021
6415 Haze 25 1015 69 2500 0 0 18:50 17.12.2021
6416 Haze 26 1015 65 2500 1.54 350 18:19 17.12.2021
6417 Haze 26 1015 69 2500 2.06 70 17:20 17.12.2021
6418 Haze 26 1015 65 2500 2.57 340 16:29 17.12.2021
6419 Haze 27 1014 65 2500 2.06 350 15:51 17.12.2021
6420 Haze 27 1014 65 2500 1.54 340 15:18 17.12.2021
6421 Haze 27 1013 65 2500 2.57 290 14:34 17.12.2021
6422 Haze 29 1012 58 2500 3.09 320 12:38 17.12.2021
6423 Haze 29 1012 58 2500 3.09 290 11:18 17.12.2021
6424 Haze 29 1013 61 2100 5.66 250 09:52 17.12.2021
6425 Haze 29 1014 61 1800 4.12 270 08:58 17.12.2021
6426 Haze 29 1015 61 1800 3.09 250 08:19 17.12.2021
6427 Haze 25 1017 69 1800 2.57 50 05:21 17.12.2021
6428 Haze 23 1015 78 1600 0 0 02:51 17.12.2021
6429 Haze 23 1014 88 2200 0 0 22:52 16.12.2021
6430 Haze 24 1014 83 2200 0 0 22:22 16.12.2021
6431 Haze 24 1015 78 2200 0 0 21:44 16.12.2021
6432 Haze 24 1015 78 2500 0 0 20:48 16.12.2021
6433 Haze 24 1015 78 2500 0 0 20:22 16.12.2021
6434 Haze 25 1015 73 2500 2.06 350 19:31 16.12.2021
6435 Haze 25 1015 73 2500 0 0 18:36 16.12.2021
6436 Haze 26 1015 69 2500 0 0 17:48 16.12.2021
6437 Haze 26 1015 69 2500 2.06 330 16:37 16.12.2021
6438 Haze 26 1015 69 2500 2.06 330 16:18 16.12.2021
6439 Haze 27 1013 65 2100 3.09 320 13:47 16.12.2021
6440 Smoke 29 1012 58 2100 3.6 290 12:30 16.12.2021
6441 Smoke 29 1012 58 2500 4.63 260 11:19 16.12.2021
6442 Smoke 29 1012 58 2500 4.63 260 10:44 16.12.2021
6443 Smoke 29 1013 58 2500 4.63 270 09:50 16.12.2021
6444 Haze 28 1016 57 2100 2.06 10 07:18 16.12.2021
6445 Haze 27 1016 57 2100 2.06 70 06:18 16.12.2021
6446 Haze 22 1013 83 2100 1.54 110 23:59 15.12.2021
6447 Haze 23 1013 78 2100 0 0 23:18 15.12.2021
6448 Haze 24 1013 69 2200 2.06 120 22:21 15.12.2021
6449 Haze 24 1013 69 2200 2.06 120 22:21 15.12.2021
6450 Haze 24 1014 69 2100 0 0 21:44 15.12.2021
6451 Haze 24 1014 69 2100 0 0 21:24 15.12.2021
6452 Haze 24 1014 69 2200 0 0 19:54 15.12.2021
6453 Haze 24 1014 69 2200 0 0 19:19 15.12.2021
6454 Haze 25 1015 65 2200 2.06 340 18:24 15.12.2021
6455 Haze 25 1014 65 2200 1.54 320 17:46 15.12.2021
6456 Haze 25 1014 65 2500 2.57 340 17:21 15.12.2021
6457 Haze 26 1013 65 2500 2.57 330 15:49 15.12.2021
6458 Haze 26 1013 65 2500 2.06 310 15:31 15.12.2021
6459 Haze 27 1013 65 2500 2.57 330 14:59 15.12.2021
6460 Haze 27 1012 61 2500 3.09 310 13:45 15.12.2021
6461 Smoke 28 1011 54 2500 3.6 290 11:52 15.12.2021
6462 Smoke 29 1012 58 2500 5.14 260 10:22 15.12.2021
6463 Smoke 28 1014 57 2200 4.63 260 08:27 15.12.2021
6464 Smoke 26 1015 61 1700 1.54 0 05:54 15.12.2021
6465 Haze 23 1012 68 2300 2.06 90 00:39 15.12.2021
6466 Haze 23 1012 68 2500 0 0 23:31 14.12.2021
6467 Smoke 24 1012 60 2500 0 0 22:45 14.12.2021
6468 Smoke 24 1013 57 2500 0 0 21:47 14.12.2021
6469 Smoke 25 1014 57 2500 1.54 350 20:23 14.12.2021
6470 Smoke 25 1014 61 2500 2.06 20 19:37 14.12.2021
6471 Smoke 25 1014 61 2500 1.54 330 18:39 14.12.2021
6472 Smoke 26 1014 57 2500 2.06 10 17:57 14.12.2021
6473 Smoke 26 1014 57 2500 3.6 330 16:49 14.12.2021
6474 Smoke 26 1014 61 2500 3.6 340 16:30 14.12.2021
6475 Smoke 27 1012 61 2500 4.12 320 14:32 14.12.2021
6476 Smoke 28 1012 44 3000 3.09 300 13:22 14.12.2021
6477 Smoke 30 1011 37 3000 4.63 300 11:51 14.12.2021
6478 Smoke 30 1011 37 3000 5.14 270 11:22 14.12.2021
6479 Smoke 30 1012 37 3000 5.14 280 09:55 14.12.2021
6480 Smoke 30 1012 37 3000 3.09 260 09:19 14.12.2021
6481 Smoke 31 1014 35 3000 4.12 330 08:22 14.12.2021
6482 Smoke 30 1014 39 2500 0 0 07:39 14.12.2021
6483 Haze 24 1013 60 3000 0 0 00:35 14.12.2021
6484 Haze 24 1013 60 3000 0 0 22:33 13.12.2021
6485 Smoke 25 1013 50 3000 1.54 150 21:49 13.12.2021
6486 Smoke 25 1013 50 3000 3.09 100 20:58 13.12.2021
6487 Smoke 25 1014 53 3000 2.06 130 20:29 13.12.2021
6488 Smoke 25 1014 50 3000 3.09 120 19:51 13.12.2021
6489 Smoke 27 1014 41 3000 2.06 50 17:55 13.12.2021
6490 Smoke 27 1014 41 3000 3.6 80 17:19 13.12.2021
6491 Smoke 28 1013 39 3000 3.09 360 15:49 13.12.2021
6492 Smoke 28 1013 39 3500 4.12 330 14:55 13.12.2021
6493 Smoke 30 1012 37 4000 4.12 330 13:38 13.12.2021
6494 Smoke 30 1011 35 3000 4.63 330 12:41 13.12.2021
6495 Smoke 31 1012 37 3000 4.63 310 11:54 13.12.2021
6496 Smoke 31 1012 42 2500 1.54 290 11:35 13.12.2021
6497 Smoke 32 1012 37 2500 2.06 280 10:41 13.12.2021
6498 Smoke 32 1013 40 2500 0 0 08:52 13.12.2021
6499 Smoke 31 1015 42 2500 2.06 20 07:37 13.12.2021
6500 Haze 28 1016 57 2500 2.06 40 05:23 13.12.2021
6501 Haze 26 1013 73 2500 0 0 00:42 13.12.2021
6502 Haze 27 1013 69 2200 0 0 21:59 12.12.2021
6503 Haze 27 1013 69 2200 0 0 21:33 12.12.2021
6504 Haze 27 1014 65 2500 0 0 19:38 12.12.2021
6505 Haze 28 1014 61 2500 2.57 300 18:28 12.12.2021
6506 Haze 28 1014 61 2500 1.54 280 16:58 12.12.2021
6507 Haze 28 1014 61 2500 2.57 330 16:27 12.12.2021
6508 Haze 28 1014 65 2200 1.54 0 15:41 12.12.2021
6509 Haze 28 1013 65 2200 2.57 320 15:21 12.12.2021
6510 Smoke 29 1013 58 2200 3.09 300 14:28 12.12.2021
6511 Smoke 31 1012 48 2500 3.6 330 12:56 12.12.2021
6512 Smoke 31 1012 42 2500 3.09 300 12:26 12.12.2021
6513 Smoke 32 1011 45 2500 4.12 270 11:43 12.12.2021
6514 Smoke 32 1012 43 3000 4.63 250 10:56 12.12.2021
6515 Smoke 33 1012 33 3000 3.09 120 10:22 12.12.2021
6516 Smoke 32 1013 37 3000 2.57 130 08:54 12.12.2021
6517 Smoke 30 1015 45 2500 3.6 90 07:31 12.12.2021
6518 Smoke 29 1016 45 2200 3.6 120 05:56 12.12.2021
6519 Haze 27 1016 57 2200 1.54 90 04:55 12.12.2021
6520 Haze 25 1014 73 2500 0 0 02:58 12.12.2021
6521 Haze 26 1013 73 2500 0 0 23:31 11.12.2021
6522 Haze 26 1014 73 2500 0 0 22:22 11.12.2021
6523 Haze 26 1014 73 2500 0 0 21:51 11.12.2021
6524 Haze 27 1015 69 2500 1.54 110 20:29 11.12.2021
6525 Haze 27 1015 65 2500 2.06 140 19:21 11.12.2021
6526 Haze 27 1015 69 2500 2.06 160 18:51 11.12.2021
6527 Haze 28 1015 65 2500 1.03 0 18:19 11.12.2021
6528 Haze 28 1015 65 2500 3.09 350 17:20 11.12.2021
6529 Haze 28 1015 61 2500 3.6 340 15:52 11.12.2021
6530 Haze 29 1014 61 2500 3.09 330 15:18 11.12.2021
6531 Smoke 31 1012 48 3500 3.09 320 12:49 11.12.2021
6532 Smoke 32 1012 43 3500 3.09 260 11:24 11.12.2021
6533 Smoke 33 1012 33 3500 2.06 350 09:45 11.12.2021
6534 Smoke 31 1015 45 2500 4.12 80 07:49 11.12.2021
6535 Haze 26 1013 57 2500 3.6 90 02:20 11.12.2021
6536 Haze 26 1012 69 2500 0 0 23:50 10.12.2021
6537 Haze 26 1012 69 2500 0 0 23:18 10.12.2021
6538 Haze 26 1013 73 2500 0 0 21:56 10.12.2021
6539 Haze 27 1014 69 2500 1.54 90 20:57 10.12.2021
6540 Haze 28 1015 65 2500 0 0 19:21 10.12.2021
6541 Haze 28 1015 65 2500 0 0 17:59 10.12.2021
6542 Haze 28 1015 65 2500 4.12 10 16:56 10.12.2021
6543 Haze 28 1014 69 2500 3.09 10 16:28 10.12.2021
6544 Haze 28 1014 65 2500 3.09 350 15:40 10.12.2021
6545 Haze 29 1013 58 2500 4.12 340 15:21 10.12.2021
6546 Haze 30 1013 62 2500 2.57 330 13:51 10.12.2021
6547 Haze 30 1012 62 2500 4.12 330 13:26 10.12.2021
6548 Smoke 31 1012 58 3000 3.6 330 12:36 10.12.2021
6549 Smoke 34 1012 36 3500 0 0 11:28 10.12.2021
6550 Smoke 33 1012 38 3500 3.09 130 10:26 10.12.2021
6551 Smoke 33 1014 40 3000 2.57 30 08:52 10.12.2021
6552 Smoke 31 1016 42 2500 4.12 110 06:50 10.12.2021
6553 Haze 25 1014 69 2100 0 0 02:48 10.12.2021
6554 Haze 25 1014 69 2100 0 0 02:48 10.12.2021
6555 Haze 25 1013 73 2100 1.54 140 00:32 10.12.2021
6556 Haze 25 1013 73 2100 2.06 130 23:22 09.12.2021
6557 Haze 26 1014 73 2100 0 0 22:26 09.12.2021
6558 Haze 25 1014 78 2100 0 0 21:59 09.12.2021
6559 Haze 26 1014 73 2100 2.06 150 21:18 09.12.2021
6560 Haze 26 1015 73 2100 1.54 0 20:22 09.12.2021
6561 Haze 26 1015 73 2100 1.54 10 19:21 09.12.2021
6562 Haze 27 1015 69 2100 2.06 40 18:48 09.12.2021
6563 Haze 27 1015 69 2100 2.57 340 17:52 09.12.2021
6564 Haze 28 1015 65 2100 3.6 350 17:26 09.12.2021
6565 Haze 28 1015 65 2200 4.12 340 16:55 09.12.2021
6566 Smoke 28 1014 61 2200 2.06 330 15:46 09.12.2021
6567 Haze 29 1014 54 2500 3.6 320 14:48 09.12.2021
6568 Smoke 30 1013 58 2500 3.6 320 13:23 09.12.2021
6569 Smoke 31 1013 51 2500 3.6 290 12:40 09.12.2021
6570 Smoke 32 1012 48 3000 4.12 290 11:24 09.12.2021
6571 Smoke 33 1013 38 3000 0 0 09:44 09.12.2021
6572 Haze 31 1015 45 2500 3.6 100 06:50 09.12.2021
6573 Haze 26 1014 61 2100 2.57 110 03:41 09.12.2021
6574 Haze 26 1012 69 2500 0 0 23:45 08.12.2021
6575 Haze 26 1012 69 2500 2.06 40 23:21 08.12.2021
6576 Haze 26 1012 69 2500 1.54 110 22:49 08.12.2021
6577 Haze 26 1012 73 2500 1.54 140 21:46 08.12.2021
6578 Haze 26 1013 69 2500 0 0 21:27 08.12.2021
6579 Haze 27 1013 61 2500 2.57 50 19:59 08.12.2021
6580 Haze 27 1013 65 2500 3.6 40 19:36 08.12.2021
6581 Haze 27 1013 65 2500 2.57 40 18:53 08.12.2021
6582 Haze 27 1013 69 2500 2.57 20 17:47 08.12.2021
6583 Haze 28 1013 69 1700 2.06 320 15:58 08.12.2021
6584 Haze 29 1012 61 1700 2.06 340 15:29 08.12.2021
6585 Haze 29 1012 61 1800 3.09 340 14:40 08.12.2021
6586 Smoke 31 1011 55 3000 4.63 230 12:32 08.12.2021
6587 Smoke 33 1011 33 3000 3.09 130 10:32 08.12.2021
6588 Smoke 32 1011 37 2500 3.6 110 09:25 08.12.2021
6589 Smoke 30 1013 45 2200 3.6 100 07:26 08.12.2021
6590 Haze 27 1014 54 2200 4.12 80 04:57 08.12.2021
6591 Smoke 27 1011 57 2500 3.09 30 23:34 07.12.2021
6592 Smoke 27 1011 57 2500 3.09 70 21:55 07.12.2021
6593 Haze 26 1012 69 2500 2.57 70 21:23 07.12.2021
6594 Haze 27 1012 65 2500 1.54 70 20:24 07.12.2021
6595 Haze 28 1012 61 2500 1.54 150 18:47 07.12.2021
6596 Haze 29 1013 58 2500 2.57 60 17:53 07.12.2021
6597 Haze 28 1013 65 2500 1.03 0 17:20 07.12.2021
6598 Haze 28 1012 74 1700 1.54 320 16:31 07.12.2021
6599 Haze 28 1012 74 1700 3.6 330 15:34 07.12.2021
6600 Smoke 29 1011 65 1800 2.57 320 14:30 07.12.2021
6601 Smoke 31 1011 51 2200 3.09 340 12:56 07.12.2021
6602 Smoke 31 1011 51 2200 3.09 340 12:56 07.12.2021
6603 Smoke 33 1010 43 2200 3.6 290 12:21 07.12.2021
6604 Smoke 33 1011 35 2500 2.57 80 10:43 07.12.2021
6605 Smoke 31 1012 45 2500 4.12 120 08:42 07.12.2021
6606 Smoke 28 1015 54 2200 4.12 120 06:21 07.12.2021
6607 Smoke 28 1015 54 2200 3.6 120 05:42 07.12.2021
6608 Haze 26 1011 69 2200 2.57 30 23:58 06.12.2021
6609 Haze 25 1011 78 2200 1.54 80 22:58 06.12.2021
6610 Haze 25 1011 78 2500 2.06 90 22:38 06.12.2021
6611 Haze 25 1012 78 2100 2.06 100 21:54 06.12.2021
6612 Haze 26 1012 78 2100 2.57 150 20:44 06.12.2021
6613 Haze 26 1012 73 2200 0 0 20:26 06.12.2021
6614 Haze 27 1013 69 2200 1.54 20 19:23 06.12.2021
6615 Haze 27 1013 69 2200 2.57 20 18:29 06.12.2021
6616 Haze 28 1013 65 2200 2.57 10 17:51 06.12.2021
6617 Haze 28 1013 65 2200 2.57 40 16:56 06.12.2021
6618 Haze 28 1012 65 1700 3.09 10 15:45 06.12.2021
6619 Haze 29 1011 65 2000 2.57 30 13:47 06.12.2021
6620 Haze 29 1010 65 2500 4.12 290 12:40 06.12.2021
6621 Haze 30 1010 62 3500 4.12 310 11:54 06.12.2021
6622 Smoke 31 1012 45 3000 1.54 30 09:35 06.12.2021
6623 Smoke 30 1014 45 2500 0 0 06:43 06.12.2021
6624 Mist 24 1011 88 2500 2.06 60 23:52 05.12.2021
6625 Haze 25 1012 78 2500 1.54 50 21:52 05.12.2021
6626 Haze 25 1012 83 2500 1.54 60 21:24 05.12.2021
6627 Haze 25 1013 83 2500 1.54 30 20:19 05.12.2021
6628 Haze 26 1013 83 2500 2.06 60 19:49 05.12.2021
6629 Haze 26 1013 83 2500 1.54 40 19:21 05.12.2021
6630 Haze 26 1013 78 2500 0 0 18:20 05.12.2021
6631 Haze 27 1013 74 3000 0 0 17:49 05.12.2021
6632 Haze 27 1013 74 3000 2.06 50 16:52 05.12.2021
6633 Smoke 28 1013 69 3000 2.57 330 16:27 05.12.2021
6634 Smoke 28 1012 65 3000 1.54 310 15:58 05.12.2021
6635 Smoke 27 1012 65 3000 3.09 240 14:45 05.12.2021
6636 Smoke 28 1011 65 3000 3.09 250 14:26 05.12.2021
6637 Smoke 29 1011 51 3500 3.6 250 13:28 05.12.2021
6638 Smoke 30 1010 54 4000 4.63 240 12:40 05.12.2021
6639 Smoke 30 1010 54 4000 4.63 240 12:21 05.12.2021
6640 Haze 29 1010 58 4000 4.63 250 11:35 05.12.2021
6641 Smoke 30 1011 58 5000 4.63 250 10:19 05.12.2021
6642 Smoke 31 1012 45 3000 4.12 170 08:45 05.12.2021
6643 Fog 24 1014 100 500 2.57 130 04:56 05.12.2021
6644 Mist 25 1012 94 1800 2.06 80 01:23 05.12.2021
6645 Mist 25 1012 94 2200 0 0 22:24 04.12.2021
6646 Haze 25 1012 94 2500 0 0 21:36 04.12.2021
6647 Haze 25 1012 94 2500 0 0 20:32 04.12.2021
6648 Haze 26 1013 89 2500 0 0 19:33 04.12.2021
6649 Haze 27 1013 83 3000 0 0 18:23 04.12.2021
6650 Haze 27 1013 83 3000 2.06 190 17:45 04.12.2021
6651 Haze 27 1013 83 3000 1.54 0 17:20 04.12.2021
6652 Haze 27 1013 83 3000 0 0 16:42 04.12.2021
6653 Haze 27 1012 83 3000 0 0 16:24 04.12.2021
6654 Haze 29 1010 70 3500 3.09 280 12:44 04.12.2021
6655 Haze 30 1010 66 2500 4.63 240 11:34 04.12.2021
6656 Haze 30 1010 70 2500 4.12 250 10:57 04.12.2021
6657 Haze 30 1011 62 2500 2.06 250 09:40 04.12.2021
6658 Haze 30 1012 58 2500 2.57 160 08:28 04.12.2021
6659 Mist 26 1013 83 1700 1.54 130 04:43 04.12.2021
6660 Haze 24 1011 88 2200 0 0 00:49 04.12.2021
6661 Haze 25 1011 94 2500 0 0 23:33 03.12.2021
6662 Haze 25 1011 94 2500 1.54 30 22:51 03.12.2021
6663 Haze 25 1011 88 2500 0 0 21:54 03.12.2021
6664 Haze 25 1011 88 2500 0 0 21:20 03.12.2021
6665 Haze 25 1012 88 2500 0 0 20:42 03.12.2021
6666 Haze 26 1012 83 2500 2.06 300 19:21 03.12.2021
6667 Haze 27 1013 83 2500 1.54 30 18:22 03.12.2021
6668 Haze 26 1013 89 2500 0 0 17:30 03.12.2021
6669 Haze 28 1010 78 3000 3.09 290 13:38 03.12.2021
6670 Haze 28 1009 69 3000 3.09 250 12:30 03.12.2021
6671 Haze 29 1009 65 3000 3.09 260 11:19 03.12.2021
6672 Haze 29 1010 70 2500 4.63 280 09:21 03.12.2021
6673 Haze 29 1012 70 3000 2.06 190 07:44 03.12.2021
6674 Haze 28 1013 69 2500 3.09 140 06:41 03.12.2021
6675 Haze 24 1010 88 2500 0 0 00:49 03.12.2021
6676 Haze 23 1009 94 2500 0 0 23:54 02.12.2021
6677 Haze 24 1009 88 2500 0 0 23:34 02.12.2021
6678 Haze 24 1010 88 2500 0 0 21:41 02.12.2021
6679 Haze 24 1010 88 2500 0 0 20:46 02.12.2021
6680 Haze 24 1011 88 2500 1.54 40 20:26 02.12.2021
6681 Haze 24 1011 88 2500 2.57 90 19:23 02.12.2021
6682 Haze 24 1011 88 2500 2.57 50 17:21 02.12.2021
6683 Mist 25 1010 94 2100 3.09 40 15:41 02.12.2021
6684 Mist 25 1010 94 2100 3.09 40 15:41 02.12.2021
6685 Drizzle 25 1009 94 2100 2.06 60 14:57 02.12.2021
6686 Mist 25 1008 94 2100 3.6 40 13:45 02.12.2021
6687 Rain 25 1008 94 2100 1.54 40 12:50 02.12.2021
6688 Haze 25 1008 88 2200 0 0 11:53 02.12.2021
6689 Haze 26 1009 69 2500 4.63 100 09:28 02.12.2021
6690 Haze 25 1010 69 2500 3.6 100 08:20 02.12.2021
6691 Clouds 19 1009 94 2200 4.12 90 01:58 02.12.2021
6692 Rain 19 1009 94 2200 4.12 80 00:50 02.12.2021
6693 Rain 19 1009 94 2100 4.63 70 22:34 01.12.2021
6694 Rain 19 1010 94 2200 3.6 70 21:55 01.12.2021
6695 Rain 20 1011 88 1200 6.69 70 20:35 01.12.2021
6696 Rain 20 1011 88 2500 6.17 50 19:51 01.12.2021
6697 Rain 20 1012 94 2100 4.63 80 19:21 01.12.2021
6698 Rain 20 1012 94 2200 3.09 40 17:42 01.12.2021
6699 Rain 21 1012 94 1600 3.09 40 16:38 01.12.2021
6700 Rain 21 1010 94 1200 5.14 60 14:49 01.12.2021
6701 Rain 21 1010 94 1200 6.69 60 13:44 01.12.2021
6702 Rain 21 1010 94 1200 2.06 50 11:42 01.12.2021
6703 Rain 22 1011 94 800 4.12 60 10:42 01.12.2021
6704 Clouds 22 1012 94 1600 2.57 40 08:55 01.12.2021
6705 Clouds 22 1012 94 1800 2.06 40 08:26 01.12.2021
6706 Rain 22 1013 83 1800 3.09 90 07:33 01.12.2021
6707 Rain 24 1012 69 2200 4.63 110 04:20 01.12.2021
6708 Rain 26 1011 57 2500 2.06 60 03:39 01.12.2021
6709 Smoke 27 1009 54 3000 3.09 60 00:51 01.12.2021
6710 Haze 27 1010 57 3000 2.06 40 23:37 30.11.2021
6711 Haze 27 1010 57 3000 2.57 40 22:48 30.11.2021
6712 Haze 28 1011 57 3000 2.06 60 20:59 30.11.2021
6713 Haze 28 1011 57 3000 2.57 50 20:34 30.11.2021
6714 Haze 28 1011 57 3000 2.06 50 19:53 30.11.2021
6715 Smoke 28 1012 57 3000 1.54 40 19:30 30.11.2021
6716 Smoke 29 1012 54 3000 2.57 40 18:33 30.11.2021
6717 Smoke 29 1012 54 3000 0 0 16:34 30.11.2021
6718 Smoke 30 1009 51 3000 0 0 14:35 30.11.2021
6719 Smoke 31 1009 48 3000 2.06 130 13:52 30.11.2021
6720 Smoke 31 1009 45 3000 2.06 130 13:25 30.11.2021
6721 Smoke 32 1009 43 3000 2.57 130 12:45 30.11.2021
6722 Smoke 33 1009 40 3000 3.6 130 11:27 30.11.2021
6723 Smoke 33 1009 38 3500 3.6 110 10:53 30.11.2021
6724 Smoke 33 1009 38 3500 2.06 90 10:30 30.11.2021
6725 Smoke 32 1011 40 3000 3.09 80 08:51 30.11.2021
6726 Smoke 31 1012 42 3000 2.57 70 08:20 30.11.2021
6727 Smoke 31 1013 40 3000 2.57 50 07:40 30.11.2021
6728 Smoke 26 1011 50 3000 2.06 80 02:29 30.11.2021
6729 Smoke 26 1011 50 3000 2.06 40 01:40 30.11.2021
6730 Smoke 25 10